<?xml version="1.0" encoding="UTF-8"?>
<gpx xmlns="http://www.topografix.com/GPX/1/1" xmlns:dkl="http://www.gpsware.de/DKL/1/1" xmlns:rtx="http://www.bike-gps.de/RTX/1/1" version="1.1" creator="KOMPASS Digital Map" xmlns:xsi="http://www.w3.org/2001/XMLSchema-instance" xsi:schemaLocation="http://www.topografix.com/GPX/1/1 http://www.topografix.com/GPX/1/1/gpx.xsd">
 <metadata>
 <name>KOMPASS Digital Map Track</name>
 <desc> </desc>
 <time>2010-06-24T17:40:44Z</time>
 <bounds minlat="47.194260" minlon="12.316382" maxlat="47.293388" maxlon="12.947767"/>
 </metadata>
 <trk>
 <name>2010_Habachtal_Ta</name>
 <cmt>Habachtal</cmt>
 <extensions>
 <dkl:dkl>
 <dkl:format_version>1.1</dkl:format_version>
 <dkl:format>
 <dkl:color>FF0000</dkl:color>
 <dkl:style>00000000</dkl:style>
 <dkl:strength>3</dkl:strength>
 <dkl:transparent>0</dkl:transparent>
 </dkl:format>
 </dkl:dkl>
 </extensions>
 <trkseg>
 <trkpt lat="47.268436" lon="12.339884">
 <ele>823.30</ele>
 <time>2010-06-24T08:12:22Z</time>
 </trkpt>
 <trkpt lat="47.268448" lon="12.339869">
 <ele>823.66</ele>
 <time>2010-06-24T08:15:42Z</time>
 </trkpt>
 <trkpt lat="47.268448" lon="12.339865">
 <ele>823.72</ele>
 <time>2010-06-24T08:15:43Z</time>
 </trkpt>
 <trkpt lat="47.268448" lon="12.339850">
 <ele>823.68</ele>
 <time>2010-06-24T08:15:46Z</time>
 </trkpt>
 <trkpt lat="47.268383" lon="12.339710">
 <ele>823.58</ele>
 <time>2010-06-24T08:15:54Z</time>
 </trkpt>
 <trkpt lat="47.268303" lon="12.339450">
 <ele>823.82</ele>
 <time>2010-06-24T08:16:00Z</time>
 </trkpt>
 <trkpt lat="47.268070" lon="12.339030">
 <ele>823.74</ele>
 <time>2010-06-24T08:16:09Z</time>
 </trkpt>
 <trkpt lat="47.267868" lon="12.338644">
 <ele>824.10</ele>
 <time>2010-06-24T08:16:17Z</time>
 </trkpt>
 <trkpt lat="47.267746" lon="12.338451">
 <ele>824.34</ele>
 <time>2010-06-24T08:16:22Z</time>
 </trkpt>
 <trkpt lat="47.267620" lon="12.338252">
 <ele>825.32</ele>
 <time>2010-06-24T08:16:28Z</time>
 </trkpt>
 <trkpt lat="47.267605" lon="12.338226">
 <ele>825.64</ele>
 <time>2010-06-24T08:16:32Z</time>
 </trkpt>
 <trkpt lat="47.267365" lon="12.338309">
 <ele>826.20</ele>
 <time>2010-06-24T08:16:39Z</time>
 </trkpt>
 <trkpt lat="47.267193" lon="12.338389">
 <ele>827.44</ele>
 <time>2010-06-24T08:16:45Z</time>
 </trkpt>
 <trkpt lat="47.267159" lon="12.338407">
 <ele>827.41</ele>
 <time>2010-06-24T08:16:46Z</time>
 </trkpt>
 <trkpt lat="47.267048" lon="12.338462">
 <ele>826.68</ele>
 <time>2010-06-24T08:16:50Z</time>
 </trkpt>
 <trkpt lat="47.266911" lon="12.338197">
 <ele>826.56</ele>
 <time>2010-06-24T08:16:52Z</time>
 </trkpt>
 <trkpt lat="47.266785" lon="12.338034">
 <ele>826.69</ele>
 <time>2010-06-24T08:16:56Z</time>
 </trkpt>
 <trkpt lat="47.266647" lon="12.337909">
 <ele>826.83</ele>
 <time>2010-06-24T08:17:00Z</time>
 </trkpt>
 <trkpt lat="47.266312" lon="12.337600">
 <ele>826.90</ele>
 <time>2010-06-24T08:17:09Z</time>
 </trkpt>
 <trkpt lat="47.266197" lon="12.337505">
 <ele>827.29</ele>
 <time>2010-06-24T08:17:15Z</time>
 </trkpt>
 <trkpt lat="47.266106" lon="12.337560">
 <ele>827.17</ele>
 <time>2010-06-24T08:17:21Z</time>
 </trkpt>
 <trkpt lat="47.265930" lon="12.337668">
 <ele>827.46</ele>
 <time>2010-06-24T08:17:28Z</time>
 </trkpt>
 <trkpt lat="47.265930" lon="12.337668">
 <ele>827.89</ele>
 <time>2010-06-24T08:17:33Z</time>
 </trkpt>
 <trkpt lat="47.265411" lon="12.336575">
 <ele>827.28</ele>
 <time>2010-06-24T08:17:40Z</time>
 </trkpt>
 <trkpt lat="47.265018" lon="12.336273">
 <ele>826.47</ele>
 <time>2010-06-24T08:17:48Z</time>
 </trkpt>
 <trkpt lat="47.264591" lon="12.335944">
 <ele>826.00</ele>
 <time>2010-06-24T08:17:57Z</time>
 </trkpt>
 <trkpt lat="47.264256" lon="12.335589">
 <ele>825.44</ele>
 <time>2010-06-24T08:18:05Z</time>
 </trkpt>
 <trkpt lat="47.263931" lon="12.335250">
 <ele>825.56</ele>
 <time>2010-06-24T08:18:13Z</time>
 </trkpt>
 <trkpt lat="47.263741" lon="12.335153">
 <ele>825.41</ele>
 <time>2010-06-24T08:18:17Z</time>
 </trkpt>
 <trkpt lat="47.263332" lon="12.335122">
 <ele>825.36</ele>
 <time>2010-06-24T08:18:25Z</time>
 </trkpt>
 <trkpt lat="47.262775" lon="12.335125">
 <ele>825.35</ele>
 <time>2010-06-24T08:18:36Z</time>
 </trkpt>
 <trkpt lat="47.262321" lon="12.335109">
 <ele>825.77</ele>
 <time>2010-06-24T08:18:44Z</time>
 </trkpt>
 <trkpt lat="47.261772" lon="12.335098">
 <ele>826.19</ele>
 <time>2010-06-24T08:18:55Z</time>
 </trkpt>
 <trkpt lat="47.261581" lon="12.335105">
 <ele>826.59</ele>
 <time>2010-06-24T08:19:00Z</time>
 </trkpt>
 <trkpt lat="47.261440" lon="12.335084">
 <ele>826.63</ele>
 <time>2010-06-24T08:19:05Z</time>
 </trkpt>
 <trkpt lat="47.261124" lon="12.335024">
 <ele>826.62</ele>
 <time>2010-06-24T08:19:12Z</time>
 </trkpt>
 <trkpt lat="47.260841" lon="12.334865">
 <ele>826.44</ele>
 <time>2010-06-24T08:19:18Z</time>
 </trkpt>
 <trkpt lat="47.260487" lon="12.334543">
 <ele>826.71</ele>
 <time>2010-06-24T08:19:26Z</time>
 </trkpt>
 <trkpt lat="47.260162" lon="12.334096">
 <ele>826.43</ele>
 <time>2010-06-24T08:19:34Z</time>
 </trkpt>
 <trkpt lat="47.259911" lon="12.333545">
 <ele>826.27</ele>
 <time>2010-06-24T08:19:42Z</time>
 </trkpt>
 <trkpt lat="47.259708" lon="12.333251">
 <ele>826.25</ele>
 <time>2010-06-24T08:19:47Z</time>
 </trkpt>
 <trkpt lat="47.259308" lon="12.332796">
 <ele>826.27</ele>
 <time>2010-06-24T08:19:56Z</time>
 </trkpt>
 <trkpt lat="47.259094" lon="12.332459">
 <ele>826.20</ele>
 <time>2010-06-24T08:20:02Z</time>
 </trkpt>
 <trkpt lat="47.258961" lon="12.332316">
 <ele>826.11</ele>
 <time>2010-06-24T08:20:07Z</time>
 </trkpt>
 <trkpt lat="47.258846" lon="12.332243">
 <ele>826.78</ele>
 <time>2010-06-24T08:20:14Z</time>
 </trkpt>
 <trkpt lat="47.258717" lon="12.332096">
 <ele>828.10</ele>
 <time>2010-06-24T08:20:20Z</time>
 </trkpt>
 <trkpt lat="47.258636" lon="12.331996">
 <ele>829.24</ele>
 <time>2010-06-24T08:20:24Z</time>
 </trkpt>
 <trkpt lat="47.258541" lon="12.331922">
 <ele>830.60</ele>
 <time>2010-06-24T08:20:28Z</time>
 </trkpt>
 <trkpt lat="47.258411" lon="12.331876">
 <ele>831.78</ele>
 <time>2010-06-24T08:20:33Z</time>
 </trkpt>
 <trkpt lat="47.258179" lon="12.331821">
 <ele>833.48</ele>
 <time>2010-06-24T08:20:42Z</time>
 </trkpt>
 <trkpt lat="47.258007" lon="12.331655">
 <ele>834.38</ele>
 <time>2010-06-24T08:20:50Z</time>
 </trkpt>
 <trkpt lat="47.257782" lon="12.331419">
 <ele>835.71</ele>
 <time>2010-06-24T08:21:00Z</time>
 </trkpt>
 <trkpt lat="47.257599" lon="12.331271">
 <ele>836.92</ele>
 <time>2010-06-24T08:21:08Z</time>
 </trkpt>
 <trkpt lat="47.257477" lon="12.331080">
 <ele>838.51</ele>
 <time>2010-06-24T08:21:15Z</time>
 </trkpt>
 <trkpt lat="47.257362" lon="12.330923">
 <ele>840.40</ele>
 <time>2010-06-24T08:21:21Z</time>
 </trkpt>
 <trkpt lat="47.257168" lon="12.330722">
 <ele>842.31</ele>
 <time>2010-06-24T08:21:31Z</time>
 </trkpt>
 <trkpt lat="47.257000" lon="12.330627">
 <ele>843.87</ele>
 <time>2010-06-24T08:21:39Z</time>
 </trkpt>
 <trkpt lat="47.256985" lon="12.330622">
 <ele>844.16</ele>
 <time>2010-06-24T08:21:40Z</time>
 </trkpt>
 <trkpt lat="47.256985" lon="12.330647">
 <ele>844.80</ele>
 <time>2010-06-24T08:21:44Z</time>
 </trkpt>
 <trkpt lat="47.256996" lon="12.330647">
 <ele>844.68</ele>
 <time>2010-06-24T08:21:45Z</time>
 </trkpt>
 <trkpt lat="47.257133" lon="12.330712">
 <ele>844.18</ele>
 <time>2010-06-24T08:21:50Z</time>
 </trkpt>
 <trkpt lat="47.257408" lon="12.331004">
 <ele>841.81</ele>
 <time>2010-06-24T08:21:56Z</time>
 </trkpt>
 <trkpt lat="47.257534" lon="12.331193">
 <ele>840.87</ele>
 <time>2010-06-24T08:21:59Z</time>
 </trkpt>
 <trkpt lat="47.257793" lon="12.331442">
 <ele>838.04</ele>
 <time>2010-06-24T08:22:04Z</time>
 </trkpt>
 <trkpt lat="47.258064" lon="12.331739">
 <ele>836.15</ele>
 <time>2010-06-24T08:22:09Z</time>
 </trkpt>
 <trkpt lat="47.258320" lon="12.331883">
 <ele>834.76</ele>
 <time>2010-06-24T08:22:13Z</time>
 </trkpt>
 <trkpt lat="47.258457" lon="12.331913">
 <ele>833.67</ele>
 <time>2010-06-24T08:22:15Z</time>
 </trkpt>
 <trkpt lat="47.258636" lon="12.332018">
 <ele>832.27</ele>
 <time>2010-06-24T08:22:18Z</time>
 </trkpt>
 <trkpt lat="47.258682" lon="12.332076">
 <ele>831.81</ele>
 <time>2010-06-24T08:22:19Z</time>
 </trkpt>
 <trkpt lat="47.258778" lon="12.332196">
 <ele>830.51</ele>
 <time>2010-06-24T08:22:21Z</time>
 </trkpt>
 <trkpt lat="47.258823" lon="12.332244">
 <ele>829.75</ele>
 <time>2010-06-24T08:22:22Z</time>
 </trkpt>
 <trkpt lat="47.258896" lon="12.332306">
 <ele>828.89</ele>
 <time>2010-06-24T08:22:24Z</time>
 </trkpt>
 <trkpt lat="47.258965" lon="12.332284">
 <ele>826.89</ele>
 <time>2010-06-24T08:22:27Z</time>
 </trkpt>
 <trkpt lat="47.258957" lon="12.332210">
 <ele>826.22</ele>
 <time>2010-06-24T08:22:29Z</time>
 </trkpt>
 <trkpt lat="47.258942" lon="12.332166">
 <ele>825.96</ele>
 <time>2010-06-24T08:22:30Z</time>
 </trkpt>
 <trkpt lat="47.258919" lon="12.332119">
 <ele>825.80</ele>
 <time>2010-06-24T08:22:31Z</time>
 </trkpt>
 <trkpt lat="47.258686" lon="12.331728">
 <ele>825.41</ele>
 <time>2010-06-24T08:22:39Z</time>
 </trkpt>
 <trkpt lat="47.258469" lon="12.331392">
 <ele>825.66</ele>
 <time>2010-06-24T08:22:46Z</time>
 </trkpt>
 <trkpt lat="47.258148" lon="12.330913">
 <ele>825.69</ele>
 <time>2010-06-24T08:22:56Z</time>
 </trkpt>
 <trkpt lat="47.258022" lon="12.330708">
 <ele>825.50</ele>
 <time>2010-06-24T08:23:00Z</time>
 </trkpt>
 <trkpt lat="47.257805" lon="12.330244">
 <ele>825.51</ele>
 <time>2010-06-24T08:23:08Z</time>
 </trkpt>
 <trkpt lat="47.257545" lon="12.329636">
 <ele>825.71</ele>
 <time>2010-06-24T08:23:18Z</time>
 </trkpt>
 <trkpt lat="47.257339" lon="12.329167">
 <ele>825.79</ele>
 <time>2010-06-24T08:23:26Z</time>
 </trkpt>
 <trkpt lat="47.257275" lon="12.329011">
 <ele>825.80</ele>
 <time>2010-06-24T08:23:29Z</time>
 </trkpt>
 <trkpt lat="47.257027" lon="12.328758">
 <ele>825.73</ele>
 <time>2010-06-24T08:23:36Z</time>
 </trkpt>
 <trkpt lat="47.256718" lon="12.328495">
 <ele>825.51</ele>
 <time>2010-06-24T08:23:44Z</time>
 </trkpt>
 <trkpt lat="47.256542" lon="12.328179">
 <ele>825.68</ele>
 <time>2010-06-24T08:23:50Z</time>
 </trkpt>
 <trkpt lat="47.256248" lon="12.327582">
 <ele>825.84</ele>
 <time>2010-06-24T08:24:00Z</time>
 </trkpt>
 <trkpt lat="47.256039" lon="12.327191">
 <ele>825.79</ele>
 <time>2010-06-24T08:24:07Z</time>
 </trkpt>
 <trkpt lat="47.255917" lon="12.326732">
 <ele>825.95</ele>
 <time>2010-06-24T08:24:14Z</time>
 </trkpt>
 <trkpt lat="47.255909" lon="12.326662">
 <ele>825.87</ele>
 <time>2010-06-24T08:24:15Z</time>
 </trkpt>
 <trkpt lat="47.255901" lon="12.326457">
 <ele>825.66</ele>
 <time>2010-06-24T08:24:18Z</time>
 </trkpt>
 <trkpt lat="47.256008" lon="12.326003">
 <ele>825.63</ele>
 <time>2010-06-24T08:24:25Z</time>
 </trkpt>
 <trkpt lat="47.256027" lon="12.325940">
 <ele>825.82</ele>
 <time>2010-06-24T08:24:26Z</time>
 </trkpt>
 <trkpt lat="47.256008" lon="12.325623">
 <ele>825.94</ele>
 <time>2010-06-24T08:24:31Z</time>
 </trkpt>
 <trkpt lat="47.255993" lon="12.325559">
 <ele>825.80</ele>
 <time>2010-06-24T08:24:32Z</time>
 </trkpt>
 <trkpt lat="47.255833" lon="12.325198">
 <ele>825.96</ele>
 <time>2010-06-24T08:24:38Z</time>
 </trkpt>
 <trkpt lat="47.255764" lon="12.324930">
 <ele>826.26</ele>
 <time>2010-06-24T08:24:42Z</time>
 </trkpt>
 <trkpt lat="47.255711" lon="12.324363">
 <ele>826.27</ele>
 <time>2010-06-24T08:24:50Z</time>
 </trkpt>
 <trkpt lat="47.255638" lon="12.323676">
 <ele>826.44</ele>
 <time>2010-06-24T08:25:00Z</time>
 </trkpt>
 <trkpt lat="47.255558" lon="12.323155">
 <ele>826.88</ele>
 <time>2010-06-24T08:25:09Z</time>
 </trkpt>
 <trkpt lat="47.255543" lon="12.323094">
 <ele>827.03</ele>
 <time>2010-06-24T08:25:11Z</time>
 </trkpt>
 <trkpt lat="47.255592" lon="12.323033">
 <ele>827.24</ele>
 <time>2010-06-24T08:25:16Z</time>
 </trkpt>
 <trkpt lat="47.255695" lon="12.322998">
 <ele>827.21</ele>
 <time>2010-06-24T08:25:19Z</time>
 </trkpt>
 <trkpt lat="47.255901" lon="12.322892">
 <ele>827.59</ele>
 <time>2010-06-24T08:25:24Z</time>
 </trkpt>
 <trkpt lat="47.256302" lon="12.322713">
 <ele>827.83</ele>
 <time>2010-06-24T08:25:33Z</time>
 </trkpt>
 <trkpt lat="47.256565" lon="12.322671">
 <ele>828.38</ele>
 <time>2010-06-24T08:25:39Z</time>
 </trkpt>
 <trkpt lat="47.256603" lon="12.322653">
 <ele>828.47</ele>
 <time>2010-06-24T08:25:40Z</time>
 </trkpt>
 <trkpt lat="47.256645" lon="12.322489">
 <ele>829.25</ele>
 <time>2010-06-24T08:25:44Z</time>
 </trkpt>
 <trkpt lat="47.256641" lon="12.322435">
 <ele>829.41</ele>
 <time>2010-06-24T08:25:45Z</time>
 </trkpt>
 <trkpt lat="47.256618" lon="12.321903">
 <ele>829.63</ele>
 <time>2010-06-24T08:25:53Z</time>
 </trkpt>
 <trkpt lat="47.256611" lon="12.321089">
 <ele>829.74</ele>
 <time>2010-06-24T08:26:04Z</time>
 </trkpt>
 <trkpt lat="47.256599" lon="12.320331">
 <ele>829.75</ele>
 <time>2010-06-24T08:26:14Z</time>
 </trkpt>
 <trkpt lat="47.256584" lon="12.319566">
 <ele>829.88</ele>
 <time>2010-06-24T08:26:24Z</time>
 </trkpt>
 <trkpt lat="47.256538" lon="12.319037">
 <ele>830.11</ele>
 <time>2010-06-24T08:26:31Z</time>
 </trkpt>
 <trkpt lat="47.256512" lon="12.317691">
 <ele>830.14</ele>
 <time>2010-06-24T08:26:39Z</time>
 </trkpt>
 <trkpt lat="47.256481" lon="12.317654">
 <ele>830.17</ele>
 <time>2010-06-24T08:26:45Z</time>
 </trkpt>
 <trkpt lat="47.256390" lon="12.317794">
 <ele>830.46</ele>
 <time>2010-06-24T08:26:49Z</time>
 </trkpt>
 <trkpt lat="47.256405" lon="12.317759">
 <ele>830.47</ele>
 <time>2010-06-24T08:26:50Z</time>
 </trkpt>
 <trkpt lat="47.256405" lon="12.317560">
 <ele>831.70</ele>
 <time>2010-06-24T08:26:56Z</time>
 </trkpt>
 <trkpt lat="47.256378" lon="12.317526">
 <ele>831.77</ele>
 <time>2010-06-24T08:26:58Z</time>
 </trkpt>
 <trkpt lat="47.256187" lon="12.317144">
 <ele>831.13</ele>
 <time>2010-06-24T08:27:05Z</time>
 </trkpt>
 <trkpt lat="47.255943" lon="12.316707">
 <ele>831.15</ele>
 <time>2010-06-24T08:27:13Z</time>
 </trkpt>
 <trkpt lat="47.255669" lon="12.316493">
 <ele>830.97</ele>
 <time>2010-06-24T08:27:19Z</time>
 </trkpt>
 <trkpt lat="47.255562" lon="12.316435">
 <ele>830.72</ele>
 <time>2010-06-24T08:27:21Z</time>
 </trkpt>
 <trkpt lat="47.255192" lon="12.316406">
 <ele>830.61</ele>
 <time>2010-06-24T08:27:28Z</time>
 </trkpt>
 <trkpt lat="47.254658" lon="12.316537">
 <ele>830.90</ele>
 <time>2010-06-24T08:27:38Z</time>
 </trkpt>
 <trkpt lat="47.254257" lon="12.316635">
 <ele>831.49</ele>
 <time>2010-06-24T08:27:46Z</time>
 </trkpt>
 <trkpt lat="47.253986" lon="12.316672">
 <ele>831.91</ele>
 <time>2010-06-24T08:27:53Z</time>
 </trkpt>
 <trkpt lat="47.253769" lon="12.316666">
 <ele>832.78</ele>
 <time>2010-06-24T08:27:59Z</time>
 </trkpt>
 <trkpt lat="47.253700" lon="12.316648">
 <ele>833.23</ele>
 <time>2010-06-24T08:28:03Z</time>
 </trkpt>
 <trkpt lat="47.253635" lon="12.316630">
 <ele>833.53</ele>
 <time>2010-06-24T08:29:07Z</time>
 </trkpt>
 <trkpt lat="47.253448" lon="12.316578">
 <ele>833.63</ele>
 <time>2010-06-24T08:29:13Z</time>
 </trkpt>
 <trkpt lat="47.253124" lon="12.316491">
 <ele>834.57</ele>
 <time>2010-06-24T08:29:22Z</time>
 </trkpt>
 <trkpt lat="47.253014" lon="12.316382">
 <ele>835.07</ele>
 <time>2010-06-24T08:29:28Z</time>
 </trkpt>
 <trkpt lat="47.252834" lon="12.316477">
 <ele>835.64</ele>
 <time>2010-06-24T08:29:33Z</time>
 </trkpt>
 <trkpt lat="47.252502" lon="12.316550">
 <ele>836.80</ele>
 <time>2010-06-24T08:29:42Z</time>
 </trkpt>
 <trkpt lat="47.252087" lon="12.316626">
 <ele>838.34</ele>
 <time>2010-06-24T08:29:53Z</time>
 </trkpt>
 <trkpt lat="47.251720" lon="12.316687">
 <ele>839.43</ele>
 <time>2010-06-24T08:30:03Z</time>
 </trkpt>
 <trkpt lat="47.251389" lon="12.316776">
 <ele>840.81</ele>
 <time>2010-06-24T08:30:12Z</time>
 </trkpt>
 <trkpt lat="47.251038" lon="12.316961">
 <ele>841.95</ele>
 <time>2010-06-24T08:30:22Z</time>
 </trkpt>
 <trkpt lat="47.250759" lon="12.317127">
 <ele>843.40</ele>
 <time>2010-06-24T08:30:31Z</time>
 </trkpt>
 <trkpt lat="47.250519" lon="12.317270">
 <ele>844.61</ele>
 <time>2010-06-24T08:30:39Z</time>
 </trkpt>
 <trkpt lat="47.250355" lon="12.317501">
 <ele>845.61</ele>
 <time>2010-06-24T08:30:46Z</time>
 </trkpt>
 <trkpt lat="47.250244" lon="12.317679">
 <ele>845.81</ele>
 <time>2010-06-24T08:30:51Z</time>
 </trkpt>
 <trkpt lat="47.249924" lon="12.317823">
 <ele>846.69</ele>
 <time>2010-06-24T08:31:01Z</time>
 </trkpt>
 <trkpt lat="47.249584" lon="12.318002">
 <ele>848.11</ele>
 <time>2010-06-24T08:31:12Z</time>
 </trkpt>
 <trkpt lat="47.249344" lon="12.318129">
 <ele>849.31</ele>
 <time>2010-06-24T08:31:20Z</time>
 </trkpt>
 <trkpt lat="47.249054" lon="12.318286">
 <ele>850.85</ele>
 <time>2010-06-24T08:31:30Z</time>
 </trkpt>
 <trkpt lat="47.248856" lon="12.318360">
 <ele>851.67</ele>
 <time>2010-06-24T08:31:37Z</time>
 </trkpt>
 <trkpt lat="47.248600" lon="12.318424">
 <ele>853.16</ele>
 <time>2010-06-24T08:31:46Z</time>
 </trkpt>
 <trkpt lat="47.247971" lon="12.318292">
 <ele>853.84</ele>
 <time>2010-06-24T08:31:51Z</time>
 </trkpt>
 <trkpt lat="47.248528" lon="12.318442">
 <ele>854.18</ele>
 <time>2010-06-24T08:31:59Z</time>
 </trkpt>
 <trkpt lat="47.248528" lon="12.318442">
 <ele>854.18</ele>
 <time>2010-06-24T08:32:00Z</time>
 </trkpt>
 <trkpt lat="47.248528" lon="12.318442">
 <ele>853.87</ele>
 <time>2010-06-24T08:32:07Z</time>
 </trkpt>
 <trkpt lat="47.248550" lon="12.318436">
 <ele>853.71</ele>
 <time>2010-06-24T08:32:13Z</time>
 </trkpt>
 <trkpt lat="47.248550" lon="12.318436">
 <ele>853.58</ele>
 <time>2010-06-24T08:32:15Z</time>
 </trkpt>
 <trkpt lat="47.248470" lon="12.318314">
 <ele>853.75</ele>
 <time>2010-06-24T08:32:24Z</time>
 </trkpt>
 <trkpt lat="47.248455" lon="12.318282">
 <ele>853.92</ele>
 <time>2010-06-24T08:32:25Z</time>
 </trkpt>
 <trkpt lat="47.248356" lon="12.318062">
 <ele>854.33</ele>
 <time>2010-06-24T08:32:33Z</time>
 </trkpt>
 <trkpt lat="47.248257" lon="12.317972">
 <ele>853.89</ele>
 <time>2010-06-24T08:32:38Z</time>
 </trkpt>
 <trkpt lat="47.248150" lon="12.318100">
 <ele>853.96</ele>
 <time>2010-06-24T08:32:44Z</time>
 </trkpt>
 <trkpt lat="47.247993" lon="12.318292">
 <ele>854.90</ele>
 <time>2010-06-24T08:32:54Z</time>
 </trkpt>
 <trkpt lat="47.247993" lon="12.318292">
 <ele>856.05</ele>
 <time>2010-06-24T08:33:02Z</time>
 </trkpt>
 <trkpt lat="47.247601" lon="12.318569">
 <ele>857.51</ele>
 <time>2010-06-24T08:33:10Z</time>
 </trkpt>
 <trkpt lat="47.247437" lon="12.318693">
 <ele>858.97</ele>
 <time>2010-06-24T08:33:19Z</time>
 </trkpt>
 <trkpt lat="47.247284" lon="12.318812">
 <ele>860.38</ele>
 <time>2010-06-24T08:33:27Z</time>
 </trkpt>
 <trkpt lat="47.247135" lon="12.318925">
 <ele>862.15</ele>
 <time>2010-06-24T08:33:35Z</time>
 </trkpt>
 <trkpt lat="47.246990" lon="12.318996">
 <ele>863.27</ele>
 <time>2010-06-24T08:33:44Z</time>
 </trkpt>
 <trkpt lat="47.246887" lon="12.319021">
 <ele>864.78</ele>
 <time>2010-06-24T08:33:50Z</time>
 </trkpt>
 <trkpt lat="47.246773" lon="12.319056">
 <ele>865.95</ele>
 <time>2010-06-24T08:33:57Z</time>
 </trkpt>
 <trkpt lat="47.246666" lon="12.319134">
 <ele>867.62</ele>
 <time>2010-06-24T08:34:04Z</time>
 </trkpt>
 <trkpt lat="47.246601" lon="12.319180">
 <ele>868.68</ele>
 <time>2010-06-24T08:34:10Z</time>
 </trkpt>
 <trkpt lat="47.246475" lon="12.319273">
 <ele>870.09</ele>
 <time>2010-06-24T08:34:17Z</time>
 </trkpt>
 <trkpt lat="47.246326" lon="12.319442">
 <ele>872.14</ele>
 <time>2010-06-24T08:34:25Z</time>
 </trkpt>
 <trkpt lat="47.246326" lon="12.319442">
 <ele>872.71</ele>
 <time>2010-06-24T08:34:27Z</time>
 </trkpt>
 <trkpt lat="47.246326" lon="12.319442">
 <ele>873.66</ele>
 <time>2010-06-24T08:34:41Z</time>
 </trkpt>
 <trkpt lat="47.246326" lon="12.319442">
 <ele>873.74</ele>
 <time>2010-06-24T08:34:42Z</time>
 </trkpt>
 <trkpt lat="47.246201" lon="12.319639">
 <ele>875.09</ele>
 <time>2010-06-24T08:34:47Z</time>
 </trkpt>
 <trkpt lat="47.246132" lon="12.319768">
 <ele>877.20</ele>
 <time>2010-06-24T08:34:55Z</time>
 </trkpt>
 <trkpt lat="47.246082" lon="12.319910">
 <ele>878.70</ele>
 <time>2010-06-24T08:35:04Z</time>
 </trkpt>
 <trkpt lat="47.246056" lon="12.320023">
 <ele>880.26</ele>
 <time>2010-06-24T08:35:10Z</time>
 </trkpt>
 <trkpt lat="47.246014" lon="12.320205">
 <ele>882.31</ele>
 <time>2010-06-24T08:35:19Z</time>
 </trkpt>
 <trkpt lat="47.245975" lon="12.320416">
 <ele>884.21</ele>
 <time>2010-06-24T08:35:29Z</time>
 </trkpt>
 <trkpt lat="47.245945" lon="12.320589">
 <ele>886.11</ele>
 <time>2010-06-24T08:35:38Z</time>
 </trkpt>
 <trkpt lat="47.245888" lon="12.320796">
 <ele>888.03</ele>
 <time>2010-06-24T08:35:48Z</time>
 </trkpt>
 <trkpt lat="47.245846" lon="12.320936">
 <ele>889.83</ele>
 <time>2010-06-24T08:35:55Z</time>
 </trkpt>
 <trkpt lat="47.245781" lon="12.321073">
 <ele>891.87</ele>
 <time>2010-06-24T08:36:03Z</time>
 </trkpt>
 <trkpt lat="47.245701" lon="12.321233">
 <ele>893.82</ele>
 <time>2010-06-24T08:36:12Z</time>
 </trkpt>
 <trkpt lat="47.245583" lon="12.321372">
 <ele>895.86</ele>
 <time>2010-06-24T08:36:22Z</time>
 </trkpt>
 <trkpt lat="47.245502" lon="12.321469">
 <ele>897.50</ele>
 <time>2010-06-24T08:36:29Z</time>
 </trkpt>
 <trkpt lat="47.245449" lon="12.321520">
 <ele>899.02</ele>
 <time>2010-06-24T08:36:35Z</time>
 </trkpt>
 <trkpt lat="47.245350" lon="12.321621">
 <ele>900.70</ele>
 <time>2010-06-24T08:36:43Z</time>
 </trkpt>
 <trkpt lat="47.245247" lon="12.321717">
 <ele>902.07</ele>
 <time>2010-06-24T08:36:51Z</time>
 </trkpt>
 <trkpt lat="47.245232" lon="12.321729">
 <ele>902.11</ele>
 <time>2010-06-24T08:36:52Z</time>
 </trkpt>
 <trkpt lat="47.245148" lon="12.321806">
 <ele>903.13</ele>
 <time>2010-06-24T08:36:58Z</time>
 </trkpt>
 <trkpt lat="47.245083" lon="12.321950">
 <ele>904.21</ele>
 <time>2010-06-24T08:37:05Z</time>
 </trkpt>
 <trkpt lat="47.245075" lon="12.321971">
 <ele>904.43</ele>
 <time>2010-06-24T08:37:06Z</time>
 </trkpt>
 <trkpt lat="47.245010" lon="12.322190">
 <ele>906.59</ele>
 <time>2010-06-24T08:37:17Z</time>
 </trkpt>
 <trkpt lat="47.244930" lon="12.322345">
 <ele>908.94</ele>
 <time>2010-06-24T08:37:26Z</time>
 </trkpt>
 <trkpt lat="47.244862" lon="12.322471">
 <ele>910.19</ele>
 <time>2010-06-24T08:37:34Z</time>
 </trkpt>
 <trkpt lat="47.244789" lon="12.322578">
 <ele>911.67</ele>
 <time>2010-06-24T08:37:41Z</time>
 </trkpt>
 <trkpt lat="47.244713" lon="12.322685">
 <ele>913.04</ele>
 <time>2010-06-24T08:37:48Z</time>
 </trkpt>
 <trkpt lat="47.244637" lon="12.322850">
 <ele>913.91</ele>
 <time>2010-06-24T08:37:56Z</time>
 </trkpt>
 <trkpt lat="47.244568" lon="12.322997">
 <ele>915.34</ele>
 <time>2010-06-24T08:38:04Z</time>
 </trkpt>
 <trkpt lat="47.244469" lon="12.323196">
 <ele>917.20</ele>
 <time>2010-06-24T08:38:14Z</time>
 </trkpt>
 <trkpt lat="47.244385" lon="12.323366">
 <ele>918.98</ele>
 <time>2010-06-24T08:38:23Z</time>
 </trkpt>
 <trkpt lat="47.244343" lon="12.323550">
 <ele>920.72</ele>
 <time>2010-06-24T08:38:31Z</time>
 </trkpt>
 <trkpt lat="47.244308" lon="12.323709">
 <ele>921.92</ele>
 <time>2010-06-24T08:38:38Z</time>
 </trkpt>
 <trkpt lat="47.244247" lon="12.323795">
 <ele>922.73</ele>
 <time>2010-06-24T08:38:43Z</time>
 </trkpt>
 <trkpt lat="47.244164" lon="12.323878">
 <ele>923.71</ele>
 <time>2010-06-24T08:38:49Z</time>
 </trkpt>
 <trkpt lat="47.244091" lon="12.323983">
 <ele>924.90</ele>
 <time>2010-06-24T08:38:55Z</time>
 </trkpt>
 <trkpt lat="47.244038" lon="12.324145">
 <ele>926.12</ele>
 <time>2010-06-24T08:39:02Z</time>
 </trkpt>
 <trkpt lat="47.243958" lon="12.324312">
 <ele>927.06</ele>
 <time>2010-06-24T08:39:10Z</time>
 </trkpt>
 <trkpt lat="47.243881" lon="12.324434">
 <ele>927.52</ele>
 <time>2010-06-24T08:39:15Z</time>
 </trkpt>
 <trkpt lat="47.243767" lon="12.324539">
 <ele>928.06</ele>
 <time>2010-06-24T08:39:22Z</time>
 </trkpt>
 <trkpt lat="47.243614" lon="12.324665">
 <ele>928.61</ele>
 <time>2010-06-24T08:39:28Z</time>
 </trkpt>
 <trkpt lat="47.243477" lon="12.324768">
 <ele>929.29</ele>
 <time>2010-06-24T08:39:34Z</time>
 </trkpt>
 <trkpt lat="47.243359" lon="12.324729">
 <ele>929.89</ele>
 <time>2010-06-24T08:39:39Z</time>
 </trkpt>
 <trkpt lat="47.243198" lon="12.324708">
 <ele>931.02</ele>
 <time>2010-06-24T08:39:46Z</time>
 </trkpt>
 <trkpt lat="47.243050" lon="12.324767">
 <ele>932.20</ele>
 <time>2010-06-24T08:39:53Z</time>
 </trkpt>
 <trkpt lat="47.242889" lon="12.324909">
 <ele>933.31</ele>
 <time>2010-06-24T08:40:01Z</time>
 </trkpt>
 <trkpt lat="47.242813" lon="12.324978">
 <ele>933.99</ele>
 <time>2010-06-24T08:40:06Z</time>
 </trkpt>
 <trkpt lat="47.242702" lon="12.325045">
 <ele>935.29</ele>
 <time>2010-06-24T08:40:11Z</time>
 </trkpt>
 <trkpt lat="47.242538" lon="12.325094">
 <ele>936.51</ele>
 <time>2010-06-24T08:40:18Z</time>
 </trkpt>
 <trkpt lat="47.242378" lon="12.325163">
 <ele>937.71</ele>
 <time>2010-06-24T08:40:25Z</time>
 </trkpt>
 <trkpt lat="47.242199" lon="12.325244">
 <ele>938.59</ele>
 <time>2010-06-24T08:40:33Z</time>
 </trkpt>
 <trkpt lat="47.241974" lon="12.325359">
 <ele>940.36</ele>
 <time>2010-06-24T08:40:43Z</time>
 </trkpt>
 <trkpt lat="47.241817" lon="12.325502">
 <ele>941.41</ele>
 <time>2010-06-24T08:40:51Z</time>
 </trkpt>
 <trkpt lat="47.241692" lon="12.325710">
 <ele>942.79</ele>
 <time>2010-06-24T08:40:59Z</time>
 </trkpt>
 <trkpt lat="47.241646" lon="12.325816">
 <ele>943.35</ele>
 <time>2010-06-24T08:41:03Z</time>
 </trkpt>
 <trkpt lat="47.241524" lon="12.326037">
 <ele>945.73</ele>
 <time>2010-06-24T08:41:13Z</time>
 </trkpt>
 <trkpt lat="47.241447" lon="12.326201">
 <ele>947.41</ele>
 <time>2010-06-24T08:41:20Z</time>
 </trkpt>
 <trkpt lat="47.241344" lon="12.326363">
 <ele>949.01</ele>
 <time>2010-06-24T08:41:28Z</time>
 </trkpt>
 <trkpt lat="47.241230" lon="12.326500">
 <ele>950.68</ele>
 <time>2010-06-24T08:41:36Z</time>
 </trkpt>
 <trkpt lat="47.241138" lon="12.326604">
 <ele>951.46</ele>
 <time>2010-06-24T08:41:42Z</time>
 </trkpt>
 <trkpt lat="47.241001" lon="12.326724">
 <ele>952.44</ele>
 <time>2010-06-24T08:41:49Z</time>
 </trkpt>
 <trkpt lat="47.240829" lon="12.326819">
 <ele>953.39</ele>
 <time>2010-06-24T08:41:57Z</time>
 </trkpt>
 <trkpt lat="47.240692" lon="12.326881">
 <ele>953.63</ele>
 <time>2010-06-24T08:42:03Z</time>
 </trkpt>
 <trkpt lat="47.240524" lon="12.326903">
 <ele>954.25</ele>
 <time>2010-06-24T08:42:10Z</time>
 </trkpt>
 <trkpt lat="47.240337" lon="12.326924">
 <ele>954.57</ele>
 <time>2010-06-24T08:42:17Z</time>
 </trkpt>
 <trkpt lat="47.240147" lon="12.326940">
 <ele>955.11</ele>
 <time>2010-06-24T08:42:24Z</time>
 </trkpt>
 <trkpt lat="47.240017" lon="12.326945">
 <ele>955.13</ele>
 <time>2010-06-24T08:42:29Z</time>
 </trkpt>
 <trkpt lat="47.239830" lon="12.326953">
 <ele>954.90</ele>
 <time>2010-06-24T08:42:35Z</time>
 </trkpt>
 <trkpt lat="47.239689" lon="12.326959">
 <ele>955.37</ele>
 <time>2010-06-24T08:42:40Z</time>
 </trkpt>
 <trkpt lat="47.239555" lon="12.327012">
 <ele>956.47</ele>
 <time>2010-06-24T08:42:47Z</time>
 </trkpt>
 <trkpt lat="47.239426" lon="12.327076">
 <ele>957.74</ele>
 <time>2010-06-24T08:42:54Z</time>
 </trkpt>
 <trkpt lat="47.239311" lon="12.327129">
 <ele>958.84</ele>
 <time>2010-06-24T08:43:00Z</time>
 </trkpt>
 <trkpt lat="47.239174" lon="12.327196">
 <ele>960.13</ele>
 <time>2010-06-24T08:43:07Z</time>
 </trkpt>
 <trkpt lat="47.239044" lon="12.327261">
 <ele>961.51</ele>
 <time>2010-06-24T08:43:13Z</time>
 </trkpt>
 <trkpt lat="47.238899" lon="12.327343">
 <ele>962.73</ele>
 <time>2010-06-24T08:43:20Z</time>
 </trkpt>
 <trkpt lat="47.238777" lon="12.327382">
 <ele>964.24</ele>
 <time>2010-06-24T08:43:27Z</time>
 </trkpt>
 <trkpt lat="47.238670" lon="12.327416">
 <ele>965.87</ele>
 <time>2010-06-24T08:43:34Z</time>
 </trkpt>
 <trkpt lat="47.238552" lon="12.327463">
 <ele>967.38</ele>
 <time>2010-06-24T08:43:42Z</time>
 </trkpt>
 <trkpt lat="47.238457" lon="12.327508">
 <ele>968.30</ele>
 <time>2010-06-24T08:43:48Z</time>
 </trkpt>
 <trkpt lat="47.238338" lon="12.327561">
 <ele>969.82</ele>
 <time>2010-06-24T08:43:55Z</time>
 </trkpt>
 <trkpt lat="47.238201" lon="12.327590">
 <ele>971.46</ele>
 <time>2010-06-24T08:44:02Z</time>
 </trkpt>
 <trkpt lat="47.238117" lon="12.327597">
 <ele>972.44</ele>
 <time>2010-06-24T08:44:08Z</time>
 </trkpt>
 <trkpt lat="47.237953" lon="12.327579">
 <ele>974.93</ele>
 <time>2010-06-24T08:44:18Z</time>
 </trkpt>
 <trkpt lat="47.237854" lon="12.327536">
 <ele>976.59</ele>
 <time>2010-06-24T08:44:25Z</time>
 </trkpt>
 <trkpt lat="47.237755" lon="12.327494">
 <ele>978.11</ele>
 <time>2010-06-24T08:44:31Z</time>
 </trkpt>
 <trkpt lat="47.237667" lon="12.327516">
 <ele>978.90</ele>
 <time>2010-06-24T08:44:37Z</time>
 </trkpt>
 <trkpt lat="47.237576" lon="12.327603">
 <ele>980.53</ele>
 <time>2010-06-24T08:44:44Z</time>
 </trkpt>
 <trkpt lat="47.237503" lon="12.327731">
 <ele>981.62</ele>
 <time>2010-06-24T08:44:51Z</time>
 </trkpt>
 <trkpt lat="47.237408" lon="12.327898">
 <ele>981.71</ele>
 <time>2010-06-24T08:44:59Z</time>
 </trkpt>
 <trkpt lat="47.237324" lon="12.328053">
 <ele>983.27</ele>
 <time>2010-06-24T08:45:07Z</time>
 </trkpt>
 <trkpt lat="47.237228" lon="12.328177">
 <ele>985.00</ele>
 <time>2010-06-24T08:45:15Z</time>
 </trkpt>
 <trkpt lat="47.237129" lon="12.328273">
 <ele>986.64</ele>
 <time>2010-06-24T08:45:22Z</time>
 </trkpt>
 <trkpt lat="47.237038" lon="12.328366">
 <ele>987.78</ele>
 <time>2010-06-24T08:45:29Z</time>
 </trkpt>
 <trkpt lat="47.236984" lon="12.328418">
 <ele>989.15</ele>
 <time>2010-06-24T08:45:36Z</time>
 </trkpt>
 <trkpt lat="47.236904" lon="12.328503">
 <ele>990.36</ele>
 <time>2010-06-24T08:45:43Z</time>
 </trkpt>
 <trkpt lat="47.236816" lon="12.328609">
 <ele>991.71</ele>
 <time>2010-06-24T08:45:50Z</time>
 </trkpt>
 <trkpt lat="47.236729" lon="12.328715">
 <ele>993.58</ele>
 <time>2010-06-24T08:45:59Z</time>
 </trkpt>
 <trkpt lat="47.236687" lon="12.328764">
 <ele>994.84</ele>
 <time>2010-06-24T08:46:05Z</time>
 </trkpt>
 <trkpt lat="47.236626" lon="12.328835">
 <ele>996.32</ele>
 <time>2010-06-24T08:46:12Z</time>
 </trkpt>
 <trkpt lat="47.236591" lon="12.328880">
 <ele>996.89</ele>
 <time>2010-06-24T08:46:16Z</time>
 </trkpt>
 <trkpt lat="47.236523" lon="12.328960">
 <ele>998.26</ele>
 <time>2010-06-24T08:46:22Z</time>
 </trkpt>
 <trkpt lat="47.236431" lon="12.329057">
 <ele>999.87</ele>
 <time>2010-06-24T08:46:30Z</time>
 </trkpt>
 <trkpt lat="47.236340" lon="12.329151">
 <ele>1001.20</ele>
 <time>2010-06-24T08:46:37Z</time>
 </trkpt>
 <trkpt lat="47.236248" lon="12.329229">
 <ele>1002.50</ele>
 <time>2010-06-24T08:46:44Z</time>
 </trkpt>
 <trkpt lat="47.236149" lon="12.329363">
 <ele>1004.23</ele>
 <time>2010-06-24T08:46:53Z</time>
 </trkpt>
 <trkpt lat="47.236053" lon="12.329551">
 <ele>1006.52</ele>
 <time>2010-06-24T08:47:03Z</time>
 </trkpt>
 <trkpt lat="47.235966" lon="12.329742">
 <ele>1008.53</ele>
 <time>2010-06-24T08:47:13Z</time>
 </trkpt>
 <trkpt lat="47.235889" lon="12.329943">
 <ele>1010.27</ele>
 <time>2010-06-24T08:47:22Z</time>
 </trkpt>
 <trkpt lat="47.235836" lon="12.330109">
 <ele>1011.68</ele>
 <time>2010-06-24T08:47:30Z</time>
 </trkpt>
 <trkpt lat="47.235748" lon="12.330234">
 <ele>1013.35</ele>
 <time>2010-06-24T08:47:38Z</time>
 </trkpt>
 <trkpt lat="47.235668" lon="12.330340">
 <ele>1015.39</ele>
 <time>2010-06-24T08:47:46Z</time>
 </trkpt>
 <trkpt lat="47.235611" lon="12.330414">
 <ele>1016.10</ele>
 <time>2010-06-24T08:47:51Z</time>
 </trkpt>
 <trkpt lat="47.235519" lon="12.330533">
 <ele>1017.73</ele>
 <time>2010-06-24T08:47:59Z</time>
 </trkpt>
 <trkpt lat="47.235428" lon="12.330641">
 <ele>1019.17</ele>
 <time>2010-06-24T08:48:07Z</time>
 </trkpt>
 <trkpt lat="47.235321" lon="12.330749">
 <ele>1020.97</ele>
 <time>2010-06-24T08:48:16Z</time>
 </trkpt>
 <trkpt lat="47.235195" lon="12.330874">
 <ele>1022.54</ele>
 <time>2010-06-24T08:48:26Z</time>
 </trkpt>
 <trkpt lat="47.235062" lon="12.331009">
 <ele>1024.46</ele>
 <time>2010-06-24T08:48:37Z</time>
 </trkpt>
 <trkpt lat="47.234970" lon="12.331093">
 <ele>1025.37</ele>
 <time>2010-06-24T08:48:44Z</time>
 </trkpt>
 <trkpt lat="47.234905" lon="12.331153">
 <ele>1026.57</ele>
 <time>2010-06-24T08:48:50Z</time>
 </trkpt>
 <trkpt lat="47.234810" lon="12.331240">
 <ele>1028.06</ele>
 <time>2010-06-24T08:48:57Z</time>
 </trkpt>
 <trkpt lat="47.234798" lon="12.331249">
 <ele>1028.22</ele>
 <time>2010-06-24T08:48:58Z</time>
 </trkpt>
 <trkpt lat="47.234695" lon="12.331330">
 <ele>1029.91</ele>
 <time>2010-06-24T08:49:06Z</time>
 </trkpt>
 <trkpt lat="47.234619" lon="12.331390">
 <ele>1031.07</ele>
 <time>2010-06-24T08:49:12Z</time>
 </trkpt>
 <trkpt lat="47.234547" lon="12.331450">
 <ele>1031.94</ele>
 <time>2010-06-24T08:49:16Z</time>
 </trkpt>
 <trkpt lat="47.234470" lon="12.331512">
 <ele>1032.97</ele>
 <time>2010-06-24T08:49:22Z</time>
 </trkpt>
 <trkpt lat="47.234417" lon="12.331539">
 <ele>1033.87</ele>
 <time>2010-06-24T08:49:27Z</time>
 </trkpt>
 <trkpt lat="47.234356" lon="12.331568">
 <ele>1034.64</ele>
 <time>2010-06-24T08:49:32Z</time>
 </trkpt>
 <trkpt lat="47.234222" lon="12.331630">
 <ele>1035.75</ele>
 <time>2010-06-24T08:49:41Z</time>
 </trkpt>
 <trkpt lat="47.234074" lon="12.331700">
 <ele>1037.32</ele>
 <time>2010-06-24T08:49:51Z</time>
 </trkpt>
 <trkpt lat="47.233940" lon="12.331722">
 <ele>1038.80</ele>
 <time>2010-06-24T08:50:00Z</time>
 </trkpt>
 <trkpt lat="47.233799" lon="12.331717">
 <ele>1040.08</ele>
 <time>2010-06-24T08:50:09Z</time>
 </trkpt>
 <trkpt lat="47.233688" lon="12.331713">
 <ele>1041.27</ele>
 <time>2010-06-24T08:50:16Z</time>
 </trkpt>
 <trkpt lat="47.233532" lon="12.331707">
 <ele>1042.56</ele>
 <time>2010-06-24T08:50:25Z</time>
 </trkpt>
 <trkpt lat="47.233391" lon="12.331703">
 <ele>1044.03</ele>
 <time>2010-06-24T08:50:34Z</time>
 </trkpt>
 <trkpt lat="47.233299" lon="12.331703">
 <ele>1044.71</ele>
 <time>2010-06-24T08:50:41Z</time>
 </trkpt>
 <trkpt lat="47.233200" lon="12.331738">
 <ele>1045.36</ele>
 <time>2010-06-24T08:50:48Z</time>
 </trkpt>
 <trkpt lat="47.233082" lon="12.331791">
 <ele>1046.36</ele>
 <time>2010-06-24T08:50:56Z</time>
 </trkpt>
 <trkpt lat="47.232944" lon="12.331812">
 <ele>1047.92</ele>
 <time>2010-06-24T08:51:05Z</time>
 </trkpt>
 <trkpt lat="47.232834" lon="12.331830">
 <ele>1049.89</ele>
 <time>2010-06-24T08:51:13Z</time>
 </trkpt>
 <trkpt lat="47.232723" lon="12.331840">
 <ele>1051.41</ele>
 <time>2010-06-24T08:51:20Z</time>
 </trkpt>
 <trkpt lat="47.232624" lon="12.331849">
 <ele>1052.51</ele>
 <time>2010-06-24T08:51:27Z</time>
 </trkpt>
 <trkpt lat="47.232468" lon="12.331833">
 <ele>1054.44</ele>
 <time>2010-06-24T08:51:37Z</time>
 </trkpt>
 <trkpt lat="47.232353" lon="12.331797">
 <ele>1055.81</ele>
 <time>2010-06-24T08:51:45Z</time>
 </trkpt>
 <trkpt lat="47.232208" lon="12.331749">
 <ele>1057.44</ele>
 <time>2010-06-24T08:51:54Z</time>
 </trkpt>
 <trkpt lat="47.232059" lon="12.331684">
 <ele>1059.30</ele>
 <time>2010-06-24T08:52:05Z</time>
 </trkpt>
 <trkpt lat="47.231964" lon="12.331633">
 <ele>1060.50</ele>
 <time>2010-06-24T08:52:12Z</time>
 </trkpt>
 <trkpt lat="47.231838" lon="12.331566">
 <ele>1062.55</ele>
 <time>2010-06-24T08:52:22Z</time>
 </trkpt>
 <trkpt lat="47.231693" lon="12.331663">
 <ele>1063.83</ele>
 <time>2010-06-24T08:52:30Z</time>
 </trkpt>
 <trkpt lat="47.231602" lon="12.331770">
 <ele>1065.22</ele>
 <time>2010-06-24T08:52:38Z</time>
 </trkpt>
 <trkpt lat="47.231567" lon="12.331810">
 <ele>1065.75</ele>
 <time>2010-06-24T08:52:41Z</time>
 </trkpt>
 <trkpt lat="47.231503" lon="12.331885">
 <ele>1067.08</ele>
 <time>2010-06-24T08:52:47Z</time>
 </trkpt>
 <trkpt lat="47.231422" lon="12.331975">
 <ele>1068.27</ele>
 <time>2010-06-24T08:52:54Z</time>
 </trkpt>
 <trkpt lat="47.231361" lon="12.332042">
 <ele>1069.13</ele>
 <time>2010-06-24T08:53:00Z</time>
 </trkpt>
 <trkpt lat="47.231258" lon="12.332150">
 <ele>1070.41</ele>
 <time>2010-06-24T08:53:08Z</time>
 </trkpt>
 <trkpt lat="47.231220" lon="12.332189">
 <ele>1071.49</ele>
 <time>2010-06-24T08:53:12Z</time>
 </trkpt>
 <trkpt lat="47.231201" lon="12.332206">
 <ele>1072.13</ele>
 <time>2010-06-24T08:53:16Z</time>
 </trkpt>
 <trkpt lat="47.231091" lon="12.332317">
 <ele>1072.97</ele>
 <time>2010-06-24T08:53:23Z</time>
 </trkpt>
 <trkpt lat="47.231052" lon="12.332339">
 <ele>1073.69</ele>
 <time>2010-06-24T08:53:27Z</time>
 </trkpt>
 <trkpt lat="47.231007" lon="12.332357">
 <ele>1074.48</ele>
 <time>2010-06-24T08:53:31Z</time>
 </trkpt>
 <trkpt lat="47.230892" lon="12.332405">
 <ele>1075.95</ele>
 <time>2010-06-24T08:53:38Z</time>
 </trkpt>
 <trkpt lat="47.230774" lon="12.332455">
 <ele>1077.37</ele>
 <time>2010-06-24T08:53:46Z</time>
 </trkpt>
 <trkpt lat="47.230659" lon="12.332507">
 <ele>1078.96</ele>
 <time>2010-06-24T08:53:54Z</time>
 </trkpt>
 <trkpt lat="47.230545" lon="12.332583">
 <ele>1080.78</ele>
 <time>2010-06-24T08:54:03Z</time>
 </trkpt>
 <trkpt lat="47.230415" lon="12.332681">
 <ele>1083.01</ele>
 <time>2010-06-24T08:54:13Z</time>
 </trkpt>
 <trkpt lat="47.230331" lon="12.332755">
 <ele>1084.15</ele>
 <time>2010-06-24T08:54:20Z</time>
 </trkpt>
 <trkpt lat="47.230263" lon="12.332813">
 <ele>1084.81</ele>
 <time>2010-06-24T08:54:26Z</time>
 </trkpt>
 <trkpt lat="47.230175" lon="12.332883">
 <ele>1086.15</ele>
 <time>2010-06-24T08:54:32Z</time>
 </trkpt>
 <trkpt lat="47.230099" lon="12.332883">
 <ele>1086.77</ele>
 <time>2010-06-24T08:54:38Z</time>
 </trkpt>
 <trkpt lat="47.229984" lon="12.332883">
 <ele>1087.50</ele>
 <time>2010-06-24T08:54:47Z</time>
 </trkpt>
 <trkpt lat="47.229851" lon="12.332883">
 <ele>1088.04</ele>
 <time>2010-06-24T08:54:56Z</time>
 </trkpt>
 <trkpt lat="47.229748" lon="12.332947">
 <ele>1088.17</ele>
 <time>2010-06-24T08:55:03Z</time>
 </trkpt>
 <trkpt lat="47.229649" lon="12.333074">
 <ele>1088.31</ele>
 <time>2010-06-24T08:55:10Z</time>
 </trkpt>
 <trkpt lat="47.229549" lon="12.333206">
 <ele>1089.19</ele>
 <time>2010-06-24T08:55:18Z</time>
 </trkpt>
 <trkpt lat="47.229446" lon="12.333341">
 <ele>1089.54</ele>
 <time>2010-06-24T08:55:26Z</time>
 </trkpt>
 <trkpt lat="47.229359" lon="12.333457">
 <ele>1090.11</ele>
 <time>2010-06-24T08:55:33Z</time>
 </trkpt>
 <trkpt lat="47.229252" lon="12.333594">
 <ele>1091.22</ele>
 <time>2010-06-24T08:55:41Z</time>
 </trkpt>
 <trkpt lat="47.229141" lon="12.333725">
 <ele>1091.95</ele>
 <time>2010-06-24T08:55:49Z</time>
 </trkpt>
 <trkpt lat="47.229061" lon="12.333820">
 <ele>1092.60</ele>
 <time>2010-06-24T08:55:55Z</time>
 </trkpt>
 <trkpt lat="47.228878" lon="12.333942">
 <ele>1091.83</ele>
 <time>2010-06-24T08:56:01Z</time>
 </trkpt>
 <trkpt lat="47.228657" lon="12.334034">
 <ele>1092.17</ele>
 <time>2010-06-24T08:56:08Z</time>
 </trkpt>
 <trkpt lat="47.228539" lon="12.334202">
 <ele>1092.66</ele>
 <time>2010-06-24T08:56:14Z</time>
 </trkpt>
 <trkpt lat="47.228382" lon="12.334451">
 <ele>1093.86</ele>
 <time>2010-06-24T08:56:23Z</time>
 </trkpt>
 <trkpt lat="47.228252" lon="12.334686">
 <ele>1094.84</ele>
 <time>2010-06-24T08:56:32Z</time>
 </trkpt>
 <trkpt lat="47.228172" lon="12.334846">
 <ele>1095.69</ele>
 <time>2010-06-24T08:56:38Z</time>
 </trkpt>
 <trkpt lat="47.228100" lon="12.335014">
 <ele>1096.02</ele>
 <time>2010-06-24T08:56:44Z</time>
 </trkpt>
 <trkpt lat="47.227997" lon="12.335175">
 <ele>1096.78</ele>
 <time>2010-06-24T08:56:51Z</time>
 </trkpt>
 <trkpt lat="47.227856" lon="12.335317">
 <ele>1098.05</ele>
 <time>2010-06-24T08:56:59Z</time>
 </trkpt>
 <trkpt lat="47.227684" lon="12.335394">
 <ele>1098.79</ele>
 <time>2010-06-24T08:57:07Z</time>
 </trkpt>
 <trkpt lat="47.227489" lon="12.335430">
 <ele>1099.54</ele>
 <time>2010-06-24T08:57:15Z</time>
 </trkpt>
 <trkpt lat="47.227325" lon="12.335571">
 <ele>1100.19</ele>
 <time>2010-06-24T08:57:23Z</time>
 </trkpt>
 <trkpt lat="47.227242" lon="12.335694">
 <ele>1101.21</ele>
 <time>2010-06-24T08:57:29Z</time>
 </trkpt>
 <trkpt lat="47.227139" lon="12.335844">
 <ele>1102.39</ele>
 <time>2010-06-24T08:57:36Z</time>
 </trkpt>
 <trkpt lat="47.227028" lon="12.336045">
 <ele>1103.76</ele>
 <time>2010-06-24T08:57:44Z</time>
 </trkpt>
 <trkpt lat="47.226936" lon="12.336215">
 <ele>1105.30</ele>
 <time>2010-06-24T08:57:52Z</time>
 </trkpt>
 <trkpt lat="47.226833" lon="12.336317">
 <ele>1106.21</ele>
 <time>2010-06-24T08:57:59Z</time>
 </trkpt>
 <trkpt lat="47.226681" lon="12.336360">
 <ele>1107.72</ele>
 <time>2010-06-24T08:58:08Z</time>
 </trkpt>
 <trkpt lat="47.226551" lon="12.336383">
 <ele>1108.40</ele>
 <time>2010-06-24T08:58:16Z</time>
 </trkpt>
 <trkpt lat="47.226437" lon="12.336441">
 <ele>1109.05</ele>
 <time>2010-06-24T08:58:23Z</time>
 </trkpt>
 <trkpt lat="47.226315" lon="12.336587">
 <ele>1110.46</ele>
 <time>2010-06-24T08:58:31Z</time>
 </trkpt>
 <trkpt lat="47.226204" lon="12.336806">
 <ele>1111.62</ele>
 <time>2010-06-24T08:58:41Z</time>
 </trkpt>
 <trkpt lat="47.226124" lon="12.337022">
 <ele>1113.69</ele>
 <time>2010-06-24T08:58:51Z</time>
 </trkpt>
 <trkpt lat="47.226070" lon="12.337215">
 <ele>1115.64</ele>
 <time>2010-06-24T08:59:00Z</time>
 </trkpt>
 <trkpt lat="47.226063" lon="12.337300">
 <ele>1116.02</ele>
 <time>2010-06-24T08:59:04Z</time>
 </trkpt>
 <trkpt lat="47.226063" lon="12.337510">
 <ele>1116.54</ele>
 <time>2010-06-24T08:59:13Z</time>
 </trkpt>
 <trkpt lat="47.226082" lon="12.337695">
 <ele>1116.45</ele>
 <time>2010-06-24T08:59:20Z</time>
 </trkpt>
 <trkpt lat="47.226040" lon="12.337826">
 <ele>1117.37</ele>
 <time>2010-06-24T08:59:27Z</time>
 </trkpt>
 <trkpt lat="47.225986" lon="12.337959">
 <ele>1119.07</ele>
 <time>2010-06-24T08:59:35Z</time>
 </trkpt>
 <trkpt lat="47.225899" lon="12.338054">
 <ele>1120.58</ele>
 <time>2010-06-24T08:59:44Z</time>
 </trkpt>
 <trkpt lat="47.225792" lon="12.338170">
 <ele>1122.97</ele>
 <time>2010-06-24T08:59:54Z</time>
 </trkpt>
 <trkpt lat="47.225708" lon="12.338270">
 <ele>1124.45</ele>
 <time>2010-06-24T09:00:02Z</time>
 </trkpt>
 <trkpt lat="47.225597" lon="12.338362">
 <ele>1125.93</ele>
 <time>2010-06-24T09:00:11Z</time>
 </trkpt>
 <trkpt lat="47.225487" lon="12.338430">
 <ele>1128.07</ele>
 <time>2010-06-24T09:00:20Z</time>
 </trkpt>
 <trkpt lat="47.225365" lon="12.338507">
 <ele>1130.24</ele>
 <time>2010-06-24T09:00:30Z</time>
 </trkpt>
 <trkpt lat="47.225243" lon="12.338583">
 <ele>1132.93</ele>
 <time>2010-06-24T09:00:40Z</time>
 </trkpt>
 <trkpt lat="47.225147" lon="12.338653">
 <ele>1135.20</ele>
 <time>2010-06-24T09:00:48Z</time>
 </trkpt>
 <trkpt lat="47.225040" lon="12.338817">
 <ele>1137.77</ele>
 <time>2010-06-24T09:00:59Z</time>
 </trkpt>
 <trkpt lat="47.225033" lon="12.338830">
 <ele>1138.41</ele>
 <time>2010-06-24T09:01:02Z</time>
 </trkpt>
 <trkpt lat="47.225033" lon="12.338830">
 <ele>1138.28</ele>
 <time>2010-06-24T09:02:30Z</time>
 </trkpt>
 <trkpt lat="47.225033" lon="12.338830">
 <ele>1138.37</ele>
 <time>2010-06-24T09:02:31Z</time>
 </trkpt>
 <trkpt lat="47.224960" lon="12.338992">
 <ele>1138.22</ele>
 <time>2010-06-24T09:04:13Z</time>
 </trkpt>
 <trkpt lat="47.224960" lon="12.338992">
 <ele>1138.15</ele>
 <time>2010-06-24T09:04:14Z</time>
 </trkpt>
 <trkpt lat="47.224972" lon="12.338968">
 <ele>1138.77</ele>
 <time>2010-06-24T09:04:44Z</time>
 </trkpt>
 <trkpt lat="47.224930" lon="12.339068">
 <ele>1139.54</ele>
 <time>2010-06-24T09:04:52Z</time>
 </trkpt>
 <trkpt lat="47.224888" lon="12.339153">
 <ele>1140.89</ele>
 <time>2010-06-24T09:04:59Z</time>
 </trkpt>
 <trkpt lat="47.224819" lon="12.339277">
 <ele>1142.50</ele>
 <time>2010-06-24T09:05:09Z</time>
 </trkpt>
 <trkpt lat="47.224724" lon="12.339420">
 <ele>1145.49</ele>
 <time>2010-06-24T09:05:21Z</time>
 </trkpt>
 <trkpt lat="47.224640" lon="12.339533">
 <ele>1147.40</ele>
 <time>2010-06-24T09:05:31Z</time>
 </trkpt>
 <trkpt lat="47.224552" lon="12.339650">
 <ele>1149.34</ele>
 <time>2010-06-24T09:05:41Z</time>
 </trkpt>
 <trkpt lat="47.224461" lon="12.339759">
 <ele>1151.52</ele>
 <time>2010-06-24T09:05:51Z</time>
 </trkpt>
 <trkpt lat="47.224354" lon="12.339849">
 <ele>1153.72</ele>
 <time>2010-06-24T09:06:01Z</time>
 </trkpt>
 <trkpt lat="47.224270" lon="12.339920">
 <ele>1155.79</ele>
 <time>2010-06-24T09:06:09Z</time>
 </trkpt>
 <trkpt lat="47.224182" lon="12.339998">
 <ele>1158.03</ele>
 <time>2010-06-24T09:06:17Z</time>
 </trkpt>
 <trkpt lat="47.224098" lon="12.340081">
 <ele>1159.83</ele>
 <time>2010-06-24T09:06:25Z</time>
 </trkpt>
 <trkpt lat="47.224022" lon="12.340160">
 <ele>1161.86</ele>
 <time>2010-06-24T09:06:33Z</time>
 </trkpt>
 <trkpt lat="47.224003" lon="12.340200">
 <ele>1162.72</ele>
 <time>2010-06-24T09:06:38Z</time>
 </trkpt>
 <trkpt lat="47.224003" lon="12.340200">
 <ele>1163.19</ele>
 <time>2010-06-24T09:06:47Z</time>
 </trkpt>
 <trkpt lat="47.224003" lon="12.340200">
 <ele>1163.32</ele>
 <time>2010-06-24T09:06:49Z</time>
 </trkpt>
 <trkpt lat="47.223965" lon="12.340272">
 <ele>1163.72</ele>
 <time>2010-06-24T09:06:54Z</time>
 </trkpt>
 <trkpt lat="47.223965" lon="12.340272">
 <ele>1164.52</ele>
 <time>2010-06-24T09:07:01Z</time>
 </trkpt>
 <trkpt lat="47.223965" lon="12.340272">
 <ele>1165.55</ele>
 <time>2010-06-24T09:07:09Z</time>
 </trkpt>
 <trkpt lat="47.223965" lon="12.340272">
 <ele>1165.94</ele>
 <time>2010-06-24T09:07:35Z</time>
 </trkpt>
 <trkpt lat="47.223846" lon="12.340461">
 <ele>1167.16</ele>
 <time>2010-06-24T09:07:44Z</time>
 </trkpt>
 <trkpt lat="47.223846" lon="12.340461">
 <ele>1167.51</ele>
 <time>2010-06-24T09:07:46Z</time>
 </trkpt>
 <trkpt lat="47.223812" lon="12.340491">
 <ele>1168.38</ele>
 <time>2010-06-24T09:07:53Z</time>
 </trkpt>
 <trkpt lat="47.223766" lon="12.340532">
 <ele>1169.25</ele>
 <time>2010-06-24T09:07:57Z</time>
 </trkpt>
 <trkpt lat="47.223721" lon="12.340574">
 <ele>1170.12</ele>
 <time>2010-06-24T09:08:03Z</time>
 </trkpt>
 <trkpt lat="47.223694" lon="12.340598">
 <ele>1171.30</ele>
 <time>2010-06-24T09:08:10Z</time>
 </trkpt>
 <trkpt lat="47.223614" lon="12.340657">
 <ele>1172.64</ele>
 <time>2010-06-24T09:08:18Z</time>
 </trkpt>
 <trkpt lat="47.223583" lon="12.340667">
 <ele>1173.27</ele>
 <time>2010-06-24T09:08:23Z</time>
 </trkpt>
 <trkpt lat="47.223583" lon="12.340667">
 <ele>1173.28</ele>
 <time>2010-06-24T09:08:24Z</time>
 </trkpt>
 <trkpt lat="47.223515" lon="12.340686">
 <ele>1174.37</ele>
 <time>2010-06-24T09:08:30Z</time>
 </trkpt>
 <trkpt lat="47.223492" lon="12.340692">
 <ele>1175.26</ele>
 <time>2010-06-24T09:08:34Z</time>
 </trkpt>
 <trkpt lat="47.223446" lon="12.340705">
 <ele>1175.81</ele>
 <time>2010-06-24T09:08:38Z</time>
 </trkpt>
 <trkpt lat="47.223438" lon="12.340708">
 <ele>1176.87</ele>
 <time>2010-06-24T09:08:44Z</time>
 </trkpt>
 <trkpt lat="47.223354" lon="12.340732">
 <ele>1177.45</ele>
 <time>2010-06-24T09:08:48Z</time>
 </trkpt>
 <trkpt lat="47.223328" lon="12.340740">
 <ele>1178.01</ele>
 <time>2010-06-24T09:08:53Z</time>
 </trkpt>
 <trkpt lat="47.223244" lon="12.340772">
 <ele>1179.48</ele>
 <time>2010-06-24T09:09:01Z</time>
 </trkpt>
 <trkpt lat="47.223183" lon="12.340796">
 <ele>1180.32</ele>
 <time>2010-06-24T09:09:07Z</time>
 </trkpt>
 <trkpt lat="47.223141" lon="12.340812">
 <ele>1181.10</ele>
 <time>2010-06-24T09:09:13Z</time>
 </trkpt>
 <trkpt lat="47.223141" lon="12.340812">
 <ele>1181.10</ele>
 <time>2010-06-24T09:09:14Z</time>
 </trkpt>
 <trkpt lat="47.223125" lon="12.340818">
 <ele>1181.76</ele>
 <time>2010-06-24T09:09:19Z</time>
 </trkpt>
 <trkpt lat="47.223125" lon="12.340818">
 <ele>1182.19</ele>
 <time>2010-06-24T09:09:29Z</time>
 </trkpt>
 <trkpt lat="47.222977" lon="12.340835">
 <ele>1183.34</ele>
 <time>2010-06-24T09:09:40Z</time>
 </trkpt>
 <trkpt lat="47.222942" lon="12.340831">
 <ele>1184.44</ele>
 <time>2010-06-24T09:09:45Z</time>
 </trkpt>
 <trkpt lat="47.222893" lon="12.340826">
 <ele>1185.34</ele>
 <time>2010-06-24T09:09:50Z</time>
 </trkpt>
 <trkpt lat="47.222851" lon="12.340814">
 <ele>1186.42</ele>
 <time>2010-06-24T09:09:56Z</time>
 </trkpt>
 <trkpt lat="47.222836" lon="12.340803">
 <ele>1187.02</ele>
 <time>2010-06-24T09:10:00Z</time>
 </trkpt>
 <trkpt lat="47.222748" lon="12.340749">
 <ele>1187.98</ele>
 <time>2010-06-24T09:10:09Z</time>
 </trkpt>
 <trkpt lat="47.222729" lon="12.340736">
 <ele>1189.07</ele>
 <time>2010-06-24T09:10:14Z</time>
 </trkpt>
 <trkpt lat="47.222729" lon="12.340736">
 <ele>1189.53</ele>
 <time>2010-06-24T09:10:23Z</time>
 </trkpt>
 <trkpt lat="47.222729" lon="12.340736">
 <ele>1189.83</ele>
 <time>2010-06-24T09:10:25Z</time>
 </trkpt>
 <trkpt lat="47.222668" lon="12.340713">
 <ele>1190.36</ele>
 <time>2010-06-24T09:10:33Z</time>
 </trkpt>
 <trkpt lat="47.222618" lon="12.340709">
 <ele>1191.34</ele>
 <time>2010-06-24T09:10:39Z</time>
 </trkpt>
 <trkpt lat="47.222576" lon="12.340705">
 <ele>1191.94</ele>
 <time>2010-06-24T09:10:44Z</time>
 </trkpt>
 <trkpt lat="47.222576" lon="12.340705">
 <ele>1192.30</ele>
 <time>2010-06-24T09:10:57Z</time>
 </trkpt>
 <trkpt lat="47.222576" lon="12.340705">
 <ele>1192.53</ele>
 <time>2010-06-24T09:11:02Z</time>
 </trkpt>
 <trkpt lat="47.222466" lon="12.340696">
 <ele>1192.95</ele>
 <time>2010-06-24T09:11:07Z</time>
 </trkpt>
 <trkpt lat="47.222382" lon="12.340682">
 <ele>1194.48</ele>
 <time>2010-06-24T09:11:18Z</time>
 </trkpt>
 <trkpt lat="47.222347" lon="12.340676">
 <ele>1194.50</ele>
 <time>2010-06-24T09:11:21Z</time>
 </trkpt>
 <trkpt lat="47.222294" lon="12.340683">
 <ele>1195.13</ele>
 <time>2010-06-24T09:11:26Z</time>
 </trkpt>
 <trkpt lat="47.222210" lon="12.340711">
 <ele>1196.52</ele>
 <time>2010-06-24T09:11:36Z</time>
 </trkpt>
 <trkpt lat="47.222134" lon="12.340737">
 <ele>1197.62</ele>
 <time>2010-06-24T09:11:45Z</time>
 </trkpt>
 <trkpt lat="47.222134" lon="12.340737">
 <ele>1198.04</ele>
 <time>2010-06-24T09:11:48Z</time>
 </trkpt>
 <trkpt lat="47.222095" lon="12.340750">
 <ele>1198.09</ele>
 <time>2010-06-24T09:12:01Z</time>
 </trkpt>
 <trkpt lat="47.222015" lon="12.340780">
 <ele>1199.30</ele>
 <time>2010-06-24T09:12:10Z</time>
 </trkpt>
 <trkpt lat="47.221924" lon="12.340815">
 <ele>1200.37</ele>
 <time>2010-06-24T09:12:20Z</time>
 </trkpt>
 <trkpt lat="47.221924" lon="12.340815">
 <ele>1200.85</ele>
 <time>2010-06-24T09:12:22Z</time>
 </trkpt>
 <trkpt lat="47.221851" lon="12.340842">
 <ele>1201.93</ele>
 <time>2010-06-24T09:12:29Z</time>
 </trkpt>
 <trkpt lat="47.221779" lon="12.340872">
 <ele>1203.60</ele>
 <time>2010-06-24T09:12:40Z</time>
 </trkpt>
 <trkpt lat="47.221703" lon="12.340911">
 <ele>1204.84</ele>
 <time>2010-06-24T09:12:48Z</time>
 </trkpt>
 <trkpt lat="47.221607" lon="12.340957">
 <ele>1206.15</ele>
 <time>2010-06-24T09:12:59Z</time>
 </trkpt>
 <trkpt lat="47.221497" lon="12.341013">
 <ele>1208.09</ele>
 <time>2010-06-24T09:13:13Z</time>
 </trkpt>
 <trkpt lat="47.221420" lon="12.341073">
 <ele>1209.95</ele>
 <time>2010-06-24T09:13:23Z</time>
 </trkpt>
 <trkpt lat="47.221359" lon="12.341122">
 <ele>1210.75</ele>
 <time>2010-06-24T09:13:31Z</time>
 </trkpt>
 <trkpt lat="47.221325" lon="12.341148">
 <ele>1211.94</ele>
 <time>2010-06-24T09:13:40Z</time>
 </trkpt>
 <trkpt lat="47.221325" lon="12.341148">
 <ele>1212.34</ele>
 <time>2010-06-24T09:14:08Z</time>
 </trkpt>
 <trkpt lat="47.221268" lon="12.341194">
 <ele>1212.15</ele>
 <time>2010-06-24T09:14:18Z</time>
 </trkpt>
 <trkpt lat="47.221203" lon="12.341253">
 <ele>1212.83</ele>
 <time>2010-06-24T09:14:25Z</time>
 </trkpt>
 <trkpt lat="47.221191" lon="12.341260">
 <ele>1213.07</ele>
 <time>2010-06-24T09:14:26Z</time>
 </trkpt>
 <trkpt lat="47.221088" lon="12.341364">
 <ele>1214.40</ele>
 <time>2010-06-24T09:14:36Z</time>
 </trkpt>
 <trkpt lat="47.221001" lon="12.341475">
 <ele>1215.46</ele>
 <time>2010-06-24T09:14:45Z</time>
 </trkpt>
 <trkpt lat="47.220924" lon="12.341553">
 <ele>1216.02</ele>
 <time>2010-06-24T09:14:52Z</time>
 </trkpt>
 <trkpt lat="47.220802" lon="12.341641">
 <ele>1217.26</ele>
 <time>2010-06-24T09:15:02Z</time>
 </trkpt>
 <trkpt lat="47.220680" lon="12.341739">
 <ele>1218.58</ele>
 <time>2010-06-24T09:15:12Z</time>
 </trkpt>
 <trkpt lat="47.220589" lon="12.341814">
 <ele>1219.25</ele>
 <time>2010-06-24T09:15:19Z</time>
 </trkpt>
 <trkpt lat="47.220486" lon="12.341970">
 <ele>1219.71</ele>
 <time>2010-06-24T09:15:28Z</time>
 </trkpt>
 <trkpt lat="47.220409" lon="12.342092">
 <ele>1220.08</ele>
 <time>2010-06-24T09:15:35Z</time>
 </trkpt>
 <trkpt lat="47.220310" lon="12.342227">
 <ele>1220.53</ele>
 <time>2010-06-24T09:15:43Z</time>
 </trkpt>
 <trkpt lat="47.220181" lon="12.342407">
 <ele>1221.19</ele>
 <time>2010-06-24T09:15:53Z</time>
 </trkpt>
 <trkpt lat="47.220043" lon="12.342562">
 <ele>1221.90</ele>
 <time>2010-06-24T09:16:03Z</time>
 </trkpt>
 <trkpt lat="47.219952" lon="12.342662">
 <ele>1222.86</ele>
 <time>2010-06-24T09:16:10Z</time>
 </trkpt>
 <trkpt lat="47.219830" lon="12.342821">
 <ele>1224.55</ele>
 <time>2010-06-24T09:16:20Z</time>
 </trkpt>
 <trkpt lat="47.219749" lon="12.342929">
 <ele>1225.86</ele>
 <time>2010-06-24T09:16:27Z</time>
 </trkpt>
 <trkpt lat="47.219639" lon="12.343037">
 <ele>1226.82</ele>
 <time>2010-06-24T09:16:36Z</time>
 </trkpt>
 <trkpt lat="47.219547" lon="12.343088">
 <ele>1227.98</ele>
 <time>2010-06-24T09:16:43Z</time>
 </trkpt>
 <trkpt lat="47.219425" lon="12.343144">
 <ele>1229.14</ele>
 <time>2010-06-24T09:16:52Z</time>
 </trkpt>
 <trkpt lat="47.219284" lon="12.343169">
 <ele>1230.58</ele>
 <time>2010-06-24T09:17:02Z</time>
 </trkpt>
 <trkpt lat="47.219131" lon="12.343196">
 <ele>1231.84</ele>
 <time>2010-06-24T09:17:13Z</time>
 </trkpt>
 <trkpt lat="47.218994" lon="12.343227">
 <ele>1233.50</ele>
 <time>2010-06-24T09:17:23Z</time>
 </trkpt>
 <trkpt lat="47.218861" lon="12.343257">
 <ele>1234.96</ele>
 <time>2010-06-24T09:17:33Z</time>
 </trkpt>
 <trkpt lat="47.218704" lon="12.343285">
 <ele>1236.31</ele>
 <time>2010-06-24T09:17:44Z</time>
 </trkpt>
 <trkpt lat="47.218571" lon="12.343308">
 <ele>1237.84</ele>
 <time>2010-06-24T09:17:54Z</time>
 </trkpt>
 <trkpt lat="47.218430" lon="12.343404">
 <ele>1239.66</ele>
 <time>2010-06-24T09:18:05Z</time>
 </trkpt>
 <trkpt lat="47.218327" lon="12.343479">
 <ele>1240.69</ele>
 <time>2010-06-24T09:18:13Z</time>
 </trkpt>
 <trkpt lat="47.218212" lon="12.343551">
 <ele>1242.25</ele>
 <time>2010-06-24T09:18:22Z</time>
 </trkpt>
 <trkpt lat="47.218082" lon="12.343580">
 <ele>1243.44</ele>
 <time>2010-06-24T09:18:31Z</time>
 </trkpt>
 <trkpt lat="47.217964" lon="12.343561">
 <ele>1244.28</ele>
 <time>2010-06-24T09:18:39Z</time>
 </trkpt>
 <trkpt lat="47.217842" lon="12.343508">
 <ele>1245.43</ele>
 <time>2010-06-24T09:18:47Z</time>
 </trkpt>
 <trkpt lat="47.217716" lon="12.343398">
 <ele>1246.53</ele>
 <time>2010-06-24T09:18:57Z</time>
 </trkpt>
 <trkpt lat="47.217590" lon="12.343366">
 <ele>1247.93</ele>
 <time>2010-06-24T09:19:06Z</time>
 </trkpt>
 <trkpt lat="47.217449" lon="12.343336">
 <ele>1249.22</ele>
 <time>2010-06-24T09:19:15Z</time>
 </trkpt>
 <trkpt lat="47.217312" lon="12.343372">
 <ele>1249.96</ele>
 <time>2010-06-24T09:19:24Z</time>
 </trkpt>
 <trkpt lat="47.217175" lon="12.343428">
 <ele>1250.92</ele>
 <time>2010-06-24T09:19:33Z</time>
 </trkpt>
 <trkpt lat="47.217018" lon="12.343533">
 <ele>1252.24</ele>
 <time>2010-06-24T09:19:44Z</time>
 </trkpt>
 <trkpt lat="47.216904" lon="12.343609">
 <ele>1253.46</ele>
 <time>2010-06-24T09:19:52Z</time>
 </trkpt>
 <trkpt lat="47.216778" lon="12.343673">
 <ele>1255.03</ele>
 <time>2010-06-24T09:20:01Z</time>
 </trkpt>
 <trkpt lat="47.216656" lon="12.343718">
 <ele>1256.00</ele>
 <time>2010-06-24T09:20:09Z</time>
 </trkpt>
 <trkpt lat="47.216518" lon="12.343741">
 <ele>1257.21</ele>
 <time>2010-06-24T09:20:18Z</time>
 </trkpt>
 <trkpt lat="47.216377" lon="12.343741">
 <ele>1258.49</ele>
 <time>2010-06-24T09:20:27Z</time>
 </trkpt>
 <trkpt lat="47.216267" lon="12.343720">
 <ele>1259.06</ele>
 <time>2010-06-24T09:20:34Z</time>
 </trkpt>
 <trkpt lat="47.216106" lon="12.343676">
 <ele>1260.12</ele>
 <time>2010-06-24T09:20:44Z</time>
 </trkpt>
 <trkpt lat="47.215950" lon="12.343632">
 <ele>1260.80</ele>
 <time>2010-06-24T09:20:53Z</time>
 </trkpt>
 <trkpt lat="47.215797" lon="12.343583">
 <ele>1261.66</ele>
 <time>2010-06-24T09:21:02Z</time>
 </trkpt>
 <trkpt lat="47.215633" lon="12.343531">
 <ele>1263.11</ele>
 <time>2010-06-24T09:21:12Z</time>
 </trkpt>
 <trkpt lat="47.215496" lon="12.343513">
 <ele>1264.74</ele>
 <time>2010-06-24T09:21:21Z</time>
 </trkpt>
 <trkpt lat="47.215336" lon="12.343584">
 <ele>1266.08</ele>
 <time>2010-06-24T09:21:32Z</time>
 </trkpt>
 <trkpt lat="47.215225" lon="12.343661">
 <ele>1267.53</ele>
 <time>2010-06-24T09:21:40Z</time>
 </trkpt>
 <trkpt lat="47.215118" lon="12.343744">
 <ele>1268.89</ele>
 <time>2010-06-24T09:21:48Z</time>
 </trkpt>
 <trkpt lat="47.214973" lon="12.343836">
 <ele>1270.49</ele>
 <time>2010-06-24T09:21:58Z</time>
 </trkpt>
 <trkpt lat="47.214817" lon="12.343879">
 <ele>1271.24</ele>
 <time>2010-06-24T09:22:08Z</time>
 </trkpt>
 <trkpt lat="47.214630" lon="12.343904">
 <ele>1272.31</ele>
 <time>2010-06-24T09:22:19Z</time>
 </trkpt>
 <trkpt lat="47.214451" lon="12.343890">
 <ele>1273.61</ele>
 <time>2010-06-24T09:22:30Z</time>
 </trkpt>
 <trkpt lat="47.214306" lon="12.343854">
 <ele>1274.62</ele>
 <time>2010-06-24T09:22:39Z</time>
 </trkpt>
 <trkpt lat="47.214157" lon="12.343859">
 <ele>1276.24</ele>
 <time>2010-06-24T09:22:48Z</time>
 </trkpt>
 <trkpt lat="47.213989" lon="12.343889">
 <ele>1277.36</ele>
 <time>2010-06-24T09:22:58Z</time>
 </trkpt>
 <trkpt lat="47.213821" lon="12.343968">
 <ele>1278.19</ele>
 <time>2010-06-24T09:23:08Z</time>
 </trkpt>
 <trkpt lat="47.213627" lon="12.344049">
 <ele>1279.28</ele>
 <time>2010-06-24T09:23:20Z</time>
 </trkpt>
 <trkpt lat="47.213497" lon="12.344122">
 <ele>1280.20</ele>
 <time>2010-06-24T09:23:28Z</time>
 </trkpt>
 <trkpt lat="47.213379" lon="12.344270">
 <ele>1280.91</ele>
 <time>2010-06-24T09:23:37Z</time>
 </trkpt>
 <trkpt lat="47.213272" lon="12.344474">
 <ele>1281.70</ele>
 <time>2010-06-24T09:23:47Z</time>
 </trkpt>
 <trkpt lat="47.213177" lon="12.344604">
 <ele>1282.87</ele>
 <time>2010-06-24T09:23:55Z</time>
 </trkpt>
 <trkpt lat="47.213039" lon="12.344687">
 <ele>1284.17</ele>
 <time>2010-06-24T09:24:04Z</time>
 </trkpt>
 <trkpt lat="47.212872" lon="12.344749">
 <ele>1285.98</ele>
 <time>2010-06-24T09:24:15Z</time>
 </trkpt>
 <trkpt lat="47.212734" lon="12.344844">
 <ele>1286.96</ele>
 <time>2010-06-24T09:24:24Z</time>
 </trkpt>
 <trkpt lat="47.212631" lon="12.345004">
 <ele>1287.66</ele>
 <time>2010-06-24T09:24:33Z</time>
 </trkpt>
 <trkpt lat="47.212509" lon="12.345109">
 <ele>1288.43</ele>
 <time>2010-06-24T09:24:42Z</time>
 </trkpt>
 <trkpt lat="47.212509" lon="12.345109">
 <ele>1288.78</ele>
 <time>2010-06-24T09:24:44Z</time>
 </trkpt>
 <trkpt lat="47.212467" lon="12.345131">
 <ele>1289.02</ele>
 <time>2010-06-24T09:24:50Z</time>
 </trkpt>
 <trkpt lat="47.212467" lon="12.345131">
 <ele>1289.29</ele>
 <time>2010-06-24T09:24:55Z</time>
 </trkpt>
 <trkpt lat="47.212467" lon="12.345131">
 <ele>1289.35</ele>
 <time>2010-06-24T09:25:08Z</time>
 </trkpt>
 <trkpt lat="47.212402" lon="12.345164">
 <ele>1289.21</ele>
 <time>2010-06-24T09:25:14Z</time>
 </trkpt>
 <trkpt lat="47.212318" lon="12.345207">
 <ele>1289.29</ele>
 <time>2010-06-24T09:26:58Z</time>
 </trkpt>
 <trkpt lat="47.212311" lon="12.345213">
 <ele>1289.35</ele>
 <time>2010-06-24T09:26:59Z</time>
 </trkpt>
 <trkpt lat="47.212242" lon="12.345260">
 <ele>1290.16</ele>
 <time>2010-06-24T09:27:06Z</time>
 </trkpt>
 <trkpt lat="47.212158" lon="12.345318">
 <ele>1290.61</ele>
 <time>2010-06-24T09:27:13Z</time>
 </trkpt>
 <trkpt lat="47.212044" lon="12.345400">
 <ele>1290.97</ele>
 <time>2010-06-24T09:27:21Z</time>
 </trkpt>
 <trkpt lat="47.211933" lon="12.345494">
 <ele>1291.58</ele>
 <time>2010-06-24T09:27:29Z</time>
 </trkpt>
 <trkpt lat="47.211807" lon="12.345623">
 <ele>1292.40</ele>
 <time>2010-06-24T09:27:39Z</time>
 </trkpt>
 <trkpt lat="47.211700" lon="12.345745">
 <ele>1292.79</ele>
 <time>2010-06-24T09:27:47Z</time>
 </trkpt>
 <trkpt lat="47.211594" lon="12.345886">
 <ele>1293.36</ele>
 <time>2010-06-24T09:27:55Z</time>
 </trkpt>
 <trkpt lat="47.211502" lon="12.346035">
 <ele>1293.42</ele>
 <time>2010-06-24T09:28:02Z</time>
 </trkpt>
 <trkpt lat="47.211372" lon="12.346226">
 <ele>1293.40</ele>
 <time>2010-06-24T09:28:11Z</time>
 </trkpt>
 <trkpt lat="47.211224" lon="12.346422">
 <ele>1293.98</ele>
 <time>2010-06-24T09:28:20Z</time>
 </trkpt>
 <trkpt lat="47.211063" lon="12.346548">
 <ele>1294.15</ele>
 <time>2010-06-24T09:28:28Z</time>
 </trkpt>
 <trkpt lat="47.210896" lon="12.346638">
 <ele>1294.29</ele>
 <time>2010-06-24T09:28:36Z</time>
 </trkpt>
 <trkpt lat="47.210690" lon="12.346716">
 <ele>1294.84</ele>
 <time>2010-06-24T09:28:46Z</time>
 </trkpt>
 <trkpt lat="47.210533" lon="12.346754">
 <ele>1295.89</ele>
 <time>2010-06-24T09:28:54Z</time>
 </trkpt>
 <trkpt lat="47.210346" lon="12.346780">
 <ele>1297.51</ele>
 <time>2010-06-24T09:29:05Z</time>
 </trkpt>
 <trkpt lat="47.210163" lon="12.346808">
 <ele>1299.09</ele>
 <time>2010-06-24T09:29:16Z</time>
 </trkpt>
 <trkpt lat="47.209995" lon="12.346835">
 <ele>1300.47</ele>
 <time>2010-06-24T09:29:26Z</time>
 </trkpt>
 <trkpt lat="47.209831" lon="12.346875">
 <ele>1302.19</ele>
 <time>2010-06-24T09:29:36Z</time>
 </trkpt>
 <trkpt lat="47.209663" lon="12.346918">
 <ele>1303.21</ele>
 <time>2010-06-24T09:29:46Z</time>
 </trkpt>
 <trkpt lat="47.209511" lon="12.346969">
 <ele>1304.46</ele>
 <time>2010-06-24T09:29:55Z</time>
 </trkpt>
 <trkpt lat="47.209377" lon="12.347016">
 <ele>1305.80</ele>
 <time>2010-06-24T09:30:03Z</time>
 </trkpt>
 <trkpt lat="47.209179" lon="12.347082">
 <ele>1307.37</ele>
 <time>2010-06-24T09:30:15Z</time>
 </trkpt>
 <trkpt lat="47.209000" lon="12.347126">
 <ele>1308.84</ele>
 <time>2010-06-24T09:30:26Z</time>
 </trkpt>
 <trkpt lat="47.208870" lon="12.347159">
 <ele>1309.99</ele>
 <time>2010-06-24T09:30:34Z</time>
 </trkpt>
 <trkpt lat="47.208706" lon="12.347200">
 <ele>1311.42</ele>
 <time>2010-06-24T09:30:44Z</time>
 </trkpt>
 <trkpt lat="47.208538" lon="12.347243">
 <ele>1312.82</ele>
 <time>2010-06-24T09:30:54Z</time>
 </trkpt>
 <trkpt lat="47.208393" lon="12.347295">
 <ele>1314.20</ele>
 <time>2010-06-24T09:31:03Z</time>
 </trkpt>
 <trkpt lat="47.208248" lon="12.347348">
 <ele>1315.16</ele>
 <time>2010-06-24T09:31:12Z</time>
 </trkpt>
 <trkpt lat="47.208057" lon="12.347448">
 <ele>1316.85</ele>
 <time>2010-06-24T09:31:24Z</time>
 </trkpt>
 <trkpt lat="47.207924" lon="12.347518">
 <ele>1317.43</ele>
 <time>2010-06-24T09:31:32Z</time>
 </trkpt>
 <trkpt lat="47.207767" lon="12.347610">
 <ele>1318.15</ele>
 <time>2010-06-24T09:31:41Z</time>
 </trkpt>
 <trkpt lat="47.207607" lon="12.347710">
 <ele>1319.01</ele>
 <time>2010-06-24T09:31:50Z</time>
 </trkpt>
 <trkpt lat="47.207607" lon="12.347710">
 <ele>1320.62</ele>
 <time>2010-06-24T09:32:01Z</time>
 </trkpt>
 <trkpt lat="47.207253" lon="12.347865">
 <ele>1322.10</ele>
 <time>2010-06-24T09:32:10Z</time>
 </trkpt>
 <trkpt lat="47.207066" lon="12.347940">
 <ele>1324.11</ele>
 <time>2010-06-24T09:32:21Z</time>
 </trkpt>
 <trkpt lat="47.206909" lon="12.348017">
 <ele>1325.81</ele>
 <time>2010-06-24T09:32:31Z</time>
 </trkpt>
 <trkpt lat="47.206764" lon="12.348090">
 <ele>1327.42</ele>
 <time>2010-06-24T09:32:40Z</time>
 </trkpt>
 <trkpt lat="47.206600" lon="12.348147">
 <ele>1329.10</ele>
 <time>2010-06-24T09:32:50Z</time>
 </trkpt>
 <trkpt lat="47.206463" lon="12.348280">
 <ele>1330.57</ele>
 <time>2010-06-24T09:32:59Z</time>
 </trkpt>
 <trkpt lat="47.206341" lon="12.348456">
 <ele>1332.00</ele>
 <time>2010-06-24T09:33:09Z</time>
 </trkpt>
 <trkpt lat="47.206200" lon="12.348647">
 <ele>1333.24</ele>
 <time>2010-06-24T09:33:20Z</time>
 </trkpt>
 <trkpt lat="47.206078" lon="12.348746">
 <ele>1334.09</ele>
 <time>2010-06-24T09:33:28Z</time>
 </trkpt>
 <trkpt lat="47.205956" lon="12.348845">
 <ele>1335.12</ele>
 <time>2010-06-24T09:33:36Z</time>
 </trkpt>
 <trkpt lat="47.205830" lon="12.348960">
 <ele>1336.01</ele>
 <time>2010-06-24T09:33:44Z</time>
 </trkpt>
 <trkpt lat="47.205685" lon="12.349105">
 <ele>1337.05</ele>
 <time>2010-06-24T09:33:53Z</time>
 </trkpt>
 <trkpt lat="47.205509" lon="12.349304">
 <ele>1337.60</ele>
 <time>2010-06-24T09:34:04Z</time>
 </trkpt>
 <trkpt lat="47.205364" lon="12.349470">
 <ele>1337.93</ele>
 <time>2010-06-24T09:34:13Z</time>
 </trkpt>
 <trkpt lat="47.205208" lon="12.349625">
 <ele>1338.78</ele>
 <time>2010-06-24T09:34:22Z</time>
 </trkpt>
 <trkpt lat="47.205013" lon="12.349715">
 <ele>1339.70</ele>
 <time>2010-06-24T09:34:32Z</time>
 </trkpt>
 <trkpt lat="47.204838" lon="12.349715">
 <ele>1340.23</ele>
 <time>2010-06-24T09:34:41Z</time>
 </trkpt>
 <trkpt lat="47.204670" lon="12.349695">
 <ele>1341.28</ele>
 <time>2010-06-24T09:34:50Z</time>
 </trkpt>
 <trkpt lat="47.204514" lon="12.349670">
 <ele>1342.30</ele>
 <time>2010-06-24T09:34:58Z</time>
 </trkpt>
 <trkpt lat="47.204338" lon="12.349632">
 <ele>1342.87</ele>
 <time>2010-06-24T09:35:07Z</time>
 </trkpt>
 <trkpt lat="47.204147" lon="12.349620">
 <ele>1343.14</ele>
 <time>2010-06-24T09:35:16Z</time>
 </trkpt>
 <trkpt lat="47.203938" lon="12.349633">
 <ele>1343.85</ele>
 <time>2010-06-24T09:35:26Z</time>
 </trkpt>
 <trkpt lat="47.203758" lon="12.349620">
 <ele>1344.17</ele>
 <time>2010-06-24T09:35:33Z</time>
 </trkpt>
 <trkpt lat="47.203594" lon="12.349600">
 <ele>1344.44</ele>
 <time>2010-06-24T09:35:40Z</time>
 </trkpt>
 <trkpt lat="47.203373" lon="12.349623">
 <ele>1345.20</ele>
 <time>2010-06-24T09:35:49Z</time>
 </trkpt>
 <trkpt lat="47.203156" lon="12.349701">
 <ele>1345.71</ele>
 <time>2010-06-24T09:35:58Z</time>
 </trkpt>
 <trkpt lat="47.202888" lon="12.349727">
 <ele>1346.45</ele>
 <time>2010-06-24T09:36:09Z</time>
 </trkpt>
 <trkpt lat="47.202671" lon="12.349693">
 <ele>1347.31</ele>
 <time>2010-06-24T09:36:18Z</time>
 </trkpt>
 <trkpt lat="47.202465" lon="12.349612">
 <ele>1348.03</ele>
 <time>2010-06-24T09:36:27Z</time>
 </trkpt>
 <trkpt lat="47.202293" lon="12.349544">
 <ele>1348.97</ele>
 <time>2010-06-24T09:36:35Z</time>
 </trkpt>
 <trkpt lat="47.202122" lon="12.349478">
 <ele>1349.80</ele>
 <time>2010-06-24T09:36:43Z</time>
 </trkpt>
 <trkpt lat="47.201923" lon="12.349409">
 <ele>1350.70</ele>
 <time>2010-06-24T09:36:52Z</time>
 </trkpt>
 <trkpt lat="47.201729" lon="12.349341">
 <ele>1351.82</ele>
 <time>2010-06-24T09:37:01Z</time>
 </trkpt>
 <trkpt lat="47.201519" lon="12.349254">
 <ele>1352.81</ele>
 <time>2010-06-24T09:37:11Z</time>
 </trkpt>
 <trkpt lat="47.201283" lon="12.349170">
 <ele>1353.78</ele>
 <time>2010-06-24T09:37:22Z</time>
 </trkpt>
 <trkpt lat="47.201099" lon="12.349098">
 <ele>1355.12</ele>
 <time>2010-06-24T09:37:32Z</time>
 </trkpt>
 <trkpt lat="47.200932" lon="12.349056">
 <ele>1356.09</ele>
 <time>2010-06-24T09:37:41Z</time>
 </trkpt>
 <trkpt lat="47.200787" lon="12.348954">
 <ele>1357.24</ele>
 <time>2010-06-24T09:37:50Z</time>
 </trkpt>
 <trkpt lat="47.200626" lon="12.348837">
 <ele>1359.77</ele>
 <time>2010-06-24T09:38:00Z</time>
 </trkpt>
 <trkpt lat="47.200516" lon="12.348817">
 <ele>1361.48</ele>
 <time>2010-06-24T09:38:08Z</time>
 </trkpt>
 <trkpt lat="47.200367" lon="12.348853">
 <ele>1362.46</ele>
 <time>2010-06-24T09:38:18Z</time>
 </trkpt>
 <trkpt lat="47.200344" lon="12.348867">
 <ele>1362.81</ele>
 <time>2010-06-24T09:38:22Z</time>
 </trkpt>
 <trkpt lat="47.200314" lon="12.348886">
 <ele>1362.89</ele>
 <time>2010-06-24T09:38:27Z</time>
 </trkpt>
 <trkpt lat="47.200314" lon="12.348886">
 <ele>1362.91</ele>
 <time>2010-06-24T09:38:32Z</time>
 </trkpt>
 <trkpt lat="47.200283" lon="12.348905">
 <ele>1363.43</ele>
 <time>2010-06-24T09:38:36Z</time>
 </trkpt>
 <trkpt lat="47.200256" lon="12.348921">
 <ele>1363.42</ele>
 <time>2010-06-24T09:38:40Z</time>
 </trkpt>
 <trkpt lat="47.200153" lon="12.348984">
 <ele>1364.44</ele>
 <time>2010-06-24T09:38:48Z</time>
 </trkpt>
 <trkpt lat="47.200012" lon="12.349071">
 <ele>1365.68</ele>
 <time>2010-06-24T09:38:59Z</time>
 </trkpt>
 <trkpt lat="47.199886" lon="12.349154">
 <ele>1366.99</ele>
 <time>2010-06-24T09:39:09Z</time>
 </trkpt>
 <trkpt lat="47.199753" lon="12.349244">
 <ele>1368.17</ele>
 <time>2010-06-24T09:39:19Z</time>
 </trkpt>
 <trkpt lat="47.199650" lon="12.349284">
 <ele>1368.99</ele>
 <time>2010-06-24T09:39:26Z</time>
 </trkpt>
 <trkpt lat="47.199501" lon="12.349332">
 <ele>1370.49</ele>
 <time>2010-06-24T09:39:36Z</time>
 </trkpt>
 <trkpt lat="47.199371" lon="12.349379">
 <ele>1371.72</ele>
 <time>2010-06-24T09:39:45Z</time>
 </trkpt>
 <trkpt lat="47.199211" lon="12.349439">
 <ele>1373.03</ele>
 <time>2010-06-24T09:39:56Z</time>
 </trkpt>
 <trkpt lat="47.199097" lon="12.349479">
 <ele>1374.38</ele>
 <time>2010-06-24T09:40:04Z</time>
 </trkpt>
 <trkpt lat="47.198982" lon="12.349511">
 <ele>1375.55</ele>
 <time>2010-06-24T09:40:12Z</time>
 </trkpt>
 <trkpt lat="47.198856" lon="12.349547">
 <ele>1376.49</ele>
 <time>2010-06-24T09:40:20Z</time>
 </trkpt>
 <trkpt lat="47.198689" lon="12.349604">
 <ele>1378.14</ele>
 <time>2010-06-24T09:40:31Z</time>
 </trkpt>
 <trkpt lat="47.198547" lon="12.349642">
 <ele>1379.13</ele>
 <time>2010-06-24T09:40:39Z</time>
 </trkpt>
 <trkpt lat="47.198418" lon="12.349661">
 <ele>1380.46</ele>
 <time>2010-06-24T09:40:47Z</time>
 </trkpt>
 <trkpt lat="47.198296" lon="12.349678">
 <ele>1381.10</ele>
 <time>2010-06-24T09:40:53Z</time>
 </trkpt>
 <trkpt lat="47.198135" lon="12.349701">
 <ele>1382.34</ele>
 <time>2010-06-24T09:41:02Z</time>
 </trkpt>
 <trkpt lat="47.197994" lon="12.349716">
 <ele>1383.07</ele>
 <time>2010-06-24T09:41:10Z</time>
 </trkpt>
 <trkpt lat="47.197823" lon="12.349731">
 <ele>1384.21</ele>
 <time>2010-06-24T09:41:19Z</time>
 </trkpt>
 <trkpt lat="47.197651" lon="12.349747">
 <ele>1385.03</ele>
 <time>2010-06-24T09:41:28Z</time>
 </trkpt>
 <trkpt lat="47.197483" lon="12.349837">
 <ele>1385.67</ele>
 <time>2010-06-24T09:41:37Z</time>
 </trkpt>
 <trkpt lat="47.197323" lon="12.349929">
 <ele>1385.78</ele>
 <time>2010-06-24T09:41:44Z</time>
 </trkpt>
 <trkpt lat="47.197189" lon="12.350007">
 <ele>1386.99</ele>
 <time>2010-06-24T09:41:51Z</time>
 </trkpt>
 <trkpt lat="47.197041" lon="12.350107">
 <ele>1388.09</ele>
 <time>2010-06-24T09:42:00Z</time>
 </trkpt>
 <trkpt lat="47.196880" lon="12.350226">
 <ele>1389.77</ele>
 <time>2010-06-24T09:42:10Z</time>
 </trkpt>
 <trkpt lat="47.196690" lon="12.350401">
 <ele>1391.01</ele>
 <time>2010-06-24T09:42:22Z</time>
 </trkpt>
 <trkpt lat="47.196587" lon="12.350496">
 <ele>1392.20</ele>
 <time>2010-06-24T09:42:28Z</time>
 </trkpt>
 <trkpt lat="47.196400" lon="12.350639">
 <ele>1392.69</ele>
 <time>2010-06-24T09:42:38Z</time>
 </trkpt>
 <trkpt lat="47.196217" lon="12.350778">
 <ele>1393.82</ele>
 <time>2010-06-24T09:42:48Z</time>
 </trkpt>
 <trkpt lat="47.196041" lon="12.350950">
 <ele>1394.31</ele>
 <time>2010-06-24T09:42:58Z</time>
 </trkpt>
 <trkpt lat="47.195873" lon="12.351118">
 <ele>1394.98</ele>
 <time>2010-06-24T09:43:07Z</time>
 </trkpt>
 <trkpt lat="47.195683" lon="12.351337">
 <ele>1395.52</ele>
 <time>2010-06-24T09:43:17Z</time>
 </trkpt>
 <trkpt lat="47.195499" lon="12.351587">
 <ele>1395.80</ele>
 <time>2010-06-24T09:43:27Z</time>
 </trkpt>
 <trkpt lat="47.195354" lon="12.351893">
 <ele>1396.39</ele>
 <time>2010-06-24T09:43:37Z</time>
 </trkpt>
 <trkpt lat="47.195183" lon="12.352208">
 <ele>1397.01</ele>
 <time>2010-06-24T09:43:48Z</time>
 </trkpt>
 <trkpt lat="47.195072" lon="12.352409">
 <ele>1397.41</ele>
 <time>2010-06-24T09:43:55Z</time>
 </trkpt>
 <trkpt lat="47.194939" lon="12.352652">
 <ele>1398.14</ele>
 <time>2010-06-24T09:44:04Z</time>
 </trkpt>
 <trkpt lat="47.194927" lon="12.352670">
 <ele>1398.15</ele>
 <time>2010-06-24T09:44:06Z</time>
 </trkpt>
 <trkpt lat="47.194881" lon="12.352792">
 <ele>1398.42</ele>
 <time>2010-06-24T09:44:45Z</time>
 </trkpt>
 <trkpt lat="47.194828" lon="12.352954">
 <ele>1398.37</ele>
 <time>2010-06-24T09:44:51Z</time>
 </trkpt>
 <trkpt lat="47.194748" lon="12.353203">
 <ele>1398.76</ele>
 <time>2010-06-24T09:44:59Z</time>
 </trkpt>
 <trkpt lat="47.194660" lon="12.353517">
 <ele>1399.62</ele>
 <time>2010-06-24T09:45:09Z</time>
 </trkpt>
 <trkpt lat="47.194569" lon="12.353903">
 <ele>1400.26</ele>
 <time>2010-06-24T09:45:21Z</time>
 </trkpt>
 <trkpt lat="47.194538" lon="12.354028">
 <ele>1400.48</ele>
 <time>2010-06-24T09:45:27Z</time>
 </trkpt>
 <trkpt lat="47.194538" lon="12.354028">
 <ele>1400.47</ele>
 <time>2010-06-24T09:45:28Z</time>
 </trkpt>
 <trkpt lat="47.194534" lon="12.354077">
 <ele>1400.50</ele>
 <time>2010-06-24T09:46:18Z</time>
 </trkpt>
 <trkpt lat="47.194523" lon="12.354168">
 <ele>1400.78</ele>
 <time>2010-06-24T09:46:23Z</time>
 </trkpt>
 <trkpt lat="47.194504" lon="12.354330">
 <ele>1400.70</ele>
 <time>2010-06-24T09:46:32Z</time>
 </trkpt>
 <trkpt lat="47.194504" lon="12.354344">
 <ele>1400.93</ele>
 <time>2010-06-24T09:46:37Z</time>
 </trkpt>
 <trkpt lat="47.194504" lon="12.354344">
 <ele>1400.68</ele>
 <time>2010-06-24T09:46:54Z</time>
 </trkpt>
 <trkpt lat="47.194557" lon="12.354381">
 <ele>1400.95</ele>
 <time>2010-06-24T09:47:00Z</time>
 </trkpt>
 <trkpt lat="47.194576" lon="12.354333">
 <ele>1400.81</ele>
 <time>2010-06-24T09:47:07Z</time>
 </trkpt>
 <trkpt lat="47.194546" lon="12.354255">
 <ele>1400.75</ele>
 <time>2010-06-24T09:47:10Z</time>
 </trkpt>
 <trkpt lat="47.194519" lon="12.354217">
 <ele>1401.06</ele>
 <time>2010-06-24T09:47:24Z</time>
 </trkpt>
 <trkpt lat="47.194519" lon="12.354217">
 <ele>1401.26</ele>
 <time>2010-06-24T09:47:35Z</time>
 </trkpt>
 <trkpt lat="47.194519" lon="12.354217">
 <ele>1401.12</ele>
 <time>2010-06-24T09:47:43Z</time>
 </trkpt>
 <trkpt lat="47.194500" lon="12.354367">
 <ele>1400.73</ele>
 <time>2010-06-24T09:47:57Z</time>
 </trkpt>
 <trkpt lat="47.194500" lon="12.354356">
 <ele>1400.77</ele>
 <time>2010-06-24T09:48:13Z</time>
 </trkpt>
 <trkpt lat="47.194500" lon="12.354356">
 <ele>1400.45</ele>
 <time>2010-06-24T09:48:43Z</time>
 </trkpt>
 <trkpt lat="47.194500" lon="12.354356">
 <ele>1399.75</ele>
 <time>2010-06-24T09:49:32Z</time>
 </trkpt>
 <trkpt lat="47.194508" lon="12.354306">
 <ele>1399.53</ele>
 <time>2010-06-24T09:49:48Z</time>
 </trkpt>
 <trkpt lat="47.194431" lon="12.354421">
 <ele>1398.57</ele>
 <time>2010-06-24T09:50:28Z</time>
 </trkpt>
 <trkpt lat="47.194481" lon="12.354349">
 <ele>1398.53</ele>
 <time>2010-06-24T09:50:47Z</time>
 </trkpt>
 <trkpt lat="47.194504" lon="12.354475">
 <ele>1398.44</ele>
 <time>2010-06-24T09:50:59Z</time>
 </trkpt>
 <trkpt lat="47.194462" lon="12.354507">
 <ele>1398.30</ele>
 <time>2010-06-24T09:51:31Z</time>
 </trkpt>
 <trkpt lat="47.194511" lon="12.354524">
 <ele>1398.62</ele>
 <time>2010-06-24T09:51:37Z</time>
 </trkpt>
 <trkpt lat="47.194458" lon="12.354457">
 <ele>1398.35</ele>
 <time>2010-06-24T09:51:48Z</time>
 </trkpt>
 <trkpt lat="47.194542" lon="12.354371">
 <ele>1398.46</ele>
 <time>2010-06-24T09:52:02Z</time>
 </trkpt>
 <trkpt lat="47.194504" lon="12.354337">
 <ele>1398.12</ele>
 <time>2010-06-24T09:52:09Z</time>
 </trkpt>
 <trkpt lat="47.194511" lon="12.354273">
 <ele>1398.36</ele>
 <time>2010-06-24T09:52:22Z</time>
 </trkpt>
 <trkpt lat="47.194511" lon="12.354273">
 <ele>1397.95</ele>
 <time>2010-06-24T09:52:29Z</time>
 </trkpt>
 <trkpt lat="47.194511" lon="12.354273">
 <ele>1397.57</ele>
 <time>2010-06-24T09:52:44Z</time>
 </trkpt>
 <trkpt lat="47.194492" lon="12.354343">
 <ele>1397.37</ele>
 <time>2010-06-24T09:52:51Z</time>
 </trkpt>
 <trkpt lat="47.194489" lon="12.354361">
 <ele>1397.23</ele>
 <time>2010-06-24T09:52:56Z</time>
 </trkpt>
 <trkpt lat="47.194443" lon="12.354393">
 <ele>1397.01</ele>
 <time>2010-06-24T09:53:11Z</time>
 </trkpt>
 <trkpt lat="47.194420" lon="12.354394">
 <ele>1397.39</ele>
 <time>2010-06-24T09:53:18Z</time>
 </trkpt>
 <trkpt lat="47.194477" lon="12.354474">
 <ele>1397.20</ele>
 <time>2010-06-24T09:53:27Z</time>
 </trkpt>
 <trkpt lat="47.194447" lon="12.354415">
 <ele>1397.44</ele>
 <time>2010-06-24T09:53:32Z</time>
 </trkpt>
 <trkpt lat="47.194477" lon="12.354414">
 <ele>1397.31</ele>
 <time>2010-06-24T09:53:36Z</time>
 </trkpt>
 <trkpt lat="47.194664" lon="12.354515">
 <ele>1397.18</ele>
 <time>2010-06-24T09:53:48Z</time>
 </trkpt>
 <trkpt lat="47.194622" lon="12.354460">
 <ele>1397.30</ele>
 <time>2010-06-24T09:53:55Z</time>
 </trkpt>
 <trkpt lat="47.194542" lon="12.354449">
 <ele>1397.04</ele>
 <time>2010-06-24T09:54:15Z</time>
 </trkpt>
 <trkpt lat="47.194504" lon="12.354415">
 <ele>1396.60</ele>
 <time>2010-06-24T09:54:30Z</time>
 </trkpt>
 <trkpt lat="47.194519" lon="12.354411">
 <ele>1396.79</ele>
 <time>2010-06-24T09:54:38Z</time>
 </trkpt>
 <trkpt lat="47.194500" lon="12.354363">
 <ele>1396.85</ele>
 <time>2010-06-24T09:54:46Z</time>
 </trkpt>
 <trkpt lat="47.194500" lon="12.354356">
 <ele>1396.52</ele>
 <time>2010-06-24T09:55:09Z</time>
 </trkpt>
 <trkpt lat="47.194500" lon="12.354356">
 <ele>1396.40</ele>
 <time>2010-06-24T09:55:14Z</time>
 </trkpt>
 <trkpt lat="47.194496" lon="12.354384">
 <ele>1396.42</ele>
 <time>2010-06-24T09:55:21Z</time>
 </trkpt>
 <trkpt lat="47.194580" lon="12.354449">
 <ele>1396.30</ele>
 <time>2010-06-24T09:55:24Z</time>
 </trkpt>
 <trkpt lat="47.194592" lon="12.354485">
 <ele>1396.29</ele>
 <time>2010-06-24T09:55:31Z</time>
 </trkpt>
 <trkpt lat="47.194748" lon="12.354348">
 <ele>1395.40</ele>
 <time>2010-06-24T09:57:08Z</time>
 </trkpt>
 <trkpt lat="47.194729" lon="12.354385">
 <ele>1395.27</ele>
 <time>2010-06-24T09:57:56Z</time>
 </trkpt>
 <trkpt lat="47.194508" lon="12.354302">
 <ele>1395.28</ele>
 <time>2010-06-24T09:58:01Z</time>
 </trkpt>
 <trkpt lat="47.194508" lon="12.354302">
 <ele>1395.04</ele>
 <time>2010-06-24T09:58:07Z</time>
 </trkpt>
 <trkpt lat="47.194496" lon="12.354384">
 <ele>1394.91</ele>
 <time>2010-06-24T09:58:31Z</time>
 </trkpt>
 <trkpt lat="47.194496" lon="12.354384">
 <ele>1394.91</ele>
 <time>2010-06-24T09:58:35Z</time>
 </trkpt>
 <trkpt lat="47.194496" lon="12.354384">
 <ele>1395.08</ele>
 <time>2010-06-24T09:58:38Z</time>
 </trkpt>
 <trkpt lat="47.194504" lon="12.354324">
 <ele>1395.14</ele>
 <time>2010-06-24T09:58:39Z</time>
 </trkpt>
 <trkpt lat="47.194519" lon="12.354208">
 <ele>1395.15</ele>
 <time>2010-06-24T09:58:45Z</time>
 </trkpt>
 <trkpt lat="47.194523" lon="12.354173">
 <ele>1394.89</ele>
 <time>2010-06-24T09:58:51Z</time>
 </trkpt>
 <trkpt lat="47.194527" lon="12.354132">
 <ele>1395.04</ele>
 <time>2010-06-24T09:58:56Z</time>
 </trkpt>
 <trkpt lat="47.194519" lon="12.354204">
 <ele>1394.99</ele>
 <time>2010-06-24T09:59:00Z</time>
 </trkpt>
 <trkpt lat="47.194496" lon="12.354384">
 <ele>1395.10</ele>
 <time>2010-06-24T09:59:08Z</time>
 </trkpt>
 <trkpt lat="47.194496" lon="12.354384">
 <ele>1394.98</ele>
 <time>2010-06-24T09:59:15Z</time>
 </trkpt>
 <trkpt lat="47.194496" lon="12.354384">
 <ele>1394.78</ele>
 <time>2010-06-24T09:59:19Z</time>
 </trkpt>
 <trkpt lat="47.194496" lon="12.354384">
 <ele>1394.65</ele>
 <time>2010-06-24T09:59:28Z</time>
 </trkpt>
 <trkpt lat="47.194496" lon="12.354384">
 <ele>1394.55</ele>
 <time>2010-06-24T09:59:36Z</time>
 </trkpt>
 <trkpt lat="47.194469" lon="12.354491">
 <ele>1394.73</ele>
 <time>2010-06-24T09:59:43Z</time>
 </trkpt>
 <trkpt lat="47.194515" lon="12.354234">
 <ele>1394.16</ele>
 <time>2010-06-24T10:00:06Z</time>
 </trkpt>
 <trkpt lat="47.194649" lon="12.354427">
 <ele>1394.22</ele>
 <time>2010-06-24T10:00:11Z</time>
 </trkpt>
 <trkpt lat="47.194626" lon="12.354448">
 <ele>1394.07</ele>
 <time>2010-06-24T10:00:25Z</time>
 </trkpt>
 <trkpt lat="47.194626" lon="12.354448">
 <ele>1394.04</ele>
 <time>2010-06-24T10:00:26Z</time>
 </trkpt>
 <trkpt lat="47.194557" lon="12.354431">
 <ele>1394.10</ele>
 <time>2010-06-24T10:00:35Z</time>
 </trkpt>
 <trkpt lat="47.194489" lon="12.354395">
 <ele>1393.85</ele>
 <time>2010-06-24T10:00:41Z</time>
 </trkpt>
 <trkpt lat="47.194504" lon="12.354370">
 <ele>1394.06</ele>
 <time>2010-06-24T10:00:46Z</time>
 </trkpt>
 <trkpt lat="47.194504" lon="12.354336">
 <ele>1393.92</ele>
 <time>2010-06-24T10:00:50Z</time>
 </trkpt>
 <trkpt lat="47.194504" lon="12.354336">
 <ele>1393.52</ele>
 <time>2010-06-24T10:01:03Z</time>
 </trkpt>
 <trkpt lat="47.194504" lon="12.354336">
 <ele>1393.81</ele>
 <time>2010-06-24T10:01:11Z</time>
 </trkpt>
 <trkpt lat="47.194504" lon="12.354336">
 <ele>1393.84</ele>
 <time>2010-06-24T10:01:12Z</time>
 </trkpt>
 <trkpt lat="47.194489" lon="12.354420">
 <ele>1393.75</ele>
 <time>2010-06-24T10:01:25Z</time>
 </trkpt>
 <trkpt lat="47.194489" lon="12.354420">
 <ele>1393.77</ele>
 <time>2010-06-24T10:01:26Z</time>
 </trkpt>
 <trkpt lat="47.194534" lon="12.354451">
 <ele>1393.86</ele>
 <time>2010-06-24T10:01:30Z</time>
 </trkpt>
 <trkpt lat="47.194485" lon="12.354448">
 <ele>1393.84</ele>
 <time>2010-06-24T10:01:35Z</time>
 </trkpt>
 <trkpt lat="47.194450" lon="12.354475">
 <ele>1393.79</ele>
 <time>2010-06-24T10:01:45Z</time>
 </trkpt>
 <trkpt lat="47.194450" lon="12.354488">
 <ele>1394.07</ele>
 <time>2010-06-24T10:01:47Z</time>
 </trkpt>
 <trkpt lat="47.194504" lon="12.354603">
 <ele>1393.93</ele>
 <time>2010-06-24T10:02:01Z</time>
 </trkpt>
 <trkpt lat="47.194546" lon="12.354519">
 <ele>1393.47</ele>
 <time>2010-06-24T10:02:10Z</time>
 </trkpt>
 <trkpt lat="47.194553" lon="12.354514">
 <ele>1393.40</ele>
 <time>2010-06-24T10:02:11Z</time>
 </trkpt>
 <trkpt lat="47.194588" lon="12.354635">
 <ele>1394.15</ele>
 <time>2010-06-24T10:03:06Z</time>
 </trkpt>
 <trkpt lat="47.194595" lon="12.354662">
 <ele>1394.45</ele>
 <time>2010-06-24T10:03:09Z</time>
 </trkpt>
 <trkpt lat="47.194553" lon="12.354711">
 <ele>1394.29</ele>
 <time>2010-06-24T10:03:15Z</time>
 </trkpt>
 <trkpt lat="47.194553" lon="12.354700">
 <ele>1394.21</ele>
 <time>2010-06-24T10:03:30Z</time>
 </trkpt>
 <trkpt lat="47.194550" lon="12.354717">
 <ele>1394.41</ele>
 <time>2010-06-24T10:03:31Z</time>
 </trkpt>
 <trkpt lat="47.194584" lon="12.354658">
 <ele>1394.33</ele>
 <time>2010-06-24T10:03:46Z</time>
 </trkpt>
 <trkpt lat="47.194496" lon="12.354451">
 <ele>1394.66</ele>
 <time>2010-06-24T10:04:37Z</time>
 </trkpt>
 <trkpt lat="47.194515" lon="12.354464">
 <ele>1394.66</ele>
 <time>2010-06-24T10:04:39Z</time>
 </trkpt>
 <trkpt lat="47.194553" lon="12.354503">
 <ele>1394.35</ele>
 <time>2010-06-24T10:04:50Z</time>
 </trkpt>
 <trkpt lat="47.194473" lon="12.354484">
 <ele>1394.56</ele>
 <time>2010-06-24T10:04:59Z</time>
 </trkpt>
 <trkpt lat="47.194477" lon="12.354473">
 <ele>1394.53</ele>
 <time>2010-06-24T10:05:00Z</time>
 </trkpt>
 <trkpt lat="47.194481" lon="12.354459">
 <ele>1394.39</ele>
 <time>2010-06-24T10:05:03Z</time>
 </trkpt>
 <trkpt lat="47.194481" lon="12.354459">
 <ele>1394.34</ele>
 <time>2010-06-24T10:05:18Z</time>
 </trkpt>
 <trkpt lat="47.194466" lon="12.354485">
 <ele>1393.75</ele>
 <time>2010-06-24T10:05:24Z</time>
 </trkpt>
 <trkpt lat="47.194473" lon="12.354456">
 <ele>1393.95</ele>
 <time>2010-06-24T10:05:32Z</time>
 </trkpt>
 <trkpt lat="47.194538" lon="12.354452">
 <ele>1394.00</ele>
 <time>2010-06-24T10:05:37Z</time>
 </trkpt>
 <trkpt lat="47.194592" lon="12.354486">
 <ele>1394.03</ele>
 <time>2010-06-24T10:05:44Z</time>
 </trkpt>
 <trkpt lat="47.194489" lon="12.354419">
 <ele>1394.03</ele>
 <time>2010-06-24T10:05:46Z</time>
 </trkpt>
 <trkpt lat="47.194637" lon="12.354593">
 <ele>1394.11</ele>
 <time>2010-06-24T10:05:53Z</time>
 </trkpt>
 <trkpt lat="47.194469" lon="12.354493">
 <ele>1394.01</ele>
 <time>2010-06-24T10:05:59Z</time>
 </trkpt>
 <trkpt lat="47.194454" lon="12.354555">
 <ele>1393.76</ele>
 <time>2010-06-24T10:06:05Z</time>
 </trkpt>
 <trkpt lat="47.194630" lon="12.353624">
 <ele>1393.99</ele>
 <time>2010-06-24T10:08:32Z</time>
 </trkpt>
 <trkpt lat="47.194630" lon="12.353624">
 <ele>1394.19</ele>
 <time>2010-06-24T10:08:33Z</time>
 </trkpt>
 <trkpt lat="47.194504" lon="12.354344">
 <ele>1393.96</ele>
 <time>2010-06-24T10:09:05Z</time>
 </trkpt>
 <trkpt lat="47.194702" lon="12.354343">
 <ele>1394.13</ele>
 <time>2010-06-24T10:11:54Z</time>
 </trkpt>
 <trkpt lat="47.194660" lon="12.354514">
 <ele>1394.72</ele>
 <time>2010-06-24T10:12:06Z</time>
 </trkpt>
 <trkpt lat="47.194645" lon="12.354547">
 <ele>1394.59</ele>
 <time>2010-06-24T10:12:10Z</time>
 </trkpt>
 <trkpt lat="47.194656" lon="12.354559">
 <ele>1394.70</ele>
 <time>2010-06-24T10:12:11Z</time>
 </trkpt>
 <trkpt lat="47.194618" lon="12.354457">
 <ele>1394.69</ele>
 <time>2010-06-24T10:12:24Z</time>
 </trkpt>
 <trkpt lat="47.194576" lon="12.354420">
 <ele>1394.26</ele>
 <time>2010-06-24T10:12:41Z</time>
 </trkpt>
 <trkpt lat="47.194683" lon="12.354476">
 <ele>1394.81</ele>
 <time>2010-06-24T10:12:49Z</time>
 </trkpt>
 <trkpt lat="47.194706" lon="12.354436">
 <ele>1394.68</ele>
 <time>2010-06-24T10:12:55Z</time>
 </trkpt>
 <trkpt lat="47.194756" lon="12.354379">
 <ele>1394.57</ele>
 <time>2010-06-24T10:13:00Z</time>
 </trkpt>
 <trkpt lat="47.194504" lon="12.354324">
 <ele>1394.59</ele>
 <time>2010-06-24T10:13:03Z</time>
 </trkpt>
 <trkpt lat="47.194504" lon="12.354324">
 <ele>1394.31</ele>
 <time>2010-06-24T10:13:57Z</time>
 </trkpt>
 <trkpt lat="47.194504" lon="12.354324">
 <ele>1394.20</ele>
 <time>2010-06-24T10:15:32Z</time>
 </trkpt>
 <trkpt lat="47.194756" lon="12.354540">
 <ele>1394.09</ele>
 <time>2010-06-24T10:16:39Z</time>
 </trkpt>
 <trkpt lat="47.194515" lon="12.354234">
 <ele>1394.15</ele>
 <time>2010-06-24T10:16:48Z</time>
 </trkpt>
 <trkpt lat="47.194523" lon="12.354191">
 <ele>1394.42</ele>
 <time>2010-06-24T10:16:52Z</time>
 </trkpt>
 <trkpt lat="47.194523" lon="12.354191">
 <ele>1394.42</ele>
 <time>2010-06-24T10:17:07Z</time>
 </trkpt>
 <trkpt lat="47.195004" lon="12.355021">
 <ele>1394.63</ele>
 <time>2010-06-24T10:17:11Z</time>
 </trkpt>
 <trkpt lat="47.194454" lon="12.354555">
 <ele>1394.46</ele>
 <time>2010-06-24T10:17:15Z</time>
 </trkpt>
 <trkpt lat="47.194454" lon="12.354555">
 <ele>1394.36</ele>
 <time>2010-06-24T10:17:16Z</time>
 </trkpt>
 <trkpt lat="47.194454" lon="12.354555">
 <ele>1394.52</ele>
 <time>2010-06-24T10:17:26Z</time>
 </trkpt>
 <trkpt lat="47.194504" lon="12.354332">
 <ele>1394.39</ele>
 <time>2010-06-24T10:17:51Z</time>
 </trkpt>
 <trkpt lat="47.194485" lon="12.354436">
 <ele>1394.42</ele>
 <time>2010-06-24T10:19:54Z</time>
 </trkpt>
 <trkpt lat="47.194485" lon="12.354436">
 <ele>1394.72</ele>
 <time>2010-06-24T10:20:28Z</time>
 </trkpt>
 <trkpt lat="47.194695" lon="12.354512">
 <ele>1394.69</ele>
 <time>2010-06-24T10:21:35Z</time>
 </trkpt>
 <trkpt lat="47.194679" lon="12.354592">
 <ele>1394.80</ele>
 <time>2010-06-24T10:21:41Z</time>
 </trkpt>
 <trkpt lat="47.194500" lon="12.354380">
 <ele>1394.71</ele>
 <time>2010-06-24T10:21:54Z</time>
 </trkpt>
 <trkpt lat="47.194508" lon="12.354289">
 <ele>1394.86</ele>
 <time>2010-06-24T10:22:00Z</time>
 </trkpt>
 <trkpt lat="47.194508" lon="12.354289">
 <ele>1394.63</ele>
 <time>2010-06-24T10:22:30Z</time>
 </trkpt>
 <trkpt lat="47.194668" lon="12.354564">
 <ele>1395.31</ele>
 <time>2010-06-24T10:22:40Z</time>
 </trkpt>
 <trkpt lat="47.194603" lon="12.354549">
 <ele>1394.93</ele>
 <time>2010-06-24T10:23:12Z</time>
 </trkpt>
 <trkpt lat="47.194595" lon="12.354545">
 <ele>1395.14</ele>
 <time>2010-06-24T10:23:27Z</time>
 </trkpt>
 <trkpt lat="47.194607" lon="12.354589">
 <ele>1395.23</ele>
 <time>2010-06-24T10:23:34Z</time>
 </trkpt>
 <trkpt lat="47.194637" lon="12.354635">
 <ele>1395.33</ele>
 <time>2010-06-24T10:23:40Z</time>
 </trkpt>
 <trkpt lat="47.194481" lon="12.354450">
 <ele>1395.17</ele>
 <time>2010-06-24T10:23:50Z</time>
 </trkpt>
 <trkpt lat="47.194496" lon="12.354384">
 <ele>1395.33</ele>
 <time>2010-06-24T10:23:54Z</time>
 </trkpt>
 <trkpt lat="47.194496" lon="12.354384">
 <ele>1395.11</ele>
 <time>2010-06-24T10:23:58Z</time>
 </trkpt>
 <trkpt lat="47.194496" lon="12.354384">
 <ele>1395.10</ele>
 <time>2010-06-24T10:24:01Z</time>
 </trkpt>
 <trkpt lat="47.194454" lon="12.354555">
 <ele>1395.24</ele>
 <time>2010-06-24T10:24:08Z</time>
 </trkpt>
 <trkpt lat="47.194454" lon="12.354555">
 <ele>1395.54</ele>
 <time>2010-06-24T10:24:16Z</time>
 </trkpt>
 <trkpt lat="47.194454" lon="12.354555">
 <ele>1395.35</ele>
 <time>2010-06-24T10:24:18Z</time>
 </trkpt>
 <trkpt lat="47.194595" lon="12.354741">
 <ele>1395.37</ele>
 <time>2010-06-24T10:24:20Z</time>
 </trkpt>
 <trkpt lat="47.194454" lon="12.354555">
 <ele>1395.34</ele>
 <time>2010-06-24T10:24:24Z</time>
 </trkpt>
 <trkpt lat="47.194473" lon="12.354477">
 <ele>1395.13</ele>
 <time>2010-06-24T10:24:30Z</time>
 </trkpt>
 <trkpt lat="47.194496" lon="12.354383">
 <ele>1395.32</ele>
 <time>2010-06-24T10:24:44Z</time>
 </trkpt>
 <trkpt lat="47.194496" lon="12.354383">
 <ele>1395.35</ele>
 <time>2010-06-24T10:24:56Z</time>
 </trkpt>
 <trkpt lat="47.194496" lon="12.354383">
 <ele>1395.19</ele>
 <time>2010-06-24T10:25:02Z</time>
 </trkpt>
 <trkpt lat="47.194664" lon="12.354620">
 <ele>1395.40</ele>
 <time>2010-06-24T10:25:07Z</time>
 </trkpt>
 <trkpt lat="47.194260" lon="12.354420">
 <ele>1395.25</ele>
 <time>2010-06-24T10:25:23Z</time>
 </trkpt>
 <trkpt lat="47.194435" lon="12.354543">
 <ele>1395.41</ele>
 <time>2010-06-24T10:25:29Z</time>
 </trkpt>
 <trkpt lat="47.194477" lon="12.354543">
 <ele>1395.41</ele>
 <time>2010-06-24T10:25:31Z</time>
 </trkpt>
 <trkpt lat="47.194466" lon="12.354513">
 <ele>1395.64</ele>
 <time>2010-06-24T10:25:43Z</time>
 </trkpt>
 <trkpt lat="47.194466" lon="12.354513">
 <ele>1395.66</ele>
 <time>2010-06-24T10:25:44Z</time>
 </trkpt>
 <trkpt lat="47.194466" lon="12.354513">
 <ele>1395.73</ele>
 <time>2010-06-24T10:25:49Z</time>
 </trkpt>
 <trkpt lat="47.194454" lon="12.354555">
 <ele>1395.62</ele>
 <time>2010-06-24T10:25:53Z</time>
 </trkpt>
 <trkpt lat="47.194454" lon="12.354555">
 <ele>1395.49</ele>
 <time>2010-06-24T10:25:58Z</time>
 </trkpt>
 <trkpt lat="47.194454" lon="12.354555">
 <ele>1395.45</ele>
 <time>2010-06-24T10:26:01Z</time>
 </trkpt>
 <trkpt lat="47.194492" lon="12.354409">
 <ele>1395.62</ele>
 <time>2010-06-24T10:26:04Z</time>
 </trkpt>
 <trkpt lat="47.194504" lon="12.354355">
 <ele>1395.57</ele>
 <time>2010-06-24T10:26:10Z</time>
 </trkpt>
 <trkpt lat="47.194504" lon="12.354355">
 <ele>1395.56</ele>
 <time>2010-06-24T10:26:14Z</time>
 </trkpt>
 <trkpt lat="47.194504" lon="12.354355">
 <ele>1395.68</ele>
 <time>2010-06-24T10:26:32Z</time>
 </trkpt>
 <trkpt lat="47.194485" lon="12.354431">
 <ele>1395.63</ele>
 <time>2010-06-24T10:26:40Z</time>
 </trkpt>
 <trkpt lat="47.194485" lon="12.354431">
 <ele>1395.71</ele>
 <time>2010-06-24T10:26:42Z</time>
 </trkpt>
 <trkpt lat="47.194485" lon="12.354431">
 <ele>1396.74</ele>
 <time>2010-06-24T10:27:41Z</time>
 </trkpt>
 <trkpt lat="47.194492" lon="12.354409">
 <ele>1397.00</ele>
 <time>2010-06-24T10:28:09Z</time>
 </trkpt>
 <trkpt lat="47.194466" lon="12.354509">
 <ele>1397.11</ele>
 <time>2010-06-24T10:28:25Z</time>
 </trkpt>
 <trkpt lat="47.194454" lon="12.354555">
 <ele>1397.41</ele>
 <time>2010-06-24T10:29:10Z</time>
 </trkpt>
 <trkpt lat="47.194454" lon="12.354555">
 <ele>1397.29</ele>
 <time>2010-06-24T10:29:11Z</time>
 </trkpt>
 <trkpt lat="47.194454" lon="12.354555">
 <ele>1397.34</ele>
 <time>2010-06-24T10:29:23Z</time>
 </trkpt>
 <trkpt lat="47.194454" lon="12.354555">
 <ele>1397.19</ele>
 <time>2010-06-24T10:29:37Z</time>
 </trkpt>
 <trkpt lat="47.194454" lon="12.354555">
 <ele>1400.37</ele>
 <time>2010-06-24T10:33:28Z</time>
 </trkpt>
 <trkpt lat="47.194454" lon="12.354555">
 <ele>1400.26</ele>
 <time>2010-06-24T10:33:32Z</time>
 </trkpt>
 <trkpt lat="47.194454" lon="12.354555">
 <ele>1404.29</ele>
 <time>2010-06-24T10:37:10Z</time>
 </trkpt>
 <trkpt lat="47.194504" lon="12.354337">
 <ele>1404.80</ele>
 <time>2010-06-24T10:37:19Z</time>
 </trkpt>
 <trkpt lat="47.194519" lon="12.354209">
 <ele>1404.33</ele>
 <time>2010-06-24T10:37:24Z</time>
 </trkpt>
 <trkpt lat="47.194523" lon="12.354169">
 <ele>1404.30</ele>
 <time>2010-06-24T10:37:25Z</time>
 </trkpt>
 <trkpt lat="47.194592" lon="12.353794">
 <ele>1404.65</ele>
 <time>2010-06-24T10:37:32Z</time>
 </trkpt>
 <trkpt lat="47.194702" lon="12.353363">
 <ele>1404.16</ele>
 <time>2010-06-24T10:37:39Z</time>
 </trkpt>
 <trkpt lat="47.194759" lon="12.353163">
 <ele>1403.60</ele>
 <time>2010-06-24T10:37:42Z</time>
 </trkpt>
 <trkpt lat="47.195000" lon="12.352538">
 <ele>1401.76</ele>
 <time>2010-06-24T10:37:52Z</time>
 </trkpt>
 <trkpt lat="47.195187" lon="12.352206">
 <ele>1401.38</ele>
 <time>2010-06-24T10:37:58Z</time>
 </trkpt>
 <trkpt lat="47.195400" lon="12.351798">
 <ele>1400.30</ele>
 <time>2010-06-24T10:38:07Z</time>
 </trkpt>
 <trkpt lat="47.195580" lon="12.351475">
 <ele>1399.32</ele>
 <time>2010-06-24T10:38:14Z</time>
 </trkpt>
 <trkpt lat="47.195751" lon="12.351244">
 <ele>1398.78</ele>
 <time>2010-06-24T10:38:20Z</time>
 </trkpt>
 <trkpt lat="47.195911" lon="12.351080">
 <ele>1398.34</ele>
 <time>2010-06-24T10:38:27Z</time>
 </trkpt>
 <trkpt lat="47.196026" lon="12.350969">
 <ele>1398.04</ele>
 <time>2010-06-24T10:38:32Z</time>
 </trkpt>
 <trkpt lat="47.196243" lon="12.350757">
 <ele>1397.69</ele>
 <time>2010-06-24T10:38:38Z</time>
 </trkpt>
 <trkpt lat="47.196434" lon="12.350614">
 <ele>1396.92</ele>
 <time>2010-06-24T10:38:42Z</time>
 </trkpt>
 <trkpt lat="47.196800" lon="12.350296">
 <ele>1395.47</ele>
 <time>2010-06-24T10:38:49Z</time>
 </trkpt>
 <trkpt lat="47.197113" lon="12.350052">
 <ele>1392.46</ele>
 <time>2010-06-24T10:38:56Z</time>
 </trkpt>
 <trkpt lat="47.197250" lon="12.349971">
 <ele>1391.22</ele>
 <time>2010-06-24T10:38:59Z</time>
 </trkpt>
 <trkpt lat="47.197357" lon="12.349908">
 <ele>1390.76</ele>
 <time>2010-06-24T10:39:01Z</time>
 </trkpt>
 <trkpt lat="47.197720" lon="12.349740">
 <ele>1389.25</ele>
 <time>2010-06-24T10:39:08Z</time>
 </trkpt>
 <trkpt lat="47.197983" lon="12.349717">
 <ele>1387.61</ele>
 <time>2010-06-24T10:39:14Z</time>
 </trkpt>
 <trkpt lat="47.198334" lon="12.349673">
 <ele>1385.19</ele>
 <time>2010-06-24T10:39:21Z</time>
 </trkpt>
 <trkpt lat="47.198589" lon="12.349633">
 <ele>1382.88</ele>
 <time>2010-06-24T10:39:27Z</time>
 </trkpt>
 <trkpt lat="47.198742" lon="12.349586">
 <ele>1381.35</ele>
 <time>2010-06-24T10:39:32Z</time>
 </trkpt>
 <trkpt lat="47.199013" lon="12.349502">
 <ele>1379.69</ele>
 <time>2010-06-24T10:39:39Z</time>
 </trkpt>
 <trkpt lat="47.199249" lon="12.349425">
 <ele>1377.84</ele>
 <time>2010-06-24T10:39:45Z</time>
 </trkpt>
 <trkpt lat="47.199585" lon="12.349305">
 <ele>1374.61</ele>
 <time>2010-06-24T10:39:52Z</time>
 </trkpt>
 <trkpt lat="47.199726" lon="12.349258">
 <ele>1373.17</ele>
 <time>2010-06-24T10:39:55Z</time>
 </trkpt>
 <trkpt lat="47.199883" lon="12.349156">
 <ele>1371.53</ele>
 <time>2010-06-24T10:39:59Z</time>
 </trkpt>
 <trkpt lat="47.200169" lon="12.348976">
 <ele>1368.66</ele>
 <time>2010-06-24T10:40:07Z</time>
 </trkpt>
 <trkpt lat="47.200253" lon="12.348923">
 <ele>1367.08</ele>
 <time>2010-06-24T10:40:12Z</time>
 </trkpt>
 <trkpt lat="47.200253" lon="12.348923">
 <ele>1366.20</ele>
 <time>2010-06-24T10:40:18Z</time>
 </trkpt>
 <trkpt lat="47.200356" lon="12.348862">
 <ele>1366.02</ele>
 <time>2010-06-24T10:40:27Z</time>
 </trkpt>
 <trkpt lat="47.200462" lon="12.348828">
 <ele>1365.38</ele>
 <time>2010-06-24T10:40:32Z</time>
 </trkpt>
 <trkpt lat="47.200623" lon="12.348834">
 <ele>1364.39</ele>
 <time>2010-06-24T10:40:37Z</time>
 </trkpt>
 <trkpt lat="47.200737" lon="12.348908">
 <ele>1363.09</ele>
 <time>2010-06-24T10:40:40Z</time>
 </trkpt>
 <trkpt lat="47.200928" lon="12.349055">
 <ele>1361.33</ele>
 <time>2010-06-24T10:40:44Z</time>
 </trkpt>
 <trkpt lat="47.201355" lon="12.349194">
 <ele>1358.56</ele>
 <time>2010-06-24T10:40:52Z</time>
 </trkpt>
 <trkpt lat="47.201851" lon="12.349384">
 <ele>1356.51</ele>
 <time>2010-06-24T10:41:00Z</time>
 </trkpt>
 <trkpt lat="47.202499" lon="12.349626">
 <ele>1353.93</ele>
 <time>2010-06-24T10:41:09Z</time>
 </trkpt>
 <trkpt lat="47.202900" lon="12.349727">
 <ele>1352.44</ele>
 <time>2010-06-24T10:41:15Z</time>
 </trkpt>
 <trkpt lat="47.203274" lon="12.349659">
 <ele>1351.28</ele>
 <time>2010-06-24T10:41:21Z</time>
 </trkpt>
 <trkpt lat="47.203606" lon="12.349599">
 <ele>1350.58</ele>
 <time>2010-06-24T10:41:27Z</time>
 </trkpt>
 <trkpt lat="47.204021" lon="12.349620">
 <ele>1349.40</ele>
 <time>2010-06-24T10:41:35Z</time>
 </trkpt>
 <trkpt lat="47.204433" lon="12.349653">
 <ele>1348.05</ele>
 <time>2010-06-24T10:41:43Z</time>
 </trkpt>
 <trkpt lat="47.204525" lon="12.349671">
 <ele>1348.04</ele>
 <time>2010-06-24T10:41:45Z</time>
 </trkpt>
 <trkpt lat="47.204762" lon="12.349708">
 <ele>1346.82</ele>
 <time>2010-06-24T10:41:51Z</time>
 </trkpt>
 <trkpt lat="47.205055" lon="12.349703">
 <ele>1345.35</ele>
 <time>2010-06-24T10:41:57Z</time>
 </trkpt>
 <trkpt lat="47.205112" lon="12.349687">
 <ele>1345.41</ele>
 <time>2010-06-24T10:41:58Z</time>
 </trkpt>
 <trkpt lat="47.205215" lon="12.349620">
 <ele>1345.10</ele>
 <time>2010-06-24T10:42:00Z</time>
 </trkpt>
 <trkpt lat="47.205372" lon="12.349458">
 <ele>1344.29</ele>
 <time>2010-06-24T10:42:04Z</time>
 </trkpt>
 <trkpt lat="47.205784" lon="12.349002">
 <ele>1342.56</ele>
 <time>2010-06-24T10:42:14Z</time>
 </trkpt>
 <trkpt lat="47.205872" lon="12.348924">
 <ele>1341.98</ele>
 <time>2010-06-24T10:42:16Z</time>
 </trkpt>
 <trkpt lat="47.206184" lon="12.348661">
 <ele>1339.83</ele>
 <time>2010-06-24T10:42:23Z</time>
 </trkpt>
 <trkpt lat="47.206223" lon="12.348615">
 <ele>1339.52</ele>
 <time>2010-06-24T10:42:24Z</time>
 </trkpt>
 <trkpt lat="47.206406" lon="12.348358">
 <ele>1337.75</ele>
 <time>2010-06-24T10:42:29Z</time>
 </trkpt>
 <trkpt lat="47.206577" lon="12.348154">
 <ele>1335.85</ele>
 <time>2010-06-24T10:42:34Z</time>
 </trkpt>
 <trkpt lat="47.206913" lon="12.348015">
 <ele>1332.75</ele>
 <time>2010-06-24T10:42:41Z</time>
 </trkpt>
 <trkpt lat="47.207310" lon="12.347844">
 <ele>1329.00</ele>
 <time>2010-06-24T10:42:48Z</time>
 </trkpt>
 <trkpt lat="47.207535" lon="12.347744">
 <ele>1326.14</ele>
 <time>2010-06-24T10:42:53Z</time>
 </trkpt>
 <trkpt lat="47.207607" lon="12.347710">
 <ele>1324.75</ele>
 <time>2010-06-24T10:42:57Z</time>
 </trkpt>
 <trkpt lat="47.207607" lon="12.347710">
 <ele>1324.54</ele>
 <time>2010-06-24T10:42:58Z</time>
 </trkpt>
 <trkpt lat="47.207607" lon="12.347710">
 <ele>1324.32</ele>
 <time>2010-06-24T10:44:36Z</time>
 </trkpt>
 <trkpt lat="47.207607" lon="12.347710">
 <ele>1324.43</ele>
 <time>2010-06-24T10:44:37Z</time>
 </trkpt>
 <trkpt lat="47.207607" lon="12.347710">
 <ele>1323.65</ele>
 <time>2010-06-24T10:44:44Z</time>
 </trkpt>
 <trkpt lat="47.208088" lon="12.347431">
 <ele>1322.04</ele>
 <time>2010-06-24T10:44:50Z</time>
 </trkpt>
 <trkpt lat="47.208401" lon="12.347292">
 <ele>1319.63</ele>
 <time>2010-06-24T10:44:56Z</time>
 </trkpt>
 <trkpt lat="47.208729" lon="12.347194">
 <ele>1316.97</ele>
 <time>2010-06-24T10:45:02Z</time>
 </trkpt>
 <trkpt lat="47.209053" lon="12.347113">
 <ele>1314.48</ele>
 <time>2010-06-24T10:45:08Z</time>
 </trkpt>
 <trkpt lat="47.209469" lon="12.346983">
 <ele>1310.57</ele>
 <time>2010-06-24T10:45:14Z</time>
 </trkpt>
 <trkpt lat="47.209869" lon="12.346866">
 <ele>1308.46</ele>
 <time>2010-06-24T10:45:20Z</time>
 </trkpt>
 <trkpt lat="47.210423" lon="12.346769">
 <ele>1303.30</ele>
 <time>2010-06-24T10:45:28Z</time>
 </trkpt>
 <trkpt lat="47.210564" lon="12.346751">
 <ele>1302.57</ele>
 <time>2010-06-24T10:45:30Z</time>
 </trkpt>
 <trkpt lat="47.210953" lon="12.346618">
 <ele>1300.13</ele>
 <time>2010-06-24T10:45:36Z</time>
 </trkpt>
 <trkpt lat="47.211166" lon="12.346483">
 <ele>1300.31</ele>
 <time>2010-06-24T10:45:40Z</time>
 </trkpt>
 <trkpt lat="47.211399" lon="12.346190">
 <ele>1300.03</ele>
 <time>2010-06-24T10:45:47Z</time>
 </trkpt>
 <trkpt lat="47.211658" lon="12.345799">
 <ele>1298.79</ele>
 <time>2010-06-24T10:45:55Z</time>
 </trkpt>
 <trkpt lat="47.211697" lon="12.345751">
 <ele>1298.80</ele>
 <time>2010-06-24T10:45:56Z</time>
 </trkpt>
 <trkpt lat="47.212044" lon="12.345399">
 <ele>1296.84</ele>
 <time>2010-06-24T10:46:04Z</time>
 </trkpt>
 <trkpt lat="47.212303" lon="12.345217">
 <ele>1296.20</ele>
 <time>2010-06-24T10:46:10Z</time>
 </trkpt>
 <trkpt lat="47.212410" lon="12.345159">
 <ele>1295.70</ele>
 <time>2010-06-24T10:46:16Z</time>
 </trkpt>
 <trkpt lat="47.212410" lon="12.345159">
 <ele>1295.94</ele>
 <time>2010-06-24T10:46:18Z</time>
 </trkpt>
 <trkpt lat="47.212410" lon="12.345159">
 <ele>1295.80</ele>
 <time>2010-06-24T10:46:24Z</time>
 </trkpt>
 <trkpt lat="47.212410" lon="12.345159">
 <ele>1295.93</ele>
 <time>2010-06-24T10:46:25Z</time>
 </trkpt>
 <trkpt lat="47.212410" lon="12.345159">
 <ele>1296.05</ele>
 <time>2010-06-24T10:46:30Z</time>
 </trkpt>
 <trkpt lat="47.212410" lon="12.345159">
 <ele>1296.17</ele>
 <time>2010-06-24T10:46:31Z</time>
 </trkpt>
 <trkpt lat="47.212410" lon="12.345159">
 <ele>1296.32</ele>
 <time>2010-06-24T10:46:44Z</time>
 </trkpt>
 <trkpt lat="47.212494" lon="12.345118">
 <ele>1295.89</ele>
 <time>2010-06-24T10:46:50Z</time>
 </trkpt>
 <trkpt lat="47.212677" lon="12.344934">
 <ele>1294.05</ele>
 <time>2010-06-24T10:46:56Z</time>
 </trkpt>
 <trkpt lat="47.212936" lon="12.344725">
 <ele>1291.82</ele>
 <time>2010-06-24T10:47:03Z</time>
 </trkpt>
 <trkpt lat="47.213066" lon="12.344677">
 <ele>1290.87</ele>
 <time>2010-06-24T10:47:06Z</time>
 </trkpt>
 <trkpt lat="47.213253" lon="12.344504">
 <ele>1289.05</ele>
 <time>2010-06-24T10:47:11Z</time>
 </trkpt>
 <trkpt lat="47.213387" lon="12.344251">
 <ele>1287.72</ele>
 <time>2010-06-24T10:47:16Z</time>
 </trkpt>
 <trkpt lat="47.213490" lon="12.344129">
 <ele>1286.91</ele>
 <time>2010-06-24T10:47:19Z</time>
 </trkpt>
 <trkpt lat="47.213837" lon="12.343962">
 <ele>1284.86</ele>
 <time>2010-06-24T10:47:26Z</time>
 </trkpt>
 <trkpt lat="47.213943" lon="12.343910">
 <ele>1284.12</ele>
 <time>2010-06-24T10:47:28Z</time>
 </trkpt>
 <trkpt lat="47.214046" lon="12.343879">
 <ele>1283.38</ele>
 <time>2010-06-24T10:47:30Z</time>
 </trkpt>
 <trkpt lat="47.214432" lon="12.343885">
 <ele>1280.44</ele>
 <time>2010-06-24T10:47:37Z</time>
 </trkpt>
 <trkpt lat="47.214729" lon="12.343895">
 <ele>1277.82</ele>
 <time>2010-06-24T10:47:42Z</time>
 </trkpt>
 <trkpt lat="47.214985" lon="12.343834">
 <ele>1276.45</ele>
 <time>2010-06-24T10:47:47Z</time>
 </trkpt>
 <trkpt lat="47.215199" lon="12.343682">
 <ele>1274.78</ele>
 <time>2010-06-24T10:47:52Z</time>
 </trkpt>
 <trkpt lat="47.215408" lon="12.343533">
 <ele>1272.11</ele>
 <time>2010-06-24T10:47:57Z</time>
 </trkpt>
 <trkpt lat="47.215450" lon="12.343521">
 <ele>1271.56</ele>
 <time>2010-06-24T10:47:58Z</time>
 </trkpt>
 <trkpt lat="47.215744" lon="12.343567">
 <ele>1268.67</ele>
 <time>2010-06-24T10:48:04Z</time>
 </trkpt>
 <trkpt lat="47.216206" lon="12.343703">
 <ele>1266.25</ele>
 <time>2010-06-24T10:48:12Z</time>
 </trkpt>
 <trkpt lat="47.216457" lon="12.343741">
 <ele>1264.88</ele>
 <time>2010-06-24T10:48:17Z</time>
 </trkpt>
 <trkpt lat="47.216705" lon="12.343704">
 <ele>1262.94</ele>
 <time>2010-06-24T10:48:23Z</time>
 </trkpt>
 <trkpt lat="47.216881" lon="12.343622">
 <ele>1261.56</ele>
 <time>2010-06-24T10:48:27Z</time>
 </trkpt>
 <trkpt lat="47.217155" lon="12.343441">
 <ele>1258.64</ele>
 <time>2010-06-24T10:48:34Z</time>
 </trkpt>
 <trkpt lat="47.217266" lon="12.343385">
 <ele>1257.73</ele>
 <time>2010-06-24T10:48:37Z</time>
 </trkpt>
 <trkpt lat="47.217529" lon="12.343351">
 <ele>1255.57</ele>
 <time>2010-06-24T10:48:43Z</time>
 </trkpt>
 <trkpt lat="47.217716" lon="12.343397">
 <ele>1253.74</ele>
 <time>2010-06-24T10:48:47Z</time>
 </trkpt>
 <trkpt lat="47.217842" lon="12.343507">
 <ele>1252.63</ele>
 <time>2010-06-24T10:48:50Z</time>
 </trkpt>
 <trkpt lat="47.218033" lon="12.343572">
 <ele>1251.19</ele>
 <time>2010-06-24T10:48:54Z</time>
 </trkpt>
 <trkpt lat="47.218170" lon="12.343576">
 <ele>1250.44</ele>
 <time>2010-06-24T10:48:57Z</time>
 </trkpt>
 <trkpt lat="47.218418" lon="12.343411">
 <ele>1248.07</ele>
 <time>2010-06-24T10:49:03Z</time>
 </trkpt>
 <trkpt lat="47.218616" lon="12.343300">
 <ele>1245.58</ele>
 <time>2010-06-24T10:49:07Z</time>
 </trkpt>
 <trkpt lat="47.219097" lon="12.343203">
 <ele>1239.87</ele>
 <time>2010-06-24T10:49:15Z</time>
 </trkpt>
 <trkpt lat="47.219402" lon="12.343149">
 <ele>1237.54</ele>
 <time>2010-06-24T10:49:21Z</time>
 </trkpt>
 <trkpt lat="47.219692" lon="12.342988">
 <ele>1234.73</ele>
 <time>2010-06-24T10:49:27Z</time>
 </trkpt>
 <trkpt lat="47.219883" lon="12.342748">
 <ele>1232.25</ele>
 <time>2010-06-24T10:49:32Z</time>
 </trkpt>
 <trkpt lat="47.220146" lon="12.342447">
 <ele>1229.48</ele>
 <time>2010-06-24T10:49:38Z</time>
 </trkpt>
 <trkpt lat="47.220463" lon="12.342003">
 <ele>1227.73</ele>
 <time>2010-06-24T10:49:46Z</time>
 </trkpt>
 <trkpt lat="47.220535" lon="12.341883">
 <ele>1227.11</ele>
 <time>2010-06-24T10:49:48Z</time>
 </trkpt>
 <trkpt lat="47.220772" lon="12.341665">
 <ele>1226.28</ele>
 <time>2010-06-24T10:49:53Z</time>
 </trkpt>
 <trkpt lat="47.220825" lon="12.341623">
 <ele>1225.87</ele>
 <time>2010-06-24T10:49:54Z</time>
 </trkpt>
 <trkpt lat="47.220959" lon="12.341526">
 <ele>1224.71</ele>
 <time>2010-06-24T10:49:57Z</time>
 </trkpt>
 <trkpt lat="47.221245" lon="12.341215">
 <ele>1221.80</ele>
 <time>2010-06-24T10:50:05Z</time>
 </trkpt>
 <trkpt lat="47.221359" lon="12.341120">
 <ele>1220.28</ele>
 <time>2010-06-24T10:50:10Z</time>
 </trkpt>
 <trkpt lat="47.221401" lon="12.341087">
 <ele>1219.45</ele>
 <time>2010-06-24T10:50:14Z</time>
 </trkpt>
 <trkpt lat="47.221416" lon="12.341074">
 <ele>1219.86</ele>
 <time>2010-06-24T10:51:15Z</time>
 </trkpt>
 <trkpt lat="47.221542" lon="12.340991">
 <ele>1217.40</ele>
 <time>2010-06-24T10:51:21Z</time>
 </trkpt>
 <trkpt lat="47.221752" lon="12.340886">
 <ele>1214.20</ele>
 <time>2010-06-24T10:51:28Z</time>
 </trkpt>
 <trkpt lat="47.221912" lon="12.340819">
 <ele>1211.10</ele>
 <time>2010-06-24T10:51:33Z</time>
 </trkpt>
 <trkpt lat="47.222115" lon="12.340744">
 <ele>1207.77</ele>
 <time>2010-06-24T10:51:39Z</time>
 </trkpt>
 <trkpt lat="47.222366" lon="12.340680">
 <ele>1204.24</ele>
 <time>2010-06-24T10:51:46Z</time>
 </trkpt>
 <trkpt lat="47.222584" lon="12.340706">
 <ele>1201.42</ele>
 <time>2010-06-24T10:51:53Z</time>
 </trkpt>
 <trkpt lat="47.222794" lon="12.340778">
 <ele>1196.84</ele>
 <time>2010-06-24T10:52:00Z</time>
 </trkpt>
 <trkpt lat="47.222984" lon="12.340836">
 <ele>1193.29</ele>
 <time>2010-06-24T10:52:07Z</time>
 </trkpt>
 <trkpt lat="47.223198" lon="12.340790">
 <ele>1190.02</ele>
 <time>2010-06-24T10:52:14Z</time>
 </trkpt>
 <trkpt lat="47.223343" lon="12.340735">
 <ele>1187.01</ele>
 <time>2010-06-24T10:52:20Z</time>
 </trkpt>
 <trkpt lat="47.223541" lon="12.340678">
 <ele>1183.01</ele>
 <time>2010-06-24T10:52:28Z</time>
 </trkpt>
 <trkpt lat="47.223713" lon="12.340580">
 <ele>1179.91</ele>
 <time>2010-06-24T10:52:34Z</time>
 </trkpt>
 <trkpt lat="47.223812" lon="12.340490">
 <ele>1177.99</ele>
 <time>2010-06-24T10:52:39Z</time>
 </trkpt>
 <trkpt lat="47.223930" lon="12.340345">
 <ele>1175.28</ele>
 <time>2010-06-24T10:52:44Z</time>
 </trkpt>
 <trkpt lat="47.224030" lon="12.340153">
 <ele>1172.10</ele>
 <time>2010-06-24T10:52:51Z</time>
 </trkpt>
 <trkpt lat="47.224140" lon="12.340042">
 <ele>1169.58</ele>
 <time>2010-06-24T10:52:57Z</time>
 </trkpt>
 <trkpt lat="47.224281" lon="12.339910">
 <ele>1166.21</ele>
 <time>2010-06-24T10:53:04Z</time>
 </trkpt>
 <trkpt lat="47.224430" lon="12.339785">
 <ele>1163.22</ele>
 <time>2010-06-24T10:53:10Z</time>
 </trkpt>
 <trkpt lat="47.224648" lon="12.339520">
 <ele>1157.89</ele>
 <time>2010-06-24T10:53:18Z</time>
 </trkpt>
 <trkpt lat="47.224804" lon="12.339308">
 <ele>1154.83</ele>
 <time>2010-06-24T10:53:25Z</time>
 </trkpt>
 <trkpt lat="47.224903" lon="12.339129">
 <ele>1152.45</ele>
 <time>2010-06-24T10:53:31Z</time>
 </trkpt>
 <trkpt lat="47.225021" lon="12.338851">
 <ele>1149.35</ele>
 <time>2010-06-24T10:53:38Z</time>
 </trkpt>
 <trkpt lat="47.225178" lon="12.338624">
 <ele>1146.31</ele>
 <time>2010-06-24T10:53:47Z</time>
 </trkpt>
 <trkpt lat="47.225311" lon="12.338540">
 <ele>1143.65</ele>
 <time>2010-06-24T10:53:52Z</time>
 </trkpt>
 <trkpt lat="47.225494" lon="12.338426">
 <ele>1140.00</ele>
 <time>2010-06-24T10:53:59Z</time>
 </trkpt>
 <trkpt lat="47.225601" lon="12.338359">
 <ele>1137.81</ele>
 <time>2010-06-24T10:54:03Z</time>
 </trkpt>
 <trkpt lat="47.225822" lon="12.338137">
 <ele>1133.76</ele>
 <time>2010-06-24T10:54:10Z</time>
 </trkpt>
 <trkpt lat="47.225914" lon="12.338037">
 <ele>1132.53</ele>
 <time>2010-06-24T10:54:13Z</time>
 </trkpt>
 <trkpt lat="47.226032" lon="12.337845">
 <ele>1130.40</ele>
 <time>2010-06-24T10:54:18Z</time>
 </trkpt>
 <trkpt lat="47.226078" lon="12.337706">
 <ele>1128.87</ele>
 <time>2010-06-24T10:54:21Z</time>
 </trkpt>
 <trkpt lat="47.226063" lon="12.337353">
 <ele>1127.47</ele>
 <time>2010-06-24T10:54:27Z</time>
 </trkpt>
 <trkpt lat="47.226078" lon="12.337180">
 <ele>1127.59</ele>
 <time>2010-06-24T10:54:30Z</time>
 </trkpt>
 <trkpt lat="47.226151" lon="12.336946">
 <ele>1126.67</ele>
 <time>2010-06-24T10:54:35Z</time>
 </trkpt>
 <trkpt lat="47.226288" lon="12.336639">
 <ele>1123.87</ele>
 <time>2010-06-24T10:54:41Z</time>
 </trkpt>
 <trkpt lat="47.226383" lon="12.336467">
 <ele>1122.84</ele>
 <time>2010-06-24T10:54:44Z</time>
 </trkpt>
 <trkpt lat="47.226582" lon="12.336376">
 <ele>1120.83</ele>
 <time>2010-06-24T10:54:50Z</time>
 </trkpt>
 <trkpt lat="47.226711" lon="12.336355">
 <ele>1120.06</ele>
 <time>2010-06-24T10:54:53Z</time>
 </trkpt>
 <trkpt lat="47.226929" lon="12.336221">
 <ele>1118.74</ele>
 <time>2010-06-24T10:54:58Z</time>
 </trkpt>
 <trkpt lat="47.227070" lon="12.335956">
 <ele>1116.43</ele>
 <time>2010-06-24T10:55:03Z</time>
 </trkpt>
 <trkpt lat="47.227276" lon="12.335643">
 <ele>1114.53</ele>
 <time>2010-06-24T10:55:08Z</time>
 </trkpt>
 <trkpt lat="47.227505" lon="12.335427">
 <ele>1112.69</ele>
 <time>2010-06-24T10:55:13Z</time>
 </trkpt>
 <trkpt lat="47.227634" lon="12.335403">
 <ele>1112.05</ele>
 <time>2010-06-24T10:55:15Z</time>
 </trkpt>
 <trkpt lat="47.227905" lon="12.335267">
 <ele>1111.53</ele>
 <time>2010-06-24T10:55:20Z</time>
 </trkpt>
 <trkpt lat="47.228100" lon="12.335015">
 <ele>1110.05</ele>
 <time>2010-06-24T10:55:25Z</time>
 </trkpt>
 <trkpt lat="47.228123" lon="12.334949">
 <ele>1109.84</ele>
 <time>2010-06-24T10:55:26Z</time>
 </trkpt>
 <trkpt lat="47.228298" lon="12.334590">
 <ele>1109.44</ele>
 <time>2010-06-24T10:55:33Z</time>
 </trkpt>
 <trkpt lat="47.228512" lon="12.334246">
 <ele>1108.61</ele>
 <time>2010-06-24T10:55:39Z</time>
 </trkpt>
 <trkpt lat="47.228634" lon="12.334047">
 <ele>1107.63</ele>
 <time>2010-06-24T10:55:42Z</time>
 </trkpt>
 <trkpt lat="47.228809" lon="12.333971">
 <ele>1106.92</ele>
 <time>2010-06-24T10:55:46Z</time>
 </trkpt>
 <trkpt lat="47.229042" lon="12.333845">
 <ele>1107.08</ele>
 <time>2010-06-24T10:55:51Z</time>
 </trkpt>
 <trkpt lat="47.229221" lon="12.333627">
 <ele>1107.54</ele>
 <time>2010-06-24T10:55:56Z</time>
 </trkpt>
 <trkpt lat="47.229462" lon="12.333322">
 <ele>1105.96</ele>
 <time>2010-06-24T10:56:02Z</time>
 </trkpt>
 <trkpt lat="47.229504" lon="12.333266">
 <ele>1105.63</ele>
 <time>2010-06-24T10:56:03Z</time>
 </trkpt>
 <trkpt lat="47.229591" lon="12.333150">
 <ele>1104.93</ele>
 <time>2010-06-24T10:56:05Z</time>
 </trkpt>
 <trkpt lat="47.229671" lon="12.333042">
 <ele>1104.49</ele>
 <time>2010-06-24T10:56:07Z</time>
 </trkpt>
 <trkpt lat="47.229874" lon="12.332883">
 <ele>1103.97</ele>
 <time>2010-06-24T10:56:12Z</time>
 </trkpt>
 <trkpt lat="47.229908" lon="12.332883">
 <ele>1103.98</ele>
 <time>2010-06-24T10:56:13Z</time>
 </trkpt>
 <trkpt lat="47.230022" lon="12.332883">
 <ele>1103.53</ele>
 <time>2010-06-24T10:56:16Z</time>
 </trkpt>
 <trkpt lat="47.230251" lon="12.332821">
 <ele>1102.11</ele>
 <time>2010-06-24T10:56:21Z</time>
 </trkpt>
 <trkpt lat="47.230293" lon="12.332785">
 <ele>1101.64</ele>
 <time>2010-06-24T10:56:22Z</time>
 </trkpt>
 <trkpt lat="47.230450" lon="12.332655">
 <ele>1100.79</ele>
 <time>2010-06-24T10:56:26Z</time>
 </trkpt>
 <trkpt lat="47.230560" lon="12.332572">
 <ele>1099.25</ele>
 <time>2010-06-24T10:56:29Z</time>
 </trkpt>
 <trkpt lat="47.230858" lon="12.332420">
 <ele>1094.77</ele>
 <time>2010-06-24T10:56:36Z</time>
 </trkpt>
 <trkpt lat="47.230900" lon="12.332403">
 <ele>1094.27</ele>
 <time>2010-06-24T10:56:37Z</time>
 </trkpt>
 <trkpt lat="47.231098" lon="12.332312">
 <ele>1091.38</ele>
 <time>2010-06-24T10:56:42Z</time>
 </trkpt>
 <trkpt lat="47.231243" lon="12.332166">
 <ele>1088.86</ele>
 <time>2010-06-24T10:56:46Z</time>
 </trkpt>
 <trkpt lat="47.231327" lon="12.332082">
 <ele>1088.17</ele>
 <time>2010-06-24T10:56:48Z</time>
 </trkpt>
 <trkpt lat="47.231449" lon="12.331944">
 <ele>1085.95</ele>
 <time>2010-06-24T10:56:51Z</time>
 </trkpt>
 <trkpt lat="47.231682" lon="12.331677">
 <ele>1082.90</ele>
 <time>2010-06-24T10:56:57Z</time>
 </trkpt>
 <trkpt lat="47.231823" lon="12.331557">
 <ele>1080.73</ele>
 <time>2010-06-24T10:57:02Z</time>
 </trkpt>
 <trkpt lat="47.231846" lon="12.331570">
 <ele>1080.21</ele>
 <time>2010-06-24T10:57:03Z</time>
 </trkpt>
 <trkpt lat="47.231983" lon="12.331644">
 <ele>1077.88</ele>
 <time>2010-06-24T10:57:07Z</time>
 </trkpt>
 <trkpt lat="47.232128" lon="12.331721">
 <ele>1075.88</ele>
 <time>2010-06-24T10:57:10Z</time>
 </trkpt>
 <trkpt lat="47.232441" lon="12.331826">
 <ele>1073.01</ele>
 <time>2010-06-24T10:57:17Z</time>
 </trkpt>
 <trkpt lat="47.232471" lon="12.331834">
 <ele>1072.58</ele>
 <time>2010-06-24T10:57:18Z</time>
 </trkpt>
 <trkpt lat="47.232704" lon="12.331842">
 <ele>1069.33</ele>
 <time>2010-06-24T10:57:23Z</time>
 </trkpt>
 <trkpt lat="47.232761" lon="12.331837">
 <ele>1068.81</ele>
 <time>2010-06-24T10:57:24Z</time>
 </trkpt>
 <trkpt lat="47.233128" lon="12.331775">
 <ele>1064.50</ele>
 <time>2010-06-24T10:57:30Z</time>
 </trkpt>
 <trkpt lat="47.233311" lon="12.331703">
 <ele>1063.46</ele>
 <time>2010-06-24T10:57:34Z</time>
 </trkpt>
 <trkpt lat="47.233444" lon="12.331704">
 <ele>1062.62</ele>
 <time>2010-06-24T10:57:38Z</time>
 </trkpt>
 <trkpt lat="47.233612" lon="12.331710">
 <ele>1060.84</ele>
 <time>2010-06-24T10:57:41Z</time>
 </trkpt>
 <trkpt lat="47.233898" lon="12.331720">
 <ele>1058.70</ele>
 <time>2010-06-24T10:57:46Z</time>
 </trkpt>
 <trkpt lat="47.234066" lon="12.331705">
 <ele>1057.37</ele>
 <time>2010-06-24T10:57:49Z</time>
 </trkpt>
 <trkpt lat="47.234394" lon="12.331550">
 <ele>1053.82</ele>
 <time>2010-06-24T10:57:55Z</time>
 </trkpt>
 <trkpt lat="47.234501" lon="12.331489">
 <ele>1052.62</ele>
 <time>2010-06-24T10:57:57Z</time>
 </trkpt>
 <trkpt lat="47.234768" lon="12.331275">
 <ele>1049.42</ele>
 <time>2010-06-24T10:58:03Z</time>
 </trkpt>
 <trkpt lat="47.235016" lon="12.331051">
 <ele>1045.66</ele>
 <time>2010-06-24T10:58:08Z</time>
 </trkpt>
 <trkpt lat="47.235336" lon="12.330733">
 <ele>1041.15</ele>
 <time>2010-06-24T10:58:15Z</time>
 </trkpt>
 <trkpt lat="47.235538" lon="12.330510">
 <ele>1037.65</ele>
 <time>2010-06-24T10:58:21Z</time>
 </trkpt>
 <trkpt lat="47.235603" lon="12.330427">
 <ele>1036.67</ele>
 <time>2010-06-24T10:58:23Z</time>
 </trkpt>
 <trkpt lat="47.235786" lon="12.330186">
 <ele>1034.11</ele>
 <time>2010-06-24T10:58:28Z</time>
 </trkpt>
 <trkpt lat="47.235825" lon="12.330138">
 <ele>1033.25</ele>
 <time>2010-06-24T10:58:29Z</time>
 </trkpt>
 <trkpt lat="47.235947" lon="12.329786">
 <ele>1029.66</ele>
 <time>2010-06-24T10:58:35Z</time>
 </trkpt>
 <trkpt lat="47.236115" lon="12.329430">
 <ele>1026.00</ele>
 <time>2010-06-24T10:58:43Z</time>
 </trkpt>
 <trkpt lat="47.236137" lon="12.329383">
 <ele>1025.55</ele>
 <time>2010-06-24T10:58:44Z</time>
 </trkpt>
 <trkpt lat="47.236191" lon="12.329290">
 <ele>1024.58</ele>
 <time>2010-06-24T10:58:46Z</time>
 </trkpt>
 <trkpt lat="47.236423" lon="12.329066">
 <ele>1021.44</ele>
 <time>2010-06-24T10:58:52Z</time>
 </trkpt>
 <trkpt lat="47.236492" lon="12.328998">
 <ele>1020.89</ele>
 <time>2010-06-24T10:58:54Z</time>
 </trkpt>
 <trkpt lat="47.236622" lon="12.328840">
 <ele>1018.76</ele>
 <time>2010-06-24T10:58:58Z</time>
 </trkpt>
 <trkpt lat="47.236904" lon="12.328505">
 <ele>1013.22</ele>
 <time>2010-06-24T10:59:05Z</time>
 </trkpt>
 <trkpt lat="47.237110" lon="12.328295">
 <ele>1010.53</ele>
 <time>2010-06-24T10:59:10Z</time>
 </trkpt>
 <trkpt lat="47.237190" lon="12.328213">
 <ele>1009.53</ele>
 <time>2010-06-24T10:59:12Z</time>
 </trkpt>
 <trkpt lat="47.237331" lon="12.328036">
 <ele>1007.33</ele>
 <time>2010-06-24T10:59:16Z</time>
 </trkpt>
 <trkpt lat="47.237423" lon="12.327870">
 <ele>1006.25</ele>
 <time>2010-06-24T10:59:19Z</time>
 </trkpt>
 <trkpt lat="47.237511" lon="12.327717">
 <ele>1005.28</ele>
 <time>2010-06-24T10:59:22Z</time>
 </trkpt>
 <trkpt lat="47.237637" lon="12.327541">
 <ele>1003.96</ele>
 <time>2010-06-24T10:59:26Z</time>
 </trkpt>
 <trkpt lat="47.237782" lon="12.327505">
 <ele>1001.72</ele>
 <time>2010-06-24T10:59:31Z</time>
 </trkpt>
 <trkpt lat="47.237823" lon="12.327522">
 <ele>1001.32</ele>
 <time>2010-06-24T10:59:32Z</time>
 </trkpt>
 <trkpt lat="47.237896" lon="12.327554">
 <ele>1000.56</ele>
 <time>2010-06-24T10:59:34Z</time>
 </trkpt>
 <trkpt lat="47.237965" lon="12.327584">
 <ele>999.63</ele>
 <time>2010-06-24T10:59:36Z</time>
 </trkpt>
 <trkpt lat="47.238182" lon="12.327591">
 <ele>996.47</ele>
 <time>2010-06-24T10:59:42Z</time>
 </trkpt>
 <trkpt lat="47.238285" lon="12.327584">
 <ele>995.39</ele>
 <time>2010-06-24T10:59:46Z</time>
 </trkpt>
 <trkpt lat="47.238472" lon="12.327499">
 <ele>993.07</ele>
 <time>2010-06-24T10:59:50Z</time>
 </trkpt>
 <trkpt lat="47.238621" lon="12.327431">
 <ele>991.60</ele>
 <time>2010-06-24T10:59:53Z</time>
 </trkpt>
 <trkpt lat="47.238773" lon="12.327384">
 <ele>989.69</ele>
 <time>2010-06-24T10:59:57Z</time>
 </trkpt>
 <trkpt lat="47.238949" lon="12.327313">
 <ele>986.96</ele>
 <time>2010-06-24T11:00:01Z</time>
 </trkpt>
 <trkpt lat="47.239212" lon="12.327177">
 <ele>984.24</ele>
 <time>2010-06-24T11:00:07Z</time>
 </trkpt>
 <trkpt lat="47.239338" lon="12.327116">
 <ele>983.58</ele>
 <time>2010-06-24T11:00:10Z</time>
 </trkpt>
 <trkpt lat="47.239494" lon="12.327043">
 <ele>982.29</ele>
 <time>2010-06-24T11:00:13Z</time>
 </trkpt>
 <trkpt lat="47.239731" lon="12.326958">
 <ele>980.08</ele>
 <time>2010-06-24T11:00:17Z</time>
 </trkpt>
 <trkpt lat="47.239784" lon="12.326955">
 <ele>979.65</ele>
 <time>2010-06-24T11:00:18Z</time>
 </trkpt>
 <trkpt lat="47.240101" lon="12.326942">
 <ele>979.91</ele>
 <time>2010-06-24T11:00:24Z</time>
 </trkpt>
 <trkpt lat="47.240200" lon="12.326936">
 <ele>980.00</ele>
 <time>2010-06-24T11:00:26Z</time>
 </trkpt>
 <trkpt lat="47.240440" lon="12.326914">
 <ele>979.44</ele>
 <time>2010-06-24T11:00:31Z</time>
 </trkpt>
 <trkpt lat="47.240578" lon="12.326896">
 <ele>979.39</ele>
 <time>2010-06-24T11:00:34Z</time>
 </trkpt>
 <trkpt lat="47.240852" lon="12.326807">
 <ele>978.35</ele>
 <time>2010-06-24T11:00:40Z</time>
 </trkpt>
 <trkpt lat="47.240906" lon="12.326780">
 <ele>978.43</ele>
 <time>2010-06-24T11:00:41Z</time>
 </trkpt>
 <trkpt lat="47.241070" lon="12.326665">
 <ele>977.58</ele>
 <time>2010-06-24T11:00:44Z</time>
 </trkpt>
 <trkpt lat="47.241226" lon="12.326503">
 <ele>975.81</ele>
 <time>2010-06-24T11:00:48Z</time>
 </trkpt>
 <trkpt lat="47.241299" lon="12.326421">
 <ele>975.33</ele>
 <time>2010-06-24T11:00:50Z</time>
 </trkpt>
 <trkpt lat="47.241444" lon="12.326209">
 <ele>973.39</ele>
 <time>2010-06-24T11:00:54Z</time>
 </trkpt>
 <trkpt lat="47.241608" lon="12.325889">
 <ele>970.45</ele>
 <time>2010-06-24T11:00:59Z</time>
 </trkpt>
 <trkpt lat="47.241707" lon="12.325683">
 <ele>968.65</ele>
 <time>2010-06-24T11:01:02Z</time>
 </trkpt>
 <trkpt lat="47.241779" lon="12.325535">
 <ele>967.84</ele>
 <time>2010-06-24T11:01:04Z</time>
 </trkpt>
 <trkpt lat="47.241955" lon="12.325378">
 <ele>966.89</ele>
 <time>2010-06-24T11:01:08Z</time>
 </trkpt>
 <trkpt lat="47.242325" lon="12.325187">
 <ele>963.97</ele>
 <time>2010-06-24T11:01:16Z</time>
 </trkpt>
 <trkpt lat="47.242573" lon="12.325084">
 <ele>961.82</ele>
 <time>2010-06-24T11:01:21Z</time>
 </trkpt>
 <trkpt lat="47.242668" lon="12.325055">
 <ele>960.74</ele>
 <time>2010-06-24T11:01:23Z</time>
 </trkpt>
 <trkpt lat="47.242928" lon="12.324875">
 <ele>959.36</ele>
 <time>2010-06-24T11:01:28Z</time>
 </trkpt>
 <trkpt lat="47.243008" lon="12.324804">
 <ele>958.93</ele>
 <time>2010-06-24T11:01:30Z</time>
 </trkpt>
 <trkpt lat="47.243179" lon="12.324708">
 <ele>957.84</ele>
 <time>2010-06-24T11:01:34Z</time>
 </trkpt>
 <trkpt lat="47.243305" lon="12.324712">
 <ele>956.93</ele>
 <time>2010-06-24T11:01:36Z</time>
 </trkpt>
 <trkpt lat="47.243519" lon="12.324746">
 <ele>955.30</ele>
 <time>2010-06-24T11:01:40Z</time>
 </trkpt>
 <trkpt lat="47.243614" lon="12.324664">
 <ele>955.23</ele>
 <time>2010-06-24T11:01:44Z</time>
 </trkpt>
 <trkpt lat="47.243614" lon="12.324664">
 <ele>955.32</ele>
 <time>2010-06-24T11:01:46Z</time>
 </trkpt>
 <trkpt lat="47.243683" lon="12.324610">
 <ele>955.26</ele>
 <time>2010-06-24T11:01:52Z</time>
 </trkpt>
 <trkpt lat="47.243851" lon="12.324468">
 <ele>953.88</ele>
 <time>2010-06-24T11:01:58Z</time>
 </trkpt>
 <trkpt lat="47.243923" lon="12.324368">
 <ele>953.51</ele>
 <time>2010-06-24T11:02:00Z</time>
 </trkpt>
 <trkpt lat="47.243992" lon="12.324256">
 <ele>952.83</ele>
 <time>2010-06-24T11:02:02Z</time>
 </trkpt>
 <trkpt lat="47.244083" lon="12.324009">
 <ele>950.93</ele>
 <time>2010-06-24T11:02:06Z</time>
 </trkpt>
 <trkpt lat="47.244240" lon="12.323805">
 <ele>949.01</ele>
 <time>2010-06-24T11:02:10Z</time>
 </trkpt>
 <trkpt lat="47.244331" lon="12.323600">
 <ele>947.44</ele>
 <time>2010-06-24T11:02:14Z</time>
 </trkpt>
 <trkpt lat="47.244362" lon="12.323478">
 <ele>946.33</ele>
 <time>2010-06-24T11:02:16Z</time>
 </trkpt>
 <trkpt lat="47.244488" lon="12.323154">
 <ele>942.81</ele>
 <time>2010-06-24T11:02:21Z</time>
 </trkpt>
 <trkpt lat="47.244518" lon="12.323092">
 <ele>942.11</ele>
 <time>2010-06-24T11:02:22Z</time>
 </trkpt>
 <trkpt lat="47.244617" lon="12.322896">
 <ele>940.37</ele>
 <time>2010-06-24T11:02:25Z</time>
 </trkpt>
 <trkpt lat="47.244675" lon="12.322770">
 <ele>939.43</ele>
 <time>2010-06-24T11:02:27Z</time>
 </trkpt>
 <trkpt lat="47.244865" lon="12.322464">
 <ele>937.23</ele>
 <time>2010-06-24T11:02:33Z</time>
 </trkpt>
 <trkpt lat="47.245026" lon="12.322144">
 <ele>934.65</ele>
 <time>2010-06-24T11:02:39Z</time>
 </trkpt>
 <trkpt lat="47.245098" lon="12.321898">
 <ele>931.60</ele>
 <time>2010-06-24T11:02:43Z</time>
 </trkpt>
 <trkpt lat="47.245148" lon="12.321805">
 <ele>930.43</ele>
 <time>2010-06-24T11:02:45Z</time>
 </trkpt>
 <trkpt lat="47.245270" lon="12.321695">
 <ele>928.49</ele>
 <time>2010-06-24T11:02:48Z</time>
 </trkpt>
 <trkpt lat="47.245361" lon="12.321607">
 <ele>926.64</ele>
 <time>2010-06-24T11:02:50Z</time>
 </trkpt>
 <trkpt lat="47.245522" lon="12.321444">
 <ele>923.76</ele>
 <time>2010-06-24T11:02:54Z</time>
 </trkpt>
 <trkpt lat="47.245804" lon="12.321024">
 <ele>917.56</ele>
 <time>2010-06-24T11:03:03Z</time>
 </trkpt>
 <trkpt lat="47.245884" lon="12.320804">
 <ele>915.67</ele>
 <time>2010-06-24T11:03:07Z</time>
 </trkpt>
 <trkpt lat="47.245998" lon="12.320293">
 <ele>910.99</ele>
 <time>2010-06-24T11:03:14Z</time>
 </trkpt>
 <trkpt lat="47.246101" lon="12.319825">
 <ele>906.68</ele>
 <time>2010-06-24T11:03:21Z</time>
 </trkpt>
 <trkpt lat="47.246155" lon="12.319720">
 <ele>905.29</ele>
 <time>2010-06-24T11:03:23Z</time>
 </trkpt>
 <trkpt lat="47.246319" lon="12.319451">
 <ele>902.48</ele>
 <time>2010-06-24T11:03:29Z</time>
 </trkpt>
 <trkpt lat="47.246532" lon="12.319232">
 <ele>898.09</ele>
 <time>2010-06-24T11:03:36Z</time>
 </trkpt>
 <trkpt lat="47.246719" lon="12.319096">
 <ele>895.22</ele>
 <time>2010-06-24T11:03:41Z</time>
 </trkpt>
 <trkpt lat="47.246857" lon="12.319028">
 <ele>893.90</ele>
 <time>2010-06-24T11:03:44Z</time>
 </trkpt>
 <trkpt lat="47.246872" lon="12.319024">
 <ele>893.03</ele>
 <time>2010-06-24T11:03:50Z</time>
 </trkpt>
 <trkpt lat="47.247032" lon="12.318987">
 <ele>892.18</ele>
 <time>2010-06-24T11:04:01Z</time>
 </trkpt>
 <trkpt lat="47.247147" lon="12.318919">
 <ele>891.33</ele>
 <time>2010-06-24T11:04:04Z</time>
 </trkpt>
 <trkpt lat="47.247375" lon="12.318739">
 <ele>887.85</ele>
 <time>2010-06-24T11:04:10Z</time>
 </trkpt>
 <trkpt lat="47.247429" lon="12.318698">
 <ele>887.17</ele>
 <time>2010-06-24T11:04:12Z</time>
 </trkpt>
 <trkpt lat="47.247723" lon="12.318478">
 <ele>884.88</ele>
 <time>2010-06-24T11:04:19Z</time>
 </trkpt>
 <trkpt lat="47.247860" lon="12.318374">
 <ele>884.09</ele>
 <time>2010-06-24T11:04:22Z</time>
 </trkpt>
 <trkpt lat="47.247971" lon="12.318292">
 <ele>882.74</ele>
 <time>2010-06-24T11:04:29Z</time>
 </trkpt>
 <trkpt lat="47.247971" lon="12.318292">
 <ele>882.67</ele>
 <time>2010-06-24T11:04:31Z</time>
 </trkpt>
 <trkpt lat="47.247971" lon="12.318292">
 <ele>882.87</ele>
 <time>2010-06-24T11:05:20Z</time>
 </trkpt>
 <trkpt lat="47.248245" lon="12.317983">
 <ele>882.79</ele>
 <time>2010-06-24T11:05:27Z</time>
 </trkpt>
 <trkpt lat="47.248268" lon="12.317958">
 <ele>882.75</ele>
 <time>2010-06-24T11:05:31Z</time>
 </trkpt>
 <trkpt lat="47.248276" lon="12.317949">
 <ele>882.48</ele>
 <time>2010-06-24T11:05:47Z</time>
 </trkpt>
 <trkpt lat="47.248260" lon="12.317964">
 <ele>882.62</ele>
 <time>2010-06-24T11:05:49Z</time>
 </trkpt>
 <trkpt lat="47.248234" lon="12.318000">
 <ele>882.73</ele>
 <time>2010-06-24T11:05:55Z</time>
 </trkpt>
 <trkpt lat="47.248234" lon="12.318000">
 <ele>883.13</ele>
 <time>2010-06-24T11:09:13Z</time>
 </trkpt>
 <trkpt lat="47.248234" lon="12.318000">
 <ele>882.73</ele>
 <time>2010-06-24T11:09:14Z</time>
 </trkpt>
 <trkpt lat="47.248234" lon="12.318000">
 <ele>882.59</ele>
 <time>2010-06-24T11:09:15Z</time>
 </trkpt>
 <trkpt lat="47.248310" lon="12.317967">
 <ele>882.38</ele>
 <time>2010-06-24T11:09:22Z</time>
 </trkpt>
 <trkpt lat="47.248409" lon="12.318180">
 <ele>882.93</ele>
 <time>2010-06-24T11:09:30Z</time>
 </trkpt>
 <trkpt lat="47.248497" lon="12.318372">
 <ele>883.24</ele>
 <time>2010-06-24T11:09:37Z</time>
 </trkpt>
 <trkpt lat="47.248604" lon="12.318423">
 <ele>881.65</ele>
 <time>2010-06-24T11:09:41Z</time>
 </trkpt>
 <trkpt lat="47.248886" lon="12.318352">
 <ele>879.73</ele>
 <time>2010-06-24T11:09:47Z</time>
 </trkpt>
 <trkpt lat="47.249233" lon="12.318186">
 <ele>877.25</ele>
 <time>2010-06-24T11:09:53Z</time>
 </trkpt>
 <trkpt lat="47.249676" lon="12.317954">
 <ele>875.41</ele>
 <time>2010-06-24T11:10:00Z</time>
 </trkpt>
 <trkpt lat="47.250134" lon="12.317722">
 <ele>873.38</ele>
 <time>2010-06-24T11:10:07Z</time>
 </trkpt>
 <trkpt lat="47.250351" lon="12.317510">
 <ele>873.53</ele>
 <time>2010-06-24T11:10:12Z</time>
 </trkpt>
 <trkpt lat="47.250385" lon="12.317448">
 <ele>873.61</ele>
 <time>2010-06-24T11:10:13Z</time>
 </trkpt>
 <trkpt lat="47.250450" lon="12.317321">
 <ele>873.10</ele>
 <time>2010-06-24T11:10:15Z</time>
 </trkpt>
 <trkpt lat="47.250851" lon="12.317073">
 <ele>870.24</ele>
 <time>2010-06-24T11:10:22Z</time>
 </trkpt>
 <trkpt lat="47.251251" lon="12.316845">
 <ele>867.88</ele>
 <time>2010-06-24T11:10:28Z</time>
 </trkpt>
 <trkpt lat="47.251675" lon="12.316695">
 <ele>866.32</ele>
 <time>2010-06-24T11:10:34Z</time>
 </trkpt>
 <trkpt lat="47.252239" lon="12.316600">
 <ele>864.64</ele>
 <time>2010-06-24T11:10:42Z</time>
 </trkpt>
 <trkpt lat="47.252953" lon="12.316450">
 <ele>862.59</ele>
 <time>2010-06-24T11:10:52Z</time>
 </trkpt>
 <trkpt lat="47.253120" lon="12.316489">
 <ele>860.79</ele>
 <time>2010-06-24T11:10:58Z</time>
 </trkpt>
 <trkpt lat="47.253647" lon="12.316633">
 <ele>859.99</ele>
 <time>2010-06-24T11:11:04Z</time>
 </trkpt>
 <trkpt lat="47.253994" lon="12.316672">
 <ele>859.90</ele>
 <time>2010-06-24T11:11:10Z</time>
 </trkpt>
 <trkpt lat="47.254608" lon="12.316549">
 <ele>857.78</ele>
 <time>2010-06-24T11:11:20Z</time>
 </trkpt>
 <trkpt lat="47.255127" lon="12.316422">
 <ele>857.55</ele>
 <time>2010-06-24T11:11:29Z</time>
 </trkpt>
 <trkpt lat="47.255531" lon="12.316419">
 <ele>857.20</ele>
 <time>2010-06-24T11:11:36Z</time>
 </trkpt>
 <trkpt lat="47.255634" lon="12.316475">
 <ele>857.32</ele>
 <time>2010-06-24T11:11:38Z</time>
 </trkpt>
 <trkpt lat="47.255878" lon="12.316650">
 <ele>857.67</ele>
 <time>2010-06-24T11:11:43Z</time>
 </trkpt>
 <trkpt lat="47.256165" lon="12.317089">
 <ele>857.36</ele>
 <time>2010-06-24T11:11:51Z</time>
 </trkpt>
 <trkpt lat="47.256332" lon="12.317460">
 <ele>858.01</ele>
 <time>2010-06-24T11:11:58Z</time>
 </trkpt>
 <trkpt lat="47.256355" lon="12.317495">
 <ele>858.23</ele>
 <time>2010-06-24T11:11:59Z</time>
 </trkpt>
 <trkpt lat="47.256424" lon="12.317583">
 <ele>857.93</ele>
 <time>2010-06-24T11:12:04Z</time>
 </trkpt>
 <trkpt lat="47.256512" lon="12.317691">
 <ele>857.00</ele>
 <time>2010-06-24T11:12:10Z</time>
 </trkpt>
 <trkpt lat="47.256512" lon="12.317691">
 <ele>856.82</ele>
 <time>2010-06-24T11:12:17Z</time>
 </trkpt>
 <trkpt lat="47.256493" lon="12.319204">
 <ele>856.37</ele>
 <time>2010-06-24T11:12:23Z</time>
 </trkpt>
 <trkpt lat="47.256519" lon="12.319819">
 <ele>856.15</ele>
 <time>2010-06-24T11:12:31Z</time>
 </trkpt>
 <trkpt lat="47.256527" lon="12.320602">
 <ele>856.02</ele>
 <time>2010-06-24T11:12:41Z</time>
 </trkpt>
 <trkpt lat="47.256535" lon="12.321225">
 <ele>855.56</ele>
 <time>2010-06-24T11:12:49Z</time>
 </trkpt>
 <trkpt lat="47.256554" lon="12.322024">
 <ele>855.23</ele>
 <time>2010-06-24T11:12:59Z</time>
 </trkpt>
 <trkpt lat="47.256596" lon="12.322889">
 <ele>855.15</ele>
 <time>2010-06-24T11:13:10Z</time>
 </trkpt>
 <trkpt lat="47.256676" lon="12.323589">
 <ele>855.02</ele>
 <time>2010-06-24T11:13:19Z</time>
 </trkpt>
 <trkpt lat="47.256786" lon="12.324026">
 <ele>855.18</ele>
 <time>2010-06-24T11:13:25Z</time>
 </trkpt>
 <trkpt lat="47.257008" lon="12.324473">
 <ele>854.80</ele>
 <time>2010-06-24T11:13:32Z</time>
 </trkpt>
 <trkpt lat="47.257305" lon="12.324924">
 <ele>853.68</ele>
 <time>2010-06-24T11:13:40Z</time>
 </trkpt>
 <trkpt lat="47.257599" lon="12.325346">
 <ele>853.43</ele>
 <time>2010-06-24T11:13:48Z</time>
 </trkpt>
 <trkpt lat="47.257961" lon="12.325848">
 <ele>853.61</ele>
 <time>2010-06-24T11:13:58Z</time>
 </trkpt>
 <trkpt lat="47.258350" lon="12.326396">
 <ele>853.13</ele>
 <time>2010-06-24T11:14:09Z</time>
 </trkpt>
 <trkpt lat="47.258652" lon="12.326865">
 <ele>853.27</ele>
 <time>2010-06-24T11:14:18Z</time>
 </trkpt>
 <trkpt lat="47.258892" lon="12.327400">
 <ele>852.68</ele>
 <time>2010-06-24T11:14:27Z</time>
 </trkpt>
 <trkpt lat="47.259209" lon="12.328135">
 <ele>852.87</ele>
 <time>2010-06-24T11:14:39Z</time>
 </trkpt>
 <trkpt lat="47.259590" lon="12.328880">
 <ele>851.99</ele>
 <time>2010-06-24T11:14:52Z</time>
 </trkpt>
 <trkpt lat="47.260017" lon="12.329430">
 <ele>851.81</ele>
 <time>2010-06-24T11:15:03Z</time>
 </trkpt>
 <trkpt lat="47.260380" lon="12.329832">
 <ele>851.80</ele>
 <time>2010-06-24T11:15:12Z</time>
 </trkpt>
 <trkpt lat="47.260712" lon="12.330146">
 <ele>851.21</ele>
 <time>2010-06-24T11:15:20Z</time>
 </trkpt>
 <trkpt lat="47.261063" lon="12.330448">
 <ele>850.77</ele>
 <time>2010-06-24T11:15:28Z</time>
 </trkpt>
 <trkpt lat="47.261456" lon="12.330770">
 <ele>850.98</ele>
 <time>2010-06-24T11:15:37Z</time>
 </trkpt>
 <trkpt lat="47.261826" lon="12.331064">
 <ele>850.15</ele>
 <time>2010-06-24T11:15:45Z</time>
 </trkpt>
 <trkpt lat="47.262169" lon="12.331349">
 <ele>849.86</ele>
 <time>2010-06-24T11:15:53Z</time>
 </trkpt>
 <trkpt lat="47.262554" lon="12.331669">
 <ele>849.58</ele>
 <time>2010-06-24T11:16:02Z</time>
 </trkpt>
 <trkpt lat="47.263126" lon="12.332127">
 <ele>849.83</ele>
 <time>2010-06-24T11:16:15Z</time>
 </trkpt>
 <trkpt lat="47.263523" lon="12.332455">
 <ele>849.84</ele>
 <time>2010-06-24T11:16:24Z</time>
 </trkpt>
 <trkpt lat="47.263973" lon="12.332829">
 <ele>849.87</ele>
 <time>2010-06-24T11:16:34Z</time>
 </trkpt>
 <trkpt lat="47.264332" lon="12.333136">
 <ele>849.90</ele>
 <time>2010-06-24T11:16:42Z</time>
 </trkpt>
 <trkpt lat="47.264420" lon="12.333340">
 <ele>850.05</ele>
 <time>2010-06-24T11:16:46Z</time>
 </trkpt>
 <trkpt lat="47.264442" lon="12.333482">
 <ele>850.05</ele>
 <time>2010-06-24T11:16:49Z</time>
 </trkpt>
 <trkpt lat="47.264603" lon="12.333734">
 <ele>849.23</ele>
 <time>2010-06-24T11:16:54Z</time>
 </trkpt>
 <trkpt lat="47.264919" lon="12.334139">
 <ele>848.64</ele>
 <time>2010-06-24T11:17:02Z</time>
 </trkpt>
 <trkpt lat="47.265175" lon="12.334389">
 <ele>849.38</ele>
 <time>2010-06-24T11:17:08Z</time>
 </trkpt>
 <trkpt lat="47.265884" lon="12.333777">
 <ele>849.67</ele>
 <time>2010-06-24T11:17:12Z</time>
 </trkpt>
 <trkpt lat="47.266109" lon="12.334186">
 <ele>849.75</ele>
 <time>2010-06-24T11:17:19Z</time>
 </trkpt>
 <trkpt lat="47.266304" lon="12.334559">
 <ele>848.20</ele>
 <time>2010-06-24T11:17:25Z</time>
 </trkpt>
 <trkpt lat="47.266659" lon="12.335241">
 <ele>847.60</ele>
 <time>2010-06-24T11:17:36Z</time>
 </trkpt>
 <trkpt lat="47.266888" lon="12.335772">
 <ele>847.47</ele>
 <time>2010-06-24T11:17:43Z</time>
 </trkpt>
 <trkpt lat="47.267040" lon="12.336122">
 <ele>848.03</ele>
 <time>2010-06-24T11:17:49Z</time>
 </trkpt>
 <trkpt lat="47.267082" lon="12.336224">
 <ele>848.27</ele>
 <time>2010-06-24T11:17:52Z</time>
 </trkpt>
 <trkpt lat="47.266209" lon="12.337496">
 <ele>848.91</ele>
 <time>2010-06-24T11:17:59Z</time>
 </trkpt>
 <trkpt lat="47.266209" lon="12.337496">
 <ele>848.99</ele>
 <time>2010-06-24T11:18:01Z</time>
 </trkpt>
 <trkpt lat="47.266277" lon="12.337565">
 <ele>848.75</ele>
 <time>2010-06-24T11:18:06Z</time>
 </trkpt>
 <trkpt lat="47.266312" lon="12.337597">
 <ele>848.74</ele>
 <time>2010-06-24T11:18:07Z</time>
 </trkpt>
 <trkpt lat="47.266617" lon="12.337882">
 <ele>848.38</ele>
 <time>2010-06-24T11:18:15Z</time>
 </trkpt>
 <trkpt lat="47.266769" lon="12.338012">
 <ele>848.12</ele>
 <time>2010-06-24T11:18:19Z</time>
 </trkpt>
 <trkpt lat="47.266956" lon="12.338259">
 <ele>848.12</ele>
 <time>2010-06-24T11:18:25Z</time>
 </trkpt>
 <trkpt lat="47.267048" lon="12.338462">
 <ele>847.92</ele>
 <time>2010-06-24T11:18:30Z</time>
 </trkpt>
 <trkpt lat="47.267048" lon="12.338462">
 <ele>847.18</ele>
 <time>2010-06-24T11:18:34Z</time>
 </trkpt>
 <trkpt lat="47.267223" lon="12.339461">
 <ele>846.33</ele>
 <time>2010-06-24T11:18:44Z</time>
 </trkpt>
 <trkpt lat="47.267239" lon="12.340127">
 <ele>846.00</ele>
 <time>2010-06-24T11:18:53Z</time>
 </trkpt>
 <trkpt lat="47.267235" lon="12.340793">
 <ele>845.88</ele>
 <time>2010-06-24T11:19:02Z</time>
 </trkpt>
 <trkpt lat="47.267296" lon="12.341610">
 <ele>845.79</ele>
 <time>2010-06-24T11:19:13Z</time>
 </trkpt>
 <trkpt lat="47.267368" lon="12.342418">
 <ele>845.59</ele>
 <time>2010-06-24T11:19:24Z</time>
 </trkpt>
 <trkpt lat="47.267387" lon="12.343107">
 <ele>845.56</ele>
 <time>2010-06-24T11:19:33Z</time>
 </trkpt>
 <trkpt lat="47.267513" lon="12.343858">
 <ele>845.49</ele>
 <time>2010-06-24T11:19:43Z</time>
 </trkpt>
 <trkpt lat="47.267616" lon="12.344466">
 <ele>844.88</ele>
 <time>2010-06-24T11:19:51Z</time>
 </trkpt>
 <trkpt lat="47.267761" lon="12.345139">
 <ele>844.56</ele>
 <time>2010-06-24T11:20:00Z</time>
 </trkpt>
 <trkpt lat="47.267876" lon="12.345813">
 <ele>844.27</ele>
 <time>2010-06-24T11:20:09Z</time>
 </trkpt>
 <trkpt lat="47.268032" lon="12.346458">
 <ele>843.68</ele>
 <time>2010-06-24T11:20:18Z</time>
 </trkpt>
 <trkpt lat="47.268265" lon="12.347012">
 <ele>842.74</ele>
 <time>2010-06-24T11:20:27Z</time>
 </trkpt>
 <trkpt lat="47.268375" lon="12.347281">
 <ele>842.54</ele>
 <time>2010-06-24T11:20:36Z</time>
 </trkpt>
 <trkpt lat="47.268375" lon="12.347281">
 <ele>842.70</ele>
 <time>2010-06-24T11:20:47Z</time>
 </trkpt>
 <trkpt lat="47.269180" lon="12.349068">
 <ele>842.59</ele>
 <time>2010-06-24T11:21:01Z</time>
 </trkpt>
 <trkpt lat="47.269543" lon="12.349795">
 <ele>842.09</ele>
 <time>2010-06-24T11:21:14Z</time>
 </trkpt>
 <trkpt lat="47.269791" lon="12.350290">
 <ele>841.82</ele>
 <time>2010-06-24T11:21:23Z</time>
 </trkpt>
 <trkpt lat="47.270161" lon="12.351033">
 <ele>841.91</ele>
 <time>2010-06-24T11:21:36Z</time>
 </trkpt>
 <trkpt lat="47.270504" lon="12.351713">
 <ele>841.44</ele>
 <time>2010-06-24T11:21:48Z</time>
 </trkpt>
 <trkpt lat="47.270790" lon="12.352276">
 <ele>841.39</ele>
 <time>2010-06-24T11:21:58Z</time>
 </trkpt>
 <trkpt lat="47.271095" lon="12.352879">
 <ele>840.96</ele>
 <time>2010-06-24T11:22:09Z</time>
 </trkpt>
 <trkpt lat="47.272015" lon="12.352912">
 <ele>840.58</ele>
 <time>2010-06-24T11:22:23Z</time>
 </trkpt>
 <trkpt lat="47.272324" lon="12.353418">
 <ele>840.48</ele>
 <time>2010-06-24T11:22:34Z</time>
 </trkpt>
 <trkpt lat="47.272079" lon="12.354258">
 <ele>841.95</ele>
 <time>2010-06-24T11:22:39Z</time>
 </trkpt>
 <trkpt lat="47.272018" lon="12.354714">
 <ele>842.32</ele>
 <time>2010-06-24T11:22:45Z</time>
 </trkpt>
 <trkpt lat="47.271908" lon="12.354640">
 <ele>841.05</ele>
 <time>2010-06-24T11:22:53Z</time>
 </trkpt>
 <trkpt lat="47.273209" lon="12.355449">
 <ele>841.30</ele>
 <time>2010-06-24T11:23:05Z</time>
 </trkpt>
 <trkpt lat="47.273357" lon="12.356118">
 <ele>840.81</ele>
 <time>2010-06-24T11:23:14Z</time>
 </trkpt>
 <trkpt lat="47.273495" lon="12.356743">
 <ele>840.54</ele>
 <time>2010-06-24T11:23:23Z</time>
 </trkpt>
 <trkpt lat="47.273617" lon="12.357298">
 <ele>840.44</ele>
 <time>2010-06-24T11:23:31Z</time>
 </trkpt>
 <trkpt lat="47.273750" lon="12.358004">
 <ele>840.02</ele>
 <time>2010-06-24T11:23:40Z</time>
 </trkpt>
 <trkpt lat="47.273819" lon="12.358427">
 <ele>840.42</ele>
 <time>2010-06-24T11:23:46Z</time>
 </trkpt>
 <trkpt lat="47.273933" lon="12.359158">
 <ele>840.21</ele>
 <time>2010-06-24T11:23:55Z</time>
 </trkpt>
 <trkpt lat="47.273998" lon="12.359754">
 <ele>839.92</ele>
 <time>2010-06-24T11:24:03Z</time>
 </trkpt>
 <trkpt lat="47.274078" lon="12.360603">
 <ele>839.80</ele>
 <time>2010-06-24T11:24:14Z</time>
 </trkpt>
 <trkpt lat="47.274097" lon="12.360965">
 <ele>840.13</ele>
 <time>2010-06-24T11:24:19Z</time>
 </trkpt>
 <trkpt lat="47.274128" lon="12.361427">
 <ele>839.34</ele>
 <time>2010-06-24T11:24:25Z</time>
 </trkpt>
 <trkpt lat="47.274158" lon="12.361967">
 <ele>839.45</ele>
 <time>2010-06-24T11:24:32Z</time>
 </trkpt>
 <trkpt lat="47.273102" lon="12.363045">
 <ele>839.44</ele>
 <time>2010-06-24T11:24:44Z</time>
 </trkpt>
 <trkpt lat="47.272923" lon="12.363865">
 <ele>839.04</ele>
 <time>2010-06-24T11:24:55Z</time>
 </trkpt>
 <trkpt lat="47.272770" lon="12.364624">
 <ele>838.74</ele>
 <time>2010-06-24T11:25:05Z</time>
 </trkpt>
 <trkpt lat="47.272640" lon="12.365406">
 <ele>838.45</ele>
 <time>2010-06-24T11:25:15Z</time>
 </trkpt>
 <trkpt lat="47.272545" lon="12.366063">
 <ele>837.43</ele>
 <time>2010-06-24T11:25:23Z</time>
 </trkpt>
 <trkpt lat="47.272415" lon="12.366855">
 <ele>837.59</ele>
 <time>2010-06-24T11:25:33Z</time>
 </trkpt>
 <trkpt lat="47.272259" lon="12.367789">
 <ele>837.52</ele>
 <time>2010-06-24T11:25:45Z</time>
 </trkpt>
 <trkpt lat="47.272190" lon="12.368151">
 <ele>838.48</ele>
 <time>2010-06-24T11:25:51Z</time>
 </trkpt>
 <trkpt lat="47.272175" lon="12.368206">
 <ele>838.87</ele>
 <time>2010-06-24T11:25:53Z</time>
 </trkpt>
 <trkpt lat="47.272114" lon="12.368447">
 <ele>837.71</ele>
 <time>2010-06-24T11:25:57Z</time>
 </trkpt>
 <trkpt lat="47.272022" lon="12.369052">
 <ele>838.03</ele>
 <time>2010-06-24T11:26:07Z</time>
 </trkpt>
 <trkpt lat="47.271935" lon="12.369528">
 <ele>836.50</ele>
 <time>2010-06-24T11:26:14Z</time>
 </trkpt>
 <trkpt lat="47.271847" lon="12.370118">
 <ele>837.00</ele>
 <time>2010-06-24T11:26:22Z</time>
 </trkpt>
 <trkpt lat="47.271820" lon="12.370708">
 <ele>836.47</ele>
 <time>2010-06-24T11:26:30Z</time>
 </trkpt>
 <trkpt lat="47.271809" lon="12.371377">
 <ele>836.02</ele>
 <time>2010-06-24T11:26:39Z</time>
 </trkpt>
 <trkpt lat="47.271854" lon="12.371968">
 <ele>836.45</ele>
 <time>2010-06-24T11:26:47Z</time>
 </trkpt>
 <trkpt lat="47.271915" lon="12.372455">
 <ele>837.61</ele>
 <time>2010-06-24T11:26:54Z</time>
 </trkpt>
 <trkpt lat="47.272022" lon="12.372971">
 <ele>836.86</ele>
 <time>2010-06-24T11:27:01Z</time>
 </trkpt>
 <trkpt lat="47.272087" lon="12.373282">
 <ele>836.35</ele>
 <time>2010-06-24T11:27:05Z</time>
 </trkpt>
 <trkpt lat="47.272045" lon="12.373563">
 <ele>836.51</ele>
 <time>2010-06-24T11:27:09Z</time>
 </trkpt>
 <trkpt lat="47.271984" lon="12.373771">
 <ele>837.47</ele>
 <time>2010-06-24T11:27:13Z</time>
 </trkpt>
 <trkpt lat="47.272015" lon="12.373999">
 <ele>837.59</ele>
 <time>2010-06-24T11:27:17Z</time>
 </trkpt>
 <trkpt lat="47.272114" lon="12.374266">
 <ele>836.88</ele>
 <time>2010-06-24T11:27:21Z</time>
 </trkpt>
 <trkpt lat="47.272129" lon="12.374554">
 <ele>836.09</ele>
 <time>2010-06-24T11:27:25Z</time>
 </trkpt>
 <trkpt lat="47.272205" lon="12.374661">
 <ele>836.51</ele>
 <time>2010-06-24T11:27:28Z</time>
 </trkpt>
 <trkpt lat="47.272293" lon="12.374691">
 <ele>836.47</ele>
 <time>2010-06-24T11:27:30Z</time>
 </trkpt>
 <trkpt lat="47.273075" lon="12.375648">
 <ele>835.05</ele>
 <time>2010-06-24T11:27:38Z</time>
 </trkpt>
 <trkpt lat="47.273075" lon="12.375648">
 <ele>834.99</ele>
 <time>2010-06-24T11:27:39Z</time>
 </trkpt>
 <trkpt lat="47.272919" lon="12.375404">
 <ele>835.11</ele>
 <time>2010-06-24T11:27:47Z</time>
 </trkpt>
 <trkpt lat="47.273041" lon="12.375637">
 <ele>836.64</ele>
 <time>2010-06-24T11:27:53Z</time>
 </trkpt>
 <trkpt lat="47.273083" lon="12.375722">
 <ele>836.63</ele>
 <time>2010-06-24T11:27:55Z</time>
 </trkpt>
 <trkpt lat="47.273205" lon="12.376248">
 <ele>835.00</ele>
 <time>2010-06-24T11:28:03Z</time>
 </trkpt>
 <trkpt lat="47.273277" lon="12.376919">
 <ele>835.35</ele>
 <time>2010-06-24T11:28:12Z</time>
 </trkpt>
 <trkpt lat="47.273331" lon="12.377511">
 <ele>834.71</ele>
 <time>2010-06-24T11:28:20Z</time>
 </trkpt>
 <trkpt lat="47.273373" lon="12.378103">
 <ele>835.28</ele>
 <time>2010-06-24T11:28:29Z</time>
 </trkpt>
 <trkpt lat="47.273422" lon="12.378468">
 <ele>836.76</ele>
 <time>2010-06-24T11:28:36Z</time>
 </trkpt>
 <trkpt lat="47.273533" lon="12.378968">
 <ele>834.15</ele>
 <time>2010-06-24T11:28:43Z</time>
 </trkpt>
 <trkpt lat="47.273735" lon="12.379684">
 <ele>833.81</ele>
 <time>2010-06-24T11:28:53Z</time>
 </trkpt>
 <trkpt lat="47.273907" lon="12.380286">
 <ele>832.71</ele>
 <time>2010-06-24T11:29:01Z</time>
 </trkpt>
 <trkpt lat="47.274151" lon="12.381097">
 <ele>832.06</ele>
 <time>2010-06-24T11:29:12Z</time>
 </trkpt>
 <trkpt lat="47.274387" lon="12.381715">
 <ele>832.57</ele>
 <time>2010-06-24T11:29:21Z</time>
 </trkpt>
 <trkpt lat="47.274593" lon="12.382181">
 <ele>831.97</ele>
 <time>2010-06-24T11:29:28Z</time>
 </trkpt>
 <trkpt lat="47.274830" lon="12.382699">
 <ele>831.33</ele>
 <time>2010-06-24T11:29:36Z</time>
 </trkpt>
 <trkpt lat="47.275112" lon="12.383375">
 <ele>831.74</ele>
 <time>2010-06-24T11:29:46Z</time>
 </trkpt>
 <trkpt lat="47.275322" lon="12.383942">
 <ele>831.68</ele>
 <time>2010-06-24T11:29:54Z</time>
 </trkpt>
 <trkpt lat="47.275600" lon="12.384733">
 <ele>831.41</ele>
 <time>2010-06-24T11:30:05Z</time>
 </trkpt>
 <trkpt lat="47.275848" lon="12.385452">
 <ele>831.07</ele>
 <time>2010-06-24T11:30:15Z</time>
 </trkpt>
 <trkpt lat="47.276047" lon="12.386009">
 <ele>829.80</ele>
 <time>2010-06-24T11:30:23Z</time>
 </trkpt>
 <trkpt lat="47.276299" lon="12.386773">
 <ele>830.00</ele>
 <time>2010-06-24T11:30:34Z</time>
 </trkpt>
 <trkpt lat="47.276581" lon="12.387616">
 <ele>829.72</ele>
 <time>2010-06-24T11:30:46Z</time>
 </trkpt>
 <trkpt lat="47.276779" lon="12.388243">
 <ele>829.76</ele>
 <time>2010-06-24T11:30:55Z</time>
 </trkpt>
 <trkpt lat="47.276798" lon="12.388310">
 <ele>829.50</ele>
 <time>2010-06-24T11:30:56Z</time>
 </trkpt>
 <trkpt lat="47.276947" lon="12.388779">
 <ele>828.41</ele>
 <time>2010-06-24T11:31:03Z</time>
 </trkpt>
 <trkpt lat="47.277176" lon="12.389598">
 <ele>829.27</ele>
 <time>2010-06-24T11:31:15Z</time>
 </trkpt>
 <trkpt lat="47.277325" lon="12.390160">
 <ele>829.80</ele>
 <time>2010-06-24T11:31:23Z</time>
 </trkpt>
 <trkpt lat="47.277496" lon="12.390887">
 <ele>829.08</ele>
 <time>2010-06-24T11:31:33Z</time>
 </trkpt>
 <trkpt lat="47.277546" lon="12.391111">
 <ele>829.51</ele>
 <time>2010-06-24T11:31:36Z</time>
 </trkpt>
 <trkpt lat="47.277664" lon="12.391633">
 <ele>829.57</ele>
 <time>2010-06-24T11:31:43Z</time>
 </trkpt>
 <trkpt lat="47.277805" lon="12.392413">
 <ele>829.03</ele>
 <time>2010-06-24T11:31:53Z</time>
 </trkpt>
 <trkpt lat="47.277931" lon="12.393092">
 <ele>828.43</ele>
 <time>2010-06-24T11:32:02Z</time>
 </trkpt>
 <trkpt lat="47.278053" lon="12.393767">
 <ele>828.17</ele>
 <time>2010-06-24T11:32:11Z</time>
 </trkpt>
 <trkpt lat="47.278179" lon="12.394438">
 <ele>827.80</ele>
 <time>2010-06-24T11:32:20Z</time>
 </trkpt>
 <trkpt lat="47.278320" lon="12.395189">
 <ele>827.99</ele>
 <time>2010-06-24T11:32:30Z</time>
 </trkpt>
 <trkpt lat="47.278439" lon="12.395950">
 <ele>827.51</ele>
 <time>2010-06-24T11:32:40Z</time>
 </trkpt>
 <trkpt lat="47.278549" lon="12.396868">
 <ele>827.17</ele>
 <time>2010-06-24T11:32:52Z</time>
 </trkpt>
 <trkpt lat="47.279243" lon="12.397835">
 <ele>827.25</ele>
 <time>2010-06-24T11:33:03Z</time>
 </trkpt>
 <trkpt lat="47.279140" lon="12.398461">
 <ele>826.49</ele>
 <time>2010-06-24T11:33:12Z</time>
 </trkpt>
 <trkpt lat="47.279045" lon="12.399026">
 <ele>826.72</ele>
 <time>2010-06-24T11:33:20Z</time>
 </trkpt>
 <trkpt lat="47.278915" lon="12.399810">
 <ele>826.01</ele>
 <time>2010-06-24T11:33:31Z</time>
 </trkpt>
 <trkpt lat="47.278801" lon="12.400502">
 <ele>825.77</ele>
 <time>2010-06-24T11:33:41Z</time>
 </trkpt>
 <trkpt lat="47.278687" lon="12.401194">
 <ele>826.08</ele>
 <time>2010-06-24T11:33:51Z</time>
 </trkpt>
 <trkpt lat="47.278568" lon="12.401904">
 <ele>826.68</ele>
 <time>2010-06-24T11:34:01Z</time>
 </trkpt>
 <trkpt lat="47.278442" lon="12.402644">
 <ele>826.24</ele>
 <time>2010-06-24T11:34:11Z</time>
 </trkpt>
 <trkpt lat="47.278908" lon="12.403776">
 <ele>825.93</ele>
 <time>2010-06-24T11:34:23Z</time>
 </trkpt>
 <trkpt lat="47.278854" lon="12.404794">
 <ele>825.87</ele>
 <time>2010-06-24T11:34:36Z</time>
 </trkpt>
 <trkpt lat="47.278805" lon="12.405658">
 <ele>825.38</ele>
 <time>2010-06-24T11:34:47Z</time>
 </trkpt>
 <trkpt lat="47.278763" lon="12.406431">
 <ele>825.68</ele>
 <time>2010-06-24T11:34:57Z</time>
 </trkpt>
 <trkpt lat="47.278706" lon="12.407261">
 <ele>824.86</ele>
 <time>2010-06-24T11:35:08Z</time>
 </trkpt>
 <trkpt lat="47.278667" lon="12.407820">
 <ele>825.01</ele>
 <time>2010-06-24T11:35:16Z</time>
 </trkpt>
 <trkpt lat="47.278614" lon="12.408564">
 <ele>825.18</ele>
 <time>2010-06-24T11:35:26Z</time>
 </trkpt>
 <trkpt lat="47.278549" lon="12.409474">
 <ele>825.21</ele>
 <time>2010-06-24T11:35:38Z</time>
 </trkpt>
 <trkpt lat="47.278481" lon="12.410478">
 <ele>824.71</ele>
 <time>2010-06-24T11:35:51Z</time>
 </trkpt>
 <trkpt lat="47.278404" lon="12.411410">
 <ele>824.14</ele>
 <time>2010-06-24T11:36:03Z</time>
 </trkpt>
 <trkpt lat="47.278347" lon="12.412105">
 <ele>824.31</ele>
 <time>2010-06-24T11:36:12Z</time>
 </trkpt>
 <trkpt lat="47.278286" lon="12.412813">
 <ele>824.47</ele>
 <time>2010-06-24T11:36:21Z</time>
 </trkpt>
 <trkpt lat="47.278221" lon="12.413610">
 <ele>823.91</ele>
 <time>2010-06-24T11:36:31Z</time>
 </trkpt>
 <trkpt lat="47.278156" lon="12.414368">
 <ele>823.89</ele>
 <time>2010-06-24T11:36:41Z</time>
 </trkpt>
 <trkpt lat="47.278095" lon="12.415126">
 <ele>823.53</ele>
 <time>2010-06-24T11:36:51Z</time>
 </trkpt>
 <trkpt lat="47.278049" lon="12.415800">
 <ele>823.24</ele>
 <time>2010-06-24T11:37:00Z</time>
 </trkpt>
 <trkpt lat="47.278042" lon="12.415947">
 <ele>823.23</ele>
 <time>2010-06-24T11:37:02Z</time>
 </trkpt>
 <trkpt lat="47.277908" lon="12.416272">
 <ele>823.69</ele>
 <time>2010-06-24T11:37:07Z</time>
 </trkpt>
 <trkpt lat="47.277882" lon="12.416310">
 <ele>825.33</ele>
 <time>2010-06-24T11:37:13Z</time>
 </trkpt>
 <trkpt lat="47.277908" lon="12.417075">
 <ele>825.45</ele>
 <time>2010-06-24T11:37:21Z</time>
 </trkpt>
 <trkpt lat="47.278011" lon="12.417571">
 <ele>823.46</ele>
 <time>2010-06-24T11:37:29Z</time>
 </trkpt>
 <trkpt lat="47.278053" lon="12.418451">
 <ele>823.66</ele>
 <time>2010-06-24T11:37:37Z</time>
 </trkpt>
 <trkpt lat="47.278042" lon="12.418898">
 <ele>824.54</ele>
 <time>2010-06-24T11:37:43Z</time>
 </trkpt>
 <trkpt lat="47.278046" lon="12.418696">
 <ele>823.72</ele>
 <time>2010-06-24T11:37:49Z</time>
 </trkpt>
 <trkpt lat="47.278057" lon="12.418362">
 <ele>823.53</ele>
 <time>2010-06-24T11:37:55Z</time>
 </trkpt>
 <trkpt lat="47.278069" lon="12.417987">
 <ele>823.16</ele>
 <time>2010-06-24T11:38:02Z</time>
 </trkpt>
 <trkpt lat="47.278072" lon="12.417886">
 <ele>823.23</ele>
 <time>2010-06-24T11:38:04Z</time>
 </trkpt>
 <trkpt lat="47.277641" lon="12.421198">
 <ele>825.00</ele>
 <time>2010-06-24T11:38:13Z</time>
 </trkpt>
 <trkpt lat="47.277531" lon="12.421723">
 <ele>827.01</ele>
 <time>2010-06-24T11:38:21Z</time>
 </trkpt>
 <trkpt lat="47.277431" lon="12.422168">
 <ele>828.34</ele>
 <time>2010-06-24T11:38:29Z</time>
 </trkpt>
 <trkpt lat="47.277431" lon="12.422168">
 <ele>829.17</ele>
 <time>2010-06-24T11:38:34Z</time>
 </trkpt>
 <trkpt lat="47.277119" lon="12.422962">
 <ele>829.74</ele>
 <time>2010-06-24T11:38:42Z</time>
 </trkpt>
 <trkpt lat="47.276974" lon="12.423347">
 <ele>829.14</ele>
 <time>2010-06-24T11:38:49Z</time>
 </trkpt>
 <trkpt lat="47.276962" lon="12.423380">
 <ele>829.08</ele>
 <time>2010-06-24T11:38:50Z</time>
 </trkpt>
 <trkpt lat="47.276699" lon="12.423376">
 <ele>828.45</ele>
 <time>2010-06-24T11:38:55Z</time>
 </trkpt>
 <trkpt lat="47.276585" lon="12.423302">
 <ele>827.80</ele>
 <time>2010-06-24T11:38:58Z</time>
 </trkpt>
 <trkpt lat="47.276489" lon="12.423241">
 <ele>828.12</ele>
 <time>2010-06-24T11:39:01Z</time>
 </trkpt>
 <trkpt lat="47.276897" lon="12.423562">
 <ele>828.26</ele>
 <time>2010-06-24T11:39:06Z</time>
 </trkpt>
 <trkpt lat="47.276520" lon="12.423260">
 <ele>827.90</ele>
 <time>2010-06-24T11:39:08Z</time>
 </trkpt>
 <trkpt lat="47.276592" lon="12.423307">
 <ele>827.15</ele>
 <time>2010-06-24T11:39:10Z</time>
 </trkpt>
 <trkpt lat="47.276676" lon="12.423361">
 <ele>826.13</ele>
 <time>2010-06-24T11:39:12Z</time>
 </trkpt>
 <trkpt lat="47.276962" lon="12.423434">
 <ele>823.22</ele>
 <time>2010-06-24T11:39:17Z</time>
 </trkpt>
 <trkpt lat="47.277058" lon="12.423443">
 <ele>823.73</ele>
 <time>2010-06-24T11:39:19Z</time>
 </trkpt>
 <trkpt lat="47.277241" lon="12.423348">
 <ele>826.36</ele>
 <time>2010-06-24T11:39:25Z</time>
 </trkpt>
 <trkpt lat="47.277500" lon="12.423329">
 <ele>825.56</ele>
 <time>2010-06-24T11:39:31Z</time>
 </trkpt>
 <trkpt lat="47.277809" lon="12.423501">
 <ele>824.79</ele>
 <time>2010-06-24T11:39:37Z</time>
 </trkpt>
 <trkpt lat="47.277866" lon="12.423538">
 <ele>824.59</ele>
 <time>2010-06-24T11:39:38Z</time>
 </trkpt>
 <trkpt lat="47.278095" lon="12.423692">
 <ele>823.32</ele>
 <time>2010-06-24T11:39:44Z</time>
 </trkpt>
 <trkpt lat="47.278370" lon="12.424209">
 <ele>822.23</ele>
 <time>2010-06-24T11:39:49Z</time>
 </trkpt>
 <trkpt lat="47.278507" lon="12.424770">
 <ele>821.47</ele>
 <time>2010-06-24T11:39:56Z</time>
 </trkpt>
 <trkpt lat="47.278591" lon="12.425440">
 <ele>820.87</ele>
 <time>2010-06-24T11:40:04Z</time>
 </trkpt>
 <trkpt lat="47.278687" lon="12.426346">
 <ele>821.07</ele>
 <time>2010-06-24T11:40:14Z</time>
 </trkpt>
 <trkpt lat="47.278721" lon="12.427228">
 <ele>820.26</ele>
 <time>2010-06-24T11:40:24Z</time>
 </trkpt>
 <trkpt lat="47.278721" lon="12.428211">
 <ele>819.62</ele>
 <time>2010-06-24T11:40:35Z</time>
 </trkpt>
 <trkpt lat="47.278683" lon="12.429124">
 <ele>819.16</ele>
 <time>2010-06-24T11:40:45Z</time>
 </trkpt>
 <trkpt lat="47.278625" lon="12.430015">
 <ele>819.30</ele>
 <time>2010-06-24T11:40:55Z</time>
 </trkpt>
 <trkpt lat="47.278576" lon="12.431082">
 <ele>818.65</ele>
 <time>2010-06-24T11:41:07Z</time>
 </trkpt>
 <trkpt lat="47.278587" lon="12.431421">
 <ele>818.58</ele>
 <time>2010-06-24T11:41:11Z</time>
 </trkpt>
 <trkpt lat="47.278606" lon="12.431923">
 <ele>818.75</ele>
 <time>2010-06-24T11:41:17Z</time>
 </trkpt>
 <trkpt lat="47.278740" lon="12.432636">
 <ele>818.24</ele>
 <time>2010-06-24T11:41:26Z</time>
 </trkpt>
 <trkpt lat="47.278885" lon="12.433251">
 <ele>818.06</ele>
 <time>2010-06-24T11:41:34Z</time>
 </trkpt>
 <trkpt lat="47.279037" lon="12.433926">
 <ele>816.59</ele>
 <time>2010-06-24T11:41:42Z</time>
 </trkpt>
 <trkpt lat="47.279148" lon="12.434610">
 <ele>816.93</ele>
 <time>2010-06-24T11:41:50Z</time>
 </trkpt>
 <trkpt lat="47.279236" lon="12.435286">
 <ele>816.87</ele>
 <time>2010-06-24T11:41:58Z</time>
 </trkpt>
 <trkpt lat="47.279232" lon="12.436089">
 <ele>816.91</ele>
 <time>2010-06-24T11:42:07Z</time>
 </trkpt>
 <trkpt lat="47.279213" lon="12.436858">
 <ele>817.52</ele>
 <time>2010-06-24T11:42:16Z</time>
 </trkpt>
 <trkpt lat="47.279194" lon="12.437786">
 <ele>817.13</ele>
 <time>2010-06-24T11:42:27Z</time>
 </trkpt>
 <trkpt lat="47.279179" lon="12.438721">
 <ele>816.97</ele>
 <time>2010-06-24T11:42:38Z</time>
 </trkpt>
 <trkpt lat="47.279102" lon="12.439843">
 <ele>816.98</ele>
 <time>2010-06-24T11:42:51Z</time>
 </trkpt>
 <trkpt lat="47.278969" lon="12.441050">
 <ele>816.56</ele>
 <time>2010-06-24T11:43:05Z</time>
 </trkpt>
 <trkpt lat="47.278893" lon="12.441673">
 <ele>816.62</ele>
 <time>2010-06-24T11:43:14Z</time>
 </trkpt>
 <trkpt lat="47.278893" lon="12.442765">
 <ele>816.57</ele>
 <time>2010-06-24T11:43:25Z</time>
 </trkpt>
 <trkpt lat="47.278893" lon="12.443727">
 <ele>816.84</ele>
 <time>2010-06-24T11:43:36Z</time>
 </trkpt>
 <trkpt lat="47.278934" lon="12.444340">
 <ele>816.61</ele>
 <time>2010-06-24T11:43:43Z</time>
 </trkpt>
 <trkpt lat="47.279053" lon="12.445110">
 <ele>816.54</ele>
 <time>2010-06-24T11:43:52Z</time>
 </trkpt>
 <trkpt lat="47.279213" lon="12.445875">
 <ele>816.05</ele>
 <time>2010-06-24T11:44:01Z</time>
 </trkpt>
 <trkpt lat="47.279442" lon="12.446559">
 <ele>815.69</ele>
 <time>2010-06-24T11:44:10Z</time>
 </trkpt>
 <trkpt lat="47.279510" lon="12.446727">
 <ele>816.41</ele>
 <time>2010-06-24T11:44:13Z</time>
 </trkpt>
 <trkpt lat="47.279560" lon="12.446847">
 <ele>817.05</ele>
 <time>2010-06-24T11:44:19Z</time>
 </trkpt>
 <trkpt lat="47.279671" lon="12.447108">
 <ele>816.29</ele>
 <time>2010-06-24T11:44:24Z</time>
 </trkpt>
 <trkpt lat="47.279884" lon="12.447597">
 <ele>816.09</ele>
 <time>2010-06-24T11:44:32Z</time>
 </trkpt>
 <trkpt lat="47.280216" lon="12.448334">
 <ele>815.50</ele>
 <time>2010-06-24T11:44:43Z</time>
 </trkpt>
 <trkpt lat="47.280495" lon="12.448945">
 <ele>815.59</ele>
 <time>2010-06-24T11:44:52Z</time>
 </trkpt>
 <trkpt lat="47.280785" lon="12.449572">
 <ele>815.02</ele>
 <time>2010-06-24T11:45:01Z</time>
 </trkpt>
 <trkpt lat="47.280819" lon="12.449642">
 <ele>815.05</ele>
 <time>2010-06-24T11:45:02Z</time>
 </trkpt>
 <trkpt lat="47.280910" lon="12.449831">
 <ele>815.51</ele>
 <time>2010-06-24T11:45:05Z</time>
 </trkpt>
 <trkpt lat="47.281021" lon="12.450039">
 <ele>816.25</ele>
 <time>2010-06-24T11:45:09Z</time>
 </trkpt>
 <trkpt lat="47.281288" lon="12.450551">
 <ele>815.35</ele>
 <time>2010-06-24T11:45:17Z</time>
 </trkpt>
 <trkpt lat="47.281673" lon="12.451314">
 <ele>815.01</ele>
 <time>2010-06-24T11:45:28Z</time>
 </trkpt>
 <trkpt lat="47.282108" lon="12.452233">
 <ele>814.44</ele>
 <time>2010-06-24T11:45:41Z</time>
 </trkpt>
 <trkpt lat="47.282509" lon="12.453078">
 <ele>814.21</ele>
 <time>2010-06-24T11:45:53Z</time>
 </trkpt>
 <trkpt lat="47.282738" lon="12.453612">
 <ele>813.88</ele>
 <time>2010-06-24T11:46:00Z</time>
 </trkpt>
 <trkpt lat="47.282932" lon="12.454119">
 <ele>814.29</ele>
 <time>2010-06-24T11:46:07Z</time>
 </trkpt>
 <trkpt lat="47.283096" lon="12.454655">
 <ele>813.91</ele>
 <time>2010-06-24T11:46:14Z</time>
 </trkpt>
 <trkpt lat="47.283115" lon="12.455126">
 <ele>813.92</ele>
 <time>2010-06-24T11:46:20Z</time>
 </trkpt>
 <trkpt lat="47.283138" lon="12.455867">
 <ele>813.90</ele>
 <time>2010-06-24T11:46:29Z</time>
 </trkpt>
 <trkpt lat="47.283127" lon="12.456609">
 <ele>814.06</ele>
 <time>2010-06-24T11:46:38Z</time>
 </trkpt>
 <trkpt lat="47.283108" lon="12.457377">
 <ele>813.95</ele>
 <time>2010-06-24T11:46:47Z</time>
 </trkpt>
 <trkpt lat="47.283104" lon="12.458169">
 <ele>814.31</ele>
 <time>2010-06-24T11:46:56Z</time>
 </trkpt>
 <trkpt lat="47.283108" lon="12.459070">
 <ele>814.09</ele>
 <time>2010-06-24T11:47:06Z</time>
 </trkpt>
 <trkpt lat="47.283146" lon="12.460041">
 <ele>814.02</ele>
 <time>2010-06-24T11:47:17Z</time>
 </trkpt>
 <trkpt lat="47.283184" lon="12.460669">
 <ele>814.07</ele>
 <time>2010-06-24T11:47:24Z</time>
 </trkpt>
 <trkpt lat="47.283218" lon="12.461384">
 <ele>814.13</ele>
 <time>2010-06-24T11:47:32Z</time>
 </trkpt>
 <trkpt lat="47.283298" lon="12.462324">
 <ele>813.41</ele>
 <time>2010-06-24T11:47:42Z</time>
 </trkpt>
 <trkpt lat="47.283394" lon="12.463338">
 <ele>813.11</ele>
 <time>2010-06-24T11:47:53Z</time>
 </trkpt>
 <trkpt lat="47.283451" lon="12.464151">
 <ele>813.32</ele>
 <time>2010-06-24T11:48:02Z</time>
 </trkpt>
 <trkpt lat="47.283485" lon="12.464668">
 <ele>814.65</ele>
 <time>2010-06-24T11:48:09Z</time>
 </trkpt>
 <trkpt lat="47.283539" lon="12.465479">
 <ele>814.36</ele>
 <time>2010-06-24T11:48:19Z</time>
 </trkpt>
 <trkpt lat="47.283581" lon="12.466095">
 <ele>811.83</ele>
 <time>2010-06-24T11:48:25Z</time>
 </trkpt>
 <trkpt lat="47.283600" lon="12.466909">
 <ele>811.65</ele>
 <time>2010-06-24T11:48:33Z</time>
 </trkpt>
 <trkpt lat="47.283600" lon="12.467801">
 <ele>811.36</ele>
 <time>2010-06-24T11:48:43Z</time>
 </trkpt>
 <trkpt lat="47.283493" lon="12.468722">
 <ele>811.41</ele>
 <time>2010-06-24T11:48:54Z</time>
 </trkpt>
 <trkpt lat="47.283482" lon="12.469625">
 <ele>811.12</ele>
 <time>2010-06-24T11:49:04Z</time>
 </trkpt>
 <trkpt lat="47.283485" lon="12.470159">
 <ele>810.97</ele>
 <time>2010-06-24T11:49:10Z</time>
 </trkpt>
 <trkpt lat="47.283501" lon="12.470865">
 <ele>810.74</ele>
 <time>2010-06-24T11:49:18Z</time>
 </trkpt>
 <trkpt lat="47.283474" lon="12.471471">
 <ele>810.80</ele>
 <time>2010-06-24T11:49:25Z</time>
 </trkpt>
 <trkpt lat="47.283440" lon="12.472253">
 <ele>811.17</ele>
 <time>2010-06-24T11:49:34Z</time>
 </trkpt>
 <trkpt lat="47.283440" lon="12.472969">
 <ele>810.62</ele>
 <time>2010-06-24T11:49:42Z</time>
 </trkpt>
 <trkpt lat="47.283440" lon="12.473790">
 <ele>810.36</ele>
 <time>2010-06-24T11:49:51Z</time>
 </trkpt>
 <trkpt lat="47.283451" lon="12.474437">
 <ele>810.41</ele>
 <time>2010-06-24T11:49:58Z</time>
 </trkpt>
 <trkpt lat="47.283463" lon="12.475068">
 <ele>810.03</ele>
 <time>2010-06-24T11:50:05Z</time>
 </trkpt>
 <trkpt lat="47.283463" lon="12.475157">
 <ele>809.91</ele>
 <time>2010-06-24T11:50:06Z</time>
 </trkpt>
 <trkpt lat="47.283463" lon="12.475579">
 <ele>810.23</ele>
 <time>2010-06-24T11:50:11Z</time>
 </trkpt>
 <trkpt lat="47.283463" lon="12.476239">
 <ele>809.95</ele>
 <time>2010-06-24T11:50:19Z</time>
 </trkpt>
 <trkpt lat="47.283352" lon="12.476903">
 <ele>809.87</ele>
 <time>2010-06-24T11:50:27Z</time>
 </trkpt>
 <trkpt lat="47.283203" lon="12.477760">
 <ele>809.41</ele>
 <time>2010-06-24T11:50:37Z</time>
 </trkpt>
 <trkpt lat="47.283195" lon="12.477816">
 <ele>809.52</ele>
 <time>2010-06-24T11:50:38Z</time>
 </trkpt>
 <trkpt lat="47.283028" lon="12.478591">
 <ele>809.81</ele>
 <time>2010-06-24T11:50:48Z</time>
 </trkpt>
 <trkpt lat="47.282925" lon="12.479246">
 <ele>809.60</ele>
 <time>2010-06-24T11:50:56Z</time>
 </trkpt>
 <trkpt lat="47.282848" lon="12.479798">
 <ele>808.60</ele>
 <time>2010-06-24T11:51:03Z</time>
 </trkpt>
 <trkpt lat="47.282818" lon="12.479989">
 <ele>808.41</ele>
 <time>2010-06-24T11:51:06Z</time>
 </trkpt>
 <trkpt lat="47.282776" lon="12.480219">
 <ele>808.34</ele>
 <time>2010-06-24T11:51:10Z</time>
 </trkpt>
 <trkpt lat="47.282745" lon="12.480373">
 <ele>807.82</ele>
 <time>2010-06-24T11:51:16Z</time>
 </trkpt>
 <trkpt lat="47.282734" lon="12.480442">
 <ele>807.37</ele>
 <time>2010-06-24T11:51:18Z</time>
 </trkpt>
 <trkpt lat="47.282360" lon="12.480428">
 <ele>805.44</ele>
 <time>2010-06-24T11:51:26Z</time>
 </trkpt>
 <trkpt lat="47.282127" lon="12.480813">
 <ele>806.15</ele>
 <time>2010-06-24T11:51:34Z</time>
 </trkpt>
 <trkpt lat="47.281845" lon="12.481248">
 <ele>805.79</ele>
 <time>2010-06-24T11:51:43Z</time>
 </trkpt>
 <trkpt lat="47.281818" lon="12.481276">
 <ele>805.88</ele>
 <time>2010-06-24T11:51:44Z</time>
 </trkpt>
 <trkpt lat="47.281708" lon="12.481376">
 <ele>806.18</ele>
 <time>2010-06-24T11:51:49Z</time>
 </trkpt>
 <trkpt lat="47.281677" lon="12.481399">
 <ele>805.95</ele>
 <time>2010-06-24T11:51:50Z</time>
 </trkpt>
 <trkpt lat="47.281414" lon="12.481575">
 <ele>805.18</ele>
 <time>2010-06-24T11:51:57Z</time>
 </trkpt>
 <trkpt lat="47.281277" lon="12.481629">
 <ele>805.89</ele>
 <time>2010-06-24T11:52:02Z</time>
 </trkpt>
 <trkpt lat="47.281166" lon="12.481671">
 <ele>806.53</ele>
 <time>2010-06-24T11:52:07Z</time>
 </trkpt>
 <trkpt lat="47.281143" lon="12.481678">
 <ele>806.50</ele>
 <time>2010-06-24T11:52:08Z</time>
 </trkpt>
 <trkpt lat="47.280994" lon="12.481735">
 <ele>806.56</ele>
 <time>2010-06-24T11:52:14Z</time>
 </trkpt>
 <trkpt lat="47.280994" lon="12.481735">
 <ele>806.43</ele>
 <time>2010-06-24T11:52:19Z</time>
 </trkpt>
 <trkpt lat="47.280994" lon="12.481735">
 <ele>805.96</ele>
 <time>2010-06-24T11:52:30Z</time>
 </trkpt>
 <trkpt lat="47.281010" lon="12.481819">
 <ele>806.12</ele>
 <time>2010-06-24T11:52:37Z</time>
 </trkpt>
 <trkpt lat="47.281013" lon="12.481864">
 <ele>805.82</ele>
 <time>2010-06-24T11:52:41Z</time>
 </trkpt>
 <trkpt lat="47.281322" lon="12.481986">
 <ele>805.55</ele>
 <time>2010-06-24T11:52:47Z</time>
 </trkpt>
 <trkpt lat="47.281609" lon="12.482098">
 <ele>806.11</ele>
 <time>2010-06-24T11:52:53Z</time>
 </trkpt>
 <trkpt lat="47.281796" lon="12.482165">
 <ele>806.00</ele>
 <time>2010-06-24T11:52:57Z</time>
 </trkpt>
 <trkpt lat="47.282078" lon="12.482335">
 <ele>805.59</ele>
 <time>2010-06-24T11:53:03Z</time>
 </trkpt>
 <trkpt lat="47.282124" lon="12.482367">
 <ele>805.61</ele>
 <time>2010-06-24T11:53:04Z</time>
 </trkpt>
 <trkpt lat="47.282459" lon="12.482608">
 <ele>805.22</ele>
 <time>2010-06-24T11:53:11Z</time>
 </trkpt>
 <trkpt lat="47.282494" lon="12.482634">
 <ele>805.35</ele>
 <time>2010-06-24T11:53:12Z</time>
 </trkpt>
 <trkpt lat="47.282742" lon="12.482818">
 <ele>805.85</ele>
 <time>2010-06-24T11:53:18Z</time>
 </trkpt>
 <trkpt lat="47.282799" lon="12.482858">
 <ele>805.82</ele>
 <time>2010-06-24T11:53:20Z</time>
 </trkpt>
 <trkpt lat="47.282818" lon="12.483250">
 <ele>805.91</ele>
 <time>2010-06-24T11:53:25Z</time>
 </trkpt>
 <trkpt lat="47.282856" lon="12.483484">
 <ele>805.89</ele>
 <time>2010-06-24T11:53:27Z</time>
 </trkpt>
 <trkpt lat="47.282925" lon="12.483577">
 <ele>806.05</ele>
 <time>2010-06-24T11:53:29Z</time>
 </trkpt>
 <trkpt lat="47.282993" lon="12.483678">
 <ele>806.39</ele>
 <time>2010-06-24T11:53:31Z</time>
 </trkpt>
 <trkpt lat="47.283142" lon="12.483996">
 <ele>806.36</ele>
 <time>2010-06-24T11:53:36Z</time>
 </trkpt>
 <trkpt lat="47.283161" lon="12.484812">
 <ele>806.07</ele>
 <time>2010-06-24T11:53:46Z</time>
 </trkpt>
 <trkpt lat="47.283176" lon="12.485403">
 <ele>805.66</ele>
 <time>2010-06-24T11:53:53Z</time>
 </trkpt>
 <trkpt lat="47.283195" lon="12.486055">
 <ele>805.71</ele>
 <time>2010-06-24T11:54:01Z</time>
 </trkpt>
 <trkpt lat="47.283203" lon="12.486241">
 <ele>805.75</ele>
 <time>2010-06-24T11:54:07Z</time>
 </trkpt>
 <trkpt lat="47.283329" lon="12.486779">
 <ele>805.40</ele>
 <time>2010-06-24T11:54:12Z</time>
 </trkpt>
 <trkpt lat="47.283344" lon="12.487172">
 <ele>805.02</ele>
 <time>2010-06-24T11:54:16Z</time>
 </trkpt>
 <trkpt lat="47.283333" lon="12.487326">
 <ele>805.20</ele>
 <time>2010-06-24T11:54:18Z</time>
 </trkpt>
 <trkpt lat="47.283272" lon="12.488042">
 <ele>805.27</ele>
 <time>2010-06-24T11:54:27Z</time>
 </trkpt>
 <trkpt lat="47.283264" lon="12.488121">
 <ele>805.30</ele>
 <time>2010-06-24T11:54:28Z</time>
 </trkpt>
 <trkpt lat="47.283230" lon="12.488493">
 <ele>805.20</ele>
 <time>2010-06-24T11:54:33Z</time>
 </trkpt>
 <trkpt lat="47.282742" lon="12.488489">
 <ele>805.83</ele>
 <time>2010-06-24T11:54:39Z</time>
 </trkpt>
 <trkpt lat="47.282841" lon="12.488554">
 <ele>806.17</ele>
 <time>2010-06-24T11:54:42Z</time>
 </trkpt>
 <trkpt lat="47.282860" lon="12.488971">
 <ele>807.20</ele>
 <time>2010-06-24T11:54:51Z</time>
 </trkpt>
 <trkpt lat="47.282860" lon="12.489009">
 <ele>807.28</ele>
 <time>2010-06-24T11:54:57Z</time>
 </trkpt>
 <trkpt lat="47.282860" lon="12.489009">
 <ele>806.86</ele>
 <time>2010-06-24T11:54:59Z</time>
 </trkpt>
 <trkpt lat="47.283024" lon="12.489042">
 <ele>807.37</ele>
 <time>2010-06-24T11:55:04Z</time>
 </trkpt>
 <trkpt lat="47.283073" lon="12.489052">
 <ele>807.31</ele>
 <time>2010-06-24T11:55:08Z</time>
 </trkpt>
 <trkpt lat="47.282860" lon="12.489009">
 <ele>807.18</ele>
 <time>2010-06-24T11:55:12Z</time>
 </trkpt>
 <trkpt lat="47.282860" lon="12.489009">
 <ele>806.60</ele>
 <time>2010-06-24T11:55:17Z</time>
 </trkpt>
 <trkpt lat="47.282978" lon="12.490689">
 <ele>806.62</ele>
 <time>2010-06-24T11:55:25Z</time>
 </trkpt>
 <trkpt lat="47.282909" lon="12.491122">
 <ele>805.35</ele>
 <time>2010-06-24T11:55:30Z</time>
 </trkpt>
 <trkpt lat="47.282902" lon="12.491195">
 <ele>805.54</ele>
 <time>2010-06-24T11:55:31Z</time>
 </trkpt>
 <trkpt lat="47.282848" lon="12.491724">
 <ele>806.20</ele>
 <time>2010-06-24T11:55:38Z</time>
 </trkpt>
 <trkpt lat="47.282776" lon="12.492605">
 <ele>805.95</ele>
 <time>2010-06-24T11:55:49Z</time>
 </trkpt>
 <trkpt lat="47.282738" lon="12.493354">
 <ele>805.74</ele>
 <time>2010-06-24T11:55:58Z</time>
 </trkpt>
 <trkpt lat="47.282726" lon="12.494200">
 <ele>805.59</ele>
 <time>2010-06-24T11:56:08Z</time>
 </trkpt>
 <trkpt lat="47.282745" lon="12.495048">
 <ele>805.06</ele>
 <time>2010-06-24T11:56:18Z</time>
 </trkpt>
 <trkpt lat="47.282791" lon="12.495955">
 <ele>804.62</ele>
 <time>2010-06-24T11:56:29Z</time>
 </trkpt>
 <trkpt lat="47.282852" lon="12.496702">
 <ele>804.60</ele>
 <time>2010-06-24T11:56:38Z</time>
 </trkpt>
 <trkpt lat="47.283585" lon="12.497518">
 <ele>804.44</ele>
 <time>2010-06-24T11:56:47Z</time>
 </trkpt>
 <trkpt lat="47.283524" lon="12.498169">
 <ele>804.61</ele>
 <time>2010-06-24T11:56:56Z</time>
 </trkpt>
 <trkpt lat="47.283463" lon="12.499008">
 <ele>804.65</ele>
 <time>2010-06-24T11:57:07Z</time>
 </trkpt>
 <trkpt lat="47.283913" lon="12.499073">
 <ele>804.48</ele>
 <time>2010-06-24T11:57:16Z</time>
 </trkpt>
 <trkpt lat="47.284073" lon="12.500460">
 <ele>804.10</ele>
 <time>2010-06-24T11:57:25Z</time>
 </trkpt>
 <trkpt lat="47.284050" lon="12.500899">
 <ele>804.24</ele>
 <time>2010-06-24T11:57:32Z</time>
 </trkpt>
 <trkpt lat="47.284042" lon="12.501047">
 <ele>804.27</ele>
 <time>2010-06-24T11:57:40Z</time>
 </trkpt>
 <trkpt lat="47.284042" lon="12.501047">
 <ele>804.22</ele>
 <time>2010-06-24T11:57:47Z</time>
 </trkpt>
 <trkpt lat="47.284042" lon="12.501047">
 <ele>804.36</ele>
 <time>2010-06-24T11:57:49Z</time>
 </trkpt>
 <trkpt lat="47.284042" lon="12.501047">
 <ele>803.07</ele>
 <time>2010-06-24T11:57:57Z</time>
 </trkpt>
 <trkpt lat="47.284042" lon="12.501047">
 <ele>803.79</ele>
 <time>2010-06-24T11:58:02Z</time>
 </trkpt>
 <trkpt lat="47.284042" lon="12.501047">
 <ele>803.67</ele>
 <time>2010-06-24T11:58:08Z</time>
 </trkpt>
 <trkpt lat="47.283779" lon="12.502551">
 <ele>803.35</ele>
 <time>2010-06-24T11:58:16Z</time>
 </trkpt>
 <trkpt lat="47.283836" lon="12.503020">
 <ele>803.15</ele>
 <time>2010-06-24T11:58:24Z</time>
 </trkpt>
 <trkpt lat="47.283890" lon="12.503509">
 <ele>803.20</ele>
 <time>2010-06-24T11:58:32Z</time>
 </trkpt>
 <trkpt lat="47.283939" lon="12.503955">
 <ele>802.42</ele>
 <time>2010-06-24T11:58:39Z</time>
 </trkpt>
 <trkpt lat="47.283997" lon="12.504380">
 <ele>803.22</ele>
 <time>2010-06-24T11:58:47Z</time>
 </trkpt>
 <trkpt lat="47.284016" lon="12.504585">
 <ele>803.55</ele>
 <time>2010-06-24T11:58:53Z</time>
 </trkpt>
 <trkpt lat="47.284019" lon="12.504590">
 <ele>803.55</ele>
 <time>2010-06-24T11:58:55Z</time>
 </trkpt>
 <trkpt lat="47.284016" lon="12.504646">
 <ele>802.95</ele>
 <time>2010-06-24T11:59:03Z</time>
 </trkpt>
 <trkpt lat="47.284035" lon="12.504818">
 <ele>802.79</ele>
 <time>2010-06-24T11:59:08Z</time>
 </trkpt>
 <trkpt lat="47.284081" lon="12.505191">
 <ele>802.85</ele>
 <time>2010-06-24T11:59:15Z</time>
 </trkpt>
 <trkpt lat="47.284115" lon="12.505527">
 <ele>802.88</ele>
 <time>2010-06-24T11:59:21Z</time>
 </trkpt>
 <trkpt lat="47.284161" lon="12.506040">
 <ele>802.80</ele>
 <time>2010-06-24T11:59:29Z</time>
 </trkpt>
 <trkpt lat="47.284203" lon="12.506476">
 <ele>802.88</ele>
 <time>2010-06-24T11:59:38Z</time>
 </trkpt>
 <trkpt lat="47.284206" lon="12.506503">
 <ele>803.21</ele>
 <time>2010-06-24T11:59:41Z</time>
 </trkpt>
 <trkpt lat="47.284195" lon="12.506512">
 <ele>802.73</ele>
 <time>2010-06-24T11:59:46Z</time>
 </trkpt>
 <trkpt lat="47.284184" lon="12.506520">
 <ele>802.58</ele>
 <time>2010-06-24T11:59:50Z</time>
 </trkpt>
 <trkpt lat="47.284214" lon="12.506526">
 <ele>802.07</ele>
 <time>2010-06-24T12:02:54Z</time>
 </trkpt>
 <trkpt lat="47.284218" lon="12.506528">
 <ele>801.98</ele>
 <time>2010-06-24T12:02:55Z</time>
 </trkpt>
 <trkpt lat="47.284218" lon="12.506633">
 <ele>801.67</ele>
 <time>2010-06-24T12:03:04Z</time>
 </trkpt>
 <trkpt lat="47.284229" lon="12.506802">
 <ele>801.84</ele>
 <time>2010-06-24T12:03:09Z</time>
 </trkpt>
 <trkpt lat="47.284248" lon="12.507118">
 <ele>801.74</ele>
 <time>2010-06-24T12:03:16Z</time>
 </trkpt>
 <trkpt lat="47.284279" lon="12.507462">
 <ele>801.60</ele>
 <time>2010-06-24T12:03:24Z</time>
 </trkpt>
 <trkpt lat="47.284283" lon="12.507524">
 <ele>801.68</ele>
 <time>2010-06-24T12:03:28Z</time>
 </trkpt>
 <trkpt lat="47.284279" lon="12.507599">
 <ele>801.69</ele>
 <time>2010-06-24T12:03:51Z</time>
 </trkpt>
 <trkpt lat="47.284283" lon="12.507620">
 <ele>801.61</ele>
 <time>2010-06-24T12:03:52Z</time>
 </trkpt>
 <trkpt lat="47.284290" lon="12.507810">
 <ele>801.37</ele>
 <time>2010-06-24T12:03:57Z</time>
 </trkpt>
 <trkpt lat="47.284317" lon="12.508098">
 <ele>801.34</ele>
 <time>2010-06-24T12:04:04Z</time>
 </trkpt>
 <trkpt lat="47.284332" lon="12.508327">
 <ele>801.12</ele>
 <time>2010-06-24T12:04:11Z</time>
 </trkpt>
 <trkpt lat="47.284340" lon="12.508340">
 <ele>801.44</ele>
 <time>2010-06-24T12:04:14Z</time>
 </trkpt>
 <trkpt lat="47.284367" lon="12.508449">
 <ele>800.77</ele>
 <time>2010-06-24T12:04:42Z</time>
 </trkpt>
 <trkpt lat="47.284370" lon="12.508710">
 <ele>800.93</ele>
 <time>2010-06-24T12:04:48Z</time>
 </trkpt>
 <trkpt lat="47.284382" lon="12.509076">
 <ele>800.77</ele>
 <time>2010-06-24T12:04:55Z</time>
 </trkpt>
 <trkpt lat="47.284389" lon="12.509452">
 <ele>800.79</ele>
 <time>2010-06-24T12:05:02Z</time>
 </trkpt>
 <trkpt lat="47.284393" lon="12.509731">
 <ele>800.61</ele>
 <time>2010-06-24T12:05:08Z</time>
 </trkpt>
 <trkpt lat="47.285156" lon="12.509931">
 <ele>800.79</ele>
 <time>2010-06-24T12:05:13Z</time>
 </trkpt>
 <trkpt lat="47.285156" lon="12.510250">
 <ele>800.60</ele>
 <time>2010-06-24T12:05:20Z</time>
 </trkpt>
 <trkpt lat="47.285156" lon="12.510412">
 <ele>800.58</ele>
 <time>2010-06-24T12:05:24Z</time>
 </trkpt>
 <trkpt lat="47.285156" lon="12.510514">
 <ele>800.98</ele>
 <time>2010-06-24T12:05:30Z</time>
 </trkpt>
 <trkpt lat="47.285156" lon="12.510514">
 <ele>800.75</ele>
 <time>2010-06-24T12:05:32Z</time>
 </trkpt>
 <trkpt lat="47.284519" lon="12.510505">
 <ele>799.06</ele>
 <time>2010-06-24T12:05:49Z</time>
 </trkpt>
 <trkpt lat="47.284637" lon="12.510476">
 <ele>797.26</ele>
 <time>2010-06-24T12:05:58Z</time>
 </trkpt>
 <trkpt lat="47.284756" lon="12.510476">
 <ele>796.86</ele>
 <time>2010-06-24T12:06:07Z</time>
 </trkpt>
 <trkpt lat="47.284889" lon="12.510485">
 <ele>796.90</ele>
 <time>2010-06-24T12:06:17Z</time>
 </trkpt>
 <trkpt lat="47.285156" lon="12.510496">
 <ele>797.04</ele>
 <time>2010-06-24T12:06:21Z</time>
 </trkpt>
 <trkpt lat="47.285156" lon="12.510552">
 <ele>796.97</ele>
 <time>2010-06-24T12:06:27Z</time>
 </trkpt>
 <trkpt lat="47.285156" lon="12.510622">
 <ele>796.66</ele>
 <time>2010-06-24T12:06:31Z</time>
 </trkpt>
 <trkpt lat="47.285156" lon="12.510955">
 <ele>796.97</ele>
 <time>2010-06-24T12:06:38Z</time>
 </trkpt>
 <trkpt lat="47.285156" lon="12.511351">
 <ele>797.06</ele>
 <time>2010-06-24T12:06:46Z</time>
 </trkpt>
 <trkpt lat="47.285156" lon="12.511438">
 <ele>797.18</ele>
 <time>2010-06-24T12:06:48Z</time>
 </trkpt>
 <trkpt lat="47.285088" lon="12.511502">
 <ele>797.14</ele>
 <time>2010-06-24T12:06:53Z</time>
 </trkpt>
 <trkpt lat="47.285156" lon="12.511329">
 <ele>797.29</ele>
 <time>2010-06-24T12:07:00Z</time>
 </trkpt>
 <trkpt lat="47.285625" lon="12.511071">
 <ele>797.38</ele>
 <time>2010-06-24T12:07:08Z</time>
 </trkpt>
 <trkpt lat="47.286057" lon="12.510955">
 <ele>797.54</ele>
 <time>2010-06-24T12:07:18Z</time>
 </trkpt>
 <trkpt lat="47.286251" lon="12.510922">
 <ele>797.76</ele>
 <time>2010-06-24T12:07:24Z</time>
 </trkpt>
 <trkpt lat="47.286354" lon="12.510990">
 <ele>797.93</ele>
 <time>2010-06-24T12:07:28Z</time>
 </trkpt>
 <trkpt lat="47.286392" lon="12.511523">
 <ele>797.86</ele>
 <time>2010-06-24T12:07:36Z</time>
 </trkpt>
 <trkpt lat="47.286449" lon="12.512313">
 <ele>797.30</ele>
 <time>2010-06-24T12:07:46Z</time>
 </trkpt>
 <trkpt lat="47.286526" lon="12.513328">
 <ele>797.54</ele>
 <time>2010-06-24T12:07:58Z</time>
 </trkpt>
 <trkpt lat="47.286583" lon="12.514136">
 <ele>797.93</ele>
 <time>2010-06-24T12:08:08Z</time>
 </trkpt>
 <trkpt lat="47.286659" lon="12.515157">
 <ele>797.44</ele>
 <time>2010-06-24T12:08:20Z</time>
 </trkpt>
 <trkpt lat="47.286739" lon="12.516279">
 <ele>797.51</ele>
 <time>2010-06-24T12:08:32Z</time>
 </trkpt>
 <trkpt lat="47.286831" lon="12.517482">
 <ele>797.06</ele>
 <time>2010-06-24T12:08:45Z</time>
 </trkpt>
 <trkpt lat="47.286892" lon="12.518411">
 <ele>796.60</ele>
 <time>2010-06-24T12:08:55Z</time>
 </trkpt>
 <trkpt lat="47.286972" lon="12.519549">
 <ele>796.76</ele>
 <time>2010-06-24T12:09:07Z</time>
 </trkpt>
 <trkpt lat="47.287041" lon="12.520579">
 <ele>797.08</ele>
 <time>2010-06-24T12:09:18Z</time>
 </trkpt>
 <trkpt lat="47.287098" lon="12.521679">
 <ele>797.05</ele>
 <time>2010-06-24T12:09:30Z</time>
 </trkpt>
 <trkpt lat="47.287121" lon="12.522648">
 <ele>797.15</ele>
 <time>2010-06-24T12:09:41Z</time>
 </trkpt>
 <trkpt lat="47.287121" lon="12.523550">
 <ele>796.63</ele>
 <time>2010-06-24T12:09:51Z</time>
 </trkpt>
 <trkpt lat="47.287090" lon="12.524464">
 <ele>796.84</ele>
 <time>2010-06-24T12:10:01Z</time>
 </trkpt>
 <trkpt lat="47.287025" lon="12.525149">
 <ele>797.77</ele>
 <time>2010-06-24T12:10:09Z</time>
 </trkpt>
 <trkpt lat="47.286968" lon="12.525705">
 <ele>798.47</ele>
 <time>2010-06-24T12:10:16Z</time>
 </trkpt>
 <trkpt lat="47.286869" lon="12.526500">
 <ele>799.36</ele>
 <time>2010-06-24T12:10:27Z</time>
 </trkpt>
 <trkpt lat="47.286804" lon="12.526966">
 <ele>800.61</ele>
 <time>2010-06-24T12:10:34Z</time>
 </trkpt>
 <trkpt lat="47.286755" lon="12.527316">
 <ele>800.97</ele>
 <time>2010-06-24T12:10:40Z</time>
 </trkpt>
 <trkpt lat="47.286716" lon="12.527596">
 <ele>801.20</ele>
 <time>2010-06-24T12:10:46Z</time>
 </trkpt>
 <trkpt lat="47.286701" lon="12.527703">
 <ele>801.29</ele>
 <time>2010-06-24T12:10:49Z</time>
 </trkpt>
 <trkpt lat="47.286701" lon="12.527697">
 <ele>801.21</ele>
 <time>2010-06-24T12:10:53Z</time>
 </trkpt>
 <trkpt lat="47.286373" lon="12.527637">
 <ele>800.12</ele>
 <time>2010-06-24T12:10:59Z</time>
 </trkpt>
 <trkpt lat="47.286022" lon="12.527529">
 <ele>798.37</ele>
 <time>2010-06-24T12:11:06Z</time>
 </trkpt>
 <trkpt lat="47.285648" lon="12.527478">
 <ele>797.19</ele>
 <time>2010-06-24T12:11:12Z</time>
 </trkpt>
 <trkpt lat="47.285255" lon="12.527511">
 <ele>795.88</ele>
 <time>2010-06-24T12:11:18Z</time>
 </trkpt>
 <trkpt lat="47.284870" lon="12.527521">
 <ele>795.38</ele>
 <time>2010-06-24T12:11:24Z</time>
 </trkpt>
 <trkpt lat="47.284588" lon="12.527431">
 <ele>795.10</ele>
 <time>2010-06-24T12:11:29Z</time>
 </trkpt>
 <trkpt lat="47.284237" lon="12.527251">
 <ele>795.36</ele>
 <time>2010-06-24T12:11:37Z</time>
 </trkpt>
 <trkpt lat="47.283932" lon="12.527148">
 <ele>795.67</ele>
 <time>2010-06-24T12:11:44Z</time>
 </trkpt>
 <trkpt lat="47.283474" lon="12.527110">
 <ele>796.54</ele>
 <time>2010-06-24T12:11:54Z</time>
 </trkpt>
 <trkpt lat="47.283192" lon="12.527103">
 <ele>797.14</ele>
 <time>2010-06-24T12:12:01Z</time>
 </trkpt>
 <trkpt lat="47.283089" lon="12.527198">
 <ele>796.69</ele>
 <time>2010-06-24T12:12:06Z</time>
 </trkpt>
 <trkpt lat="47.283089" lon="12.527460">
 <ele>795.92</ele>
 <time>2010-06-24T12:12:12Z</time>
 </trkpt>
 <trkpt lat="47.283085" lon="12.527486">
 <ele>795.88</ele>
 <time>2010-06-24T12:12:13Z</time>
 </trkpt>
 <trkpt lat="47.283089" lon="12.527100">
 <ele>795.89</ele>
 <time>2010-06-24T12:12:16Z</time>
 </trkpt>
 <trkpt lat="47.283108" lon="12.527382">
 <ele>795.74</ele>
 <time>2010-06-24T12:12:22Z</time>
 </trkpt>
 <trkpt lat="47.283112" lon="12.527149">
 <ele>796.19</ele>
 <time>2010-06-24T12:12:28Z</time>
 </trkpt>
 <trkpt lat="47.283150" lon="12.527102">
 <ele>796.71</ele>
 <time>2010-06-24T12:12:33Z</time>
 </trkpt>
 <trkpt lat="47.283279" lon="12.527105">
 <ele>796.88</ele>
 <time>2010-06-24T12:12:38Z</time>
 </trkpt>
 <trkpt lat="47.283508" lon="12.527111">
 <ele>796.75</ele>
 <time>2010-06-24T12:12:44Z</time>
 </trkpt>
 <trkpt lat="47.283722" lon="12.527116">
 <ele>796.27</ele>
 <time>2010-06-24T12:12:49Z</time>
 </trkpt>
 <trkpt lat="47.284138" lon="12.527198">
 <ele>795.36</ele>
 <time>2010-06-24T12:12:57Z</time>
 </trkpt>
 <trkpt lat="47.284439" lon="12.527355">
 <ele>794.76</ele>
 <time>2010-06-24T12:13:03Z</time>
 </trkpt>
 <trkpt lat="47.284702" lon="12.527490">
 <ele>795.14</ele>
 <time>2010-06-24T12:13:09Z</time>
 </trkpt>
 <trkpt lat="47.284824" lon="12.527516">
 <ele>794.88</ele>
 <time>2010-06-24T12:13:13Z</time>
 </trkpt>
 <trkpt lat="47.284954" lon="12.527531">
 <ele>794.87</ele>
 <time>2010-06-24T12:13:21Z</time>
 </trkpt>
 <trkpt lat="47.285069" lon="12.527544">
 <ele>794.91</ele>
 <time>2010-06-24T12:13:26Z</time>
 </trkpt>
 <trkpt lat="47.285347" lon="12.527490">
 <ele>795.26</ele>
 <time>2010-06-24T12:13:33Z</time>
 </trkpt>
 <trkpt lat="47.285683" lon="12.527482">
 <ele>795.98</ele>
 <time>2010-06-24T12:13:42Z</time>
 </trkpt>
 <trkpt lat="47.286110" lon="12.527548">
 <ele>797.48</ele>
 <time>2010-06-24T12:13:54Z</time>
 </trkpt>
 <trkpt lat="47.286324" lon="12.527616">
 <ele>798.15</ele>
 <time>2010-06-24T12:14:00Z</time>
 </trkpt>
 <trkpt lat="47.286503" lon="12.527690">
 <ele>799.71</ele>
 <time>2010-06-24T12:14:06Z</time>
 </trkpt>
 <trkpt lat="47.286572" lon="12.527719">
 <ele>800.41</ele>
 <time>2010-06-24T12:14:10Z</time>
 </trkpt>
 <trkpt lat="47.286667" lon="12.527985">
 <ele>801.07</ele>
 <time>2010-06-24T12:14:15Z</time>
 </trkpt>
 <trkpt lat="47.286644" lon="12.528251">
 <ele>801.06</ele>
 <time>2010-06-24T12:14:21Z</time>
 </trkpt>
 <trkpt lat="47.286629" lon="12.528423">
 <ele>801.41</ele>
 <time>2010-06-24T12:14:26Z</time>
 </trkpt>
 <trkpt lat="47.286770" lon="12.528451">
 <ele>801.79</ele>
 <time>2010-06-24T12:14:30Z</time>
 </trkpt>
 <trkpt lat="47.286964" lon="12.528607">
 <ele>802.47</ele>
 <time>2010-06-24T12:14:36Z</time>
 </trkpt>
 <trkpt lat="47.287254" lon="12.528783">
 <ele>803.96</ele>
 <time>2010-06-24T12:14:45Z</time>
 </trkpt>
 <trkpt lat="47.287472" lon="12.528864">
 <ele>805.06</ele>
 <time>2010-06-24T12:14:52Z</time>
 </trkpt>
 <trkpt lat="47.287685" lon="12.528895">
 <ele>806.36</ele>
 <time>2010-06-24T12:14:59Z</time>
 </trkpt>
 <trkpt lat="47.287838" lon="12.528911">
 <ele>807.39</ele>
 <time>2010-06-24T12:15:04Z</time>
 </trkpt>
 <trkpt lat="47.288067" lon="12.528917">
 <ele>809.21</ele>
 <time>2010-06-24T12:15:13Z</time>
 </trkpt>
 <trkpt lat="47.288342" lon="12.528915">
 <ele>811.53</ele>
 <time>2010-06-24T12:15:23Z</time>
 </trkpt>
 <trkpt lat="47.288441" lon="12.529012">
 <ele>812.53</ele>
 <time>2010-06-24T12:15:28Z</time>
 </trkpt>
 <trkpt lat="47.288471" lon="12.529055">
 <ele>812.94</ele>
 <time>2010-06-24T12:15:30Z</time>
 </trkpt>
 <trkpt lat="47.288548" lon="12.529166">
 <ele>813.39</ele>
 <time>2010-06-24T12:15:35Z</time>
 </trkpt>
 <trkpt lat="47.288631" lon="12.529285">
 <ele>814.28</ele>
 <time>2010-06-24T12:15:40Z</time>
 </trkpt>
 <trkpt lat="47.288631" lon="12.529285">
 <ele>814.99</ele>
 <time>2010-06-24T12:15:45Z</time>
 </trkpt>
 <trkpt lat="47.288696" lon="12.529793">
 <ele>815.40</ele>
 <time>2010-06-24T12:15:52Z</time>
 </trkpt>
 <trkpt lat="47.288746" lon="12.530258">
 <ele>814.77</ele>
 <time>2010-06-24T12:16:00Z</time>
 </trkpt>
 <trkpt lat="47.288795" lon="12.530697">
 <ele>814.34</ele>
 <time>2010-06-24T12:16:07Z</time>
 </trkpt>
 <trkpt lat="47.288811" lon="12.530834">
 <ele>814.08</ele>
 <time>2010-06-24T12:16:09Z</time>
 </trkpt>
 <trkpt lat="47.288857" lon="12.531264">
 <ele>812.38</ele>
 <time>2010-06-24T12:16:14Z</time>
 </trkpt>
 <trkpt lat="47.288868" lon="12.531791">
 <ele>811.82</ele>
 <time>2010-06-24T12:16:20Z</time>
 </trkpt>
 <trkpt lat="47.288933" lon="12.532471">
 <ele>811.64</ele>
 <time>2010-06-24T12:16:29Z</time>
 </trkpt>
 <trkpt lat="47.288933" lon="12.533071">
 <ele>810.63</ele>
 <time>2010-06-24T12:16:36Z</time>
 </trkpt>
 <trkpt lat="47.288898" lon="12.533651">
 <ele>809.78</ele>
 <time>2010-06-24T12:16:42Z</time>
 </trkpt>
 <trkpt lat="47.288876" lon="12.534044">
 <ele>808.88</ele>
 <time>2010-06-24T12:16:46Z</time>
 </trkpt>
 <trkpt lat="47.288914" lon="12.534671">
 <ele>808.35</ele>
 <time>2010-06-24T12:16:53Z</time>
 </trkpt>
 <trkpt lat="47.288891" lon="12.535114">
 <ele>807.76</ele>
 <time>2010-06-24T12:16:58Z</time>
 </trkpt>
 <trkpt lat="47.288795" lon="12.535571">
 <ele>806.41</ele>
 <time>2010-06-24T12:17:03Z</time>
 </trkpt>
 <trkpt lat="47.288631" lon="12.536038">
 <ele>804.94</ele>
 <time>2010-06-24T12:17:08Z</time>
 </trkpt>
 <trkpt lat="47.288589" lon="12.536152">
 <ele>804.54</ele>
 <time>2010-06-24T12:17:10Z</time>
 </trkpt>
 <trkpt lat="47.288631" lon="12.536686">
 <ele>806.04</ele>
 <time>2010-06-24T12:17:16Z</time>
 </trkpt>
 <trkpt lat="47.288631" lon="12.537107">
 <ele>809.17</ele>
 <time>2010-06-24T12:17:25Z</time>
 </trkpt>
 <trkpt lat="47.288631" lon="12.537457">
 <ele>810.86</ele>
 <time>2010-06-24T12:17:33Z</time>
 </trkpt>
 <trkpt lat="47.288631" lon="12.537799">
 <ele>813.00</ele>
 <time>2010-06-24T12:17:41Z</time>
 </trkpt>
 <trkpt lat="47.288620" lon="12.538057">
 <ele>814.69</ele>
 <time>2010-06-24T12:17:47Z</time>
 </trkpt>
 <trkpt lat="47.288578" lon="12.538308">
 <ele>816.03</ele>
 <time>2010-06-24T12:17:53Z</time>
 </trkpt>
 <trkpt lat="47.288513" lon="12.538703">
 <ele>817.34</ele>
 <time>2010-06-24T12:18:02Z</time>
 </trkpt>
 <trkpt lat="47.288445" lon="12.539065">
 <ele>817.78</ele>
 <time>2010-06-24T12:18:10Z</time>
 </trkpt>
 <trkpt lat="47.288422" lon="12.539462">
 <ele>817.50</ele>
 <time>2010-06-24T12:18:17Z</time>
 </trkpt>
 <trkpt lat="47.288445" lon="12.539898">
 <ele>817.47</ele>
 <time>2010-06-24T12:18:24Z</time>
 </trkpt>
 <trkpt lat="47.288460" lon="12.540408">
 <ele>818.50</ele>
 <time>2010-06-24T12:18:33Z</time>
 </trkpt>
 <trkpt lat="47.288448" lon="12.540959">
 <ele>820.22</ele>
 <time>2010-06-24T12:18:43Z</time>
 </trkpt>
 <trkpt lat="47.288425" lon="12.541408">
 <ele>820.69</ele>
 <time>2010-06-24T12:18:51Z</time>
 </trkpt>
 <trkpt lat="47.288387" lon="12.541954">
 <ele>820.02</ele>
 <time>2010-06-24T12:18:59Z</time>
 </trkpt>
 <trkpt lat="47.288353" lon="12.542436">
 <ele>818.89</ele>
 <time>2010-06-24T12:19:05Z</time>
 </trkpt>
 <trkpt lat="47.288349" lon="12.542937">
 <ele>818.46</ele>
 <time>2010-06-24T12:19:11Z</time>
 </trkpt>
 <trkpt lat="47.288330" lon="12.543095">
 <ele>818.44</ele>
 <time>2010-06-24T12:19:13Z</time>
 </trkpt>
 <trkpt lat="47.288246" lon="12.543549">
 <ele>818.89</ele>
 <time>2010-06-24T12:19:20Z</time>
 </trkpt>
 <trkpt lat="47.288212" lon="12.543665">
 <ele>818.80</ele>
 <time>2010-06-24T12:19:23Z</time>
 </trkpt>
 <trkpt lat="47.288174" lon="12.543705">
 <ele>818.39</ele>
 <time>2010-06-24T12:19:24Z</time>
 </trkpt>
 <trkpt lat="47.287804" lon="12.543879">
 <ele>815.22</ele>
 <time>2010-06-24T12:19:30Z</time>
 </trkpt>
 <trkpt lat="47.287334" lon="12.544020">
 <ele>812.01</ele>
 <time>2010-06-24T12:19:36Z</time>
 </trkpt>
 <trkpt lat="47.287079" lon="12.544065">
 <ele>810.64</ele>
 <time>2010-06-24T12:19:40Z</time>
 </trkpt>
 <trkpt lat="47.286968" lon="12.544157">
 <ele>809.20</ele>
 <time>2010-06-24T12:19:43Z</time>
 </trkpt>
 <trkpt lat="47.286880" lon="12.544332">
 <ele>807.88</ele>
 <time>2010-06-24T12:19:48Z</time>
 </trkpt>
 <trkpt lat="47.286777" lon="12.544681">
 <ele>805.82</ele>
 <time>2010-06-24T12:19:52Z</time>
 </trkpt>
 <trkpt lat="47.286659" lon="12.545421">
 <ele>802.04</ele>
 <time>2010-06-24T12:19:58Z</time>
 </trkpt>
 <trkpt lat="47.286556" lon="12.545966">
 <ele>800.26</ele>
 <time>2010-06-24T12:20:02Z</time>
 </trkpt>
 <trkpt lat="47.286415" lon="12.546958">
 <ele>796.45</ele>
 <time>2010-06-24T12:20:09Z</time>
 </trkpt>
 <trkpt lat="47.286388" lon="12.547800">
 <ele>793.77</ele>
 <time>2010-06-24T12:20:15Z</time>
 </trkpt>
 <trkpt lat="47.286430" lon="12.548979">
 <ele>792.42</ele>
 <time>2010-06-24T12:20:24Z</time>
 </trkpt>
 <trkpt lat="47.286434" lon="12.549790">
 <ele>791.83</ele>
 <time>2010-06-24T12:20:31Z</time>
 </trkpt>
 <trkpt lat="47.286392" lon="12.550615">
 <ele>792.04</ele>
 <time>2010-06-24T12:20:39Z</time>
 </trkpt>
 <trkpt lat="47.286293" lon="12.551438">
 <ele>792.18</ele>
 <time>2010-06-24T12:20:48Z</time>
 </trkpt>
 <trkpt lat="47.286251" lon="12.552072">
 <ele>793.15</ele>
 <time>2010-06-24T12:20:56Z</time>
 </trkpt>
 <trkpt lat="47.286221" lon="12.552742">
 <ele>794.29</ele>
 <time>2010-06-24T12:21:05Z</time>
 </trkpt>
 <trkpt lat="47.286201" lon="12.553221">
 <ele>795.49</ele>
 <time>2010-06-24T12:21:12Z</time>
 </trkpt>
 <trkpt lat="47.286182" lon="12.553804">
 <ele>796.72</ele>
 <time>2010-06-24T12:21:21Z</time>
 </trkpt>
 <trkpt lat="47.286163" lon="12.554433">
 <ele>798.27</ele>
 <time>2010-06-24T12:21:31Z</time>
 </trkpt>
 <trkpt lat="47.286163" lon="12.554969">
 <ele>799.37</ele>
 <time>2010-06-24T12:21:40Z</time>
 </trkpt>
 <trkpt lat="47.286163" lon="12.555471">
 <ele>800.96</ele>
 <time>2010-06-24T12:21:49Z</time>
 </trkpt>
 <trkpt lat="47.286148" lon="12.555848">
 <ele>802.44</ele>
 <time>2010-06-24T12:21:56Z</time>
 </trkpt>
 <trkpt lat="47.286098" lon="12.556335">
 <ele>803.28</ele>
 <time>2010-06-24T12:22:05Z</time>
 </trkpt>
 <trkpt lat="47.286007" lon="12.556897">
 <ele>803.73</ele>
 <time>2010-06-24T12:22:15Z</time>
 </trkpt>
 <trkpt lat="47.285900" lon="12.557126">
 <ele>803.39</ele>
 <time>2010-06-24T12:22:20Z</time>
 </trkpt>
 <trkpt lat="47.285717" lon="12.557463">
 <ele>802.73</ele>
 <time>2010-06-24T12:22:27Z</time>
 </trkpt>
 <trkpt lat="47.285454" lon="12.557946">
 <ele>801.54</ele>
 <time>2010-06-24T12:22:35Z</time>
 </trkpt>
 <trkpt lat="47.285160" lon="12.558479">
 <ele>800.92</ele>
 <time>2010-06-24T12:22:43Z</time>
 </trkpt>
 <trkpt lat="47.285011" lon="12.558751">
 <ele>800.59</ele>
 <time>2010-06-24T12:22:47Z</time>
 </trkpt>
 <trkpt lat="47.284760" lon="12.559360">
 <ele>800.28</ele>
 <time>2010-06-24T12:22:55Z</time>
 </trkpt>
 <trkpt lat="47.284664" lon="12.559933">
 <ele>800.65</ele>
 <time>2010-06-24T12:23:02Z</time>
 </trkpt>
 <trkpt lat="47.284660" lon="12.560012">
 <ele>800.76</ele>
 <time>2010-06-24T12:23:03Z</time>
 </trkpt>
 <trkpt lat="47.284618" lon="12.560684">
 <ele>800.15</ele>
 <time>2010-06-24T12:23:12Z</time>
 </trkpt>
 <trkpt lat="47.284618" lon="12.561212">
 <ele>801.55</ele>
 <time>2010-06-24T12:23:20Z</time>
 </trkpt>
 <trkpt lat="47.284618" lon="12.561756">
 <ele>802.85</ele>
 <time>2010-06-24T12:23:29Z</time>
 </trkpt>
 <trkpt lat="47.284534" lon="12.562148">
 <ele>804.45</ele>
 <time>2010-06-24T12:23:37Z</time>
 </trkpt>
 <trkpt lat="47.284470" lon="12.562373">
 <ele>803.51</ele>
 <time>2010-06-24T12:23:42Z</time>
 </trkpt>
 <trkpt lat="47.284428" lon="12.563062">
 <ele>801.93</ele>
 <time>2010-06-24T12:23:48Z</time>
 </trkpt>
 <trkpt lat="47.284325" lon="12.564018">
 <ele>798.98</ele>
 <time>2010-06-24T12:23:57Z</time>
 </trkpt>
 <trkpt lat="47.284195" lon="12.564778">
 <ele>797.65</ele>
 <time>2010-06-24T12:24:05Z</time>
 </trkpt>
 <trkpt lat="47.284088" lon="12.565581">
 <ele>796.91</ele>
 <time>2010-06-24T12:24:14Z</time>
 </trkpt>
 <trkpt lat="47.284081" lon="12.566489">
 <ele>796.54</ele>
 <time>2010-06-24T12:24:24Z</time>
 </trkpt>
 <trkpt lat="47.284107" lon="12.567225">
 <ele>796.14</ele>
 <time>2010-06-24T12:24:32Z</time>
 </trkpt>
 <trkpt lat="47.284130" lon="12.568302">
 <ele>795.56</ele>
 <time>2010-06-24T12:24:44Z</time>
 </trkpt>
 <trkpt lat="47.284149" lon="12.569148">
 <ele>795.09</ele>
 <time>2010-06-24T12:24:54Z</time>
 </trkpt>
 <trkpt lat="47.284161" lon="12.569823">
 <ele>794.93</ele>
 <time>2010-06-24T12:25:02Z</time>
 </trkpt>
 <trkpt lat="47.284168" lon="12.570333">
 <ele>794.54</ele>
 <time>2010-06-24T12:25:08Z</time>
 </trkpt>
 <trkpt lat="47.284191" lon="12.570676">
 <ele>794.32</ele>
 <time>2010-06-24T12:25:12Z</time>
 </trkpt>
 <trkpt lat="47.284344" lon="12.571403">
 <ele>794.37</ele>
 <time>2010-06-24T12:25:21Z</time>
 </trkpt>
 <trkpt lat="47.284416" lon="12.571883">
 <ele>795.95</ele>
 <time>2010-06-24T12:25:28Z</time>
 </trkpt>
 <trkpt lat="47.284470" lon="12.572136">
 <ele>797.99</ele>
 <time>2010-06-24T12:25:34Z</time>
 </trkpt>
 <trkpt lat="47.284470" lon="12.572136">
 <ele>799.34</ele>
 <time>2010-06-24T12:25:39Z</time>
 </trkpt>
 <trkpt lat="47.284534" lon="12.572458">
 <ele>798.55</ele>
 <time>2010-06-24T12:25:43Z</time>
 </trkpt>
 <trkpt lat="47.284332" lon="12.572688">
 <ele>796.79</ele>
 <time>2010-06-24T12:25:48Z</time>
 </trkpt>
 <trkpt lat="47.284115" lon="12.572722">
 <ele>795.51</ele>
 <time>2010-06-24T12:25:52Z</time>
 </trkpt>
 <trkpt lat="47.284050" lon="12.572733">
 <ele>795.50</ele>
 <time>2010-06-24T12:25:53Z</time>
 </trkpt>
 <trkpt lat="47.283623" lon="12.572798">
 <ele>793.61</ele>
 <time>2010-06-24T12:25:59Z</time>
 </trkpt>
 <trkpt lat="47.283241" lon="12.572855">
 <ele>792.02</ele>
 <time>2010-06-24T12:26:04Z</time>
 </trkpt>
 <trkpt lat="47.282852" lon="12.572913">
 <ele>790.64</ele>
 <time>2010-06-24T12:26:09Z</time>
 </trkpt>
 <trkpt lat="47.282501" lon="12.572965">
 <ele>789.60</ele>
 <time>2010-06-24T12:26:14Z</time>
 </trkpt>
 <trkpt lat="47.282372" lon="12.572973">
 <ele>789.42</ele>
 <time>2010-06-24T12:26:18Z</time>
 </trkpt>
 <trkpt lat="47.282166" lon="12.572980">
 <ele>790.00</ele>
 <time>2010-06-24T12:26:26Z</time>
 </trkpt>
 <trkpt lat="47.282032" lon="12.573080">
 <ele>790.23</ele>
 <time>2010-06-24T12:26:30Z</time>
 </trkpt>
 <trkpt lat="47.281937" lon="12.573325">
 <ele>789.64</ele>
 <time>2010-06-24T12:26:35Z</time>
 </trkpt>
 <trkpt lat="47.281731" lon="12.573834">
 <ele>787.78</ele>
 <time>2010-06-24T12:26:42Z</time>
 </trkpt>
 <trkpt lat="47.281700" lon="12.573908">
 <ele>787.78</ele>
 <time>2010-06-24T12:26:43Z</time>
 </trkpt>
 <trkpt lat="47.281506" lon="12.574533">
 <ele>787.53</ele>
 <time>2010-06-24T12:26:51Z</time>
 </trkpt>
 <trkpt lat="47.281364" lon="12.575318">
 <ele>787.13</ele>
 <time>2010-06-24T12:27:01Z</time>
 </trkpt>
 <trkpt lat="47.281212" lon="12.576144">
 <ele>786.42</ele>
 <time>2010-06-24T12:27:11Z</time>
 </trkpt>
 <trkpt lat="47.281132" lon="12.577017">
 <ele>786.39</ele>
 <time>2010-06-24T12:27:21Z</time>
 </trkpt>
 <trkpt lat="47.281082" lon="12.577860">
 <ele>786.14</ele>
 <time>2010-06-24T12:27:31Z</time>
 </trkpt>
 <trkpt lat="47.281048" lon="12.578495">
 <ele>786.35</ele>
 <time>2010-06-24T12:27:39Z</time>
 </trkpt>
 <trkpt lat="47.281113" lon="12.579248">
 <ele>786.09</ele>
 <time>2010-06-24T12:27:48Z</time>
 </trkpt>
 <trkpt lat="47.281181" lon="12.579738">
 <ele>786.45</ele>
 <time>2010-06-24T12:27:55Z</time>
 </trkpt>
 <trkpt lat="47.281212" lon="12.579951">
 <ele>786.68</ele>
 <time>2010-06-24T12:27:59Z</time>
 </trkpt>
 <trkpt lat="47.281239" lon="12.580148">
 <ele>787.59</ele>
 <time>2010-06-24T12:28:05Z</time>
 </trkpt>
 <trkpt lat="47.281261" lon="12.580339">
 <ele>787.67</ele>
 <time>2010-06-24T12:28:11Z</time>
 </trkpt>
 <trkpt lat="47.281277" lon="12.580440">
 <ele>787.92</ele>
 <time>2010-06-24T12:28:15Z</time>
 </trkpt>
 <trkpt lat="47.281277" lon="12.580440">
 <ele>787.80</ele>
 <time>2010-06-24T12:28:16Z</time>
 </trkpt>
 <trkpt lat="47.281246" lon="12.580399">
 <ele>787.50</ele>
 <time>2010-06-24T12:28:40Z</time>
 </trkpt>
 <trkpt lat="47.281277" lon="12.580432">
 <ele>787.61</ele>
 <time>2010-06-24T12:28:42Z</time>
 </trkpt>
 <trkpt lat="47.281357" lon="12.581019">
 <ele>788.05</ele>
 <time>2010-06-24T12:28:50Z</time>
 </trkpt>
 <trkpt lat="47.281479" lon="12.581930">
 <ele>788.39</ele>
 <time>2010-06-24T12:29:01Z</time>
 </trkpt>
 <trkpt lat="47.281849" lon="12.582784">
 <ele>789.70</ele>
 <time>2010-06-24T12:29:13Z</time>
 </trkpt>
 <trkpt lat="47.282242" lon="12.583649">
 <ele>791.04</ele>
 <time>2010-06-24T12:29:26Z</time>
 </trkpt>
 <trkpt lat="47.282616" lon="12.584469">
 <ele>791.42</ele>
 <time>2010-06-24T12:29:38Z</time>
 </trkpt>
 <trkpt lat="47.282993" lon="12.585306">
 <ele>791.65</ele>
 <time>2010-06-24T12:29:50Z</time>
 </trkpt>
 <trkpt lat="47.283092" lon="12.585522">
 <ele>791.23</ele>
 <time>2010-06-24T12:29:54Z</time>
 </trkpt>
 <trkpt lat="47.282852" lon="12.585775">
 <ele>790.58</ele>
 <time>2010-06-24T12:29:56Z</time>
 </trkpt>
 <trkpt lat="47.282520" lon="12.586009">
 <ele>787.83</ele>
 <time>2010-06-24T12:30:01Z</time>
 </trkpt>
 <trkpt lat="47.282307" lon="12.586341">
 <ele>786.16</ele>
 <time>2010-06-24T12:30:05Z</time>
 </trkpt>
 <trkpt lat="47.282276" lon="12.586442">
 <ele>786.02</ele>
 <time>2010-06-24T12:30:06Z</time>
 </trkpt>
 <trkpt lat="47.281780" lon="12.587386">
 <ele>785.06</ele>
 <time>2010-06-24T12:30:13Z</time>
 </trkpt>
 <trkpt lat="47.281895" lon="12.587669">
 <ele>785.28</ele>
 <time>2010-06-24T12:30:18Z</time>
 </trkpt>
 <trkpt lat="47.281982" lon="12.587889">
 <ele>785.30</ele>
 <time>2010-06-24T12:30:23Z</time>
 </trkpt>
 <trkpt lat="47.282074" lon="12.588117">
 <ele>784.58</ele>
 <time>2010-06-24T12:30:28Z</time>
 </trkpt>
 <trkpt lat="47.282204" lon="12.588441">
 <ele>784.83</ele>
 <time>2010-06-24T12:30:34Z</time>
 </trkpt>
 <trkpt lat="47.282238" lon="12.588528">
 <ele>784.93</ele>
 <time>2010-06-24T12:30:37Z</time>
 </trkpt>
 <trkpt lat="47.282280" lon="12.588635">
 <ele>784.87</ele>
 <time>2010-06-24T12:30:42Z</time>
 </trkpt>
 <trkpt lat="47.282387" lon="12.588901">
 <ele>784.16</ele>
 <time>2010-06-24T12:30:48Z</time>
 </trkpt>
 <trkpt lat="47.282467" lon="12.589097">
 <ele>784.28</ele>
 <time>2010-06-24T12:30:53Z</time>
 </trkpt>
 <trkpt lat="47.282513" lon="12.589219">
 <ele>784.03</ele>
 <time>2010-06-24T12:30:58Z</time>
 </trkpt>
 <trkpt lat="47.282387" lon="12.589405">
 <ele>783.78</ele>
 <time>2010-06-24T12:31:03Z</time>
 </trkpt>
 <trkpt lat="47.282379" lon="12.589384">
 <ele>783.79</ele>
 <time>2010-06-24T12:31:08Z</time>
 </trkpt>
 <trkpt lat="47.282379" lon="12.589376">
 <ele>783.77</ele>
 <time>2010-06-24T12:31:09Z</time>
 </trkpt>
 <trkpt lat="47.282482" lon="12.589139">
 <ele>783.70</ele>
 <time>2010-06-24T12:31:15Z</time>
 </trkpt>
 <trkpt lat="47.282383" lon="12.588892">
 <ele>783.60</ele>
 <time>2010-06-24T12:31:22Z</time>
 </trkpt>
 <trkpt lat="47.282314" lon="12.588717">
 <ele>784.10</ele>
 <time>2010-06-24T12:31:27Z</time>
 </trkpt>
 <trkpt lat="47.282223" lon="12.588492">
 <ele>784.31</ele>
 <time>2010-06-24T12:31:32Z</time>
 </trkpt>
 <trkpt lat="47.282131" lon="12.588267">
 <ele>784.62</ele>
 <time>2010-06-24T12:31:36Z</time>
 </trkpt>
 <trkpt lat="47.282051" lon="12.588064">
 <ele>784.68</ele>
 <time>2010-06-24T12:31:40Z</time>
 </trkpt>
 <trkpt lat="47.281898" lon="12.587677">
 <ele>784.85</ele>
 <time>2010-06-24T12:31:48Z</time>
 </trkpt>
 <trkpt lat="47.281742" lon="12.587291">
 <ele>784.67</ele>
 <time>2010-06-24T12:31:56Z</time>
 </trkpt>
 <trkpt lat="47.281624" lon="12.586994">
 <ele>785.16</ele>
 <time>2010-06-24T12:32:03Z</time>
 </trkpt>
 <trkpt lat="47.282528" lon="12.586048">
 <ele>785.52</ele>
 <time>2010-06-24T12:32:09Z</time>
 </trkpt>
 <trkpt lat="47.282593" lon="12.585971">
 <ele>786.06</ele>
 <time>2010-06-24T12:32:13Z</time>
 </trkpt>
 <trkpt lat="47.282501" lon="12.586014">
 <ele>786.13</ele>
 <time>2010-06-24T12:32:18Z</time>
 </trkpt>
 <trkpt lat="47.282440" lon="12.585942">
 <ele>785.73</ele>
 <time>2010-06-24T12:32:22Z</time>
 </trkpt>
 <trkpt lat="47.282482" lon="12.585882">
 <ele>785.53</ele>
 <time>2010-06-24T12:32:24Z</time>
 </trkpt>
 <trkpt lat="47.282730" lon="12.585690">
 <ele>785.87</ele>
 <time>2010-06-24T12:32:31Z</time>
 </trkpt>
 <trkpt lat="47.282925" lon="12.585539">
 <ele>786.28</ele>
 <time>2010-06-24T12:32:37Z</time>
 </trkpt>
 <trkpt lat="47.282986" lon="12.585501">
 <ele>787.08</ele>
 <time>2010-06-24T12:32:41Z</time>
 </trkpt>
 <trkpt lat="47.283047" lon="12.585477">
 <ele>787.29</ele>
 <time>2010-06-24T12:32:43Z</time>
 </trkpt>
 <trkpt lat="47.283154" lon="12.585661">
 <ele>788.43</ele>
 <time>2010-06-24T12:32:50Z</time>
 </trkpt>
 <trkpt lat="47.283646" lon="12.585395">
 <ele>791.50</ele>
 <time>2010-06-24T12:32:59Z</time>
 </trkpt>
 <trkpt lat="47.283222" lon="12.585808">
 <ele>791.50</ele>
 <time>2010-06-24T12:33:00Z</time>
 </trkpt>
 <trkpt lat="47.283276" lon="12.585929">
 <ele>792.49</ele>
 <time>2010-06-24T12:33:05Z</time>
 </trkpt>
 <trkpt lat="47.283337" lon="12.586066">
 <ele>794.31</ele>
 <time>2010-06-24T12:33:13Z</time>
 </trkpt>
 <trkpt lat="47.283382" lon="12.586168">
 <ele>795.61</ele>
 <time>2010-06-24T12:33:20Z</time>
 </trkpt>
 <trkpt lat="47.284443" lon="12.585364">
 <ele>797.83</ele>
 <time>2010-06-24T12:33:30Z</time>
 </trkpt>
 <trkpt lat="47.284573" lon="12.585335">
 <ele>799.12</ele>
 <time>2010-06-24T12:33:36Z</time>
 </trkpt>
 <trkpt lat="47.284702" lon="12.585273">
 <ele>800.89</ele>
 <time>2010-06-24T12:33:43Z</time>
 </trkpt>
 <trkpt lat="47.284794" lon="12.585240">
 <ele>802.16</ele>
 <time>2010-06-24T12:33:49Z</time>
 </trkpt>
 <trkpt lat="47.284882" lon="12.585302">
 <ele>802.92</ele>
 <time>2010-06-24T12:33:53Z</time>
 </trkpt>
 <trkpt lat="47.284927" lon="12.585521">
 <ele>803.80</ele>
 <time>2010-06-24T12:33:59Z</time>
 </trkpt>
 <trkpt lat="47.284939" lon="12.585690">
 <ele>803.53</ele>
 <time>2010-06-24T12:34:02Z</time>
 </trkpt>
 <trkpt lat="47.285015" lon="12.586093">
 <ele>802.29</ele>
 <time>2010-06-24T12:34:08Z</time>
 </trkpt>
 <trkpt lat="47.285072" lon="12.586332">
 <ele>801.66</ele>
 <time>2010-06-24T12:34:11Z</time>
 </trkpt>
 <trkpt lat="47.285309" lon="12.586888">
 <ele>800.31</ele>
 <time>2010-06-24T12:34:18Z</time>
 </trkpt>
 <trkpt lat="47.285469" lon="12.587376">
 <ele>798.60</ele>
 <time>2010-06-24T12:34:23Z</time>
 </trkpt>
 <trkpt lat="47.285496" lon="12.587475">
 <ele>798.09</ele>
 <time>2010-06-24T12:34:24Z</time>
 </trkpt>
 <trkpt lat="47.285515" lon="12.587883">
 <ele>796.08</ele>
 <time>2010-06-24T12:34:28Z</time>
 </trkpt>
 <trkpt lat="47.284782" lon="12.589253">
 <ele>790.30</ele>
 <time>2010-06-24T12:34:35Z</time>
 </trkpt>
 <trkpt lat="47.284950" lon="12.589620">
 <ele>788.52</ele>
 <time>2010-06-24T12:34:39Z</time>
 </trkpt>
 <trkpt lat="47.285175" lon="12.590122">
 <ele>786.75</ele>
 <time>2010-06-24T12:34:44Z</time>
 </trkpt>
 <trkpt lat="47.285366" lon="12.590922">
 <ele>785.03</ele>
 <time>2010-06-24T12:34:51Z</time>
 </trkpt>
 <trkpt lat="47.285480" lon="12.591533">
 <ele>785.16</ele>
 <time>2010-06-24T12:34:57Z</time>
 </trkpt>
 <trkpt lat="47.285606" lon="12.592196">
 <ele>784.98</ele>
 <time>2010-06-24T12:35:04Z</time>
 </trkpt>
 <trkpt lat="47.285637" lon="12.592807">
 <ele>784.52</ele>
 <time>2010-06-24T12:35:10Z</time>
 </trkpt>
 <trkpt lat="47.285629" lon="12.592990">
 <ele>784.43</ele>
 <time>2010-06-24T12:35:12Z</time>
 </trkpt>
 <trkpt lat="47.285599" lon="12.593834">
 <ele>785.02</ele>
 <time>2010-06-24T12:35:21Z</time>
 </trkpt>
 <trkpt lat="47.285576" lon="12.594436">
 <ele>785.62</ele>
 <time>2010-06-24T12:35:28Z</time>
 </trkpt>
 <trkpt lat="47.285549" lon="12.595056">
 <ele>786.66</ele>
 <time>2010-06-24T12:35:36Z</time>
 </trkpt>
 <trkpt lat="47.285568" lon="12.595367">
 <ele>787.35</ele>
 <time>2010-06-24T12:35:41Z</time>
 </trkpt>
 <trkpt lat="47.285618" lon="12.595573">
 <ele>788.04</ele>
 <time>2010-06-24T12:35:46Z</time>
 </trkpt>
 <trkpt lat="47.285942" lon="12.595472">
 <ele>789.03</ele>
 <time>2010-06-24T12:35:50Z</time>
 </trkpt>
 <trkpt lat="47.285728" lon="12.596030">
 <ele>788.12</ele>
 <time>2010-06-24T12:35:55Z</time>
 </trkpt>
 <trkpt lat="47.285995" lon="12.595503">
 <ele>786.64</ele>
 <time>2010-06-24T12:35:58Z</time>
 </trkpt>
 <trkpt lat="47.285702" lon="12.595906">
 <ele>785.09</ele>
 <time>2010-06-24T12:36:01Z</time>
 </trkpt>
 <trkpt lat="47.285648" lon="12.595701">
 <ele>783.57</ele>
 <time>2010-06-24T12:36:04Z</time>
 </trkpt>
 <trkpt lat="47.285702" lon="12.595331">
 <ele>782.82</ele>
 <time>2010-06-24T12:36:07Z</time>
 </trkpt>
 <trkpt lat="47.285664" lon="12.595315">
 <ele>782.73</ele>
 <time>2010-06-24T12:36:08Z</time>
 </trkpt>
 <trkpt lat="47.285450" lon="12.595272">
 <ele>782.37</ele>
 <time>2010-06-24T12:36:11Z</time>
 </trkpt>
 <trkpt lat="47.285248" lon="12.595283">
 <ele>783.36</ele>
 <time>2010-06-24T12:36:16Z</time>
 </trkpt>
 <trkpt lat="47.285221" lon="12.595284">
 <ele>783.69</ele>
 <time>2010-06-24T12:36:17Z</time>
 </trkpt>
 <trkpt lat="47.285000" lon="12.595437">
 <ele>784.41</ele>
 <time>2010-06-24T12:36:23Z</time>
 </trkpt>
 <trkpt lat="47.285133" lon="12.595289">
 <ele>784.00</ele>
 <time>2010-06-24T12:36:28Z</time>
 </trkpt>
 <trkpt lat="47.285133" lon="12.595289">
 <ele>783.15</ele>
 <time>2010-06-24T12:36:34Z</time>
 </trkpt>
 <trkpt lat="47.284279" lon="12.595406">
 <ele>782.92</ele>
 <time>2010-06-24T12:36:42Z</time>
 </trkpt>
 <trkpt lat="47.284176" lon="12.595459">
 <ele>782.92</ele>
 <time>2010-06-24T12:36:44Z</time>
 </trkpt>
 <trkpt lat="47.283993" lon="12.595634">
 <ele>782.89</ele>
 <time>2010-06-24T12:36:48Z</time>
 </trkpt>
 <trkpt lat="47.283909" lon="12.595737">
 <ele>782.85</ele>
 <time>2010-06-24T12:36:50Z</time>
 </trkpt>
 <trkpt lat="47.283600" lon="12.595938">
 <ele>782.54</ele>
 <time>2010-06-24T12:36:56Z</time>
 </trkpt>
 <trkpt lat="47.282963" lon="12.596247">
 <ele>782.18</ele>
 <time>2010-06-24T12:37:08Z</time>
 </trkpt>
 <trkpt lat="47.282799" lon="12.596308">
 <ele>782.09</ele>
 <time>2010-06-24T12:37:11Z</time>
 </trkpt>
 <trkpt lat="47.282475" lon="12.596296">
 <ele>782.16</ele>
 <time>2010-06-24T12:37:17Z</time>
 </trkpt>
 <trkpt lat="47.282421" lon="12.596300">
 <ele>782.25</ele>
 <time>2010-06-24T12:37:18Z</time>
 </trkpt>
 <trkpt lat="47.282211" lon="12.596376">
 <ele>782.48</ele>
 <time>2010-06-24T12:37:22Z</time>
 </trkpt>
 <trkpt lat="47.281967" lon="12.596548">
 <ele>782.48</ele>
 <time>2010-06-24T12:37:27Z</time>
 </trkpt>
 <trkpt lat="47.281754" lon="12.596575">
 <ele>782.39</ele>
 <time>2010-06-24T12:37:31Z</time>
 </trkpt>
 <trkpt lat="47.281647" lon="12.596540">
 <ele>782.34</ele>
 <time>2010-06-24T12:37:33Z</time>
 </trkpt>
 <trkpt lat="47.281292" lon="12.596349">
 <ele>782.60</ele>
 <time>2010-06-24T12:37:40Z</time>
 </trkpt>
 <trkpt lat="47.280823" lon="12.596127">
 <ele>782.01</ele>
 <time>2010-06-24T12:37:49Z</time>
 </trkpt>
 <trkpt lat="47.280071" lon="12.595911">
 <ele>782.73</ele>
 <time>2010-06-24T12:37:58Z</time>
 </trkpt>
 <trkpt lat="47.280071" lon="12.595911">
 <ele>783.80</ele>
 <time>2010-06-24T12:38:03Z</time>
 </trkpt>
 <trkpt lat="47.280041" lon="12.595908">
 <ele>784.92</ele>
 <time>2010-06-24T12:38:08Z</time>
 </trkpt>
 <trkpt lat="47.280010" lon="12.595904">
 <ele>784.97</ele>
 <time>2010-06-24T12:38:09Z</time>
 </trkpt>
 <trkpt lat="47.279686" lon="12.596005">
 <ele>784.51</ele>
 <time>2010-06-24T12:38:13Z</time>
 </trkpt>
 <trkpt lat="47.279686" lon="12.596065">
 <ele>784.32</ele>
 <time>2010-06-24T12:38:14Z</time>
 </trkpt>
 <trkpt lat="47.279694" lon="12.596709">
 <ele>784.33</ele>
 <time>2010-06-24T12:38:23Z</time>
 </trkpt>
 <trkpt lat="47.279701" lon="12.597405">
 <ele>784.38</ele>
 <time>2010-06-24T12:38:32Z</time>
 </trkpt>
 <trkpt lat="47.279709" lon="12.598312">
 <ele>784.28</ele>
 <time>2010-06-24T12:38:43Z</time>
 </trkpt>
 <trkpt lat="47.279716" lon="12.599075">
 <ele>784.17</ele>
 <time>2010-06-24T12:38:52Z</time>
 </trkpt>
 <trkpt lat="47.279724" lon="12.599581">
 <ele>783.83</ele>
 <time>2010-06-24T12:38:58Z</time>
 </trkpt>
 <trkpt lat="47.279732" lon="12.600257">
 <ele>783.95</ele>
 <time>2010-06-24T12:39:06Z</time>
 </trkpt>
 <trkpt lat="47.279739" lon="12.600955">
 <ele>784.18</ele>
 <time>2010-06-24T12:39:14Z</time>
 </trkpt>
 <trkpt lat="47.279747" lon="12.601763">
 <ele>783.80</ele>
 <time>2010-06-24T12:39:23Z</time>
 </trkpt>
 <trkpt lat="47.279800" lon="12.602557">
 <ele>783.34</ele>
 <time>2010-06-24T12:39:32Z</time>
 </trkpt>
 <trkpt lat="47.279812" lon="12.602644">
 <ele>783.38</ele>
 <time>2010-06-24T12:39:33Z</time>
 </trkpt>
 <trkpt lat="47.279888" lon="12.603406">
 <ele>783.18</ele>
 <time>2010-06-24T12:39:42Z</time>
 </trkpt>
 <trkpt lat="47.279938" lon="12.603919">
 <ele>782.90</ele>
 <time>2010-06-24T12:39:48Z</time>
 </trkpt>
 <trkpt lat="47.280079" lon="12.604667">
 <ele>783.21</ele>
 <time>2010-06-24T12:39:57Z</time>
 </trkpt>
 <trkpt lat="47.280228" lon="12.605417">
 <ele>783.47</ele>
 <time>2010-06-24T12:40:06Z</time>
 </trkpt>
 <trkpt lat="47.280338" lon="12.605996">
 <ele>783.80</ele>
 <time>2010-06-24T12:40:13Z</time>
 </trkpt>
 <trkpt lat="47.280357" lon="12.606911">
 <ele>782.94</ele>
 <time>2010-06-24T12:40:24Z</time>
 </trkpt>
 <trkpt lat="47.280369" lon="12.607604">
 <ele>783.21</ele>
 <time>2010-06-24T12:40:32Z</time>
 </trkpt>
 <trkpt lat="47.280376" lon="12.608507">
 <ele>782.92</ele>
 <time>2010-06-24T12:40:42Z</time>
 </trkpt>
 <trkpt lat="47.280388" lon="12.609461">
 <ele>782.75</ele>
 <time>2010-06-24T12:40:53Z</time>
 </trkpt>
 <trkpt lat="47.280396" lon="12.610239">
 <ele>782.53</ele>
 <time>2010-06-24T12:41:02Z</time>
 </trkpt>
 <trkpt lat="47.280403" lon="12.611005">
 <ele>782.48</ele>
 <time>2010-06-24T12:41:11Z</time>
 </trkpt>
 <trkpt lat="47.280411" lon="12.611850">
 <ele>782.56</ele>
 <time>2010-06-24T12:41:21Z</time>
 </trkpt>
 <trkpt lat="47.280357" lon="12.612221">
 <ele>782.53</ele>
 <time>2010-06-24T12:41:25Z</time>
 </trkpt>
 <trkpt lat="47.280064" lon="12.612668">
 <ele>781.23</ele>
 <time>2010-06-24T12:41:32Z</time>
 </trkpt>
 <trkpt lat="47.279778" lon="12.613104">
 <ele>781.23</ele>
 <time>2010-06-24T12:41:39Z</time>
 </trkpt>
 <trkpt lat="47.279385" lon="12.613708">
 <ele>781.25</ele>
 <time>2010-06-24T12:41:49Z</time>
 </trkpt>
 <trkpt lat="47.279114" lon="12.614223">
 <ele>781.28</ele>
 <time>2010-06-24T12:41:57Z</time>
 </trkpt>
 <trkpt lat="47.278961" lon="12.614671">
 <ele>781.28</ele>
 <time>2010-06-24T12:42:03Z</time>
 </trkpt>
 <trkpt lat="47.278851" lon="12.615225">
 <ele>781.28</ele>
 <time>2010-06-24T12:42:10Z</time>
 </trkpt>
 <trkpt lat="47.278851" lon="12.615726">
 <ele>781.24</ele>
 <time>2010-06-24T12:42:16Z</time>
 </trkpt>
 <trkpt lat="47.278904" lon="12.616494">
 <ele>780.86</ele>
 <time>2010-06-24T12:42:25Z</time>
 </trkpt>
 <trkpt lat="47.278950" lon="12.617146">
 <ele>781.03</ele>
 <time>2010-06-24T12:42:33Z</time>
 </trkpt>
 <trkpt lat="47.279011" lon="12.617785">
 <ele>780.92</ele>
 <time>2010-06-24T12:42:41Z</time>
 </trkpt>
 <trkpt lat="47.279110" lon="12.618567">
 <ele>781.48</ele>
 <time>2010-06-24T12:42:51Z</time>
 </trkpt>
 <trkpt lat="47.279144" lon="12.618846">
 <ele>782.14</ele>
 <time>2010-06-24T12:42:55Z</time>
 </trkpt>
 <trkpt lat="47.279037" lon="12.619704">
 <ele>782.20</ele>
 <time>2010-06-24T12:43:06Z</time>
 </trkpt>
 <trkpt lat="47.278942" lon="12.620444">
 <ele>782.12</ele>
 <time>2010-06-24T12:43:15Z</time>
 </trkpt>
 <trkpt lat="47.278854" lon="12.621104">
 <ele>781.88</ele>
 <time>2010-06-24T12:43:23Z</time>
 </trkpt>
 <trkpt lat="47.278885" lon="12.621381">
 <ele>781.93</ele>
 <time>2010-06-24T12:43:27Z</time>
 </trkpt>
 <trkpt lat="47.278934" lon="12.621381">
 <ele>782.16</ele>
 <time>2010-06-24T12:43:31Z</time>
 </trkpt>
 <trkpt lat="47.278934" lon="12.621381">
 <ele>782.00</ele>
 <time>2010-06-24T12:43:33Z</time>
 </trkpt>
 <trkpt lat="47.279236" lon="12.621403">
 <ele>781.38</ele>
 <time>2010-06-24T12:43:40Z</time>
 </trkpt>
 <trkpt lat="47.279648" lon="12.621409">
 <ele>781.50</ele>
 <time>2010-06-24T12:43:47Z</time>
 </trkpt>
 <trkpt lat="47.280155" lon="12.621416">
 <ele>782.33</ele>
 <time>2010-06-24T12:43:58Z</time>
 </trkpt>
 <trkpt lat="47.280598" lon="12.621423">
 <ele>783.04</ele>
 <time>2010-06-24T12:44:08Z</time>
 </trkpt>
 <trkpt lat="47.280865" lon="12.621499">
 <ele>783.63</ele>
 <time>2010-06-24T12:44:14Z</time>
 </trkpt>
 <trkpt lat="47.280972" lon="12.621575">
 <ele>783.93</ele>
 <time>2010-06-24T12:44:21Z</time>
 </trkpt>
 <trkpt lat="47.281563" lon="12.622275">
 <ele>785.41</ele>
 <time>2010-06-24T12:44:33Z</time>
 </trkpt>
 <trkpt lat="47.281765" lon="12.622518">
 <ele>785.99</ele>
 <time>2010-06-24T12:44:39Z</time>
 </trkpt>
 <trkpt lat="47.281757" lon="12.622615">
 <ele>785.90</ele>
 <time>2010-06-24T12:44:43Z</time>
 </trkpt>
 <trkpt lat="47.281578" lon="12.622920">
 <ele>783.59</ele>
 <time>2010-06-24T12:44:48Z</time>
 </trkpt>
 <trkpt lat="47.281433" lon="12.623267">
 <ele>782.04</ele>
 <time>2010-06-24T12:44:52Z</time>
 </trkpt>
 <trkpt lat="47.281601" lon="12.624249">
 <ele>782.15</ele>
 <time>2010-06-24T12:45:03Z</time>
 </trkpt>
 <trkpt lat="47.281761" lon="12.624938">
 <ele>782.52</ele>
 <time>2010-06-24T12:45:12Z</time>
 </trkpt>
 <trkpt lat="47.281967" lon="12.625260">
 <ele>783.55</ele>
 <time>2010-06-24T12:45:18Z</time>
 </trkpt>
 <trkpt lat="47.282246" lon="12.625549">
 <ele>784.03</ele>
 <time>2010-06-24T12:45:25Z</time>
 </trkpt>
 <trkpt lat="47.282425" lon="12.625711">
 <ele>784.35</ele>
 <time>2010-06-24T12:45:30Z</time>
 </trkpt>
 <trkpt lat="47.282345" lon="12.626102">
 <ele>783.89</ele>
 <time>2010-06-24T12:45:33Z</time>
 </trkpt>
 <trkpt lat="47.282345" lon="12.626149">
 <ele>783.84</ele>
 <time>2010-06-24T12:45:34Z</time>
 </trkpt>
 <trkpt lat="47.282146" lon="12.626561">
 <ele>784.61</ele>
 <time>2010-06-24T12:45:41Z</time>
 </trkpt>
 <trkpt lat="47.281895" lon="12.627084">
 <ele>783.40</ele>
 <time>2010-06-24T12:45:48Z</time>
 </trkpt>
 <trkpt lat="47.281506" lon="12.627991">
 <ele>781.59</ele>
 <time>2010-06-24T12:45:58Z</time>
 </trkpt>
 <trkpt lat="47.281567" lon="12.628034">
 <ele>781.12</ele>
 <time>2010-06-24T12:46:02Z</time>
 </trkpt>
 <trkpt lat="47.281586" lon="12.628077">
 <ele>781.27</ele>
 <time>2010-06-24T12:46:03Z</time>
 </trkpt>
 <trkpt lat="47.281677" lon="12.628309">
 <ele>781.22</ele>
 <time>2010-06-24T12:46:09Z</time>
 </trkpt>
 <trkpt lat="47.281731" lon="12.628468">
 <ele>781.26</ele>
 <time>2010-06-24T12:46:12Z</time>
 </trkpt>
 <trkpt lat="47.281929" lon="12.629072">
 <ele>780.78</ele>
 <time>2010-06-24T12:46:21Z</time>
 </trkpt>
 <trkpt lat="47.282150" lon="12.629726">
 <ele>780.60</ele>
 <time>2010-06-24T12:46:30Z</time>
 </trkpt>
 <trkpt lat="47.282330" lon="12.630586">
 <ele>779.90</ele>
 <time>2010-06-24T12:46:40Z</time>
 </trkpt>
 <trkpt lat="47.282421" lon="12.631367">
 <ele>779.38</ele>
 <time>2010-06-24T12:46:49Z</time>
 </trkpt>
 <trkpt lat="47.282364" lon="12.632036">
 <ele>779.45</ele>
 <time>2010-06-24T12:46:57Z</time>
 </trkpt>
 <trkpt lat="47.282333" lon="12.632391">
 <ele>779.34</ele>
 <time>2010-06-24T12:47:02Z</time>
 </trkpt>
 <trkpt lat="47.282261" lon="12.632472">
 <ele>779.84</ele>
 <time>2010-06-24T12:47:06Z</time>
 </trkpt>
 <trkpt lat="47.282043" lon="12.632389">
 <ele>780.35</ele>
 <time>2010-06-24T12:47:13Z</time>
 </trkpt>
 <trkpt lat="47.281761" lon="12.632276">
 <ele>781.18</ele>
 <time>2010-06-24T12:47:20Z</time>
 </trkpt>
 <trkpt lat="47.281651" lon="12.632428">
 <ele>780.46</ele>
 <time>2010-06-24T12:47:24Z</time>
 </trkpt>
 <trkpt lat="47.281643" lon="12.632494">
 <ele>780.25</ele>
 <time>2010-06-24T12:47:25Z</time>
 </trkpt>
 <trkpt lat="47.281551" lon="12.633082">
 <ele>779.68</ele>
 <time>2010-06-24T12:47:33Z</time>
 </trkpt>
 <trkpt lat="47.281467" lon="12.633611">
 <ele>779.56</ele>
 <time>2010-06-24T12:47:40Z</time>
 </trkpt>
 <trkpt lat="47.281357" lon="12.634386">
 <ele>779.55</ele>
 <time>2010-06-24T12:47:50Z</time>
 </trkpt>
 <trkpt lat="47.281296" lon="12.635201">
 <ele>779.26</ele>
 <time>2010-06-24T12:48:00Z</time>
 </trkpt>
 <trkpt lat="47.281322" lon="12.636039">
 <ele>779.10</ele>
 <time>2010-06-24T12:48:10Z</time>
 </trkpt>
 <trkpt lat="47.281403" lon="12.636780">
 <ele>779.10</ele>
 <time>2010-06-24T12:48:19Z</time>
 </trkpt>
 <trkpt lat="47.280983" lon="12.637699">
 <ele>778.52</ele>
 <time>2010-06-24T12:48:29Z</time>
 </trkpt>
 <trkpt lat="47.281094" lon="12.638445">
 <ele>778.59</ele>
 <time>2010-06-24T12:48:38Z</time>
 </trkpt>
 <trkpt lat="47.281193" lon="12.639093">
 <ele>778.69</ele>
 <time>2010-06-24T12:48:46Z</time>
 </trkpt>
 <trkpt lat="47.281292" lon="12.639767">
 <ele>778.77</ele>
 <time>2010-06-24T12:48:55Z</time>
 </trkpt>
 <trkpt lat="47.281414" lon="12.640593">
 <ele>778.61</ele>
 <time>2010-06-24T12:49:06Z</time>
 </trkpt>
 <trkpt lat="47.281567" lon="12.641623">
 <ele>778.38</ele>
 <time>2010-06-24T12:49:20Z</time>
 </trkpt>
 <trkpt lat="47.281662" lon="12.642268">
 <ele>778.17</ele>
 <time>2010-06-24T12:49:29Z</time>
 </trkpt>
 <trkpt lat="47.280537" lon="12.643484">
 <ele>777.85</ele>
 <time>2010-06-24T12:49:39Z</time>
 </trkpt>
 <trkpt lat="47.280449" lon="12.644220">
 <ele>777.95</ele>
 <time>2010-06-24T12:49:48Z</time>
 </trkpt>
 <trkpt lat="47.280445" lon="12.644867">
 <ele>777.82</ele>
 <time>2010-06-24T12:49:56Z</time>
 </trkpt>
 <trkpt lat="47.280472" lon="12.645167">
 <ele>778.47</ele>
 <time>2010-06-24T12:50:01Z</time>
 </trkpt>
 <trkpt lat="47.280487" lon="12.645316">
 <ele>778.46</ele>
 <time>2010-06-24T12:50:03Z</time>
 </trkpt>
 <trkpt lat="47.280590" lon="12.645951">
 <ele>777.61</ele>
 <time>2010-06-24T12:50:11Z</time>
 </trkpt>
 <trkpt lat="47.280769" lon="12.646442">
 <ele>777.48</ele>
 <time>2010-06-24T12:50:18Z</time>
 </trkpt>
 <trkpt lat="47.280884" lon="12.646710">
 <ele>777.49</ele>
 <time>2010-06-24T12:50:22Z</time>
 </trkpt>
 <trkpt lat="47.281193" lon="12.647163">
 <ele>777.45</ele>
 <time>2010-06-24T12:50:30Z</time>
 </trkpt>
 <trkpt lat="47.281322" lon="12.647284">
 <ele>777.40</ele>
 <time>2010-06-24T12:50:33Z</time>
 </trkpt>
 <trkpt lat="47.281586" lon="12.647595">
 <ele>777.10</ele>
 <time>2010-06-24T12:50:39Z</time>
 </trkpt>
 <trkpt lat="47.282444" lon="12.647558">
 <ele>776.94</ele>
 <time>2010-06-24T12:50:45Z</time>
 </trkpt>
 <trkpt lat="47.282471" lon="12.647721">
 <ele>777.45</ele>
 <time>2010-06-24T12:50:50Z</time>
 </trkpt>
 <trkpt lat="47.282490" lon="12.647869">
 <ele>777.06</ele>
 <time>2010-06-24T12:50:54Z</time>
 </trkpt>
 <trkpt lat="47.282520" lon="12.648077">
 <ele>777.01</ele>
 <time>2010-06-24T12:50:58Z</time>
 </trkpt>
 <trkpt lat="47.282536" lon="12.648165">
 <ele>777.03</ele>
 <time>2010-06-24T12:51:00Z</time>
 </trkpt>
 <trkpt lat="47.282581" lon="12.648481">
 <ele>776.94</ele>
 <time>2010-06-24T12:51:05Z</time>
 </trkpt>
 <trkpt lat="47.282593" lon="12.648558">
 <ele>777.00</ele>
 <time>2010-06-24T12:51:06Z</time>
 </trkpt>
 <trkpt lat="47.282654" lon="12.648955">
 <ele>776.66</ele>
 <time>2010-06-24T12:51:11Z</time>
 </trkpt>
 <trkpt lat="47.282696" lon="12.649261">
 <ele>776.46</ele>
 <time>2010-06-24T12:51:15Z</time>
 </trkpt>
 <trkpt lat="47.282726" lon="12.649461">
 <ele>776.28</ele>
 <time>2010-06-24T12:51:18Z</time>
 </trkpt>
 <trkpt lat="47.282784" lon="12.649834">
 <ele>776.36</ele>
 <time>2010-06-24T12:51:23Z</time>
 </trkpt>
 <trkpt lat="47.282887" lon="12.650549">
 <ele>775.74</ele>
 <time>2010-06-24T12:51:32Z</time>
 </trkpt>
 <trkpt lat="47.282982" lon="12.651167">
 <ele>775.62</ele>
 <time>2010-06-24T12:51:40Z</time>
 </trkpt>
 <trkpt lat="47.283077" lon="12.651819">
 <ele>775.68</ele>
 <time>2010-06-24T12:51:49Z</time>
 </trkpt>
 <trkpt lat="47.283161" lon="12.652382">
 <ele>776.29</ele>
 <time>2010-06-24T12:51:57Z</time>
 </trkpt>
 <trkpt lat="47.283253" lon="12.653021">
 <ele>777.45</ele>
 <time>2010-06-24T12:52:07Z</time>
 </trkpt>
 <trkpt lat="47.283340" lon="12.653592">
 <ele>777.04</ele>
 <time>2010-06-24T12:52:15Z</time>
 </trkpt>
 <trkpt lat="47.283436" lon="12.654246">
 <ele>777.37</ele>
 <time>2010-06-24T12:52:24Z</time>
 </trkpt>
 <trkpt lat="47.283302" lon="12.654945">
 <ele>777.88</ele>
 <time>2010-06-24T12:52:32Z</time>
 </trkpt>
 <trkpt lat="47.283092" lon="12.655611">
 <ele>777.62</ele>
 <time>2010-06-24T12:52:41Z</time>
 </trkpt>
 <trkpt lat="47.283066" lon="12.655652">
 <ele>777.52</ele>
 <time>2010-06-24T12:52:42Z</time>
 </trkpt>
 <trkpt lat="47.282928" lon="12.655850">
 <ele>777.67</ele>
 <time>2010-06-24T12:52:47Z</time>
 </trkpt>
 <trkpt lat="47.282887" lon="12.655916">
 <ele>777.74</ele>
 <time>2010-06-24T12:52:51Z</time>
 </trkpt>
 <trkpt lat="47.282837" lon="12.655988">
 <ele>777.67</ele>
 <time>2010-06-24T12:52:56Z</time>
 </trkpt>
 <trkpt lat="47.282814" lon="12.656081">
 <ele>777.99</ele>
 <time>2010-06-24T12:53:00Z</time>
 </trkpt>
 <trkpt lat="47.282806" lon="12.656045">
 <ele>778.03</ele>
 <time>2010-06-24T12:53:01Z</time>
 </trkpt>
 <trkpt lat="47.282810" lon="12.656026">
 <ele>778.04</ele>
 <time>2010-06-24T12:53:03Z</time>
 </trkpt>
 <trkpt lat="47.282810" lon="12.656028">
 <ele>777.95</ele>
 <time>2010-06-24T12:53:07Z</time>
 </trkpt>
 <trkpt lat="47.282753" lon="12.656018">
 <ele>778.12</ele>
 <time>2010-06-24T12:53:11Z</time>
 </trkpt>
 <trkpt lat="47.282764" lon="12.656098">
 <ele>777.81</ele>
 <time>2010-06-24T12:53:15Z</time>
 </trkpt>
 <trkpt lat="47.282745" lon="12.656126">
 <ele>777.66</ele>
 <time>2010-06-24T12:53:16Z</time>
 </trkpt>
 <trkpt lat="47.282627" lon="12.656269">
 <ele>777.95</ele>
 <time>2010-06-24T12:53:21Z</time>
 </trkpt>
 <trkpt lat="47.282318" lon="12.656565">
 <ele>777.52</ele>
 <time>2010-06-24T12:53:29Z</time>
 </trkpt>
 <trkpt lat="47.282234" lon="12.656647">
 <ele>777.53</ele>
 <time>2010-06-24T12:53:31Z</time>
 </trkpt>
 <trkpt lat="47.281910" lon="12.657076">
 <ele>778.11</ele>
 <time>2010-06-24T12:53:39Z</time>
 </trkpt>
 <trkpt lat="47.281868" lon="12.657178">
 <ele>778.08</ele>
 <time>2010-06-24T12:53:41Z</time>
 </trkpt>
 <trkpt lat="47.281788" lon="12.657383">
 <ele>778.58</ele>
 <time>2010-06-24T12:53:45Z</time>
 </trkpt>
 <trkpt lat="47.281631" lon="12.657781">
 <ele>779.01</ele>
 <time>2010-06-24T12:53:52Z</time>
 </trkpt>
 <trkpt lat="47.281387" lon="12.658393">
 <ele>779.29</ele>
 <time>2010-06-24T12:54:01Z</time>
 </trkpt>
 <trkpt lat="47.281151" lon="12.658998">
 <ele>779.48</ele>
 <time>2010-06-24T12:54:10Z</time>
 </trkpt>
 <trkpt lat="47.280937" lon="12.659533">
 <ele>779.84</ele>
 <time>2010-06-24T12:54:18Z</time>
 </trkpt>
 <trkpt lat="47.280720" lon="12.660085">
 <ele>779.62</ele>
 <time>2010-06-24T12:54:26Z</time>
 </trkpt>
 <trkpt lat="47.280506" lon="12.660951">
 <ele>779.82</ele>
 <time>2010-06-24T12:54:38Z</time>
 </trkpt>
 <trkpt lat="47.280361" lon="12.661546">
 <ele>779.56</ele>
 <time>2010-06-24T12:54:46Z</time>
 </trkpt>
 <trkpt lat="47.280220" lon="12.662148">
 <ele>779.51</ele>
 <time>2010-06-24T12:54:54Z</time>
 </trkpt>
 <trkpt lat="47.280064" lon="12.662815">
 <ele>779.08</ele>
 <time>2010-06-24T12:55:03Z</time>
 </trkpt>
 <trkpt lat="47.279942" lon="12.663329">
 <ele>779.70</ele>
 <time>2010-06-24T12:55:10Z</time>
 </trkpt>
 <trkpt lat="47.279545" lon="12.663812">
 <ele>780.08</ele>
 <time>2010-06-24T12:55:19Z</time>
 </trkpt>
 <trkpt lat="47.279152" lon="12.664072">
 <ele>780.72</ele>
 <time>2010-06-24T12:55:27Z</time>
 </trkpt>
 <trkpt lat="47.279106" lon="12.664103">
 <ele>781.01</ele>
 <time>2010-06-24T12:55:28Z</time>
 </trkpt>
 <trkpt lat="47.278950" lon="12.664209">
 <ele>781.97</ele>
 <time>2010-06-24T12:55:32Z</time>
 </trkpt>
 <trkpt lat="47.278683" lon="12.664622">
 <ele>781.52</ele>
 <time>2010-06-24T12:55:38Z</time>
 </trkpt>
 <trkpt lat="47.278503" lon="12.665004">
 <ele>780.68</ele>
 <time>2010-06-24T12:55:44Z</time>
 </trkpt>
 <trkpt lat="47.278362" lon="12.665300">
 <ele>780.72</ele>
 <time>2010-06-24T12:55:49Z</time>
 </trkpt>
 <trkpt lat="47.278118" lon="12.665810">
 <ele>780.35</ele>
 <time>2010-06-24T12:55:57Z</time>
 </trkpt>
 <trkpt lat="47.278019" lon="12.666174">
 <ele>779.59</ele>
 <time>2010-06-24T12:56:03Z</time>
 </trkpt>
 <trkpt lat="47.278000" lon="12.666427">
 <ele>779.24</ele>
 <time>2010-06-24T12:56:06Z</time>
 </trkpt>
 <trkpt lat="47.277935" lon="12.667291">
 <ele>778.75</ele>
 <time>2010-06-24T12:56:16Z</time>
 </trkpt>
 <trkpt lat="47.277885" lon="12.667801">
 <ele>777.81</ele>
 <time>2010-06-24T12:56:22Z</time>
 </trkpt>
 <trkpt lat="47.277733" lon="12.668573">
 <ele>778.33</ele>
 <time>2010-06-24T12:56:31Z</time>
 </trkpt>
 <trkpt lat="47.277592" lon="12.669271">
 <ele>777.34</ele>
 <time>2010-06-24T12:56:39Z</time>
 </trkpt>
 <trkpt lat="47.277332" lon="12.670085">
 <ele>776.25</ele>
 <time>2010-06-24T12:56:49Z</time>
 </trkpt>
 <trkpt lat="47.277122" lon="12.670697">
 <ele>776.49</ele>
 <time>2010-06-24T12:56:57Z</time>
 </trkpt>
 <trkpt lat="47.276932" lon="12.670937">
 <ele>777.49</ele>
 <time>2010-06-24T12:57:02Z</time>
 </trkpt>
 <trkpt lat="47.276539" lon="12.671289">
 <ele>779.19</ele>
 <time>2010-06-24T12:57:11Z</time>
 </trkpt>
 <trkpt lat="47.276527" lon="12.671462">
 <ele>779.24</ele>
 <time>2010-06-24T12:57:12Z</time>
 </trkpt>
 <trkpt lat="47.276539" lon="12.671491">
 <ele>779.30</ele>
 <time>2010-06-24T12:57:16Z</time>
 </trkpt>
 <trkpt lat="47.276558" lon="12.671630">
 <ele>779.20</ele>
 <time>2010-06-24T12:57:18Z</time>
 </trkpt>
 <trkpt lat="47.276672" lon="12.672354">
 <ele>778.74</ele>
 <time>2010-06-24T12:57:26Z</time>
 </trkpt>
 <trkpt lat="47.276852" lon="12.673477">
 <ele>777.70</ele>
 <time>2010-06-24T12:57:38Z</time>
 </trkpt>
 <trkpt lat="47.277008" lon="12.674467">
 <ele>776.12</ele>
 <time>2010-06-24T12:57:49Z</time>
 </trkpt>
 <trkpt lat="47.277184" lon="12.675570">
 <ele>775.57</ele>
 <time>2010-06-24T12:58:01Z</time>
 </trkpt>
 <trkpt lat="47.277328" lon="12.676474">
 <ele>775.27</ele>
 <time>2010-06-24T12:58:11Z</time>
 </trkpt>
 <trkpt lat="47.277531" lon="12.677744">
 <ele>773.88</ele>
 <time>2010-06-24T12:58:25Z</time>
 </trkpt>
 <trkpt lat="47.277668" lon="12.678623">
 <ele>773.37</ele>
 <time>2010-06-24T12:58:35Z</time>
 </trkpt>
 <trkpt lat="47.277805" lon="12.679489">
 <ele>773.32</ele>
 <time>2010-06-24T12:58:45Z</time>
 </trkpt>
 <trkpt lat="47.277939" lon="12.680336">
 <ele>773.53</ele>
 <time>2010-06-24T12:58:55Z</time>
 </trkpt>
 <trkpt lat="47.278015" lon="12.680830">
 <ele>773.63</ele>
 <time>2010-06-24T12:59:01Z</time>
 </trkpt>
 <trkpt lat="47.278034" lon="12.680926">
 <ele>773.57</ele>
 <time>2010-06-24T12:59:05Z</time>
 </trkpt>
 <trkpt lat="47.277931" lon="12.680941">
 <ele>773.12</ele>
 <time>2010-06-24T12:59:07Z</time>
 </trkpt>
 <trkpt lat="47.277702" lon="12.680974">
 <ele>772.38</ele>
 <time>2010-06-24T12:59:11Z</time>
 </trkpt>
 <trkpt lat="47.277287" lon="12.681035">
 <ele>771.81</ele>
 <time>2010-06-24T12:59:18Z</time>
 </trkpt>
 <trkpt lat="47.276878" lon="12.681094">
 <ele>773.30</ele>
 <time>2010-06-24T12:59:26Z</time>
 </trkpt>
 <trkpt lat="47.276478" lon="12.681344">
 <ele>774.82</ele>
 <time>2010-06-24T12:59:34Z</time>
 </trkpt>
 <trkpt lat="47.276131" lon="12.681571">
 <ele>776.85</ele>
 <time>2010-06-24T12:59:42Z</time>
 </trkpt>
 <trkpt lat="47.275864" lon="12.681744">
 <ele>778.26</ele>
 <time>2010-06-24T12:59:49Z</time>
 </trkpt>
 <trkpt lat="47.275803" lon="12.681785">
 <ele>779.27</ele>
 <time>2010-06-24T12:59:53Z</time>
 </trkpt>
 <trkpt lat="47.275822" lon="12.681902">
 <ele>779.74</ele>
 <time>2010-06-24T12:59:56Z</time>
 </trkpt>
 <trkpt lat="47.275845" lon="12.682043">
 <ele>779.89</ele>
 <time>2010-06-24T12:59:58Z</time>
 </trkpt>
 <trkpt lat="47.275959" lon="12.682742">
 <ele>780.91</ele>
 <time>2010-06-24T13:00:08Z</time>
 </trkpt>
 <trkpt lat="47.276058" lon="12.683352">
 <ele>780.86</ele>
 <time>2010-06-24T13:00:17Z</time>
 </trkpt>
 <trkpt lat="47.276150" lon="12.683920">
 <ele>779.55</ele>
 <time>2010-06-24T13:00:24Z</time>
 </trkpt>
 <trkpt lat="47.276226" lon="12.684392">
 <ele>777.48</ele>
 <time>2010-06-24T13:00:29Z</time>
 </trkpt>
 <trkpt lat="47.276386" lon="12.685234">
 <ele>775.51</ele>
 <time>2010-06-24T13:00:37Z</time>
 </trkpt>
 <trkpt lat="47.276604" lon="12.685867">
 <ele>774.84</ele>
 <time>2010-06-24T13:00:44Z</time>
 </trkpt>
 <trkpt lat="47.276714" lon="12.686455">
 <ele>774.59</ele>
 <time>2010-06-24T13:00:51Z</time>
 </trkpt>
 <trkpt lat="47.276772" lon="12.687023">
 <ele>774.30</ele>
 <time>2010-06-24T13:00:58Z</time>
 </trkpt>
 <trkpt lat="47.276730" lon="12.687722">
 <ele>774.22</ele>
 <time>2010-06-24T13:01:06Z</time>
 </trkpt>
 <trkpt lat="47.276661" lon="12.688321">
 <ele>773.57</ele>
 <time>2010-06-24T13:01:13Z</time>
 </trkpt>
 <trkpt lat="47.276833" lon="12.688717">
 <ele>773.80</ele>
 <time>2010-06-24T13:01:18Z</time>
 </trkpt>
 <trkpt lat="47.277039" lon="12.688923">
 <ele>772.88</ele>
 <time>2010-06-24T13:01:22Z</time>
 </trkpt>
 <trkpt lat="47.277195" lon="12.689078">
 <ele>772.13</ele>
 <time>2010-06-24T13:01:25Z</time>
 </trkpt>
 <trkpt lat="47.277405" lon="12.689355">
 <ele>771.56</ele>
 <time>2010-06-24T13:01:30Z</time>
 </trkpt>
 <trkpt lat="47.277451" lon="12.689581">
 <ele>771.28</ele>
 <time>2010-06-24T13:01:33Z</time>
 </trkpt>
 <trkpt lat="47.277531" lon="12.689992">
 <ele>772.09</ele>
 <time>2010-06-24T13:01:39Z</time>
 </trkpt>
 <trkpt lat="47.277569" lon="12.690192">
 <ele>772.50</ele>
 <time>2010-06-24T13:01:42Z</time>
 </trkpt>
 <trkpt lat="47.277607" lon="12.690391">
 <ele>773.12</ele>
 <time>2010-06-24T13:01:45Z</time>
 </trkpt>
 <trkpt lat="47.277718" lon="12.690946">
 <ele>774.11</ele>
 <time>2010-06-24T13:01:54Z</time>
 </trkpt>
 <trkpt lat="47.277813" lon="12.691445">
 <ele>775.13</ele>
 <time>2010-06-24T13:02:02Z</time>
 </trkpt>
 <trkpt lat="47.277931" lon="12.692047">
 <ele>776.91</ele>
 <time>2010-06-24T13:02:12Z</time>
 </trkpt>
 <trkpt lat="47.278046" lon="12.692626">
 <ele>778.59</ele>
 <time>2010-06-24T13:02:22Z</time>
 </trkpt>
 <trkpt lat="47.278103" lon="12.692919">
 <ele>779.11</ele>
 <time>2010-06-24T13:02:27Z</time>
 </trkpt>
 <trkpt lat="47.278210" lon="12.693365">
 <ele>779.80</ele>
 <time>2010-06-24T13:02:35Z</time>
 </trkpt>
 <trkpt lat="47.278347" lon="12.693847">
 <ele>780.08</ele>
 <time>2010-06-24T13:02:44Z</time>
 </trkpt>
 <trkpt lat="47.278431" lon="12.694139">
 <ele>779.63</ele>
 <time>2010-06-24T13:02:51Z</time>
 </trkpt>
 <trkpt lat="47.278557" lon="12.694582">
 <ele>778.63</ele>
 <time>2010-06-24T13:02:58Z</time>
 </trkpt>
 <trkpt lat="47.278687" lon="12.695043">
 <ele>778.70</ele>
 <time>2010-06-24T13:03:05Z</time>
 </trkpt>
 <trkpt lat="47.278763" lon="12.695312">
 <ele>778.50</ele>
 <time>2010-06-24T13:03:09Z</time>
 </trkpt>
 <trkpt lat="47.278858" lon="12.695659">
 <ele>778.01</ele>
 <time>2010-06-24T13:03:14Z</time>
 </trkpt>
 <trkpt lat="47.278942" lon="12.695946">
 <ele>777.61</ele>
 <time>2010-06-24T13:03:18Z</time>
 </trkpt>
 <trkpt lat="47.279022" lon="12.696228">
 <ele>776.54</ele>
 <time>2010-06-24T13:03:22Z</time>
 </trkpt>
 <trkpt lat="47.279068" lon="12.697041">
 <ele>775.96</ele>
 <time>2010-06-24T13:03:31Z</time>
 </trkpt>
 <trkpt lat="47.279076" lon="12.697675">
 <ele>776.63</ele>
 <time>2010-06-24T13:03:39Z</time>
 </trkpt>
 <trkpt lat="47.279079" lon="12.698299">
 <ele>776.35</ele>
 <time>2010-06-24T13:03:47Z</time>
 </trkpt>
 <trkpt lat="47.279083" lon="12.698853">
 <ele>776.44</ele>
 <time>2010-06-24T13:03:54Z</time>
 </trkpt>
 <trkpt lat="47.279202" lon="12.698997">
 <ele>776.49</ele>
 <time>2010-06-24T13:03:58Z</time>
 </trkpt>
 <trkpt lat="47.279247" lon="12.699014">
 <ele>776.43</ele>
 <time>2010-06-24T13:03:59Z</time>
 </trkpt>
 <trkpt lat="47.279671" lon="12.699179">
 <ele>773.72</ele>
 <time>2010-06-24T13:04:06Z</time>
 </trkpt>
 <trkpt lat="47.280197" lon="12.699384">
 <ele>771.18</ele>
 <time>2010-06-24T13:04:14Z</time>
 </trkpt>
 <trkpt lat="47.280518" lon="12.699508">
 <ele>771.68</ele>
 <time>2010-06-24T13:04:20Z</time>
 </trkpt>
 <trkpt lat="47.280823" lon="12.699626">
 <ele>771.04</ele>
 <time>2010-06-24T13:04:26Z</time>
 </trkpt>
 <trkpt lat="47.281124" lon="12.699743">
 <ele>769.75</ele>
 <time>2010-06-24T13:04:31Z</time>
 </trkpt>
 <trkpt lat="47.281296" lon="12.699939">
 <ele>770.00</ele>
 <time>2010-06-24T13:04:35Z</time>
 </trkpt>
 <trkpt lat="47.281300" lon="12.700012">
 <ele>769.97</ele>
 <time>2010-06-24T13:04:36Z</time>
 </trkpt>
 <trkpt lat="47.281307" lon="12.700355">
 <ele>770.15</ele>
 <time>2010-06-24T13:04:42Z</time>
 </trkpt>
 <trkpt lat="47.281307" lon="12.700391">
 <ele>770.23</ele>
 <time>2010-06-24T13:04:44Z</time>
 </trkpt>
 <trkpt lat="47.281307" lon="12.700468">
 <ele>769.92</ele>
 <time>2010-06-24T13:04:52Z</time>
 </trkpt>
 <trkpt lat="47.281311" lon="12.700652">
 <ele>769.45</ele>
 <time>2010-06-24T13:04:56Z</time>
 </trkpt>
 <trkpt lat="47.281319" lon="12.701004">
 <ele>768.69</ele>
 <time>2010-06-24T13:05:00Z</time>
 </trkpt>
 <trkpt lat="47.281330" lon="12.701458">
 <ele>768.80</ele>
 <time>2010-06-24T13:05:04Z</time>
 </trkpt>
 <trkpt lat="47.281345" lon="12.702224">
 <ele>767.93</ele>
 <time>2010-06-24T13:05:10Z</time>
 </trkpt>
 <trkpt lat="47.281361" lon="12.703036">
 <ele>768.24</ele>
 <time>2010-06-24T13:05:16Z</time>
 </trkpt>
 <trkpt lat="47.281380" lon="12.703866">
 <ele>768.67</ele>
 <time>2010-06-24T13:05:22Z</time>
 </trkpt>
 <trkpt lat="47.281399" lon="12.704789">
 <ele>768.34</ele>
 <time>2010-06-24T13:05:29Z</time>
 </trkpt>
 <trkpt lat="47.281567" lon="12.705075">
 <ele>768.20</ele>
 <time>2010-06-24T13:05:33Z</time>
 </trkpt>
 <trkpt lat="47.281635" lon="12.705121">
 <ele>768.34</ele>
 <time>2010-06-24T13:05:34Z</time>
 </trkpt>
 <trkpt lat="47.282150" lon="12.705481">
 <ele>767.73</ele>
 <time>2010-06-24T13:05:41Z</time>
 </trkpt>
 <trkpt lat="47.282639" lon="12.705820">
 <ele>767.98</ele>
 <time>2010-06-24T13:05:48Z</time>
 </trkpt>
 <trkpt lat="47.283089" lon="12.706131">
 <ele>767.82</ele>
 <time>2010-06-24T13:05:55Z</time>
 </trkpt>
 <trkpt lat="47.283554" lon="12.706419">
 <ele>767.63</ele>
 <time>2010-06-24T13:06:03Z</time>
 </trkpt>
 <trkpt lat="47.283993" lon="12.706631">
 <ele>767.97</ele>
 <time>2010-06-24T13:06:11Z</time>
 </trkpt>
 <trkpt lat="47.284321" lon="12.707026">
 <ele>768.10</ele>
 <time>2010-06-24T13:06:18Z</time>
 </trkpt>
 <trkpt lat="47.284748" lon="12.707666">
 <ele>767.87</ele>
 <time>2010-06-24T13:06:29Z</time>
 </trkpt>
 <trkpt lat="47.284931" lon="12.707940">
 <ele>767.83</ele>
 <time>2010-06-24T13:06:35Z</time>
 </trkpt>
 <trkpt lat="47.284985" lon="12.708021">
 <ele>767.84</ele>
 <time>2010-06-24T13:06:38Z</time>
 </trkpt>
 <trkpt lat="47.285042" lon="12.708102">
 <ele>767.90</ele>
 <time>2010-06-24T13:06:40Z</time>
 </trkpt>
 <trkpt lat="47.285290" lon="12.708472">
 <ele>767.45</ele>
 <time>2010-06-24T13:06:47Z</time>
 </trkpt>
 <trkpt lat="47.285648" lon="12.708833">
 <ele>767.49</ele>
 <time>2010-06-24T13:06:55Z</time>
 </trkpt>
 <trkpt lat="47.286171" lon="12.709301">
 <ele>767.58</ele>
 <time>2010-06-24T13:07:06Z</time>
 </trkpt>
 <trkpt lat="47.286591" lon="12.709680">
 <ele>767.72</ele>
 <time>2010-06-24T13:07:15Z</time>
 </trkpt>
 <trkpt lat="47.286781" lon="12.709851">
 <ele>767.91</ele>
 <time>2010-06-24T13:07:19Z</time>
 </trkpt>
 <trkpt lat="47.286945" lon="12.710204">
 <ele>767.97</ele>
 <time>2010-06-24T13:07:24Z</time>
 </trkpt>
 <trkpt lat="47.287170" lon="12.710987">
 <ele>768.05</ele>
 <time>2010-06-24T13:07:34Z</time>
 </trkpt>
 <trkpt lat="47.287193" lon="12.711098">
 <ele>768.10</ele>
 <time>2010-06-24T13:07:38Z</time>
 </trkpt>
 <trkpt lat="47.287224" lon="12.711268">
 <ele>767.74</ele>
 <time>2010-06-24T13:07:46Z</time>
 </trkpt>
 <trkpt lat="47.287342" lon="12.711531">
 <ele>767.96</ele>
 <time>2010-06-24T13:07:52Z</time>
 </trkpt>
 <trkpt lat="47.287533" lon="12.711849">
 <ele>767.91</ele>
 <time>2010-06-24T13:07:59Z</time>
 </trkpt>
 <trkpt lat="47.287872" lon="12.712427">
 <ele>768.32</ele>
 <time>2010-06-24T13:08:11Z</time>
 </trkpt>
 <trkpt lat="47.288109" lon="12.712719">
 <ele>769.59</ele>
 <time>2010-06-24T13:08:19Z</time>
 </trkpt>
 <trkpt lat="47.288288" lon="12.712922">
 <ele>769.79</ele>
 <time>2010-06-24T13:08:25Z</time>
 </trkpt>
 <trkpt lat="47.288410" lon="12.713056">
 <ele>769.76</ele>
 <time>2010-06-24T13:08:29Z</time>
 </trkpt>
 <trkpt lat="47.288631" lon="12.713304">
 <ele>770.27</ele>
 <time>2010-06-24T13:08:36Z</time>
 </trkpt>
 <trkpt lat="47.288795" lon="12.713616">
 <ele>770.77</ele>
 <time>2010-06-24T13:08:43Z</time>
 </trkpt>
 <trkpt lat="47.288834" lon="12.713687">
 <ele>770.81</ele>
 <time>2010-06-24T13:08:45Z</time>
 </trkpt>
 <trkpt lat="47.288845" lon="12.713849">
 <ele>771.58</ele>
 <time>2010-06-24T13:08:49Z</time>
 </trkpt>
 <trkpt lat="47.288677" lon="12.714239">
 <ele>772.04</ele>
 <time>2010-06-24T13:08:56Z</time>
 </trkpt>
 <trkpt lat="47.288498" lon="12.714470">
 <ele>772.14</ele>
 <time>2010-06-24T13:09:01Z</time>
 </trkpt>
 <trkpt lat="47.288445" lon="12.714650">
 <ele>772.22</ele>
 <time>2010-06-24T13:09:05Z</time>
 </trkpt>
 <trkpt lat="47.288460" lon="12.714698">
 <ele>772.41</ele>
 <time>2010-06-24T13:09:06Z</time>
 </trkpt>
 <trkpt lat="47.288509" lon="12.714847">
 <ele>773.18</ele>
 <time>2010-06-24T13:09:09Z</time>
 </trkpt>
 <trkpt lat="47.288437" lon="12.715008">
 <ele>773.59</ele>
 <time>2010-06-24T13:09:13Z</time>
 </trkpt>
 <trkpt lat="47.288403" lon="12.715049">
 <ele>773.56</ele>
 <time>2010-06-24T13:09:14Z</time>
 </trkpt>
 <trkpt lat="47.288204" lon="12.715306">
 <ele>772.65</ele>
 <time>2010-06-24T13:09:19Z</time>
 </trkpt>
 <trkpt lat="47.288059" lon="12.715680">
 <ele>772.97</ele>
 <time>2010-06-24T13:09:25Z</time>
 </trkpt>
 <trkpt lat="47.287914" lon="12.715892">
 <ele>772.69</ele>
 <time>2010-06-24T13:09:30Z</time>
 </trkpt>
 <trkpt lat="47.287754" lon="12.716052">
 <ele>771.35</ele>
 <time>2010-06-24T13:09:33Z</time>
 </trkpt>
 <trkpt lat="47.287529" lon="12.716277">
 <ele>770.19</ele>
 <time>2010-06-24T13:09:37Z</time>
 </trkpt>
 <trkpt lat="47.287197" lon="12.716511">
 <ele>768.88</ele>
 <time>2010-06-24T13:09:43Z</time>
 </trkpt>
 <trkpt lat="47.286907" lon="12.716611">
 <ele>768.55</ele>
 <time>2010-06-24T13:09:49Z</time>
 </trkpt>
 <trkpt lat="47.286587" lon="12.716723">
 <ele>769.80</ele>
 <time>2010-06-24T13:09:56Z</time>
 </trkpt>
 <trkpt lat="47.286217" lon="12.716850">
 <ele>770.05</ele>
 <time>2010-06-24T13:10:03Z</time>
 </trkpt>
 <trkpt lat="47.285789" lon="12.716987">
 <ele>768.35</ele>
 <time>2010-06-24T13:10:10Z</time>
 </trkpt>
 <trkpt lat="47.285038" lon="12.717218">
 <ele>766.66</ele>
 <time>2010-06-24T13:10:22Z</time>
 </trkpt>
 <trkpt lat="47.284687" lon="12.717328">
 <ele>766.85</ele>
 <time>2010-06-24T13:10:28Z</time>
 </trkpt>
 <trkpt lat="47.284206" lon="12.717613">
 <ele>767.08</ele>
 <time>2010-06-24T13:10:37Z</time>
 </trkpt>
 <trkpt lat="47.283791" lon="12.718027">
 <ele>766.53</ele>
 <time>2010-06-24T13:10:46Z</time>
 </trkpt>
 <trkpt lat="47.283493" lon="12.718532">
 <ele>766.48</ele>
 <time>2010-06-24T13:10:54Z</time>
 </trkpt>
 <trkpt lat="47.283180" lon="12.719015">
 <ele>766.77</ele>
 <time>2010-06-24T13:11:02Z</time>
 </trkpt>
 <trkpt lat="47.282791" lon="12.719618">
 <ele>765.60</ele>
 <time>2010-06-24T13:11:12Z</time>
 </trkpt>
 <trkpt lat="47.282448" lon="12.720140">
 <ele>765.26</ele>
 <time>2010-06-24T13:11:21Z</time>
 </trkpt>
 <trkpt lat="47.281986" lon="12.720828">
 <ele>765.36</ele>
 <time>2010-06-24T13:11:33Z</time>
 </trkpt>
 <trkpt lat="47.281910" lon="12.720942">
 <ele>765.65</ele>
 <time>2010-06-24T13:11:35Z</time>
 </trkpt>
 <trkpt lat="47.281769" lon="12.721156">
 <ele>765.87</ele>
 <time>2010-06-24T13:11:39Z</time>
 </trkpt>
 <trkpt lat="47.281681" lon="12.721130">
 <ele>766.12</ele>
 <time>2010-06-24T13:11:41Z</time>
 </trkpt>
 <trkpt lat="47.281204" lon="12.720966">
 <ele>766.04</ele>
 <time>2010-06-24T13:11:50Z</time>
 </trkpt>
 <trkpt lat="47.280968" lon="12.720884">
 <ele>765.43</ele>
 <time>2010-06-24T13:11:54Z</time>
 </trkpt>
 <trkpt lat="47.280529" lon="12.720768">
 <ele>765.53</ele>
 <time>2010-06-24T13:12:01Z</time>
 </trkpt>
 <trkpt lat="47.280468" lon="12.720785">
 <ele>765.54</ele>
 <time>2010-06-24T13:12:02Z</time>
 </trkpt>
 <trkpt lat="47.280075" lon="12.720896">
 <ele>765.67</ele>
 <time>2010-06-24T13:12:09Z</time>
 </trkpt>
 <trkpt lat="47.279633" lon="12.720847">
 <ele>765.03</ele>
 <time>2010-06-24T13:12:17Z</time>
 </trkpt>
 <trkpt lat="47.279305" lon="12.720787">
 <ele>765.22</ele>
 <time>2010-06-24T13:12:23Z</time>
 </trkpt>
 <trkpt lat="47.278946" lon="12.720774">
 <ele>766.72</ele>
 <time>2010-06-24T13:12:30Z</time>
 </trkpt>
 <trkpt lat="47.278690" lon="12.720805">
 <ele>768.56</ele>
 <time>2010-06-24T13:12:37Z</time>
 </trkpt>
 <trkpt lat="47.278519" lon="12.720826">
 <ele>768.09</ele>
 <time>2010-06-24T13:12:42Z</time>
 </trkpt>
 <trkpt lat="47.278488" lon="12.720829">
 <ele>768.03</ele>
 <time>2010-06-24T13:12:46Z</time>
 </trkpt>
 <trkpt lat="47.278423" lon="12.720938">
 <ele>767.68</ele>
 <time>2010-06-24T13:12:58Z</time>
 </trkpt>
 <trkpt lat="47.278423" lon="12.720973">
 <ele>767.70</ele>
 <time>2010-06-24T13:12:59Z</time>
 </trkpt>
 <trkpt lat="47.278435" lon="12.721245">
 <ele>766.82</ele>
 <time>2010-06-24T13:13:06Z</time>
 </trkpt>
 <trkpt lat="47.278446" lon="12.721595">
 <ele>766.38</ele>
 <time>2010-06-24T13:13:12Z</time>
 </trkpt>
 <trkpt lat="47.278473" lon="12.722248">
 <ele>766.09</ele>
 <time>2010-06-24T13:13:21Z</time>
 </trkpt>
 <trkpt lat="47.278496" lon="12.722796">
 <ele>765.77</ele>
 <time>2010-06-24T13:13:28Z</time>
 </trkpt>
 <trkpt lat="47.278519" lon="12.723436">
 <ele>765.88</ele>
 <time>2010-06-24T13:13:36Z</time>
 </trkpt>
 <trkpt lat="47.278534" lon="12.724328">
 <ele>766.44</ele>
 <time>2010-06-24T13:13:47Z</time>
 </trkpt>
 <trkpt lat="47.278542" lon="12.725189">
 <ele>766.16</ele>
 <time>2010-06-24T13:13:57Z</time>
 </trkpt>
 <trkpt lat="47.278545" lon="12.725699">
 <ele>766.17</ele>
 <time>2010-06-24T13:14:03Z</time>
 </trkpt>
 <trkpt lat="47.278515" lon="12.726400">
 <ele>765.83</ele>
 <time>2010-06-24T13:14:11Z</time>
 </trkpt>
 <trkpt lat="47.278500" lon="12.727669">
 <ele>765.35</ele>
 <time>2010-06-24T13:14:26Z</time>
 </trkpt>
 <trkpt lat="47.278496" lon="12.728421">
 <ele>765.20</ele>
 <time>2010-06-24T13:14:35Z</time>
 </trkpt>
 <trkpt lat="47.278488" lon="12.729077">
 <ele>765.13</ele>
 <time>2010-06-24T13:14:43Z</time>
 </trkpt>
 <trkpt lat="47.278484" lon="12.730147">
 <ele>765.36</ele>
 <time>2010-06-24T13:14:56Z</time>
 </trkpt>
 <trkpt lat="47.278496" lon="12.731055">
 <ele>764.89</ele>
 <time>2010-06-24T13:15:07Z</time>
 </trkpt>
 <trkpt lat="47.278503" lon="12.731702">
 <ele>764.80</ele>
 <time>2010-06-24T13:15:15Z</time>
 </trkpt>
 <trkpt lat="47.278465" lon="12.731962">
 <ele>764.98</ele>
 <time>2010-06-24T13:15:19Z</time>
 </trkpt>
 <trkpt lat="47.278385" lon="12.731994">
 <ele>764.83</ele>
 <time>2010-06-24T13:15:21Z</time>
 </trkpt>
 <trkpt lat="47.277962" lon="12.731926">
 <ele>764.55</ele>
 <time>2010-06-24T13:15:30Z</time>
 </trkpt>
 <trkpt lat="47.277798" lon="12.731899">
 <ele>765.38</ele>
 <time>2010-06-24T13:15:36Z</time>
 </trkpt>
 <trkpt lat="47.277676" lon="12.731879">
 <ele>766.14</ele>
 <time>2010-06-24T13:15:43Z</time>
 </trkpt>
 <trkpt lat="47.277603" lon="12.731867">
 <ele>766.28</ele>
 <time>2010-06-24T13:15:46Z</time>
 </trkpt>
 <trkpt lat="47.277454" lon="12.731979">
 <ele>767.04</ele>
 <time>2010-06-24T13:15:52Z</time>
 </trkpt>
 <trkpt lat="47.277203" lon="12.732503">
 <ele>768.18</ele>
 <time>2010-06-24T13:16:03Z</time>
 </trkpt>
 <trkpt lat="47.277100" lon="12.732718">
 <ele>768.98</ele>
 <time>2010-06-24T13:16:09Z</time>
 </trkpt>
 <trkpt lat="47.276943" lon="12.733013">
 <ele>769.87</ele>
 <time>2010-06-24T13:16:16Z</time>
 </trkpt>
 <trkpt lat="47.276711" lon="12.733446">
 <ele>770.35</ele>
 <time>2010-06-24T13:16:24Z</time>
 </trkpt>
 <trkpt lat="47.276611" lon="12.733919">
 <ele>771.18</ele>
 <time>2010-06-24T13:16:31Z</time>
 </trkpt>
 <trkpt lat="47.276577" lon="12.734146">
 <ele>770.99</ele>
 <time>2010-06-24T13:16:34Z</time>
 </trkpt>
 <trkpt lat="47.276558" lon="12.734471">
 <ele>770.34</ele>
 <time>2010-06-24T13:16:38Z</time>
 </trkpt>
 <trkpt lat="47.276615" lon="12.734884">
 <ele>769.92</ele>
 <time>2010-06-24T13:16:43Z</time>
 </trkpt>
 <trkpt lat="47.276478" lon="12.735451">
 <ele>767.73</ele>
 <time>2010-06-24T13:16:49Z</time>
 </trkpt>
 <trkpt lat="47.276402" lon="12.736255">
 <ele>767.24</ele>
 <time>2010-06-24T13:16:56Z</time>
 </trkpt>
 <trkpt lat="47.276363" lon="12.736947">
 <ele>768.91</ele>
 <time>2010-06-24T13:17:03Z</time>
 </trkpt>
 <trkpt lat="47.276379" lon="12.737268">
 <ele>770.50</ele>
 <time>2010-06-24T13:17:07Z</time>
 </trkpt>
 <trkpt lat="47.276222" lon="12.737740">
 <ele>770.83</ele>
 <time>2010-06-24T13:17:14Z</time>
 </trkpt>
 <trkpt lat="47.276161" lon="12.737863">
 <ele>770.56</ele>
 <time>2010-06-24T13:17:16Z</time>
 </trkpt>
 <trkpt lat="47.276127" lon="12.738239">
 <ele>770.60</ele>
 <time>2010-06-24T13:17:22Z</time>
 </trkpt>
 <trkpt lat="47.276146" lon="12.738395">
 <ele>770.66</ele>
 <time>2010-06-24T13:17:24Z</time>
 </trkpt>
 <trkpt lat="47.276188" lon="12.738733">
 <ele>770.94</ele>
 <time>2010-06-24T13:17:28Z</time>
 </trkpt>
 <trkpt lat="47.276249" lon="12.738996">
 <ele>771.10</ele>
 <time>2010-06-24T13:17:32Z</time>
 </trkpt>
 <trkpt lat="47.276272" lon="12.739351">
 <ele>771.15</ele>
 <time>2010-06-24T13:17:37Z</time>
 </trkpt>
 <trkpt lat="47.276257" lon="12.739437">
 <ele>770.96</ele>
 <time>2010-06-24T13:17:38Z</time>
 </trkpt>
 <trkpt lat="47.276093" lon="12.740126">
 <ele>768.22</ele>
 <time>2010-06-24T13:17:45Z</time>
 </trkpt>
 <trkpt lat="47.276035" lon="12.740356">
 <ele>767.60</ele>
 <time>2010-06-24T13:17:47Z</time>
 </trkpt>
 <trkpt lat="47.276028" lon="12.740949">
 <ele>766.11</ele>
 <time>2010-06-24T13:17:52Z</time>
 </trkpt>
 <trkpt lat="47.276127" lon="12.741226">
 <ele>766.01</ele>
 <time>2010-06-24T13:17:55Z</time>
 </trkpt>
 <trkpt lat="47.276196" lon="12.741401">
 <ele>765.85</ele>
 <time>2010-06-24T13:17:57Z</time>
 </trkpt>
 <trkpt lat="47.276329" lon="12.741769">
 <ele>765.90</ele>
 <time>2010-06-24T13:18:01Z</time>
 </trkpt>
 <trkpt lat="47.276291" lon="12.742630">
 <ele>765.16</ele>
 <time>2010-06-24T13:18:10Z</time>
 </trkpt>
 <trkpt lat="47.276348" lon="12.743199">
 <ele>765.11</ele>
 <time>2010-06-24T13:18:16Z</time>
 </trkpt>
 <trkpt lat="47.276421" lon="12.744031">
 <ele>764.91</ele>
 <time>2010-06-24T13:18:25Z</time>
 </trkpt>
 <trkpt lat="47.276409" lon="12.744859">
 <ele>764.87</ele>
 <time>2010-06-24T13:18:34Z</time>
 </trkpt>
 <trkpt lat="47.276340" lon="12.745566">
 <ele>764.67</ele>
 <time>2010-06-24T13:18:42Z</time>
 </trkpt>
 <trkpt lat="47.276245" lon="12.746416">
 <ele>764.98</ele>
 <time>2010-06-24T13:18:52Z</time>
 </trkpt>
 <trkpt lat="47.276222" lon="12.746672">
 <ele>764.87</ele>
 <time>2010-06-24T13:18:55Z</time>
 </trkpt>
 <trkpt lat="47.276127" lon="12.746971">
 <ele>764.73</ele>
 <time>2010-06-24T13:18:59Z</time>
 </trkpt>
 <trkpt lat="47.275871" lon="12.747646">
 <ele>764.44</ele>
 <time>2010-06-24T13:19:08Z</time>
 </trkpt>
 <trkpt lat="47.275707" lon="12.748251">
 <ele>764.02</ele>
 <time>2010-06-24T13:19:16Z</time>
 </trkpt>
 <trkpt lat="47.275513" lon="12.748846">
 <ele>764.54</ele>
 <time>2010-06-24T13:19:24Z</time>
 </trkpt>
 <trkpt lat="47.275330" lon="12.749399">
 <ele>765.01</ele>
 <time>2010-06-24T13:19:32Z</time>
 </trkpt>
 <trkpt lat="47.275261" lon="12.749602">
 <ele>765.07</ele>
 <time>2010-06-24T13:19:35Z</time>
 </trkpt>
 <trkpt lat="47.275223" lon="12.749831">
 <ele>765.13</ele>
 <time>2010-06-24T13:19:38Z</time>
 </trkpt>
 <trkpt lat="47.275192" lon="12.750092">
 <ele>764.85</ele>
 <time>2010-06-24T13:19:42Z</time>
 </trkpt>
 <trkpt lat="47.275124" lon="12.750952">
 <ele>765.05</ele>
 <time>2010-06-24T13:19:54Z</time>
 </trkpt>
 <trkpt lat="47.275047" lon="12.751383">
 <ele>765.67</ele>
 <time>2010-06-24T13:20:00Z</time>
 </trkpt>
 <trkpt lat="47.274979" lon="12.751739">
 <ele>765.91</ele>
 <time>2010-06-24T13:20:05Z</time>
 </trkpt>
 <trkpt lat="47.274868" lon="12.752327">
 <ele>765.36</ele>
 <time>2010-06-24T13:20:13Z</time>
 </trkpt>
 <trkpt lat="47.274731" lon="12.753077">
 <ele>765.55</ele>
 <time>2010-06-24T13:20:23Z</time>
 </trkpt>
 <trkpt lat="47.274597" lon="12.753831">
 <ele>765.07</ele>
 <time>2010-06-24T13:20:33Z</time>
 </trkpt>
 <trkpt lat="47.274483" lon="12.754585">
 <ele>765.77</ele>
 <time>2010-06-24T13:20:43Z</time>
 </trkpt>
 <trkpt lat="47.274414" lon="12.755268">
 <ele>765.71</ele>
 <time>2010-06-24T13:20:52Z</time>
 </trkpt>
 <trkpt lat="47.274334" lon="12.755937">
 <ele>766.43</ele>
 <time>2010-06-24T13:21:01Z</time>
 </trkpt>
 <trkpt lat="47.274269" lon="12.756205">
 <ele>766.34</ele>
 <time>2010-06-24T13:21:05Z</time>
 </trkpt>
 <trkpt lat="47.274086" lon="12.756832">
 <ele>766.35</ele>
 <time>2010-06-24T13:21:14Z</time>
 </trkpt>
 <trkpt lat="47.274021" lon="12.757139">
 <ele>766.34</ele>
 <time>2010-06-24T13:21:19Z</time>
 </trkpt>
 <trkpt lat="47.274014" lon="12.757249">
 <ele>766.66</ele>
 <time>2010-06-24T13:21:23Z</time>
 </trkpt>
 <trkpt lat="47.274014" lon="12.757249">
 <ele>766.61</ele>
 <time>2010-06-24T13:21:24Z</time>
 </trkpt>
 <trkpt lat="47.274002" lon="12.757371">
 <ele>766.49</ele>
 <time>2010-06-24T13:21:32Z</time>
 </trkpt>
 <trkpt lat="47.273983" lon="12.757683">
 <ele>767.00</ele>
 <time>2010-06-24T13:21:39Z</time>
 </trkpt>
 <trkpt lat="47.274048" lon="12.758054">
 <ele>766.85</ele>
 <time>2010-06-24T13:21:46Z</time>
 </trkpt>
 <trkpt lat="47.274158" lon="12.758440">
 <ele>768.39</ele>
 <time>2010-06-24T13:21:54Z</time>
 </trkpt>
 <trkpt lat="47.274216" lon="12.758640">
 <ele>769.01</ele>
 <time>2010-06-24T13:22:00Z</time>
 </trkpt>
 <trkpt lat="47.274235" lon="12.758711">
 <ele>769.31</ele>
 <time>2010-06-24T13:22:07Z</time>
 </trkpt>
 <trkpt lat="47.274258" lon="12.759075">
 <ele>768.08</ele>
 <time>2010-06-24T13:22:15Z</time>
 </trkpt>
 <trkpt lat="47.274391" lon="12.759918">
 <ele>767.56</ele>
 <time>2010-06-24T13:22:21Z</time>
 </trkpt>
 <trkpt lat="47.274525" lon="12.760419">
 <ele>767.37</ele>
 <time>2010-06-24T13:22:28Z</time>
 </trkpt>
 <trkpt lat="47.274544" lon="12.760492">
 <ele>767.54</ele>
 <time>2010-06-24T13:22:29Z</time>
 </trkpt>
 <trkpt lat="47.274723" lon="12.761108">
 <ele>767.84</ele>
 <time>2010-06-24T13:22:38Z</time>
 </trkpt>
 <trkpt lat="47.274933" lon="12.761834">
 <ele>766.95</ele>
 <time>2010-06-24T13:22:48Z</time>
 </trkpt>
 <trkpt lat="47.275120" lon="12.762514">
 <ele>766.70</ele>
 <time>2010-06-24T13:22:57Z</time>
 </trkpt>
 <trkpt lat="47.275307" lon="12.763186">
 <ele>766.50</ele>
 <time>2010-06-24T13:23:06Z</time>
 </trkpt>
 <trkpt lat="47.275360" lon="12.763809">
 <ele>766.80</ele>
 <time>2010-06-24T13:23:14Z</time>
 </trkpt>
 <trkpt lat="47.275410" lon="12.764383">
 <ele>766.36</ele>
 <time>2010-06-24T13:23:21Z</time>
 </trkpt>
 <trkpt lat="47.275490" lon="12.765297">
 <ele>766.89</ele>
 <time>2010-06-24T13:23:32Z</time>
 </trkpt>
 <trkpt lat="47.275547" lon="12.765941">
 <ele>765.82</ele>
 <time>2010-06-24T13:23:40Z</time>
 </trkpt>
 <trkpt lat="47.275623" lon="12.766834">
 <ele>765.55</ele>
 <time>2010-06-24T13:23:51Z</time>
 </trkpt>
 <trkpt lat="47.275703" lon="12.767521">
 <ele>765.32</ele>
 <time>2010-06-24T13:24:00Z</time>
 </trkpt>
 <trkpt lat="47.275898" lon="12.768255">
 <ele>764.95</ele>
 <time>2010-06-24T13:24:10Z</time>
 </trkpt>
 <trkpt lat="47.276127" lon="12.768869">
 <ele>765.16</ele>
 <time>2010-06-24T13:24:19Z</time>
 </trkpt>
 <trkpt lat="47.276394" lon="12.769371">
 <ele>765.33</ele>
 <time>2010-06-24T13:24:27Z</time>
 </trkpt>
 <trkpt lat="47.276733" lon="12.770003">
 <ele>764.97</ele>
 <time>2010-06-24T13:24:37Z</time>
 </trkpt>
 <trkpt lat="47.277065" lon="12.770623">
 <ele>765.04</ele>
 <time>2010-06-24T13:24:47Z</time>
 </trkpt>
 <trkpt lat="47.277309" lon="12.771085">
 <ele>764.85</ele>
 <time>2010-06-24T13:24:55Z</time>
 </trkpt>
 <trkpt lat="47.277344" lon="12.771144">
 <ele>764.89</ele>
 <time>2010-06-24T13:24:56Z</time>
 </trkpt>
 <trkpt lat="47.277534" lon="12.771436">
 <ele>764.29</ele>
 <time>2010-06-24T13:25:01Z</time>
 </trkpt>
 <trkpt lat="47.277649" lon="12.771520">
 <ele>763.50</ele>
 <time>2010-06-24T13:25:03Z</time>
 </trkpt>
 <trkpt lat="47.277893" lon="12.771712">
 <ele>762.60</ele>
 <time>2010-06-24T13:25:07Z</time>
 </trkpt>
 <trkpt lat="47.278240" lon="12.772381">
 <ele>762.33</ele>
 <time>2010-06-24T13:25:16Z</time>
 </trkpt>
 <trkpt lat="47.278610" lon="12.773085">
 <ele>760.66</ele>
 <time>2010-06-24T13:25:25Z</time>
 </trkpt>
 <trkpt lat="47.278999" lon="12.773834">
 <ele>759.13</ele>
 <time>2010-06-24T13:25:34Z</time>
 </trkpt>
 <trkpt lat="47.279419" lon="12.774638">
 <ele>757.68</ele>
 <time>2010-06-24T13:25:44Z</time>
 </trkpt>
 <trkpt lat="47.279827" lon="12.775415">
 <ele>757.40</ele>
 <time>2010-06-24T13:25:54Z</time>
 </trkpt>
 <trkpt lat="47.280224" lon="12.776178">
 <ele>757.37</ele>
 <time>2010-06-24T13:26:04Z</time>
 </trkpt>
 <trkpt lat="47.280472" lon="12.776791">
 <ele>756.51</ele>
 <time>2010-06-24T13:26:12Z</time>
 </trkpt>
 <trkpt lat="47.280544" lon="12.777243">
 <ele>756.38</ele>
 <time>2010-06-24T13:26:17Z</time>
 </trkpt>
 <trkpt lat="47.280685" lon="12.778113">
 <ele>755.67</ele>
 <time>2010-06-24T13:26:26Z</time>
 </trkpt>
 <trkpt lat="47.280788" lon="12.778747">
 <ele>755.23</ele>
 <time>2010-06-24T13:26:33Z</time>
 </trkpt>
 <trkpt lat="47.280853" lon="12.778945">
 <ele>754.69</ele>
 <time>2010-06-24T13:26:37Z</time>
 </trkpt>
 <trkpt lat="47.280975" lon="12.778945">
 <ele>755.24</ele>
 <time>2010-06-24T13:26:40Z</time>
 </trkpt>
 <trkpt lat="47.281403" lon="12.778945">
 <ele>755.52</ele>
 <time>2010-06-24T13:26:49Z</time>
 </trkpt>
 <trkpt lat="47.281601" lon="12.778945">
 <ele>755.86</ele>
 <time>2010-06-24T13:26:53Z</time>
 </trkpt>
 <trkpt lat="47.281643" lon="12.779016">
 <ele>755.93</ele>
 <time>2010-06-24T13:26:54Z</time>
 </trkpt>
 <trkpt lat="47.281967" lon="12.779895">
 <ele>756.58</ele>
 <time>2010-06-24T13:27:07Z</time>
 </trkpt>
 <trkpt lat="47.282017" lon="12.780020">
 <ele>756.84</ele>
 <time>2010-06-24T13:27:09Z</time>
 </trkpt>
 <trkpt lat="47.282104" lon="12.780290">
 <ele>756.81</ele>
 <time>2010-06-24T13:27:14Z</time>
 </trkpt>
 <trkpt lat="47.282070" lon="12.780430">
 <ele>756.54</ele>
 <time>2010-06-24T13:27:16Z</time>
 </trkpt>
 <trkpt lat="47.281841" lon="12.781354">
 <ele>756.13</ele>
 <time>2010-06-24T13:27:28Z</time>
 </trkpt>
 <trkpt lat="47.281723" lon="12.782409">
 <ele>757.09</ele>
 <time>2010-06-24T13:27:40Z</time>
 </trkpt>
 <trkpt lat="47.281723" lon="12.783217">
 <ele>757.13</ele>
 <time>2010-06-24T13:27:50Z</time>
 </trkpt>
 <trkpt lat="47.281723" lon="12.783845">
 <ele>756.71</ele>
 <time>2010-06-24T13:27:58Z</time>
 </trkpt>
 <trkpt lat="47.281723" lon="12.784148">
 <ele>757.32</ele>
 <time>2010-06-24T13:28:03Z</time>
 </trkpt>
 <trkpt lat="47.281723" lon="12.784338">
 <ele>757.70</ele>
 <time>2010-06-24T13:28:08Z</time>
 </trkpt>
 <trkpt lat="47.281723" lon="12.784552">
 <ele>757.59</ele>
 <time>2010-06-24T13:28:13Z</time>
 </trkpt>
 <trkpt lat="47.281719" lon="12.785067">
 <ele>757.31</ele>
 <time>2010-06-24T13:28:20Z</time>
 </trkpt>
 <trkpt lat="47.281719" lon="12.785620">
 <ele>756.98</ele>
 <time>2010-06-24T13:28:27Z</time>
 </trkpt>
 <trkpt lat="47.281715" lon="12.786468">
 <ele>756.55</ele>
 <time>2010-06-24T13:28:37Z</time>
 </trkpt>
 <trkpt lat="47.281712" lon="12.787244">
 <ele>756.59</ele>
 <time>2010-06-24T13:28:46Z</time>
 </trkpt>
 <trkpt lat="47.281708" lon="12.788028">
 <ele>756.28</ele>
 <time>2010-06-24T13:28:55Z</time>
 </trkpt>
 <trkpt lat="47.281708" lon="12.788722">
 <ele>756.18</ele>
 <time>2010-06-24T13:29:03Z</time>
 </trkpt>
 <trkpt lat="47.281704" lon="12.789528">
 <ele>756.58</ele>
 <time>2010-06-24T13:29:12Z</time>
 </trkpt>
 <trkpt lat="47.281719" lon="12.790198">
 <ele>755.78</ele>
 <time>2010-06-24T13:29:19Z</time>
 </trkpt>
 <trkpt lat="47.281757" lon="12.791106">
 <ele>755.73</ele>
 <time>2010-06-24T13:29:29Z</time>
 </trkpt>
 <trkpt lat="47.281788" lon="12.791731">
 <ele>756.30</ele>
 <time>2010-06-24T13:29:36Z</time>
 </trkpt>
 <trkpt lat="47.281815" lon="12.792365">
 <ele>756.45</ele>
 <time>2010-06-24T13:29:43Z</time>
 </trkpt>
 <trkpt lat="47.281860" lon="12.793352">
 <ele>756.36</ele>
 <time>2010-06-24T13:29:54Z</time>
 </trkpt>
 <trkpt lat="47.281898" lon="12.794166">
 <ele>755.86</ele>
 <time>2010-06-24T13:30:03Z</time>
 </trkpt>
 <trkpt lat="47.281937" lon="12.794685">
 <ele>755.93</ele>
 <time>2010-06-24T13:30:09Z</time>
 </trkpt>
 <trkpt lat="47.281956" lon="12.794982">
 <ele>755.99</ele>
 <time>2010-06-24T13:30:13Z</time>
 </trkpt>
 <trkpt lat="47.281979" lon="12.795278">
 <ele>756.03</ele>
 <time>2010-06-24T13:30:17Z</time>
 </trkpt>
 <trkpt lat="47.282001" lon="12.795573">
 <ele>756.05</ele>
 <time>2010-06-24T13:30:21Z</time>
 </trkpt>
 <trkpt lat="47.282005" lon="12.795656">
 <ele>755.89</ele>
 <time>2010-06-24T13:30:22Z</time>
 </trkpt>
 <trkpt lat="47.282070" lon="12.796529">
 <ele>755.22</ele>
 <time>2010-06-24T13:30:32Z</time>
 </trkpt>
 <trkpt lat="47.282124" lon="12.797224">
 <ele>755.95</ele>
 <time>2010-06-24T13:30:40Z</time>
 </trkpt>
 <trkpt lat="47.282185" lon="12.798088">
 <ele>755.86</ele>
 <time>2010-06-24T13:30:50Z</time>
 </trkpt>
 <trkpt lat="47.282246" lon="12.798941">
 <ele>755.84</ele>
 <time>2010-06-24T13:31:00Z</time>
 </trkpt>
 <trkpt lat="47.282284" lon="12.799741">
 <ele>755.74</ele>
 <time>2010-06-24T13:31:09Z</time>
 </trkpt>
 <trkpt lat="47.282318" lon="12.800460">
 <ele>755.55</ele>
 <time>2010-06-24T13:31:17Z</time>
 </trkpt>
 <trkpt lat="47.282356" lon="12.801242">
 <ele>755.47</ele>
 <time>2010-06-24T13:31:26Z</time>
 </trkpt>
 <trkpt lat="47.282398" lon="12.802118">
 <ele>755.46</ele>
 <time>2010-06-24T13:31:36Z</time>
 </trkpt>
 <trkpt lat="47.282436" lon="12.802914">
 <ele>754.80</ele>
 <time>2010-06-24T13:31:45Z</time>
 </trkpt>
 <trkpt lat="47.282543" lon="12.804058">
 <ele>754.55</ele>
 <time>2010-06-24T13:31:56Z</time>
 </trkpt>
 <trkpt lat="47.282692" lon="12.804815">
 <ele>754.90</ele>
 <time>2010-06-24T13:32:05Z</time>
 </trkpt>
 <trkpt lat="47.282841" lon="12.805574">
 <ele>754.71</ele>
 <time>2010-06-24T13:32:14Z</time>
 </trkpt>
 <trkpt lat="47.282974" lon="12.806245">
 <ele>754.42</ele>
 <time>2010-06-24T13:32:22Z</time>
 </trkpt>
 <trkpt lat="47.283157" lon="12.807186">
 <ele>754.45</ele>
 <time>2010-06-24T13:32:33Z</time>
 </trkpt>
 <trkpt lat="47.283287" lon="12.807851">
 <ele>754.81</ele>
 <time>2010-06-24T13:32:41Z</time>
 </trkpt>
 <trkpt lat="47.283424" lon="12.808619">
 <ele>754.58</ele>
 <time>2010-06-24T13:32:50Z</time>
 </trkpt>
 <trkpt lat="47.283550" lon="12.809350">
 <ele>754.94</ele>
 <time>2010-06-24T13:32:59Z</time>
 </trkpt>
 <trkpt lat="47.283653" lon="12.809923">
 <ele>755.47</ele>
 <time>2010-06-24T13:33:07Z</time>
 </trkpt>
 <trkpt lat="47.283722" lon="12.810316">
 <ele>755.44</ele>
 <time>2010-06-24T13:33:13Z</time>
 </trkpt>
 <trkpt lat="47.283806" lon="12.810797">
 <ele>755.10</ele>
 <time>2010-06-24T13:33:19Z</time>
 </trkpt>
 <trkpt lat="47.283821" lon="12.810883">
 <ele>755.01</ele>
 <time>2010-06-24T13:33:20Z</time>
 </trkpt>
 <trkpt lat="47.283897" lon="12.811399">
 <ele>754.82</ele>
 <time>2010-06-24T13:33:26Z</time>
 </trkpt>
 <trkpt lat="47.284008" lon="12.812200">
 <ele>756.46</ele>
 <time>2010-06-24T13:33:36Z</time>
 </trkpt>
 <trkpt lat="47.284065" lon="12.812636">
 <ele>756.69</ele>
 <time>2010-06-24T13:33:42Z</time>
 </trkpt>
 <trkpt lat="47.284107" lon="12.812985">
 <ele>756.73</ele>
 <time>2010-06-24T13:33:48Z</time>
 </trkpt>
 <trkpt lat="47.284130" lon="12.813701">
 <ele>756.00</ele>
 <time>2010-06-24T13:33:57Z</time>
 </trkpt>
 <trkpt lat="47.284161" lon="12.814628">
 <ele>756.23</ele>
 <time>2010-06-24T13:34:08Z</time>
 </trkpt>
 <trkpt lat="47.284191" lon="12.815655">
 <ele>756.60</ele>
 <time>2010-06-24T13:34:20Z</time>
 </trkpt>
 <trkpt lat="47.284210" lon="12.816339">
 <ele>756.52</ele>
 <time>2010-06-24T13:34:28Z</time>
 </trkpt>
 <trkpt lat="47.284229" lon="12.816866">
 <ele>756.54</ele>
 <time>2010-06-24T13:34:35Z</time>
 </trkpt>
 <trkpt lat="47.284328" lon="12.817176">
 <ele>756.34</ele>
 <time>2010-06-24T13:34:41Z</time>
 </trkpt>
 <trkpt lat="47.284412" lon="12.817279">
 <ele>755.89</ele>
 <time>2010-06-24T13:34:45Z</time>
 </trkpt>
 <trkpt lat="47.284424" lon="12.817294">
 <ele>755.76</ele>
 <time>2010-06-24T13:34:46Z</time>
 </trkpt>
 <trkpt lat="47.284470" lon="12.817354">
 <ele>755.17</ele>
 <time>2010-06-24T13:34:50Z</time>
 </trkpt>
 <trkpt lat="47.284470" lon="12.817354">
 <ele>754.76</ele>
 <time>2010-06-24T13:34:52Z</time>
 </trkpt>
 <trkpt lat="47.284733" lon="12.817133">
 <ele>754.32</ele>
 <time>2010-06-24T13:34:56Z</time>
 </trkpt>
 <trkpt lat="47.284752" lon="12.817179">
 <ele>754.17</ele>
 <time>2010-06-24T13:34:57Z</time>
 </trkpt>
 <trkpt lat="47.284771" lon="12.817226">
 <ele>753.70</ele>
 <time>2010-06-24T13:35:02Z</time>
 </trkpt>
 <trkpt lat="47.284771" lon="12.817226">
 <ele>753.89</ele>
 <time>2010-06-24T13:35:05Z</time>
 </trkpt>
 <trkpt lat="47.285053" lon="12.817905">
 <ele>754.33</ele>
 <time>2010-06-24T13:35:10Z</time>
 </trkpt>
 <trkpt lat="47.285091" lon="12.817955">
 <ele>754.73</ele>
 <time>2010-06-24T13:35:12Z</time>
 </trkpt>
 <trkpt lat="47.285133" lon="12.818608">
 <ele>756.98</ele>
 <time>2010-06-24T13:35:21Z</time>
 </trkpt>
 <trkpt lat="47.285263" lon="12.819399">
 <ele>757.34</ele>
 <time>2010-06-24T13:35:32Z</time>
 </trkpt>
 <trkpt lat="47.285286" lon="12.819543">
 <ele>757.34</ele>
 <time>2010-06-24T13:35:34Z</time>
 </trkpt>
 <trkpt lat="47.285343" lon="12.819897">
 <ele>757.58</ele>
 <time>2010-06-24T13:35:39Z</time>
 </trkpt>
 <trkpt lat="47.285378" lon="12.820109">
 <ele>757.84</ele>
 <time>2010-06-24T13:35:43Z</time>
 </trkpt>
 <trkpt lat="47.285221" lon="12.820183">
 <ele>757.98</ele>
 <time>2010-06-24T13:35:45Z</time>
 </trkpt>
 <trkpt lat="47.284737" lon="12.820292">
 <ele>757.98</ele>
 <time>2010-06-24T13:35:56Z</time>
 </trkpt>
 <trkpt lat="47.284626" lon="12.820319">
 <ele>758.44</ele>
 <time>2010-06-24T13:36:01Z</time>
 </trkpt>
 <trkpt lat="47.284508" lon="12.820390">
 <ele>758.19</ele>
 <time>2010-06-24T13:36:06Z</time>
 </trkpt>
 <trkpt lat="47.284470" lon="12.820579">
 <ele>758.38</ele>
 <time>2010-06-24T13:36:10Z</time>
 </trkpt>
 <trkpt lat="47.284485" lon="12.821012">
 <ele>758.63</ele>
 <time>2010-06-24T13:36:17Z</time>
 </trkpt>
 <trkpt lat="47.284492" lon="12.821416">
 <ele>758.67</ele>
 <time>2010-06-24T13:36:24Z</time>
 </trkpt>
 <trkpt lat="47.284492" lon="12.821693">
 <ele>758.80</ele>
 <time>2010-06-24T13:36:30Z</time>
 </trkpt>
 <trkpt lat="47.284519" lon="12.821675">
 <ele>759.05</ele>
 <time>2010-06-24T13:36:34Z</time>
 </trkpt>
 <trkpt lat="47.284519" lon="12.821646">
 <ele>759.04</ele>
 <time>2010-06-24T13:36:35Z</time>
 </trkpt>
 <trkpt lat="47.284512" lon="12.821320">
 <ele>758.56</ele>
 <time>2010-06-24T13:36:41Z</time>
 </trkpt>
 <trkpt lat="47.284496" lon="12.820776">
 <ele>757.97</ele>
 <time>2010-06-24T13:36:49Z</time>
 </trkpt>
 <trkpt lat="47.284492" lon="12.820561">
 <ele>758.17</ele>
 <time>2010-06-24T13:36:52Z</time>
 </trkpt>
 <trkpt lat="47.284554" lon="12.820358">
 <ele>757.95</ele>
 <time>2010-06-24T13:36:56Z</time>
 </trkpt>
 <trkpt lat="47.284664" lon="12.820333">
 <ele>757.90</ele>
 <time>2010-06-24T13:36:59Z</time>
 </trkpt>
 <trkpt lat="47.284752" lon="12.820316">
 <ele>757.87</ele>
 <time>2010-06-24T13:37:01Z</time>
 </trkpt>
 <trkpt lat="47.284882" lon="12.820303">
 <ele>757.91</ele>
 <time>2010-06-24T13:37:05Z</time>
 </trkpt>
 <trkpt lat="47.285400" lon="12.820253">
 <ele>758.21</ele>
 <time>2010-06-24T13:37:09Z</time>
 </trkpt>
 <trkpt lat="47.285408" lon="12.820306">
 <ele>758.24</ele>
 <time>2010-06-24T13:37:10Z</time>
 </trkpt>
 <trkpt lat="47.285458" lon="12.820655">
 <ele>758.43</ele>
 <time>2010-06-24T13:37:16Z</time>
 </trkpt>
 <trkpt lat="47.285538" lon="12.821186">
 <ele>758.53</ele>
 <time>2010-06-24T13:37:24Z</time>
 </trkpt>
 <trkpt lat="47.285557" lon="12.821319">
 <ele>758.44</ele>
 <time>2010-06-24T13:37:26Z</time>
 </trkpt>
 <trkpt lat="47.285591" lon="12.821555">
 <ele>758.87</ele>
 <time>2010-06-24T13:37:30Z</time>
 </trkpt>
 <trkpt lat="47.285225" lon="12.821770">
 <ele>759.21</ele>
 <time>2010-06-24T13:37:33Z</time>
 </trkpt>
 <trkpt lat="47.285454" lon="12.821754">
 <ele>759.19</ele>
 <time>2010-06-24T13:37:38Z</time>
 </trkpt>
 <trkpt lat="47.285603" lon="12.821742">
 <ele>759.01</ele>
 <time>2010-06-24T13:37:42Z</time>
 </trkpt>
 <trkpt lat="47.285641" lon="12.821893">
 <ele>759.04</ele>
 <time>2010-06-24T13:37:47Z</time>
 </trkpt>
 <trkpt lat="47.285690" lon="12.822269">
 <ele>758.97</ele>
 <time>2010-06-24T13:37:53Z</time>
 </trkpt>
 <trkpt lat="47.285770" lon="12.822821">
 <ele>759.33</ele>
 <time>2010-06-24T13:38:01Z</time>
 </trkpt>
 <trkpt lat="47.285797" lon="12.823258">
 <ele>759.04</ele>
 <time>2010-06-24T13:38:07Z</time>
 </trkpt>
 <trkpt lat="47.285801" lon="12.823320">
 <ele>759.17</ele>
 <time>2010-06-24T13:38:10Z</time>
 </trkpt>
 <trkpt lat="47.285610" lon="12.823285">
 <ele>759.39</ele>
 <time>2010-06-24T13:38:15Z</time>
 </trkpt>
 <trkpt lat="47.285294" lon="12.823277">
 <ele>758.93</ele>
 <time>2010-06-24T13:38:22Z</time>
 </trkpt>
 <trkpt lat="47.285042" lon="12.823277">
 <ele>758.65</ele>
 <time>2010-06-24T13:38:29Z</time>
 </trkpt>
 <trkpt lat="47.284939" lon="12.823277">
 <ele>758.19</ele>
 <time>2010-06-24T13:38:33Z</time>
 </trkpt>
 <trkpt lat="47.284782" lon="12.823277">
 <ele>757.54</ele>
 <time>2010-06-24T13:38:37Z</time>
 </trkpt>
 <trkpt lat="47.284782" lon="12.823511">
 <ele>757.86</ele>
 <time>2010-06-24T13:38:39Z</time>
 </trkpt>
 <trkpt lat="47.284809" lon="12.824111">
 <ele>759.67</ele>
 <time>2010-06-24T13:38:48Z</time>
 </trkpt>
 <trkpt lat="47.284836" lon="12.824770">
 <ele>759.05</ele>
 <time>2010-06-24T13:38:57Z</time>
 </trkpt>
 <trkpt lat="47.284859" lon="12.825395">
 <ele>759.54</ele>
 <time>2010-06-24T13:39:05Z</time>
 </trkpt>
 <trkpt lat="47.284889" lon="12.826174">
 <ele>759.70</ele>
 <time>2010-06-24T13:39:15Z</time>
 </trkpt>
 <trkpt lat="47.284912" lon="12.826765">
 <ele>760.39</ele>
 <time>2010-06-24T13:39:22Z</time>
 </trkpt>
 <trkpt lat="47.284943" lon="12.827566">
 <ele>760.56</ele>
 <time>2010-06-24T13:39:32Z</time>
 </trkpt>
 <trkpt lat="47.284943" lon="12.827716">
 <ele>760.71</ele>
 <time>2010-06-24T13:39:34Z</time>
 </trkpt>
 <trkpt lat="47.284943" lon="12.828154">
 <ele>760.76</ele>
 <time>2010-06-24T13:39:41Z</time>
 </trkpt>
 <trkpt lat="47.284943" lon="12.828192">
 <ele>760.74</ele>
 <time>2010-06-24T13:39:42Z</time>
 </trkpt>
 <trkpt lat="47.284794" lon="12.828262">
 <ele>760.66</ele>
 <time>2010-06-24T13:39:46Z</time>
 </trkpt>
 <trkpt lat="47.285297" lon="12.828427">
 <ele>761.13</ele>
 <time>2010-06-24T13:39:51Z</time>
 </trkpt>
 <trkpt lat="47.284740" lon="12.828213">
 <ele>760.40</ele>
 <time>2010-06-24T13:42:34Z</time>
 </trkpt>
 <trkpt lat="47.284744" lon="12.828211">
 <ele>760.47</ele>
 <time>2010-06-24T13:42:35Z</time>
 </trkpt>
 <trkpt lat="47.284744" lon="12.828211">
 <ele>760.30</ele>
 <time>2010-06-24T13:42:36Z</time>
 </trkpt>
 <trkpt lat="47.284855" lon="12.828222">
 <ele>759.48</ele>
 <time>2010-06-24T13:42:44Z</time>
 </trkpt>
 <trkpt lat="47.284943" lon="12.828256">
 <ele>760.07</ele>
 <time>2010-06-24T13:42:46Z</time>
 </trkpt>
 <trkpt lat="47.284943" lon="12.828488">
 <ele>760.70</ele>
 <time>2010-06-24T13:42:53Z</time>
 </trkpt>
 <trkpt lat="47.284943" lon="12.828790">
 <ele>760.61</ele>
 <time>2010-06-24T13:43:00Z</time>
 </trkpt>
 <trkpt lat="47.284939" lon="12.829161">
 <ele>760.34</ele>
 <time>2010-06-24T13:43:07Z</time>
 </trkpt>
 <trkpt lat="47.284927" lon="12.829576">
 <ele>760.49</ele>
 <time>2010-06-24T13:43:14Z</time>
 </trkpt>
 <trkpt lat="47.284916" lon="12.829912">
 <ele>760.36</ele>
 <time>2010-06-24T13:43:20Z</time>
 </trkpt>
 <trkpt lat="47.284901" lon="12.830353">
 <ele>760.20</ele>
 <time>2010-06-24T13:43:27Z</time>
 </trkpt>
 <trkpt lat="47.284901" lon="12.830444">
 <ele>760.51</ele>
 <time>2010-06-24T13:43:35Z</time>
 </trkpt>
 <trkpt lat="47.284843" lon="12.831063">
 <ele>760.51</ele>
 <time>2010-06-24T13:43:40Z</time>
 </trkpt>
 <trkpt lat="47.284828" lon="12.831213">
 <ele>760.23</ele>
 <time>2010-06-24T13:43:44Z</time>
 </trkpt>
 <trkpt lat="47.284805" lon="12.831493">
 <ele>760.08</ele>
 <time>2010-06-24T13:43:49Z</time>
 </trkpt>
 <trkpt lat="47.284782" lon="12.831737">
 <ele>759.28</ele>
 <time>2010-06-24T13:43:53Z</time>
 </trkpt>
 <trkpt lat="47.284760" lon="12.831996">
 <ele>757.70</ele>
 <time>2010-06-24T13:43:57Z</time>
 </trkpt>
 <trkpt lat="47.284752" lon="12.832082">
 <ele>757.16</ele>
 <time>2010-06-24T13:44:00Z</time>
 </trkpt>
 <trkpt lat="47.284683" lon="12.832804">
 <ele>756.39</ele>
 <time>2010-06-24T13:44:06Z</time>
 </trkpt>
 <trkpt lat="47.284756" lon="12.832031">
 <ele>756.67</ele>
 <time>2010-06-24T13:44:10Z</time>
 </trkpt>
 <trkpt lat="47.284683" lon="12.832804">
 <ele>756.85</ele>
 <time>2010-06-24T13:44:11Z</time>
 </trkpt>
 <trkpt lat="47.284683" lon="12.832804">
 <ele>756.66</ele>
 <time>2010-06-24T13:44:16Z</time>
 </trkpt>
 <trkpt lat="47.284779" lon="12.831763">
 <ele>757.03</ele>
 <time>2010-06-24T13:44:21Z</time>
 </trkpt>
 <trkpt lat="47.284813" lon="12.831398">
 <ele>759.21</ele>
 <time>2010-06-24T13:44:28Z</time>
 </trkpt>
 <trkpt lat="47.284821" lon="12.831297">
 <ele>759.72</ele>
 <time>2010-06-24T13:44:31Z</time>
 </trkpt>
 <trkpt lat="47.284100" lon="12.831156">
 <ele>760.48</ele>
 <time>2010-06-24T13:44:37Z</time>
 </trkpt>
 <trkpt lat="47.283817" lon="12.831177">
 <ele>760.41</ele>
 <time>2010-06-24T13:44:44Z</time>
 </trkpt>
 <trkpt lat="47.283520" lon="12.831268">
 <ele>759.89</ele>
 <time>2010-06-24T13:44:52Z</time>
 </trkpt>
 <trkpt lat="47.283470" lon="12.831560">
 <ele>759.77</ele>
 <time>2010-06-24T13:44:57Z</time>
 </trkpt>
 <trkpt lat="47.283424" lon="12.832187">
 <ele>759.89</ele>
 <time>2010-06-24T13:45:06Z</time>
 </trkpt>
 <trkpt lat="47.283375" lon="12.832786">
 <ele>759.48</ele>
 <time>2010-06-24T13:45:14Z</time>
 </trkpt>
 <trkpt lat="47.283161" lon="12.833877">
 <ele>759.43</ele>
 <time>2010-06-24T13:45:17Z</time>
 </trkpt>
 <trkpt lat="47.283161" lon="12.833877">
 <ele>757.50</ele>
 <time>2010-06-24T13:45:25Z</time>
 </trkpt>
 <trkpt lat="47.283161" lon="12.833877">
 <ele>755.09</ele>
 <time>2010-06-24T13:45:30Z</time>
 </trkpt>
 <trkpt lat="47.283066" lon="12.834144">
 <ele>754.54</ele>
 <time>2010-06-24T13:45:35Z</time>
 </trkpt>
 <trkpt lat="47.283020" lon="12.834270">
 <ele>754.62</ele>
 <time>2010-06-24T13:45:37Z</time>
 </trkpt>
 <trkpt lat="47.282928" lon="12.834523">
 <ele>754.52</ele>
 <time>2010-06-24T13:45:41Z</time>
 </trkpt>
 <trkpt lat="47.282864" lon="12.834711">
 <ele>754.37</ele>
 <time>2010-06-24T13:45:44Z</time>
 </trkpt>
 <trkpt lat="47.282688" lon="12.835276">
 <ele>754.16</ele>
 <time>2010-06-24T13:45:53Z</time>
 </trkpt>
 <trkpt lat="47.282665" lon="12.835508">
 <ele>754.30</ele>
 <time>2010-06-24T13:45:57Z</time>
 </trkpt>
 <trkpt lat="47.282688" lon="12.835563">
 <ele>754.27</ele>
 <time>2010-06-24T13:45:58Z</time>
 </trkpt>
 <trkpt lat="47.282856" lon="12.835963">
 <ele>755.05</ele>
 <time>2010-06-24T13:46:06Z</time>
 </trkpt>
 <trkpt lat="47.282990" lon="12.836272">
 <ele>756.09</ele>
 <time>2010-06-24T13:46:12Z</time>
 </trkpt>
 <trkpt lat="47.283100" lon="12.836547">
 <ele>757.53</ele>
 <time>2010-06-24T13:46:18Z</time>
 </trkpt>
 <trkpt lat="47.283154" lon="12.836862">
 <ele>758.29</ele>
 <time>2010-06-24T13:46:24Z</time>
 </trkpt>
 <trkpt lat="47.283192" lon="12.837258">
 <ele>759.28</ele>
 <time>2010-06-24T13:46:31Z</time>
 </trkpt>
 <trkpt lat="47.283077" lon="12.837892">
 <ele>758.93</ele>
 <time>2010-06-24T13:46:42Z</time>
 </trkpt>
 <trkpt lat="47.283001" lon="12.838226">
 <ele>758.69</ele>
 <time>2010-06-24T13:46:48Z</time>
 </trkpt>
 <trkpt lat="47.282978" lon="12.838287">
 <ele>758.51</ele>
 <time>2010-06-24T13:46:49Z</time>
 </trkpt>
 <trkpt lat="47.282864" lon="12.838588">
 <ele>756.26</ele>
 <time>2010-06-24T13:46:54Z</time>
 </trkpt>
 <trkpt lat="47.282814" lon="12.838717">
 <ele>755.07</ele>
 <time>2010-06-24T13:46:56Z</time>
 </trkpt>
 <trkpt lat="47.282631" lon="12.839197">
 <ele>753.38</ele>
 <time>2010-06-24T13:47:02Z</time>
 </trkpt>
 <trkpt lat="47.282379" lon="12.839832">
 <ele>753.35</ele>
 <time>2010-06-24T13:47:11Z</time>
 </trkpt>
 <trkpt lat="47.282284" lon="12.840005">
 <ele>753.33</ele>
 <time>2010-06-24T13:47:14Z</time>
 </trkpt>
 <trkpt lat="47.282066" lon="12.840392">
 <ele>752.95</ele>
 <time>2010-06-24T13:47:21Z</time>
 </trkpt>
 <trkpt lat="47.281834" lon="12.840811">
 <ele>752.61</ele>
 <time>2010-06-24T13:47:28Z</time>
 </trkpt>
 <trkpt lat="47.281548" lon="12.841320">
 <ele>752.68</ele>
 <time>2010-06-24T13:47:37Z</time>
 </trkpt>
 <trkpt lat="47.281227" lon="12.841914">
 <ele>752.77</ele>
 <time>2010-06-24T13:47:47Z</time>
 </trkpt>
 <trkpt lat="47.281013" lon="12.842309">
 <ele>752.32</ele>
 <time>2010-06-24T13:47:54Z</time>
 </trkpt>
 <trkpt lat="47.280895" lon="12.842526">
 <ele>751.84</ele>
 <time>2010-06-24T13:47:58Z</time>
 </trkpt>
 <trkpt lat="47.280788" lon="12.842721">
 <ele>751.82</ele>
 <time>2010-06-24T13:48:02Z</time>
 </trkpt>
 <trkpt lat="47.280651" lon="12.842975">
 <ele>752.64</ele>
 <time>2010-06-24T13:48:11Z</time>
 </trkpt>
 <trkpt lat="47.280457" lon="12.843510">
 <ele>752.68</ele>
 <time>2010-06-24T13:48:16Z</time>
 </trkpt>
 <trkpt lat="47.280384" lon="12.843753">
 <ele>752.80</ele>
 <time>2010-06-24T13:48:20Z</time>
 </trkpt>
 <trkpt lat="47.280426" lon="12.843933">
 <ele>753.27</ele>
 <time>2010-06-24T13:48:25Z</time>
 </trkpt>
 <trkpt lat="47.280457" lon="12.844062">
 <ele>753.37</ele>
 <time>2010-06-24T13:48:28Z</time>
 </trkpt>
 <trkpt lat="47.280575" lon="12.844539">
 <ele>753.15</ele>
 <time>2010-06-24T13:48:36Z</time>
 </trkpt>
 <trkpt lat="47.280674" lon="12.844954">
 <ele>752.90</ele>
 <time>2010-06-24T13:48:42Z</time>
 </trkpt>
 <trkpt lat="47.280918" lon="12.845405">
 <ele>753.17</ele>
 <time>2010-06-24T13:48:50Z</time>
 </trkpt>
 <trkpt lat="47.281139" lon="12.845770">
 <ele>753.15</ele>
 <time>2010-06-24T13:48:57Z</time>
 </trkpt>
 <trkpt lat="47.281246" lon="12.845986">
 <ele>753.23</ele>
 <time>2010-06-24T13:49:01Z</time>
 </trkpt>
 <trkpt lat="47.281384" lon="12.846555">
 <ele>753.56</ele>
 <time>2010-06-24T13:49:10Z</time>
 </trkpt>
 <trkpt lat="47.281418" lon="12.847039">
 <ele>753.59</ele>
 <time>2010-06-24T13:49:17Z</time>
 </trkpt>
 <trkpt lat="47.281490" lon="12.847681">
 <ele>753.18</ele>
 <time>2010-06-24T13:49:26Z</time>
 </trkpt>
 <trkpt lat="47.281620" lon="12.848375">
 <ele>753.46</ele>
 <time>2010-06-24T13:49:36Z</time>
 </trkpt>
 <trkpt lat="47.281631" lon="12.848442">
 <ele>753.56</ele>
 <time>2010-06-24T13:49:37Z</time>
 </trkpt>
 <trkpt lat="47.281769" lon="12.848964">
 <ele>754.89</ele>
 <time>2010-06-24T13:49:46Z</time>
 </trkpt>
 <trkpt lat="47.281898" lon="12.849255">
 <ele>756.53</ele>
 <time>2010-06-24T13:49:53Z</time>
 </trkpt>
 <trkpt lat="47.281994" lon="12.849541">
 <ele>757.80</ele>
 <time>2010-06-24T13:50:00Z</time>
 </trkpt>
 <trkpt lat="47.281940" lon="12.849752">
 <ele>759.13</ele>
 <time>2010-06-24T13:50:06Z</time>
 </trkpt>
 <trkpt lat="47.281841" lon="12.850008">
 <ele>761.17</ele>
 <time>2010-06-24T13:50:14Z</time>
 </trkpt>
 <trkpt lat="47.281830" lon="12.850215">
 <ele>762.72</ele>
 <time>2010-06-24T13:50:20Z</time>
 </trkpt>
 <trkpt lat="47.281830" lon="12.850461">
 <ele>763.93</ele>
 <time>2010-06-24T13:50:27Z</time>
 </trkpt>
 <trkpt lat="47.281837" lon="12.850709">
 <ele>765.90</ele>
 <time>2010-06-24T13:50:35Z</time>
 </trkpt>
 <trkpt lat="47.281853" lon="12.850882">
 <ele>766.79</ele>
 <time>2010-06-24T13:50:40Z</time>
 </trkpt>
 <trkpt lat="47.281876" lon="12.851146">
 <ele>768.26</ele>
 <time>2010-06-24T13:50:47Z</time>
 </trkpt>
 <trkpt lat="47.281910" lon="12.851525">
 <ele>769.32</ele>
 <time>2010-06-24T13:50:58Z</time>
 </trkpt>
 <trkpt lat="47.281940" lon="12.851891">
 <ele>770.25</ele>
 <time>2010-06-24T13:51:08Z</time>
 </trkpt>
 <trkpt lat="47.281960" lon="12.852141">
 <ele>770.32</ele>
 <time>2010-06-24T13:51:15Z</time>
 </trkpt>
 <trkpt lat="47.281990" lon="12.852511">
 <ele>770.72</ele>
 <time>2010-06-24T13:51:24Z</time>
 </trkpt>
 <trkpt lat="47.282001" lon="12.852870">
 <ele>770.98</ele>
 <time>2010-06-24T13:51:32Z</time>
 </trkpt>
 <trkpt lat="47.282001" lon="12.853252">
 <ele>770.76</ele>
 <time>2010-06-24T13:51:40Z</time>
 </trkpt>
 <trkpt lat="47.282001" lon="12.853656">
 <ele>770.42</ele>
 <time>2010-06-24T13:51:48Z</time>
 </trkpt>
 <trkpt lat="47.282001" lon="12.853958">
 <ele>769.95</ele>
 <time>2010-06-24T13:51:53Z</time>
 </trkpt>
 <trkpt lat="47.282001" lon="12.854240">
 <ele>769.70</ele>
 <time>2010-06-24T13:51:57Z</time>
 </trkpt>
 <trkpt lat="47.282009" lon="12.854711">
 <ele>768.37</ele>
 <time>2010-06-24T13:52:03Z</time>
 </trkpt>
 <trkpt lat="47.282013" lon="12.854783">
 <ele>768.24</ele>
 <time>2010-06-24T13:52:04Z</time>
 </trkpt>
 <trkpt lat="47.282028" lon="12.855072">
 <ele>768.02</ele>
 <time>2010-06-24T13:52:08Z</time>
 </trkpt>
 <trkpt lat="47.281990" lon="12.855552">
 <ele>767.08</ele>
 <time>2010-06-24T13:52:14Z</time>
 </trkpt>
 <trkpt lat="47.281799" lon="12.856133">
 <ele>766.36</ele>
 <time>2010-06-24T13:52:22Z</time>
 </trkpt>
 <trkpt lat="47.281612" lon="12.856596">
 <ele>764.57</ele>
 <time>2010-06-24T13:52:28Z</time>
 </trkpt>
 <trkpt lat="47.281509" lon="12.856861">
 <ele>763.76</ele>
 <time>2010-06-24T13:52:31Z</time>
 </trkpt>
 <trkpt lat="47.281406" lon="12.857203">
 <ele>763.97</ele>
 <time>2010-06-24T13:52:35Z</time>
 </trkpt>
 <trkpt lat="47.281445" lon="12.857594">
 <ele>765.43</ele>
 <time>2010-06-24T13:52:41Z</time>
 </trkpt>
 <trkpt lat="47.281506" lon="12.858033">
 <ele>765.40</ele>
 <time>2010-06-24T13:52:48Z</time>
 </trkpt>
 <trkpt lat="47.281528" lon="12.858560">
 <ele>765.75</ele>
 <time>2010-06-24T13:52:57Z</time>
 </trkpt>
 <trkpt lat="47.281528" lon="12.858907">
 <ele>767.30</ele>
 <time>2010-06-24T13:53:04Z</time>
 </trkpt>
 <trkpt lat="47.281475" lon="12.859205">
 <ele>769.33</ele>
 <time>2010-06-24T13:53:11Z</time>
 </trkpt>
 <trkpt lat="47.281418" lon="12.859499">
 <ele>770.73</ele>
 <time>2010-06-24T13:53:18Z</time>
 </trkpt>
 <trkpt lat="47.281345" lon="12.859792">
 <ele>771.73</ele>
 <time>2010-06-24T13:53:25Z</time>
 </trkpt>
 <trkpt lat="47.281246" lon="12.860063">
 <ele>773.27</ele>
 <time>2010-06-24T13:53:32Z</time>
 </trkpt>
 <trkpt lat="47.281162" lon="12.860293">
 <ele>774.11</ele>
 <time>2010-06-24T13:53:38Z</time>
 </trkpt>
 <trkpt lat="47.281071" lon="12.860627">
 <ele>774.15</ele>
 <time>2010-06-24T13:53:45Z</time>
 </trkpt>
 <trkpt lat="47.281040" lon="12.861008">
 <ele>774.81</ele>
 <time>2010-06-24T13:53:53Z</time>
 </trkpt>
 <trkpt lat="47.281063" lon="12.861204">
 <ele>774.59</ele>
 <time>2010-06-24T13:53:57Z</time>
 </trkpt>
 <trkpt lat="47.281090" lon="12.861383">
 <ele>774.13</ele>
 <time>2010-06-24T13:54:00Z</time>
 </trkpt>
 <trkpt lat="47.281120" lon="12.861581">
 <ele>773.08</ele>
 <time>2010-06-24T13:54:03Z</time>
 </trkpt>
 <trkpt lat="47.281292" lon="12.861837">
 <ele>770.96</ele>
 <time>2010-06-24T13:54:08Z</time>
 </trkpt>
 <trkpt lat="47.281475" lon="12.861960">
 <ele>768.96</ele>
 <time>2010-06-24T13:54:12Z</time>
 </trkpt>
 <trkpt lat="47.281754" lon="12.862078">
 <ele>765.92</ele>
 <time>2010-06-24T13:54:17Z</time>
 </trkpt>
 <trkpt lat="47.281918" lon="12.862178">
 <ele>764.16</ele>
 <time>2010-06-24T13:54:20Z</time>
 </trkpt>
 <trkpt lat="47.282196" lon="12.862359">
 <ele>760.97</ele>
 <time>2010-06-24T13:54:24Z</time>
 </trkpt>
 <trkpt lat="47.282555" lon="12.862511">
 <ele>757.00</ele>
 <time>2010-06-24T13:54:29Z</time>
 </trkpt>
 <trkpt lat="47.282665" lon="12.862642">
 <ele>755.52</ele>
 <time>2010-06-24T13:54:33Z</time>
 </trkpt>
 <trkpt lat="47.282639" lon="12.862733">
 <ele>755.43</ele>
 <time>2010-06-24T13:54:35Z</time>
 </trkpt>
 <trkpt lat="47.282528" lon="12.863085">
 <ele>755.99</ele>
 <time>2010-06-24T13:54:43Z</time>
 </trkpt>
 <trkpt lat="47.282391" lon="12.863399">
 <ele>755.15</ele>
 <time>2010-06-24T13:54:49Z</time>
 </trkpt>
 <trkpt lat="47.282337" lon="12.863519">
 <ele>754.90</ele>
 <time>2010-06-24T13:54:51Z</time>
 </trkpt>
 <trkpt lat="47.282188" lon="12.863839">
 <ele>754.87</ele>
 <time>2010-06-24T13:54:56Z</time>
 </trkpt>
 <trkpt lat="47.281883" lon="12.864368">
 <ele>755.45</ele>
 <time>2010-06-24T13:55:06Z</time>
 </trkpt>
 <trkpt lat="47.281738" lon="12.864617">
 <ele>755.96</ele>
 <time>2010-06-24T13:55:11Z</time>
 </trkpt>
 <trkpt lat="47.281605" lon="12.864902">
 <ele>757.33</ele>
 <time>2010-06-24T13:55:17Z</time>
 </trkpt>
 <trkpt lat="47.281567" lon="12.864982">
 <ele>757.84</ele>
 <time>2010-06-24T13:55:19Z</time>
 </trkpt>
 <trkpt lat="47.281544" lon="12.865366">
 <ele>760.14</ele>
 <time>2010-06-24T13:55:28Z</time>
 </trkpt>
 <trkpt lat="47.281555" lon="12.865683">
 <ele>761.78</ele>
 <time>2010-06-24T13:55:36Z</time>
 </trkpt>
 <trkpt lat="47.281570" lon="12.865986">
 <ele>763.34</ele>
 <time>2010-06-24T13:55:44Z</time>
 </trkpt>
 <trkpt lat="47.281578" lon="12.866143">
 <ele>764.11</ele>
 <time>2010-06-24T13:55:49Z</time>
 </trkpt>
 <trkpt lat="47.281601" lon="12.866320">
 <ele>764.45</ele>
 <time>2010-06-24T13:55:55Z</time>
 </trkpt>
 <trkpt lat="47.281658" lon="12.866733">
 <ele>766.29</ele>
 <time>2010-06-24T13:56:05Z</time>
 </trkpt>
 <trkpt lat="47.281704" lon="12.867097">
 <ele>767.92</ele>
 <time>2010-06-24T13:56:14Z</time>
 </trkpt>
 <trkpt lat="47.281754" lon="12.867463">
 <ele>770.28</ele>
 <time>2010-06-24T13:56:24Z</time>
 </trkpt>
 <trkpt lat="47.281792" lon="12.867748">
 <ele>772.30</ele>
 <time>2010-06-24T13:56:33Z</time>
 </trkpt>
 <trkpt lat="47.281826" lon="12.868000">
 <ele>773.42</ele>
 <time>2010-06-24T13:56:40Z</time>
 </trkpt>
 <trkpt lat="47.281872" lon="12.868304">
 <ele>774.95</ele>
 <time>2010-06-24T13:56:48Z</time>
 </trkpt>
 <trkpt lat="47.281914" lon="12.868598">
 <ele>776.05</ele>
 <time>2010-06-24T13:56:56Z</time>
 </trkpt>
 <trkpt lat="47.281956" lon="12.868869">
 <ele>776.71</ele>
 <time>2010-06-24T13:57:04Z</time>
 </trkpt>
 <trkpt lat="47.281998" lon="12.869162">
 <ele>776.85</ele>
 <time>2010-06-24T13:57:11Z</time>
 </trkpt>
 <trkpt lat="47.282005" lon="12.869215">
 <ele>776.72</ele>
 <time>2010-06-24T13:57:12Z</time>
 </trkpt>
 <trkpt lat="47.282040" lon="12.869449">
 <ele>776.26</ele>
 <time>2010-06-24T13:57:16Z</time>
 </trkpt>
 <trkpt lat="47.282101" lon="12.869855">
 <ele>776.67</ele>
 <time>2010-06-24T13:57:24Z</time>
 </trkpt>
 <trkpt lat="47.282158" lon="12.870182">
 <ele>775.64</ele>
 <time>2010-06-24T13:57:29Z</time>
 </trkpt>
 <trkpt lat="47.282242" lon="12.870683">
 <ele>773.27</ele>
 <time>2010-06-24T13:57:34Z</time>
 </trkpt>
 <trkpt lat="47.282291" lon="12.871063">
 <ele>771.18</ele>
 <time>2010-06-24T13:57:37Z</time>
 </trkpt>
 <trkpt lat="47.282333" lon="12.871645">
 <ele>768.69</ele>
 <time>2010-06-24T13:57:41Z</time>
 </trkpt>
 <trkpt lat="47.282440" lon="12.872399">
 <ele>766.01</ele>
 <time>2010-06-24T13:57:46Z</time>
 </trkpt>
 <trkpt lat="47.282482" lon="12.872678">
 <ele>766.39</ele>
 <time>2010-06-24T13:57:48Z</time>
 </trkpt>
 <trkpt lat="47.282768" lon="12.873601">
 <ele>765.89</ele>
 <time>2010-06-24T13:57:56Z</time>
 </trkpt>
 <trkpt lat="47.282864" lon="12.874098">
 <ele>765.07</ele>
 <time>2010-06-24T13:58:00Z</time>
 </trkpt>
 <trkpt lat="47.282970" lon="12.874528">
 <ele>763.19</ele>
 <time>2010-06-24T13:58:04Z</time>
 </trkpt>
 <trkpt lat="47.283089" lon="12.874675">
 <ele>761.91</ele>
 <time>2010-06-24T13:58:06Z</time>
 </trkpt>
 <trkpt lat="47.283302" lon="12.874858">
 <ele>760.53</ele>
 <time>2010-06-24T13:58:09Z</time>
 </trkpt>
 <trkpt lat="47.283569" lon="12.875183">
 <ele>759.97</ele>
 <time>2010-06-24T13:58:14Z</time>
 </trkpt>
 <trkpt lat="47.283619" lon="12.875248">
 <ele>759.64</ele>
 <time>2010-06-24T13:58:15Z</time>
 </trkpt>
 <trkpt lat="47.283817" lon="12.875422">
 <ele>757.15</ele>
 <time>2010-06-24T13:58:19Z</time>
 </trkpt>
 <trkpt lat="47.284065" lon="12.875632">
 <ele>753.53</ele>
 <time>2010-06-24T13:58:23Z</time>
 </trkpt>
 <trkpt lat="47.284222" lon="12.875772">
 <ele>751.43</ele>
 <time>2010-06-24T13:58:25Z</time>
 </trkpt>
 <trkpt lat="47.284481" lon="12.876180">
 <ele>749.18</ele>
 <time>2010-06-24T13:58:29Z</time>
 </trkpt>
 <trkpt lat="47.284676" lon="12.876908">
 <ele>748.78</ele>
 <time>2010-06-24T13:58:35Z</time>
 </trkpt>
 <trkpt lat="47.284836" lon="12.877554">
 <ele>748.45</ele>
 <time>2010-06-24T13:58:41Z</time>
 </trkpt>
 <trkpt lat="47.284859" lon="12.877658">
 <ele>748.54</ele>
 <time>2010-06-24T13:58:42Z</time>
 </trkpt>
 <trkpt lat="47.284950" lon="12.878235">
 <ele>747.88</ele>
 <time>2010-06-24T13:58:48Z</time>
 </trkpt>
 <trkpt lat="47.284988" lon="12.878591">
 <ele>748.04</ele>
 <time>2010-06-24T13:58:52Z</time>
 </trkpt>
 <trkpt lat="47.285118" lon="12.879225">
 <ele>747.73</ele>
 <time>2010-06-24T13:59:00Z</time>
 </trkpt>
 <trkpt lat="47.285282" lon="12.879706">
 <ele>748.03</ele>
 <time>2010-06-24T13:59:07Z</time>
 </trkpt>
 <trkpt lat="47.285553" lon="12.880502">
 <ele>747.65</ele>
 <time>2010-06-24T13:59:19Z</time>
 </trkpt>
 <trkpt lat="47.285748" lon="12.881076">
 <ele>747.75</ele>
 <time>2010-06-24T13:59:27Z</time>
 </trkpt>
 <trkpt lat="47.285854" lon="12.881649">
 <ele>747.49</ele>
 <time>2010-06-24T13:59:34Z</time>
 </trkpt>
 <trkpt lat="47.285961" lon="12.882283">
 <ele>747.49</ele>
 <time>2010-06-24T13:59:42Z</time>
 </trkpt>
 <trkpt lat="47.286125" lon="12.882806">
 <ele>747.55</ele>
 <time>2010-06-24T13:59:50Z</time>
 </trkpt>
 <trkpt lat="47.286221" lon="12.883050">
 <ele>747.86</ele>
 <time>2010-06-24T13:59:54Z</time>
 </trkpt>
 <trkpt lat="47.286510" lon="12.883383">
 <ele>747.43</ele>
 <time>2010-06-24T14:00:02Z</time>
 </trkpt>
 <trkpt lat="47.286591" lon="12.883468">
 <ele>747.33</ele>
 <time>2010-06-24T14:00:04Z</time>
 </trkpt>
 <trkpt lat="47.286755" lon="12.883645">
 <ele>747.17</ele>
 <time>2010-06-24T14:00:08Z</time>
 </trkpt>
 <trkpt lat="47.287025" lon="12.884317">
 <ele>747.29</ele>
 <time>2010-06-24T14:00:18Z</time>
 </trkpt>
 <trkpt lat="47.287235" lon="12.884976">
 <ele>747.39</ele>
 <time>2010-06-24T14:00:27Z</time>
 </trkpt>
 <trkpt lat="47.287376" lon="12.885491">
 <ele>747.11</ele>
 <time>2010-06-24T14:00:34Z</time>
 </trkpt>
 <trkpt lat="47.287487" lon="12.886022">
 <ele>746.96</ele>
 <time>2010-06-24T14:00:41Z</time>
 </trkpt>
 <trkpt lat="47.287506" lon="12.886649">
 <ele>746.96</ele>
 <time>2010-06-24T14:00:49Z</time>
 </trkpt>
 <trkpt lat="47.287510" lon="12.886881">
 <ele>747.00</ele>
 <time>2010-06-24T14:00:52Z</time>
 </trkpt>
 <trkpt lat="47.287518" lon="12.887181">
 <ele>746.56</ele>
 <time>2010-06-24T14:00:56Z</time>
 </trkpt>
 <trkpt lat="47.287510" lon="12.887575">
 <ele>746.81</ele>
 <time>2010-06-24T14:01:01Z</time>
 </trkpt>
 <trkpt lat="47.287498" lon="12.888183">
 <ele>747.03</ele>
 <time>2010-06-24T14:01:09Z</time>
 </trkpt>
 <trkpt lat="47.287491" lon="12.888648">
 <ele>747.23</ele>
 <time>2010-06-24T14:01:16Z</time>
 </trkpt>
 <trkpt lat="47.287479" lon="12.889091">
 <ele>746.95</ele>
 <time>2010-06-24T14:01:22Z</time>
 </trkpt>
 <trkpt lat="47.287468" lon="12.889681">
 <ele>746.60</ele>
 <time>2010-06-24T14:01:29Z</time>
 </trkpt>
 <trkpt lat="47.287464" lon="12.890014">
 <ele>746.67</ele>
 <time>2010-06-24T14:01:33Z</time>
 </trkpt>
 <trkpt lat="47.287457" lon="12.890314">
 <ele>746.71</ele>
 <time>2010-06-24T14:01:37Z</time>
 </trkpt>
 <trkpt lat="47.287453" lon="12.890523">
 <ele>747.24</ele>
 <time>2010-06-24T14:01:42Z</time>
 </trkpt>
 <trkpt lat="47.287498" lon="12.890744">
 <ele>747.34</ele>
 <time>2010-06-24T14:01:47Z</time>
 </trkpt>
 <trkpt lat="47.287514" lon="12.890805">
 <ele>747.17</ele>
 <time>2010-06-24T14:01:48Z</time>
 </trkpt>
 <trkpt lat="47.287548" lon="12.890937">
 <ele>747.40</ele>
 <time>2010-06-24T14:01:50Z</time>
 </trkpt>
 <trkpt lat="47.287659" lon="12.891327">
 <ele>747.79</ele>
 <time>2010-06-24T14:01:56Z</time>
 </trkpt>
 <trkpt lat="47.287704" lon="12.891798">
 <ele>749.39</ele>
 <time>2010-06-24T14:02:04Z</time>
 </trkpt>
 <trkpt lat="47.287674" lon="12.892114">
 <ele>751.14</ele>
 <time>2010-06-24T14:02:11Z</time>
 </trkpt>
 <trkpt lat="47.287689" lon="12.892414">
 <ele>752.64</ele>
 <time>2010-06-24T14:02:18Z</time>
 </trkpt>
 <trkpt lat="47.287655" lon="12.892665">
 <ele>754.02</ele>
 <time>2010-06-24T14:02:24Z</time>
 </trkpt>
 <trkpt lat="47.287632" lon="12.892803">
 <ele>754.92</ele>
 <time>2010-06-24T14:02:29Z</time>
 </trkpt>
 <trkpt lat="47.287670" lon="12.892933">
 <ele>754.40</ele>
 <time>2010-06-24T14:02:32Z</time>
 </trkpt>
 <trkpt lat="47.287956" lon="12.893123">
 <ele>751.35</ele>
 <time>2010-06-24T14:02:38Z</time>
 </trkpt>
 <trkpt lat="47.288116" lon="12.893195">
 <ele>749.95</ele>
 <time>2010-06-24T14:02:41Z</time>
 </trkpt>
 <trkpt lat="47.288303" lon="12.893328">
 <ele>747.63</ele>
 <time>2010-06-24T14:02:45Z</time>
 </trkpt>
 <trkpt lat="47.288399" lon="12.893745">
 <ele>745.28</ele>
 <time>2010-06-24T14:02:50Z</time>
 </trkpt>
 <trkpt lat="47.288460" lon="12.894389">
 <ele>744.10</ele>
 <time>2010-06-24T14:02:57Z</time>
 </trkpt>
 <trkpt lat="47.288467" lon="12.894567">
 <ele>743.85</ele>
 <time>2010-06-24T14:02:59Z</time>
 </trkpt>
 <trkpt lat="47.288467" lon="12.895244">
 <ele>742.59</ele>
 <time>2010-06-24T14:03:07Z</time>
 </trkpt>
 <trkpt lat="47.288425" lon="12.895720">
 <ele>742.32</ele>
 <time>2010-06-24T14:03:13Z</time>
 </trkpt>
 <trkpt lat="47.288353" lon="12.896218">
 <ele>741.76</ele>
 <time>2010-06-24T14:03:20Z</time>
 </trkpt>
 <trkpt lat="47.288334" lon="12.896354">
 <ele>741.74</ele>
 <time>2010-06-24T14:03:22Z</time>
 </trkpt>
 <trkpt lat="47.288258" lon="12.896867">
 <ele>741.15</ele>
 <time>2010-06-24T14:03:29Z</time>
 </trkpt>
 <trkpt lat="47.288139" lon="12.897469">
 <ele>741.11</ele>
 <time>2010-06-24T14:03:38Z</time>
 </trkpt>
 <trkpt lat="47.288013" lon="12.898093">
 <ele>740.93</ele>
 <time>2010-06-24T14:03:47Z</time>
 </trkpt>
 <trkpt lat="47.287895" lon="12.898688">
 <ele>740.77</ele>
 <time>2010-06-24T14:03:55Z</time>
 </trkpt>
 <trkpt lat="47.287766" lon="12.899382">
 <ele>740.86</ele>
 <time>2010-06-24T14:04:04Z</time>
 </trkpt>
 <trkpt lat="47.287682" lon="12.899910">
 <ele>740.68</ele>
 <time>2010-06-24T14:04:11Z</time>
 </trkpt>
 <trkpt lat="47.287659" lon="12.900062">
 <ele>740.49</ele>
 <time>2010-06-24T14:04:15Z</time>
 </trkpt>
 <trkpt lat="47.287605" lon="12.900394">
 <ele>740.73</ele>
 <time>2010-06-24T14:04:21Z</time>
 </trkpt>
 <trkpt lat="47.287571" lon="12.900765">
 <ele>740.78</ele>
 <time>2010-06-24T14:04:27Z</time>
 </trkpt>
 <trkpt lat="47.287548" lon="12.901033">
 <ele>741.03</ele>
 <time>2010-06-24T14:04:32Z</time>
 </trkpt>
 <trkpt lat="47.287529" lon="12.901228">
 <ele>741.00</ele>
 <time>2010-06-24T14:04:37Z</time>
 </trkpt>
 <trkpt lat="47.287514" lon="12.901406">
 <ele>741.83</ele>
 <time>2010-06-24T14:04:42Z</time>
 </trkpt>
 <trkpt lat="47.287502" lon="12.901651">
 <ele>741.98</ele>
 <time>2010-06-24T14:04:48Z</time>
 </trkpt>
 <trkpt lat="47.287533" lon="12.901953">
 <ele>740.95</ele>
 <time>2010-06-24T14:04:53Z</time>
 </trkpt>
 <trkpt lat="47.287563" lon="12.902266">
 <ele>740.77</ele>
 <time>2010-06-24T14:04:58Z</time>
 </trkpt>
 <trkpt lat="47.287567" lon="12.902325">
 <ele>740.71</ele>
 <time>2010-06-24T14:04:59Z</time>
 </trkpt>
 <trkpt lat="47.287609" lon="12.902748">
 <ele>740.63</ele>
 <time>2010-06-24T14:05:06Z</time>
 </trkpt>
 <trkpt lat="47.287663" lon="12.903321">
 <ele>740.54</ele>
 <time>2010-06-24T14:05:15Z</time>
 </trkpt>
 <trkpt lat="47.287685" lon="12.903566">
 <ele>740.36</ele>
 <time>2010-06-24T14:05:19Z</time>
 </trkpt>
 <trkpt lat="47.287697" lon="12.903692">
 <ele>740.41</ele>
 <time>2010-06-24T14:05:21Z</time>
 </trkpt>
 <trkpt lat="47.287724" lon="12.904000">
 <ele>740.23</ele>
 <time>2010-06-24T14:05:26Z</time>
 </trkpt>
 <trkpt lat="47.287766" lon="12.904554">
 <ele>740.16</ele>
 <time>2010-06-24T14:05:35Z</time>
 </trkpt>
 <trkpt lat="47.287811" lon="12.904922">
 <ele>740.33</ele>
 <time>2010-06-24T14:05:41Z</time>
 </trkpt>
 <trkpt lat="47.287872" lon="12.905358">
 <ele>740.22</ele>
 <time>2010-06-24T14:05:48Z</time>
 </trkpt>
 <trkpt lat="47.287941" lon="12.905879">
 <ele>740.19</ele>
 <time>2010-06-24T14:05:56Z</time>
 </trkpt>
 <trkpt lat="47.287994" lon="12.906311">
 <ele>739.97</ele>
 <time>2010-06-24T14:06:03Z</time>
 </trkpt>
 <trkpt lat="47.288036" lon="12.906668">
 <ele>740.24</ele>
 <time>2010-06-24T14:06:10Z</time>
 </trkpt>
 <trkpt lat="47.288063" lon="12.906884">
 <ele>740.38</ele>
 <time>2010-06-24T14:06:16Z</time>
 </trkpt>
 <trkpt lat="47.288086" lon="12.907083">
 <ele>740.32</ele>
 <time>2010-06-24T14:06:22Z</time>
 </trkpt>
 <trkpt lat="47.288116" lon="12.907398">
 <ele>740.66</ele>
 <time>2010-06-24T14:06:28Z</time>
 </trkpt>
 <trkpt lat="47.288105" lon="12.907755">
 <ele>740.54</ele>
 <time>2010-06-24T14:06:34Z</time>
 </trkpt>
 <trkpt lat="47.288090" lon="12.908205">
 <ele>740.35</ele>
 <time>2010-06-24T14:06:41Z</time>
 </trkpt>
 <trkpt lat="47.288048" lon="12.908703">
 <ele>740.01</ele>
 <time>2010-06-24T14:06:49Z</time>
 </trkpt>
 <trkpt lat="47.287968" lon="12.909181">
 <ele>739.83</ele>
 <time>2010-06-24T14:06:57Z</time>
 </trkpt>
 <trkpt lat="47.287895" lon="12.909606">
 <ele>739.98</ele>
 <time>2010-06-24T14:07:05Z</time>
 </trkpt>
 <trkpt lat="47.287857" lon="12.909837">
 <ele>740.14</ele>
 <time>2010-06-24T14:07:11Z</time>
 </trkpt>
 <trkpt lat="47.287842" lon="12.909916">
 <ele>740.07</ele>
 <time>2010-06-24T14:07:13Z</time>
 </trkpt>
 <trkpt lat="47.287777" lon="12.910298">
 <ele>740.36</ele>
 <time>2010-06-24T14:07:20Z</time>
 </trkpt>
 <trkpt lat="47.287769" lon="12.910353">
 <ele>740.43</ele>
 <time>2010-06-24T14:07:21Z</time>
 </trkpt>
 <trkpt lat="47.287674" lon="12.910839">
 <ele>740.51</ele>
 <time>2010-06-24T14:07:30Z</time>
 </trkpt>
 <trkpt lat="47.287655" lon="12.910949">
 <ele>740.50</ele>
 <time>2010-06-24T14:07:32Z</time>
 </trkpt>
 <trkpt lat="47.287598" lon="12.911349">
 <ele>740.79</ele>
 <time>2010-06-24T14:07:39Z</time>
 </trkpt>
 <trkpt lat="47.287586" lon="12.911841">
 <ele>740.82</ele>
 <time>2010-06-24T14:07:48Z</time>
 </trkpt>
 <trkpt lat="47.287575" lon="12.912276">
 <ele>740.68</ele>
 <time>2010-06-24T14:07:56Z</time>
 </trkpt>
 <trkpt lat="47.287563" lon="12.912635">
 <ele>740.78</ele>
 <time>2010-06-24T14:08:03Z</time>
 </trkpt>
 <trkpt lat="47.287575" lon="12.913165">
 <ele>740.40</ele>
 <time>2010-06-24T14:08:12Z</time>
 </trkpt>
 <trkpt lat="47.287594" lon="12.913575">
 <ele>740.89</ele>
 <time>2010-06-24T14:08:19Z</time>
 </trkpt>
 <trkpt lat="47.287590" lon="12.913991">
 <ele>740.80</ele>
 <time>2010-06-24T14:08:26Z</time>
 </trkpt>
 <trkpt lat="47.287582" lon="12.914173">
 <ele>740.81</ele>
 <time>2010-06-24T14:08:29Z</time>
 </trkpt>
 <trkpt lat="47.287575" lon="12.914367">
 <ele>740.77</ele>
 <time>2010-06-24T14:08:32Z</time>
 </trkpt>
 <trkpt lat="47.287548" lon="12.914864">
 <ele>740.96</ele>
 <time>2010-06-24T14:08:40Z</time>
 </trkpt>
 <trkpt lat="47.287540" lon="12.914993">
 <ele>740.91</ele>
 <time>2010-06-24T14:08:42Z</time>
 </trkpt>
 <trkpt lat="47.287437" lon="12.915597">
 <ele>740.54</ele>
 <time>2010-06-24T14:08:51Z</time>
 </trkpt>
 <trkpt lat="47.287380" lon="12.915879">
 <ele>742.26</ele>
 <time>2010-06-24T14:08:56Z</time>
 </trkpt>
 <trkpt lat="47.287319" lon="12.916187">
 <ele>743.65</ele>
 <time>2010-06-24T14:09:02Z</time>
 </trkpt>
 <trkpt lat="47.287289" lon="12.916583">
 <ele>743.39</ele>
 <time>2010-06-24T14:09:09Z</time>
 </trkpt>
 <trkpt lat="47.287270" lon="12.917094">
 <ele>741.18</ele>
 <time>2010-06-24T14:09:15Z</time>
 </trkpt>
 <trkpt lat="47.287235" lon="12.917719">
 <ele>740.51</ele>
 <time>2010-06-24T14:09:23Z</time>
 </trkpt>
 <trkpt lat="47.287228" lon="12.917863">
 <ele>740.58</ele>
 <time>2010-06-24T14:09:25Z</time>
 </trkpt>
 <trkpt lat="47.287209" lon="12.918235">
 <ele>740.70</ele>
 <time>2010-06-24T14:09:30Z</time>
 </trkpt>
 <trkpt lat="47.287193" lon="12.918499">
 <ele>740.64</ele>
 <time>2010-06-24T14:09:34Z</time>
 </trkpt>
 <trkpt lat="47.287186" lon="12.918884">
 <ele>740.67</ele>
 <time>2010-06-24T14:09:41Z</time>
 </trkpt>
 <trkpt lat="47.287186" lon="12.919023">
 <ele>740.71</ele>
 <time>2010-06-24T14:09:46Z</time>
 </trkpt>
 <trkpt lat="47.287182" lon="12.919061">
 <ele>740.65</ele>
 <time>2010-06-24T14:09:48Z</time>
 </trkpt>
 <trkpt lat="47.287182" lon="12.919150">
 <ele>740.24</ele>
 <time>2010-06-24T14:09:55Z</time>
 </trkpt>
 <trkpt lat="47.287182" lon="12.919150">
 <ele>740.54</ele>
 <time>2010-06-24T14:09:58Z</time>
 </trkpt>
 <trkpt lat="47.287182" lon="12.919150">
 <ele>740.10</ele>
 <time>2010-06-24T14:10:20Z</time>
 </trkpt>
 <trkpt lat="47.287182" lon="12.919150">
 <ele>740.14</ele>
 <time>2010-06-24T14:10:21Z</time>
 </trkpt>
 <trkpt lat="47.287182" lon="12.919163">
 <ele>740.22</ele>
 <time>2010-06-24T14:10:27Z</time>
 </trkpt>
 <trkpt lat="47.287182" lon="12.919198">
 <ele>740.25</ele>
 <time>2010-06-24T14:10:31Z</time>
 </trkpt>
 <trkpt lat="47.287159" lon="12.919627">
 <ele>740.52</ele>
 <time>2010-06-24T14:10:39Z</time>
 </trkpt>
 <trkpt lat="47.287106" lon="12.919963">
 <ele>740.96</ele>
 <time>2010-06-24T14:10:45Z</time>
 </trkpt>
 <trkpt lat="47.287094" lon="12.920023">
 <ele>740.97</ele>
 <time>2010-06-24T14:10:46Z</time>
 </trkpt>
 <trkpt lat="47.287064" lon="12.920209">
 <ele>740.89</ele>
 <time>2010-06-24T14:10:49Z</time>
 </trkpt>
 <trkpt lat="47.287033" lon="12.920397">
 <ele>740.86</ele>
 <time>2010-06-24T14:10:52Z</time>
 </trkpt>
 <trkpt lat="47.286991" lon="12.920746">
 <ele>741.00</ele>
 <time>2010-06-24T14:10:58Z</time>
 </trkpt>
 <trkpt lat="47.286983" lon="12.920906">
 <ele>740.79</ele>
 <time>2010-06-24T14:11:03Z</time>
 </trkpt>
 <trkpt lat="47.287018" lon="12.921054">
 <ele>740.27</ele>
 <time>2010-06-24T14:11:05Z</time>
 </trkpt>
 <trkpt lat="47.287102" lon="12.921276">
 <ele>738.46</ele>
 <time>2010-06-24T14:11:09Z</time>
 </trkpt>
 <trkpt lat="47.287132" lon="12.921387">
 <ele>737.75</ele>
 <time>2010-06-24T14:11:11Z</time>
 </trkpt>
 <trkpt lat="47.287125" lon="12.921950">
 <ele>737.26</ele>
 <time>2010-06-24T14:11:19Z</time>
 </trkpt>
 <trkpt lat="47.287090" lon="12.922293">
 <ele>737.61</ele>
 <time>2010-06-24T14:11:25Z</time>
 </trkpt>
 <trkpt lat="47.287003" lon="12.922666">
 <ele>738.24</ele>
 <time>2010-06-24T14:11:32Z</time>
 </trkpt>
 <trkpt lat="47.286949" lon="12.922885">
 <ele>738.55</ele>
 <time>2010-06-24T14:11:37Z</time>
 </trkpt>
 <trkpt lat="47.286907" lon="12.923070">
 <ele>739.83</ele>
 <time>2010-06-24T14:11:43Z</time>
 </trkpt>
 <trkpt lat="47.286858" lon="12.923274">
 <ele>741.44</ele>
 <time>2010-06-24T14:11:51Z</time>
 </trkpt>
 <trkpt lat="47.286819" lon="12.923435">
 <ele>743.47</ele>
 <time>2010-06-24T14:11:58Z</time>
 </trkpt>
 <trkpt lat="47.286777" lon="12.923628">
 <ele>745.43</ele>
 <time>2010-06-24T14:12:06Z</time>
 </trkpt>
 <trkpt lat="47.286751" lon="12.923782">
 <ele>746.75</ele>
 <time>2010-06-24T14:12:12Z</time>
 </trkpt>
 <trkpt lat="47.286724" lon="12.923960">
 <ele>748.59</ele>
 <time>2010-06-24T14:12:19Z</time>
 </trkpt>
 <trkpt lat="47.286766" lon="12.924192">
 <ele>750.04</ele>
 <time>2010-06-24T14:12:27Z</time>
 </trkpt>
 <trkpt lat="47.286816" lon="12.924462">
 <ele>752.38</ele>
 <time>2010-06-24T14:12:37Z</time>
 </trkpt>
 <trkpt lat="47.286861" lon="12.924718">
 <ele>754.30</ele>
 <time>2010-06-24T14:12:47Z</time>
 </trkpt>
 <trkpt lat="47.286888" lon="12.924941">
 <ele>756.13</ele>
 <time>2010-06-24T14:12:55Z</time>
 </trkpt>
 <trkpt lat="47.286911" lon="12.925163">
 <ele>757.38</ele>
 <time>2010-06-24T14:13:03Z</time>
 </trkpt>
 <trkpt lat="47.286995" lon="12.925369">
 <ele>757.86</ele>
 <time>2010-06-24T14:13:11Z</time>
 </trkpt>
 <trkpt lat="47.287064" lon="12.925520">
 <ele>757.78</ele>
 <time>2010-06-24T14:13:17Z</time>
 </trkpt>
 <trkpt lat="47.287052" lon="12.925698">
 <ele>758.40</ele>
 <time>2010-06-24T14:13:23Z</time>
 </trkpt>
 <trkpt lat="47.287048" lon="12.925782">
 <ele>758.64</ele>
 <time>2010-06-24T14:13:26Z</time>
 </trkpt>
 <trkpt lat="47.287045" lon="12.925844">
 <ele>758.83</ele>
 <time>2010-06-24T14:13:30Z</time>
 </trkpt>
 <trkpt lat="47.286880" lon="12.925990">
 <ele>759.99</ele>
 <time>2010-06-24T14:13:40Z</time>
 </trkpt>
 <trkpt lat="47.286854" lon="12.926016">
 <ele>759.99</ele>
 <time>2010-06-24T14:13:42Z</time>
 </trkpt>
 <trkpt lat="47.286812" lon="12.926119">
 <ele>760.29</ele>
 <time>2010-06-24T14:13:47Z</time>
 </trkpt>
 <trkpt lat="47.286766" lon="12.926231">
 <ele>762.23</ele>
 <time>2010-06-24T14:13:57Z</time>
 </trkpt>
 <trkpt lat="47.286732" lon="12.926722">
 <ele>763.50</ele>
 <time>2010-06-24T14:14:06Z</time>
 </trkpt>
 <trkpt lat="47.286713" lon="12.927004">
 <ele>764.08</ele>
 <time>2010-06-24T14:14:13Z</time>
 </trkpt>
 <trkpt lat="47.286674" lon="12.927532">
 <ele>765.25</ele>
 <time>2010-06-24T14:14:24Z</time>
 </trkpt>
 <trkpt lat="47.286640" lon="12.928009">
 <ele>767.10</ele>
 <time>2010-06-24T14:14:34Z</time>
 </trkpt>
 <trkpt lat="47.286613" lon="12.928410">
 <ele>768.65</ele>
 <time>2010-06-24T14:14:43Z</time>
 </trkpt>
 <trkpt lat="47.286587" lon="12.928779">
 <ele>769.28</ele>
 <time>2010-06-24T14:14:53Z</time>
 </trkpt>
 <trkpt lat="47.286568" lon="12.929065">
 <ele>770.51</ele>
 <time>2010-06-24T14:15:02Z</time>
 </trkpt>
 <trkpt lat="47.286556" lon="12.929251">
 <ele>770.42</ele>
 <time>2010-06-24T14:15:09Z</time>
 </trkpt>
 <trkpt lat="47.286530" lon="12.929312">
 <ele>769.65</ele>
 <time>2010-06-24T14:15:14Z</time>
 </trkpt>
 <trkpt lat="47.286358" lon="12.929411">
 <ele>767.41</ele>
 <time>2010-06-24T14:15:20Z</time>
 </trkpt>
 <trkpt lat="47.286163" lon="12.929529">
 <ele>765.22</ele>
 <time>2010-06-24T14:15:26Z</time>
 </trkpt>
 <trkpt lat="47.286018" lon="12.929679">
 <ele>763.61</ele>
 <time>2010-06-24T14:15:31Z</time>
 </trkpt>
 <trkpt lat="47.285889" lon="12.929940">
 <ele>762.48</ele>
 <time>2010-06-24T14:15:37Z</time>
 </trkpt>
 <trkpt lat="47.285908" lon="12.930072">
 <ele>761.42</ele>
 <time>2010-06-24T14:15:42Z</time>
 </trkpt>
 <trkpt lat="47.285931" lon="12.930068">
 <ele>761.14</ele>
 <time>2010-06-24T14:15:44Z</time>
 </trkpt>
 <trkpt lat="47.286125" lon="12.930038">
 <ele>758.28</ele>
 <time>2010-06-24T14:15:50Z</time>
 </trkpt>
 <trkpt lat="47.286274" lon="12.930040">
 <ele>757.01</ele>
 <time>2010-06-24T14:15:53Z</time>
 </trkpt>
 <trkpt lat="47.286510" lon="12.930071">
 <ele>755.16</ele>
 <time>2010-06-24T14:15:57Z</time>
 </trkpt>
 <trkpt lat="47.286613" lon="12.930084">
 <ele>754.74</ele>
 <time>2010-06-24T14:15:59Z</time>
 </trkpt>
 <trkpt lat="47.286880" lon="12.930252">
 <ele>753.16</ele>
 <time>2010-06-24T14:16:05Z</time>
 </trkpt>
 <trkpt lat="47.286999" lon="12.930347">
 <ele>752.10</ele>
 <time>2010-06-24T14:16:08Z</time>
 </trkpt>
 <trkpt lat="47.287148" lon="12.930482">
 <ele>750.36</ele>
 <time>2010-06-24T14:16:12Z</time>
 </trkpt>
 <trkpt lat="47.287357" lon="12.930735">
 <ele>747.95</ele>
 <time>2010-06-24T14:16:18Z</time>
 </trkpt>
 <trkpt lat="47.287502" lon="12.930911">
 <ele>745.95</ele>
 <time>2010-06-24T14:16:22Z</time>
 </trkpt>
 <trkpt lat="47.287518" lon="12.930930">
 <ele>743.78</ele>
 <time>2010-06-24T14:16:26Z</time>
 </trkpt>
 <trkpt lat="47.287766" lon="12.931398">
 <ele>740.93</ele>
 <time>2010-06-24T14:16:32Z</time>
 </trkpt>
 <trkpt lat="47.287891" lon="12.931631">
 <ele>738.86</ele>
 <time>2010-06-24T14:16:39Z</time>
 </trkpt>
 <trkpt lat="47.287895" lon="12.931668">
 <ele>738.59</ele>
 <time>2010-06-24T14:16:40Z</time>
 </trkpt>
 <trkpt lat="47.287899" lon="12.931689">
 <ele>738.06</ele>
 <time>2010-06-24T14:16:44Z</time>
 </trkpt>
 <trkpt lat="47.287895" lon="12.931655">
 <ele>737.80</ele>
 <time>2010-06-24T14:16:45Z</time>
 </trkpt>
 <trkpt lat="47.287830" lon="12.931495">
 <ele>736.35</ele>
 <time>2010-06-24T14:16:50Z</time>
 </trkpt>
 <trkpt lat="47.287849" lon="12.931522">
 <ele>735.17</ele>
 <time>2010-06-24T14:16:53Z</time>
 </trkpt>
 <trkpt lat="47.287868" lon="12.931551">
 <ele>734.81</ele>
 <time>2010-06-24T14:16:54Z</time>
 </trkpt>
 <trkpt lat="47.288399" lon="12.931274">
 <ele>732.67</ele>
 <time>2010-06-24T14:16:59Z</time>
 </trkpt>
 <trkpt lat="47.287884" lon="12.931574">
 <ele>730.58</ele>
 <time>2010-06-24T14:17:04Z</time>
 </trkpt>
 <trkpt lat="47.287891" lon="12.931634">
 <ele>730.40</ele>
 <time>2010-06-24T14:17:10Z</time>
 </trkpt>
 <trkpt lat="47.287895" lon="12.931671">
 <ele>730.67</ele>
 <time>2010-06-24T14:17:15Z</time>
 </trkpt>
 <trkpt lat="47.289154" lon="12.931681">
 <ele>730.08</ele>
 <time>2010-06-24T14:17:21Z</time>
 </trkpt>
 <trkpt lat="47.289158" lon="12.931646">
 <ele>731.32</ele>
 <time>2010-06-24T14:17:29Z</time>
 </trkpt>
 <trkpt lat="47.289158" lon="12.931646">
 <ele>732.33</ele>
 <time>2010-06-24T14:17:34Z</time>
 </trkpt>
 <trkpt lat="47.289158" lon="12.931646">
 <ele>733.66</ele>
 <time>2010-06-24T14:17:39Z</time>
 </trkpt>
 <trkpt lat="47.289158" lon="12.931646">
 <ele>734.71</ele>
 <time>2010-06-24T14:17:42Z</time>
 </trkpt>
 <trkpt lat="47.289158" lon="12.931646">
 <ele>735.50</ele>
 <time>2010-06-24T14:17:46Z</time>
 </trkpt>
 <trkpt lat="47.289158" lon="12.931646">
 <ele>735.69</ele>
 <time>2010-06-24T14:17:47Z</time>
 </trkpt>
 <trkpt lat="47.289158" lon="12.931646">
 <ele>737.01</ele>
 <time>2010-06-24T14:17:55Z</time>
 </trkpt>
 <trkpt lat="47.289158" lon="12.931646">
 <ele>737.25</ele>
 <time>2010-06-24T14:17:56Z</time>
 </trkpt>
 <trkpt lat="47.289158" lon="12.931646">
 <ele>737.44</ele>
 <time>2010-06-24T14:17:57Z</time>
 </trkpt>
 <trkpt lat="47.289001" lon="12.931192">
 <ele>737.81</ele>
 <time>2010-06-24T14:18:06Z</time>
 </trkpt>
 <trkpt lat="47.289055" lon="12.931220">
 <ele>738.59</ele>
 <time>2010-06-24T14:18:14Z</time>
 </trkpt>
 <trkpt lat="47.289085" lon="12.931237">
 <ele>740.59</ele>
 <time>2010-06-24T14:18:22Z</time>
 </trkpt>
 <trkpt lat="47.289101" lon="12.931267">
 <ele>740.95</ele>
 <time>2010-06-24T14:18:28Z</time>
 </trkpt>
 <trkpt lat="47.289101" lon="12.931273">
 <ele>740.66</ele>
 <time>2010-06-24T14:18:30Z</time>
 </trkpt>
 <trkpt lat="47.289169" lon="12.931596">
 <ele>740.01</ele>
 <time>2010-06-24T14:18:39Z</time>
 </trkpt>
 <trkpt lat="47.289135" lon="12.931780">
 <ele>740.49</ele>
 <time>2010-06-24T14:18:44Z</time>
 </trkpt>
 <trkpt lat="47.289116" lon="12.931888">
 <ele>741.00</ele>
 <time>2010-06-24T14:18:50Z</time>
 </trkpt>
 <trkpt lat="47.289093" lon="12.932010">
 <ele>740.67</ele>
 <time>2010-06-24T14:18:55Z</time>
 </trkpt>
 <trkpt lat="47.289085" lon="12.932269">
 <ele>740.35</ele>
 <time>2010-06-24T14:19:01Z</time>
 </trkpt>
 <trkpt lat="47.289085" lon="12.932286">
 <ele>740.79</ele>
 <time>2010-06-24T14:19:04Z</time>
 </trkpt>
 <trkpt lat="47.289085" lon="12.932439">
 <ele>739.56</ele>
 <time>2010-06-24T14:19:11Z</time>
 </trkpt>
 <trkpt lat="47.289085" lon="12.932546">
 <ele>739.34</ele>
 <time>2010-06-24T14:19:13Z</time>
 </trkpt>
 <trkpt lat="47.289108" lon="12.932904">
 <ele>739.02</ele>
 <time>2010-06-24T14:19:19Z</time>
 </trkpt>
 <trkpt lat="47.289127" lon="12.933049">
 <ele>739.39</ele>
 <time>2010-06-24T14:19:22Z</time>
 </trkpt>
 <trkpt lat="47.289242" lon="12.933523">
 <ele>740.25</ele>
 <time>2010-06-24T14:19:30Z</time>
 </trkpt>
 <trkpt lat="47.289337" lon="12.933871">
 <ele>740.12</ele>
 <time>2010-06-24T14:19:36Z</time>
 </trkpt>
 <trkpt lat="47.289482" lon="12.934273">
 <ele>739.36</ele>
 <time>2010-06-24T14:19:42Z</time>
 </trkpt>
 <trkpt lat="47.289593" lon="12.934494">
 <ele>738.31</ele>
 <time>2010-06-24T14:19:45Z</time>
 </trkpt>
 <trkpt lat="47.289730" lon="12.934735">
 <ele>737.41</ele>
 <time>2010-06-24T14:19:49Z</time>
 </trkpt>
 <trkpt lat="47.289837" lon="12.934858">
 <ele>737.56</ele>
 <time>2010-06-24T14:19:54Z</time>
 </trkpt>
 <trkpt lat="47.290131" lon="12.935197">
 <ele>736.57</ele>
 <time>2010-06-24T14:20:02Z</time>
 </trkpt>
 <trkpt lat="47.290451" lon="12.935549">
 <ele>735.38</ele>
 <time>2010-06-24T14:20:09Z</time>
 </trkpt>
 <trkpt lat="47.290787" lon="12.935896">
 <ele>733.88</ele>
 <time>2010-06-24T14:20:15Z</time>
 </trkpt>
 <trkpt lat="47.291142" lon="12.936319">
 <ele>731.26</ele>
 <time>2010-06-24T14:20:21Z</time>
 </trkpt>
 <trkpt lat="47.291367" lon="12.936622">
 <ele>730.25</ele>
 <time>2010-06-24T14:20:25Z</time>
 </trkpt>
 <trkpt lat="47.291424" lon="12.936700">
 <ele>730.10</ele>
 <time>2010-06-24T14:20:26Z</time>
 </trkpt>
 <trkpt lat="47.291687" lon="12.937069">
 <ele>729.37</ele>
 <time>2010-06-24T14:20:31Z</time>
 </trkpt>
 <trkpt lat="47.291843" lon="12.937558">
 <ele>727.69</ele>
 <time>2010-06-24T14:20:37Z</time>
 </trkpt>
 <trkpt lat="47.291969" lon="12.938055">
 <ele>726.23</ele>
 <time>2010-06-24T14:20:42Z</time>
 </trkpt>
 <trkpt lat="47.292080" lon="12.938595">
 <ele>724.47</ele>
 <time>2010-06-24T14:20:47Z</time>
 </trkpt>
 <trkpt lat="47.292152" lon="12.939251">
 <ele>723.18</ele>
 <time>2010-06-24T14:20:53Z</time>
 </trkpt>
 <trkpt lat="47.292217" lon="12.940046">
 <ele>722.24</ele>
 <time>2010-06-24T14:21:00Z</time>
 </trkpt>
 <trkpt lat="47.292309" lon="12.941169">
 <ele>720.67</ele>
 <time>2010-06-24T14:21:10Z</time>
 </trkpt>
 <trkpt lat="47.292381" lon="12.942012">
 <ele>720.27</ele>
 <time>2010-06-24T14:21:18Z</time>
 </trkpt>
 <trkpt lat="47.292473" lon="12.943023">
 <ele>720.16</ele>
 <time>2010-06-24T14:21:28Z</time>
 </trkpt>
 <trkpt lat="47.292542" lon="12.943617">
 <ele>720.02</ele>
 <time>2010-06-24T14:21:35Z</time>
 </trkpt>
 <trkpt lat="47.292599" lon="12.943994">
 <ele>719.81</ele>
 <time>2010-06-24T14:21:41Z</time>
 </trkpt>
 <trkpt lat="47.292713" lon="12.944391">
 <ele>717.79</ele>
 <time>2010-06-24T14:21:47Z</time>
 </trkpt>
 <trkpt lat="47.292751" lon="12.944525">
 <ele>717.42</ele>
 <time>2010-06-24T14:21:51Z</time>
 </trkpt>
 <trkpt lat="47.292786" lon="12.944647">
 <ele>717.34</ele>
 <time>2010-06-24T14:21:55Z</time>
 </trkpt>
 <trkpt lat="47.292801" lon="12.944702">
 <ele>717.39</ele>
 <time>2010-06-24T14:21:56Z</time>
 </trkpt>
 <trkpt lat="47.292946" lon="12.945206">
 <ele>718.33</ele>
 <time>2010-06-24T14:22:05Z</time>
 </trkpt>
 <trkpt lat="47.292999" lon="12.945392">
 <ele>718.07</ele>
 <time>2010-06-24T14:22:08Z</time>
 </trkpt>
 <trkpt lat="47.293083" lon="12.945676">
 <ele>718.19</ele>
 <time>2010-06-24T14:22:13Z</time>
 </trkpt>
 <trkpt lat="47.293175" lon="12.945897">
 <ele>719.39</ele>
 <time>2010-06-24T14:22:19Z</time>
 </trkpt>
 <trkpt lat="47.293270" lon="12.946170">
 <ele>718.82</ele>
 <time>2010-06-24T14:22:24Z</time>
 </trkpt>
 <trkpt lat="47.293381" lon="12.946714">
 <ele>716.90</ele>
 <time>2010-06-24T14:22:31Z</time>
 </trkpt>
 <trkpt lat="47.293388" lon="12.946982">
 <ele>716.58</ele>
 <time>2010-06-24T14:22:37Z</time>
 </trkpt>
 <trkpt lat="47.293385" lon="12.947336">
 <ele>716.69</ele>
 <time>2010-06-24T14:22:45Z</time>
 </trkpt>
 <trkpt lat="47.293377" lon="12.947523">
 <ele>717.18</ele>
 <time>2010-06-24T14:22:51Z</time>
 </trkpt>
 <trkpt lat="47.293369" lon="12.947630">
 <ele>717.06</ele>
 <time>2010-06-24T14:22:56Z</time>
 </trkpt>
 <trkpt lat="47.293365" lon="12.947720">
 <ele>717.31</ele>
 <time>2010-06-24T14:23:00Z</time>
 </trkpt>
 <trkpt lat="47.292999" lon="12.947720">
 <ele>717.01</ele>
 <time>2010-06-24T14:23:06Z</time>
 </trkpt>
 <trkpt lat="47.293362" lon="12.947767">
 <ele>716.81</ele>
 <time>2010-06-24T14:23:09Z</time>
 </trkpt>
 <trkpt lat="47.293362" lon="12.947767">
 <ele>716.85</ele>
 <time>2010-06-24T14:23:18Z</time>
 </trkpt>
 </trkseg>
 </trk>
</gpx>
